<?xml version="1.0" encoding="UTF-8" standalone="no" ?>
<gpx xmlns="http://www.topografix.com/GPX/1/1" xmlns:xsi="http://www.w3.org/2001/XMLSchema-instance" xsi:schemaLocation="http://www.topografix.com/GPX/1/1 http://www.topografix.com/GPX/1/1/gpx.xsd" version="1.1" creator="VisuGPX - https://www.visugpx.com">
  <metadata>
    <name>Luchon Aneto Trail 2022  Oo Pyrenees sur TraceDeTrail.fr</name>
  </metadata>
  <trk>
    <name><![CDATA[Luchon Aneto Trail 2022  Oo Pyrenees sur TraceDeTrail.fr]]></name>
    <trkseg>
      <trkpt lat="42.78803" lon="0.59616">
        <ele>627</ele>
        <time>2000-01-01T01:39:55.000Z</time>
      </trkpt>
      <trkpt lat="42.78826" lon="0.59595">
        <ele>626</ele>
        <time>2000-01-01T01:40:05.000Z</time>
      </trkpt>
      <trkpt lat="42.78843" lon="0.59579">
        <ele>626</ele>
        <time>2000-01-01T01:40:15.000Z</time>
      </trkpt>
      <trkpt lat="42.7886" lon="0.59571">
        <ele>626.6</ele>
        <time>2000-01-01T01:40:25.000Z</time>
      </trkpt>
      <trkpt lat="42.78871" lon="0.59557">
        <ele>626</ele>
        <time>2000-01-01T01:40:35.000Z</time>
      </trkpt>
      <trkpt lat="42.78885" lon="0.5954">
        <ele>626</ele>
        <time>2000-01-01T01:40:45.000Z</time>
      </trkpt>
      <trkpt lat="42.78897" lon="0.59527">
        <ele>626</ele>
        <time>2000-01-01T01:40:55.000Z</time>
      </trkpt>
      <trkpt lat="42.78896" lon="0.59485">
        <ele>626</ele>
        <time>2000-01-01T01:41:05.000Z</time>
      </trkpt>
      <trkpt lat="42.78913" lon="0.59482">
        <ele>626</ele>
        <time>2000-01-01T01:41:15.000Z</time>
      </trkpt>
      <trkpt lat="42.7891" lon="0.59442">
        <ele>626</ele>
        <time>2000-01-01T01:41:25.000Z</time>
      </trkpt>
      <trkpt lat="42.78906" lon="0.59408">
        <ele>626</ele>
        <time>2000-01-01T01:41:35.000Z</time>
      </trkpt>
      <trkpt lat="42.78901" lon="0.59372">
        <ele>626</ele>
        <time>2000-01-01T01:41:45.000Z</time>
      </trkpt>
      <trkpt lat="42.78896" lon="0.59329">
        <ele>626</ele>
        <time>2000-01-01T01:41:55.000Z</time>
      </trkpt>
      <trkpt lat="42.78889" lon="0.59293">
        <ele>626</ele>
        <time>2000-01-01T01:42:05.000Z</time>
      </trkpt>
      <trkpt lat="42.78885" lon="0.59251">
        <ele>627</ele>
        <time>2000-01-01T01:42:15.000Z</time>
      </trkpt>
      <trkpt lat="42.7888" lon="0.59233">
        <ele>627.2</ele>
        <time>2000-01-01T01:42:25.000Z</time>
      </trkpt>
      <trkpt lat="42.78855" lon="0.59251">
        <ele>627</ele>
        <time>2000-01-01T01:42:35.000Z</time>
      </trkpt>
      <trkpt lat="42.78838" lon="0.59259">
        <ele>627.5</ele>
        <time>2000-01-01T01:42:45.000Z</time>
      </trkpt>
      <trkpt lat="42.78829" lon="0.59217">
        <ele>629</ele>
        <time>2000-01-01T01:42:55.000Z</time>
      </trkpt>
      <trkpt lat="42.78816" lon="0.59176">
        <ele>630</ele>
        <time>2000-01-01T01:43:05.000Z</time>
      </trkpt>
      <trkpt lat="42.78802" lon="0.59135">
        <ele>633</ele>
        <time>2000-01-01T01:43:15.000Z</time>
      </trkpt>
      <trkpt lat="42.78798" lon="0.59126">
        <ele>634.5</ele>
        <time>2000-01-01T01:43:25.000Z</time>
      </trkpt>
      <trkpt lat="42.78781" lon="0.5912">
        <ele>635</ele>
        <time>2000-01-01T01:43:35.000Z</time>
      </trkpt>
      <trkpt lat="42.78772" lon="0.59113">
        <ele>638</ele>
        <time>2000-01-01T01:43:45.000Z</time>
      </trkpt>
      <trkpt lat="42.78765" lon="0.59118">
        <ele>639.9</ele>
        <time>2000-01-01T01:43:55.000Z</time>
      </trkpt>
      <trkpt lat="42.7876" lon="0.59126">
        <ele>637</ele>
        <time>2000-01-01T01:44:05.000Z</time>
      </trkpt>
      <trkpt lat="42.78749" lon="0.59134">
        <ele>641.3</ele>
        <time>2000-01-01T01:44:15.000Z</time>
      </trkpt>
      <trkpt lat="42.78741" lon="0.59145">
        <ele>640</ele>
        <time>2000-01-01T01:44:25.000Z</time>
      </trkpt>
      <trkpt lat="42.78732" lon="0.59143">
        <ele>643.5</ele>
        <time>2000-01-01T01:44:35.000Z</time>
      </trkpt>
      <trkpt lat="42.7873" lon="0.59127">
        <ele>649</ele>
        <time>2000-01-01T01:44:45.000Z</time>
      </trkpt>
      <trkpt lat="42.78726" lon="0.59113">
        <ele>649.2</ele>
        <time>2000-01-01T01:44:55.000Z</time>
      </trkpt>
      <trkpt lat="42.78718" lon="0.59103">
        <ele>654</ele>
        <time>2000-01-01T01:45:05.000Z</time>
      </trkpt>
      <trkpt lat="42.78708" lon="0.591">
        <ele>654.3</ele>
        <time>2000-01-01T01:45:15.000Z</time>
      </trkpt>
      <trkpt lat="42.78697" lon="0.59099">
        <ele>660</ele>
        <time>2000-01-01T01:45:25.000Z</time>
      </trkpt>
      <trkpt lat="42.78665" lon="0.59089">
        <ele>670</ele>
        <time>2000-01-01T01:45:35.000Z</time>
      </trkpt>
      <trkpt lat="42.78642" lon="0.59089">
        <ele>675</ele>
        <time>2000-01-01T01:45:45.000Z</time>
      </trkpt>
      <trkpt lat="42.78627" lon="0.59088">
        <ele>677.1</ele>
        <time>2000-01-01T01:45:55.000Z</time>
      </trkpt>
      <trkpt lat="42.78617" lon="0.59083">
        <ele>683</ele>
        <time>2000-01-01T01:46:05.000Z</time>
      </trkpt>
      <trkpt lat="42.78602" lon="0.59063">
        <ele>692</ele>
        <time>2000-01-01T01:46:15.000Z</time>
      </trkpt>
      <trkpt lat="42.78594" lon="0.5905">
        <ele>692.4</ele>
        <time>2000-01-01T01:46:25.000Z</time>
      </trkpt>
      <trkpt lat="42.78591" lon="0.59043">
        <ele>694.4</ele>
        <time>2000-01-01T01:46:35.000Z</time>
      </trkpt>
      <trkpt lat="42.78582" lon="0.59031">
        <ele>700</ele>
        <time>2000-01-01T01:46:45.000Z</time>
      </trkpt>
      <trkpt lat="42.78575" lon="0.5902">
        <ele>704.9</ele>
        <time>2000-01-01T01:46:55.000Z</time>
      </trkpt>
      <trkpt lat="42.78568" lon="0.58994">
        <ele>705</ele>
        <time>2000-01-01T01:47:05.000Z</time>
      </trkpt>
      <trkpt lat="42.78574" lon="0.58989">
        <ele>714.1</ele>
        <time>2000-01-01T01:47:15.000Z</time>
      </trkpt>
      <trkpt lat="42.78588" lon="0.58991">
        <ele>706</ele>
        <time>2000-01-01T01:47:25.000Z</time>
      </trkpt>
      <trkpt lat="42.78601" lon="0.58989">
        <ele>710.8</ele>
        <time>2000-01-01T01:47:35.000Z</time>
      </trkpt>
      <trkpt lat="42.78611" lon="0.58992">
        <ele>708</ele>
        <time>2000-01-01T01:47:45.000Z</time>
      </trkpt>
      <trkpt lat="42.78626" lon="0.58994">
        <ele>704.3</ele>
        <time>2000-01-01T01:47:55.000Z</time>
      </trkpt>
      <trkpt lat="42.78639" lon="0.58988">
        <ele>706</ele>
        <time>2000-01-01T01:48:05.000Z</time>
      </trkpt>
      <trkpt lat="42.78648" lon="0.58981">
        <ele>704.7</ele>
        <time>2000-01-01T01:48:15.000Z</time>
      </trkpt>
      <trkpt lat="42.78665" lon="0.58964">
        <ele>708</ele>
        <time>2000-01-01T01:48:25.000Z</time>
      </trkpt>
      <trkpt lat="42.78674" lon="0.5895">
        <ele>705.2</ele>
        <time>2000-01-01T01:48:35.000Z</time>
      </trkpt>
      <trkpt lat="42.78683" lon="0.58938">
        <ele>711</ele>
        <time>2000-01-01T01:48:45.000Z</time>
      </trkpt>
      <trkpt lat="42.78692" lon="0.58922">
        <ele>711</ele>
        <time>2000-01-01T01:48:55.000Z</time>
      </trkpt>
      <trkpt lat="42.78702" lon="0.5891">
        <ele>708</ele>
        <time>2000-01-01T01:49:05.000Z</time>
      </trkpt>
      <trkpt lat="42.78722" lon="0.58891">
        <ele>708</ele>
        <time>2000-01-01T01:49:15.000Z</time>
      </trkpt>
      <trkpt lat="42.78732" lon="0.58879">
        <ele>704.4</ele>
        <time>2000-01-01T01:49:25.000Z</time>
      </trkpt>
      <trkpt lat="42.7874" lon="0.58868">
        <ele>708</ele>
        <time>2000-01-01T01:49:35.000Z</time>
      </trkpt>
      <trkpt lat="42.7875" lon="0.5886">
        <ele>702.4</ele>
        <time>2000-01-01T01:49:45.000Z</time>
      </trkpt>
      <trkpt lat="42.78766" lon="0.58838">
        <ele>708</ele>
        <time>2000-01-01T01:49:55.000Z</time>
      </trkpt>
      <trkpt lat="42.78786" lon="0.58818">
        <ele>708</ele>
        <time>2000-01-01T01:50:05.000Z</time>
      </trkpt>
      <trkpt lat="42.78796" lon="0.58811">
        <ele>703.3</ele>
        <time>2000-01-01T01:50:15.000Z</time>
      </trkpt>
      <trkpt lat="42.78804" lon="0.58801">
        <ele>708</ele>
        <time>2000-01-01T01:50:25.000Z</time>
      </trkpt>
      <trkpt lat="42.78816" lon="0.58794">
        <ele>703.6</ele>
        <time>2000-01-01T01:50:35.000Z</time>
      </trkpt>
      <trkpt lat="42.78838" lon="0.58777">
        <ele>708</ele>
        <time>2000-01-01T01:50:45.000Z</time>
      </trkpt>
      <trkpt lat="42.78847" lon="0.58767">
        <ele>700.3</ele>
        <time>2000-01-01T01:50:55.000Z</time>
      </trkpt>
      <trkpt lat="42.78854" lon="0.58755">
        <ele>704</ele>
        <time>2000-01-01T01:51:05.000Z</time>
      </trkpt>
      <trkpt lat="42.78863" lon="0.58742">
        <ele>699.6</ele>
        <time>2000-01-01T01:51:15.000Z</time>
      </trkpt>
      <trkpt lat="42.78873" lon="0.58733">
        <ele>700</ele>
        <time>2000-01-01T01:51:25.000Z</time>
      </trkpt>
      <trkpt lat="42.78884" lon="0.58727">
        <ele>693.8</ele>
        <time>2000-01-01T01:51:35.000Z</time>
      </trkpt>
      <trkpt lat="42.78892" lon="0.58721">
        <ele>698</ele>
        <time>2000-01-01T01:51:45.000Z</time>
      </trkpt>
      <trkpt lat="42.78893" lon="0.58727">
        <ele>689</ele>
        <time>2000-01-01T01:51:55.000Z</time>
      </trkpt>
      <trkpt lat="42.78897" lon="0.58716">
        <ele>690.4</ele>
        <time>2000-01-01T01:52:05.000Z</time>
      </trkpt>
      <trkpt lat="42.78907" lon="0.58706">
        <ele>696</ele>
        <time>2000-01-01T01:52:15.000Z</time>
      </trkpt>
      <trkpt lat="42.78934" lon="0.58689">
        <ele>689</ele>
        <time>2000-01-01T01:52:25.000Z</time>
      </trkpt>
      <trkpt lat="42.78959" lon="0.58687">
        <ele>679</ele>
        <time>2000-01-01T01:52:35.000Z</time>
      </trkpt>
      <trkpt lat="42.78971" lon="0.58684">
        <ele>669.6</ele>
        <time>2000-01-01T01:52:45.000Z</time>
      </trkpt>
      <trkpt lat="42.79006" lon="0.58668">
        <ele>667</ele>
        <time>2000-01-01T01:52:55.000Z</time>
      </trkpt>
      <trkpt lat="42.79017" lon="0.58662">
        <ele>663.6</ele>
        <time>2000-01-01T01:53:05.000Z</time>
      </trkpt>
      <trkpt lat="42.79039" lon="0.58654">
        <ele>664</ele>
        <time>2000-01-01T01:53:15.000Z</time>
      </trkpt>
      <trkpt lat="42.79053" lon="0.58659">
        <ele>659.7</ele>
        <time>2000-01-01T01:53:25.000Z</time>
      </trkpt>
      <trkpt lat="42.79078" lon="0.58661">
        <ele>657</ele>
        <time>2000-01-01T01:53:35.000Z</time>
      </trkpt>
      <trkpt lat="42.79088" lon="0.58659">
        <ele>656.1</ele>
        <time>2000-01-01T01:53:45.000Z</time>
      </trkpt>
      <trkpt lat="42.791" lon="0.58659">
        <ele>657</ele>
        <time>2000-01-01T01:53:55.000Z</time>
      </trkpt>
      <trkpt lat="42.79113" lon="0.58662">
        <ele>652.1</ele>
        <time>2000-01-01T01:54:05.000Z</time>
      </trkpt>
      <trkpt lat="42.79115" lon="0.58646">
        <ele>657</ele>
        <time>2000-01-01T01:54:15.000Z</time>
      </trkpt>
      <trkpt lat="42.79122" lon="0.58636">
        <ele>658.5</ele>
        <time>2000-01-01T01:54:25.000Z</time>
      </trkpt>
      <trkpt lat="42.79126" lon="0.58622">
        <ele>663</ele>
        <time>2000-01-01T01:54:35.000Z</time>
      </trkpt>
      <trkpt lat="42.79128" lon="0.58608">
        <ele>665.9</ele>
        <time>2000-01-01T01:54:45.000Z</time>
      </trkpt>
      <trkpt lat="42.79128" lon="0.5858">
        <ele>674</ele>
        <time>2000-01-01T01:54:55.000Z</time>
      </trkpt>
      <trkpt lat="42.79122" lon="0.58567">
        <ele>676.6</ele>
        <time>2000-01-01T01:55:05.000Z</time>
      </trkpt>
      <trkpt lat="42.79123" lon="0.58552">
        <ele>679</ele>
        <time>2000-01-01T01:55:15.000Z</time>
      </trkpt>
      <trkpt lat="42.79123" lon="0.58537">
        <ele>680.2</ele>
        <time>2000-01-01T01:55:25.000Z</time>
      </trkpt>
      <trkpt lat="42.79126" lon="0.58523">
        <ele>684</ele>
        <time>2000-01-01T01:55:35.000Z</time>
      </trkpt>
      <trkpt lat="42.79126" lon="0.58509">
        <ele>680.5</ele>
        <time>2000-01-01T01:55:45.000Z</time>
      </trkpt>
      <trkpt lat="42.79125" lon="0.58494">
        <ele>688</ele>
        <time>2000-01-01T01:55:55.000Z</time>
      </trkpt>
      <trkpt lat="42.79118" lon="0.58484">
        <ele>690.1</ele>
        <time>2000-01-01T01:56:05.000Z</time>
      </trkpt>
      <trkpt lat="42.7912" lon="0.58454">
        <ele>691</ele>
        <time>2000-01-01T01:56:15.000Z</time>
      </trkpt>
      <trkpt lat="42.79126" lon="0.58441">
        <ele>691.7</ele>
        <time>2000-01-01T01:56:25.000Z</time>
      </trkpt>
      <trkpt lat="42.79125" lon="0.58427">
        <ele>689</ele>
        <time>2000-01-01T01:56:35.000Z</time>
      </trkpt>
      <trkpt lat="42.79134" lon="0.58417">
        <ele>688.6</ele>
        <time>2000-01-01T01:56:45.000Z</time>
      </trkpt>
      <trkpt lat="42.79143" lon="0.58409">
        <ele>689</ele>
        <time>2000-01-01T01:56:55.000Z</time>
      </trkpt>
      <trkpt lat="42.79149" lon="0.58397">
        <ele>681.5</ele>
        <time>2000-01-01T01:57:05.000Z</time>
      </trkpt>
      <trkpt lat="42.79143" lon="0.58385">
        <ele>689</ele>
        <time>2000-01-01T01:57:15.000Z</time>
      </trkpt>
      <trkpt lat="42.79138" lon="0.58372">
        <ele>689.2</ele>
        <time>2000-01-01T01:57:25.000Z</time>
      </trkpt>
      <trkpt lat="42.79141" lon="0.58356">
        <ele>693</ele>
        <time>2000-01-01T01:57:35.000Z</time>
      </trkpt>
      <trkpt lat="42.79137" lon="0.58343">
        <ele>690.2</ele>
        <time>2000-01-01T01:57:45.000Z</time>
      </trkpt>
      <trkpt lat="42.79139" lon="0.58328">
        <ele>697</ele>
        <time>2000-01-01T01:57:55.000Z</time>
      </trkpt>
      <trkpt lat="42.79135" lon="0.58313">
        <ele>700.5</ele>
        <time>2000-01-01T01:58:05.000Z</time>
      </trkpt>
      <trkpt lat="42.7913" lon="0.58299">
        <ele>713</ele>
        <time>2000-01-01T01:58:15.000Z</time>
      </trkpt>
      <trkpt lat="42.79122" lon="0.58288">
        <ele>713.3</ele>
        <time>2000-01-01T01:58:25.000Z</time>
      </trkpt>
      <trkpt lat="42.79121" lon="0.58273">
        <ele>718</ele>
        <time>2000-01-01T01:58:35.000Z</time>
      </trkpt>
      <trkpt lat="42.79116" lon="0.58259">
        <ele>721.1</ele>
        <time>2000-01-01T01:58:45.000Z</time>
      </trkpt>
      <trkpt lat="42.79104" lon="0.58256">
        <ele>729</ele>
        <time>2000-01-01T01:58:55.000Z</time>
      </trkpt>
      <trkpt lat="42.79108" lon="0.58242">
        <ele>728.2</ele>
        <time>2000-01-01T01:59:05.000Z</time>
      </trkpt>
      <trkpt lat="42.79114" lon="0.5823">
        <ele>731</ele>
        <time>2000-01-01T01:59:15.000Z</time>
      </trkpt>
      <trkpt lat="42.79115" lon="0.58214">
        <ele>730.9</ele>
        <time>2000-01-01T01:59:25.000Z</time>
      </trkpt>
      <trkpt lat="42.79117" lon="0.582">
        <ele>738</ele>
        <time>2000-01-01T01:59:35.000Z</time>
      </trkpt>
      <trkpt lat="42.7911" lon="0.58189">
        <ele>738.7</ele>
        <time>2000-01-01T01:59:45.000Z</time>
      </trkpt>
      <trkpt lat="42.79118" lon="0.5818">
        <ele>737</ele>
        <time>2000-01-01T01:59:55.000Z</time>
      </trkpt>
      <trkpt lat="42.79127" lon="0.58168">
        <ele>734.2</ele>
        <time>2000-01-01T02:00:05.000Z</time>
      </trkpt>
      <trkpt lat="42.79136" lon="0.58159">
        <ele>737</ele>
        <time>2000-01-01T02:00:15.000Z</time>
      </trkpt>
      <trkpt lat="42.79141" lon="0.58145">
        <ele>731.6</ele>
        <time>2000-01-01T02:00:25.000Z</time>
      </trkpt>
      <trkpt lat="42.79142" lon="0.5813">
        <ele>731</ele>
        <time>2000-01-01T02:00:35.000Z</time>
      </trkpt>
      <trkpt lat="42.7915" lon="0.58117">
        <ele>729.6</ele>
        <time>2000-01-01T02:00:45.000Z</time>
      </trkpt>
      <trkpt lat="42.79154" lon="0.58101">
        <ele>731</ele>
        <time>2000-01-01T02:00:55.000Z</time>
      </trkpt>
      <trkpt lat="42.79152" lon="0.58086">
        <ele>729.8</ele>
        <time>2000-01-01T02:01:05.000Z</time>
      </trkpt>
      <trkpt lat="42.79156" lon="0.58072">
        <ele>732</ele>
        <time>2000-01-01T02:01:15.000Z</time>
      </trkpt>
      <trkpt lat="42.79155" lon="0.58057">
        <ele>739.4</ele>
        <time>2000-01-01T02:01:25.000Z</time>
      </trkpt>
      <trkpt lat="42.79151" lon="0.58043">
        <ele>748</ele>
        <time>2000-01-01T02:01:35.000Z</time>
      </trkpt>
      <trkpt lat="42.79139" lon="0.58034">
        <ele>756.3</ele>
        <time>2000-01-01T02:01:45.000Z</time>
      </trkpt>
      <trkpt lat="42.79128" lon="0.58028">
        <ele>772</ele>
        <time>2000-01-01T02:01:55.000Z</time>
      </trkpt>
      <trkpt lat="42.79135" lon="0.58017">
        <ele>764.9</ele>
        <time>2000-01-01T02:02:05.000Z</time>
      </trkpt>
      <trkpt lat="42.79134" lon="0.58002">
        <ele>775</ele>
        <time>2000-01-01T02:02:15.000Z</time>
      </trkpt>
      <trkpt lat="42.79129" lon="0.57987">
        <ele>778.8</ele>
        <time>2000-01-01T02:02:25.000Z</time>
      </trkpt>
      <trkpt lat="42.79114" lon="0.57965">
        <ele>798</ele>
        <time>2000-01-01T02:02:35.000Z</time>
      </trkpt>
      <trkpt lat="42.79107" lon="0.57953">
        <ele>801.2</ele>
        <time>2000-01-01T02:02:45.000Z</time>
      </trkpt>
      <trkpt lat="42.79114" lon="0.57942">
        <ele>800</ele>
        <time>2000-01-01T02:02:55.000Z</time>
      </trkpt>
      <trkpt lat="42.79118" lon="0.57927">
        <ele>798</ele>
        <time>2000-01-01T02:03:05.000Z</time>
      </trkpt>
      <trkpt lat="42.79115" lon="0.57912">
        <ele>798</ele>
        <time>2000-01-01T02:03:15.000Z</time>
      </trkpt>
      <trkpt lat="42.79126" lon="0.57905">
        <ele>797.3</ele>
        <time>2000-01-01T02:03:25.000Z</time>
      </trkpt>
      <trkpt lat="42.79134" lon="0.57894">
        <ele>802</ele>
        <time>2000-01-01T02:03:35.000Z</time>
      </trkpt>
      <trkpt lat="42.79136" lon="0.5788">
        <ele>798</ele>
        <time>2000-01-01T02:03:45.000Z</time>
      </trkpt>
      <trkpt lat="42.79139" lon="0.57865">
        <ele>807</ele>
        <time>2000-01-01T02:03:55.000Z</time>
      </trkpt>
      <trkpt lat="42.79133" lon="0.57852">
        <ele>807.2</ele>
        <time>2000-01-01T02:04:05.000Z</time>
      </trkpt>
      <trkpt lat="42.79121" lon="0.57843">
        <ele>817</ele>
        <time>2000-01-01T02:04:15.000Z</time>
      </trkpt>
      <trkpt lat="42.79116" lon="0.57829">
        <ele>820</ele>
        <time>2000-01-01T02:04:25.000Z</time>
      </trkpt>
      <trkpt lat="42.79112" lon="0.57815">
        <ele>825</ele>
        <time>2000-01-01T02:04:35.000Z</time>
      </trkpt>
      <trkpt lat="42.79105" lon="0.57802">
        <ele>827.1</ele>
        <time>2000-01-01T02:04:45.000Z</time>
      </trkpt>
      <trkpt lat="42.79103" lon="0.57787">
        <ele>825</ele>
        <time>2000-01-01T02:04:55.000Z</time>
      </trkpt>
      <trkpt lat="42.79097" lon="0.57775">
        <ele>833.8</ele>
        <time>2000-01-01T02:05:05.000Z</time>
      </trkpt>
      <trkpt lat="42.79098" lon="0.57762">
        <ele>829</ele>
        <time>2000-01-01T02:05:15.000Z</time>
      </trkpt>
      <trkpt lat="42.79112" lon="0.57736">
        <ele>837</ele>
        <time>2000-01-01T02:05:25.000Z</time>
      </trkpt>
      <trkpt lat="42.79102" lon="0.57726">
        <ele>838.4</ele>
        <time>2000-01-01T02:05:35.000Z</time>
      </trkpt>
      <trkpt lat="42.79091" lon="0.57728">
        <ele>844</ele>
        <time>2000-01-01T02:05:45.000Z</time>
      </trkpt>
      <trkpt lat="42.79081" lon="0.57721">
        <ele>844</ele>
        <time>2000-01-01T02:05:55.000Z</time>
      </trkpt>
      <trkpt lat="42.79074" lon="0.57708">
        <ele>851</ele>
        <time>2000-01-01T02:06:05.000Z</time>
      </trkpt>
      <trkpt lat="42.79064" lon="0.57692">
        <ele>853.6</ele>
        <time>2000-01-01T02:06:15.000Z</time>
      </trkpt>
      <trkpt lat="42.79059" lon="0.57682">
        <ele>859</ele>
        <time>2000-01-01T02:06:25.000Z</time>
      </trkpt>
      <trkpt lat="42.79031" lon="0.57633">
        <ele>864</ele>
        <time>2000-01-01T02:06:35.000Z</time>
      </trkpt>
      <trkpt lat="42.79022" lon="0.57619">
        <ele>867.4</ele>
        <time>2000-01-01T02:06:45.000Z</time>
      </trkpt>
      <trkpt lat="42.79016" lon="0.57611">
        <ele>872</ele>
        <time>2000-01-01T02:06:55.000Z</time>
      </trkpt>
      <trkpt lat="42.79" lon="0.57585">
        <ele>874</ele>
        <time>2000-01-01T02:07:05.000Z</time>
      </trkpt>
      <trkpt lat="42.78982" lon="0.57566">
        <ele>875</ele>
        <time>2000-01-01T02:07:15.000Z</time>
      </trkpt>
      <trkpt lat="42.78962" lon="0.57551">
        <ele>879</ele>
        <time>2000-01-01T02:07:25.000Z</time>
      </trkpt>
      <trkpt lat="42.78948" lon="0.57529">
        <ele>881</ele>
        <time>2000-01-01T02:07:35.000Z</time>
      </trkpt>
      <trkpt lat="42.7893" lon="0.57508">
        <ele>888</ele>
        <time>2000-01-01T02:07:45.000Z</time>
      </trkpt>
      <trkpt lat="42.78911" lon="0.57494">
        <ele>889</ele>
        <time>2000-01-01T02:07:55.000Z</time>
      </trkpt>
      <trkpt lat="42.78902" lon="0.57484">
        <ele>891.4</ele>
        <time>2000-01-01T02:08:05.000Z</time>
      </trkpt>
      <trkpt lat="42.78892" lon="0.57475">
        <ele>893</ele>
        <time>2000-01-01T02:08:15.000Z</time>
      </trkpt>
      <trkpt lat="42.78883" lon="0.57463">
        <ele>895.2</ele>
        <time>2000-01-01T02:08:25.000Z</time>
      </trkpt>
      <trkpt lat="42.78873" lon="0.57454">
        <ele>898</ele>
        <time>2000-01-01T02:08:35.000Z</time>
      </trkpt>
      <trkpt lat="42.78864" lon="0.57447">
        <ele>899.4</ele>
        <time>2000-01-01T02:08:45.000Z</time>
      </trkpt>
      <trkpt lat="42.78853" lon="0.57433">
        <ele>901</ele>
        <time>2000-01-01T02:08:55.000Z</time>
      </trkpt>
      <trkpt lat="42.78845" lon="0.57424">
        <ele>903.1</ele>
        <time>2000-01-01T02:09:05.000Z</time>
      </trkpt>
      <trkpt lat="42.78826" lon="0.57408">
        <ele>902</ele>
        <time>2000-01-01T02:09:15.000Z</time>
      </trkpt>
      <trkpt lat="42.78818" lon="0.57398">
        <ele>906.9</ele>
        <time>2000-01-01T02:09:25.000Z</time>
      </trkpt>
      <trkpt lat="42.78812" lon="0.57385">
        <ele>904</ele>
        <time>2000-01-01T02:09:35.000Z</time>
      </trkpt>
      <trkpt lat="42.78798" lon="0.57359">
        <ele>910</ele>
        <time>2000-01-01T02:09:45.000Z</time>
      </trkpt>
      <trkpt lat="42.78789" lon="0.57351">
        <ele>910.2</ele>
        <time>2000-01-01T02:09:55.000Z</time>
      </trkpt>
      <trkpt lat="42.78782" lon="0.57339">
        <ele>911</ele>
        <time>2000-01-01T02:10:05.000Z</time>
      </trkpt>
      <trkpt lat="42.78778" lon="0.57325">
        <ele>911.8</ele>
        <time>2000-01-01T02:10:15.000Z</time>
      </trkpt>
      <trkpt lat="42.78764" lon="0.573">
        <ele>913</ele>
        <time>2000-01-01T02:10:25.000Z</time>
      </trkpt>
      <trkpt lat="42.78759" lon="0.57284">
        <ele>913.6</ele>
        <time>2000-01-01T02:10:35.000Z</time>
      </trkpt>
      <trkpt lat="42.78759" lon="0.57268">
        <ele>913</ele>
        <time>2000-01-01T02:10:45.000Z</time>
      </trkpt>
      <trkpt lat="42.78758" lon="0.57252">
        <ele>908.9</ele>
        <time>2000-01-01T02:10:55.000Z</time>
      </trkpt>
      <trkpt lat="42.78749" lon="0.57243">
        <ele>911</ele>
        <time>2000-01-01T02:11:05.000Z</time>
      </trkpt>
      <trkpt lat="42.7875" lon="0.57227">
        <ele>907.4</ele>
        <time>2000-01-01T02:11:15.000Z</time>
      </trkpt>
      <trkpt lat="42.78749" lon="0.57211">
        <ele>909</ele>
        <time>2000-01-01T02:11:25.000Z</time>
      </trkpt>
      <trkpt lat="42.78751" lon="0.57195">
        <ele>897.5</ele>
        <time>2000-01-01T02:11:35.000Z</time>
      </trkpt>
      <trkpt lat="42.78742" lon="0.57188">
        <ele>892</ele>
        <time>2000-01-01T02:11:45.000Z</time>
      </trkpt>
      <trkpt lat="42.78747" lon="0.57176">
        <ele>889.1</ele>
        <time>2000-01-01T02:11:55.000Z</time>
      </trkpt>
      <trkpt lat="42.7876" lon="0.57173">
        <ele>888</ele>
        <time>2000-01-01T02:12:05.000Z</time>
      </trkpt>
      <trkpt lat="42.78741" lon="0.57159">
        <ele>888</ele>
        <time>2000-01-01T02:12:15.000Z</time>
      </trkpt>
      <trkpt lat="42.78732" lon="0.57146">
        <ele>888.9</ele>
        <time>2000-01-01T02:12:25.000Z</time>
      </trkpt>
      <trkpt lat="42.78726" lon="0.57133">
        <ele>888</ele>
        <time>2000-01-01T02:12:35.000Z</time>
      </trkpt>
      <trkpt lat="42.78717" lon="0.57124">
        <ele>891</ele>
        <time>2000-01-01T02:12:45.000Z</time>
      </trkpt>
      <trkpt lat="42.78718" lon="0.5711">
        <ele>888</ele>
        <time>2000-01-01T02:12:55.000Z</time>
      </trkpt>
      <trkpt lat="42.78711" lon="0.57095">
        <ele>887.6</ele>
        <time>2000-01-01T02:13:05.000Z</time>
      </trkpt>
      <trkpt lat="42.78705" lon="0.57066">
        <ele>883</ele>
        <time>2000-01-01T02:13:15.000Z</time>
      </trkpt>
      <trkpt lat="42.78711" lon="0.57054">
        <ele>879.2</ele>
        <time>2000-01-01T02:13:25.000Z</time>
      </trkpt>
      <trkpt lat="42.78705" lon="0.5704">
        <ele>888</ele>
        <time>2000-01-01T02:13:35.000Z</time>
      </trkpt>
      <trkpt lat="42.78689" lon="0.57009">
        <ele>888</ele>
        <time>2000-01-01T02:13:45.000Z</time>
      </trkpt>
      <trkpt lat="42.78698" lon="0.57003">
        <ele>890.9</ele>
        <time>2000-01-01T02:13:55.000Z</time>
      </trkpt>
      <trkpt lat="42.78704" lon="0.57015">
        <ele>888</ele>
        <time>2000-01-01T02:14:05.000Z</time>
      </trkpt>
      <trkpt lat="42.78715" lon="0.57025">
        <ele>882</ele>
        <time>2000-01-01T02:14:15.000Z</time>
      </trkpt>
      <trkpt lat="42.78722" lon="0.57036">
        <ele>880</ele>
        <time>2000-01-01T02:14:25.000Z</time>
      </trkpt>
      <trkpt lat="42.7873" lon="0.57047">
        <ele>877.2</ele>
        <time>2000-01-01T02:14:35.000Z</time>
      </trkpt>
      <trkpt lat="42.78741" lon="0.57051">
        <ele>874</ele>
        <time>2000-01-01T02:14:45.000Z</time>
      </trkpt>
      <trkpt lat="42.7875" lon="0.5706">
        <ele>872.7</ele>
        <time>2000-01-01T02:14:55.000Z</time>
      </trkpt>
      <trkpt lat="42.7876" lon="0.57068">
        <ele>872</ele>
        <time>2000-01-01T02:15:05.000Z</time>
      </trkpt>
      <trkpt lat="42.78769" lon="0.57079">
        <ele>870.3</ele>
        <time>2000-01-01T02:15:15.000Z</time>
      </trkpt>
      <trkpt lat="42.78779" lon="0.57085">
        <ele>875</ele>
        <time>2000-01-01T02:15:25.000Z</time>
      </trkpt>
      <trkpt lat="42.78791" lon="0.57087">
        <ele>871.8</ele>
        <time>2000-01-01T02:15:35.000Z</time>
      </trkpt>
      <trkpt lat="42.78803" lon="0.5709">
        <ele>873</ele>
        <time>2000-01-01T02:15:45.000Z</time>
      </trkpt>
      <trkpt lat="42.78814" lon="0.57097">
        <ele>875.2</ele>
        <time>2000-01-01T02:15:55.000Z</time>
      </trkpt>
      <trkpt lat="42.78834" lon="0.57113">
        <ele>876</ele>
        <time>2000-01-01T02:16:05.000Z</time>
      </trkpt>
      <trkpt lat="42.78845" lon="0.57113">
        <ele>876.6</ele>
        <time>2000-01-01T02:16:15.000Z</time>
      </trkpt>
      <trkpt lat="42.78856" lon="0.57118">
        <ele>880</ele>
        <time>2000-01-01T02:16:25.000Z</time>
      </trkpt>
      <trkpt lat="42.78867" lon="0.5712">
        <ele>881.3</ele>
        <time>2000-01-01T02:16:35.000Z</time>
      </trkpt>
      <trkpt lat="42.78879" lon="0.57126">
        <ele>883</ele>
        <time>2000-01-01T02:16:45.000Z</time>
      </trkpt>
      <trkpt lat="42.7889" lon="0.57128">
        <ele>886.9</ele>
        <time>2000-01-01T02:16:55.000Z</time>
      </trkpt>
      <trkpt lat="42.789" lon="0.57137">
        <ele>883</ele>
        <time>2000-01-01T02:17:05.000Z</time>
      </trkpt>
      <trkpt lat="42.78911" lon="0.57143">
        <ele>882</ele>
        <time>2000-01-01T02:17:15.000Z</time>
      </trkpt>
      <trkpt lat="42.78924" lon="0.5714">
        <ele>890</ele>
        <time>2000-01-01T02:17:25.000Z</time>
      </trkpt>
      <trkpt lat="42.78937" lon="0.57139">
        <ele>888.6</ele>
        <time>2000-01-01T02:17:35.000Z</time>
      </trkpt>
      <trkpt lat="42.78948" lon="0.57134">
        <ele>894</ele>
        <time>2000-01-01T02:17:45.000Z</time>
      </trkpt>
      <trkpt lat="42.78958" lon="0.57127">
        <ele>900.5</ele>
        <time>2000-01-01T02:17:55.000Z</time>
      </trkpt>
      <trkpt lat="42.7897" lon="0.57124">
        <ele>899</ele>
        <time>2000-01-01T02:18:05.000Z</time>
      </trkpt>
      <trkpt lat="42.78981" lon="0.5712">
        <ele>903</ele>
        <time>2000-01-01T02:18:15.000Z</time>
      </trkpt>
      <trkpt lat="42.78992" lon="0.57115">
        <ele>899</ele>
        <time>2000-01-01T02:18:25.000Z</time>
      </trkpt>
      <trkpt lat="42.79004" lon="0.57113">
        <ele>899</ele>
        <time>2000-01-01T02:18:35.000Z</time>
      </trkpt>
      <trkpt lat="42.79015" lon="0.57113">
        <ele>899</ele>
        <time>2000-01-01T02:18:45.000Z</time>
      </trkpt>
      <trkpt lat="42.79026" lon="0.57114">
        <ele>894.4</ele>
        <time>2000-01-01T02:18:55.000Z</time>
      </trkpt>
      <trkpt lat="42.79037" lon="0.5711">
        <ele>898</ele>
        <time>2000-01-01T02:19:05.000Z</time>
      </trkpt>
      <trkpt lat="42.79048" lon="0.57111">
        <ele>893.2</ele>
        <time>2000-01-01T02:19:15.000Z</time>
      </trkpt>
      <trkpt lat="42.7906" lon="0.57106">
        <ele>898</ele>
        <time>2000-01-01T02:19:25.000Z</time>
      </trkpt>
      <trkpt lat="42.79072" lon="0.571">
        <ele>899.8</ele>
        <time>2000-01-01T02:19:35.000Z</time>
      </trkpt>
      <trkpt lat="42.79095" lon="0.57086">
        <ele>901</ele>
        <time>2000-01-01T02:19:45.000Z</time>
      </trkpt>
      <trkpt lat="42.79107" lon="0.57081">
        <ele>908.9</ele>
        <time>2000-01-01T02:19:55.000Z</time>
      </trkpt>
      <trkpt lat="42.79121" lon="0.57082">
        <ele>899</ele>
        <time>2000-01-01T02:20:05.000Z</time>
      </trkpt>
      <trkpt lat="42.79132" lon="0.57085">
        <ele>897.9</ele>
        <time>2000-01-01T02:20:15.000Z</time>
      </trkpt>
      <trkpt lat="42.79144" lon="0.5709">
        <ele>898</ele>
        <time>2000-01-01T02:20:25.000Z</time>
      </trkpt>
      <trkpt lat="42.79155" lon="0.57091">
        <ele>889.9</ele>
        <time>2000-01-01T02:20:35.000Z</time>
      </trkpt>
      <trkpt lat="42.79166" lon="0.57099">
        <ele>889</ele>
        <time>2000-01-01T02:20:45.000Z</time>
      </trkpt>
      <trkpt lat="42.79179" lon="0.57104">
        <ele>882.6</ele>
        <time>2000-01-01T02:20:55.000Z</time>
      </trkpt>
      <trkpt lat="42.7919" lon="0.57112">
        <ele>887</ele>
        <time>2000-01-01T02:21:05.000Z</time>
      </trkpt>
      <trkpt lat="42.79201" lon="0.57122">
        <ele>877.7</ele>
        <time>2000-01-01T02:21:15.000Z</time>
      </trkpt>
      <trkpt lat="42.79231" lon="0.57139">
        <ele>889</ele>
        <time>2000-01-01T02:21:25.000Z</time>
      </trkpt>
      <trkpt lat="42.79251" lon="0.57125">
        <ele>890</ele>
        <time>2000-01-01T02:21:35.000Z</time>
      </trkpt>
      <trkpt lat="42.79262" lon="0.5712">
        <ele>888.7</ele>
        <time>2000-01-01T02:21:45.000Z</time>
      </trkpt>
      <trkpt lat="42.79272" lon="0.5711">
        <ele>888</ele>
        <time>2000-01-01T02:21:55.000Z</time>
      </trkpt>
      <trkpt lat="42.79293" lon="0.571">
        <ele>886</ele>
        <time>2000-01-01T02:22:05.000Z</time>
      </trkpt>
      <trkpt lat="42.79302" lon="0.57088">
        <ele>881</ele>
        <time>2000-01-01T02:22:15.000Z</time>
      </trkpt>
      <trkpt lat="42.79319" lon="0.57067">
        <ele>879</ele>
        <time>2000-01-01T02:22:25.000Z</time>
      </trkpt>
      <trkpt lat="42.79328" lon="0.57057">
        <ele>872.8</ele>
        <time>2000-01-01T02:22:35.000Z</time>
      </trkpt>
      <trkpt lat="42.79338" lon="0.57044">
        <ele>872</ele>
        <time>2000-01-01T02:22:45.000Z</time>
      </trkpt>
      <trkpt lat="42.79348" lon="0.57034">
        <ele>864</ele>
        <time>2000-01-01T02:22:55.000Z</time>
      </trkpt>
      <trkpt lat="42.79357" lon="0.57021">
        <ele>864</ele>
        <time>2000-01-01T02:23:05.000Z</time>
      </trkpt>
      <trkpt lat="42.79361" lon="0.57004">
        <ele>851.8</ele>
        <time>2000-01-01T02:23:15.000Z</time>
      </trkpt>
      <trkpt lat="42.79365" lon="0.56991">
        <ele>858</ele>
        <time>2000-01-01T02:23:25.000Z</time>
      </trkpt>
      <trkpt lat="42.79365" lon="0.56974">
        <ele>849.4</ele>
        <time>2000-01-01T02:23:35.000Z</time>
      </trkpt>
      <trkpt lat="42.79366" lon="0.56957">
        <ele>853</ele>
        <time>2000-01-01T02:23:45.000Z</time>
      </trkpt>
      <trkpt lat="42.79373" lon="0.56942">
        <ele>846.6</ele>
        <time>2000-01-01T02:23:55.000Z</time>
      </trkpt>
      <trkpt lat="42.79376" lon="0.56927">
        <ele>849</ele>
        <time>2000-01-01T02:24:05.000Z</time>
      </trkpt>
      <trkpt lat="42.79385" lon="0.56914">
        <ele>844.2</ele>
        <time>2000-01-01T02:24:15.000Z</time>
      </trkpt>
      <trkpt lat="42.79396" lon="0.56904">
        <ele>844</ele>
        <time>2000-01-01T02:24:25.000Z</time>
      </trkpt>
      <trkpt lat="42.79404" lon="0.56894">
        <ele>837</ele>
        <time>2000-01-01T02:24:35.000Z</time>
      </trkpt>
      <trkpt lat="42.7941" lon="0.5688">
        <ele>839</ele>
        <time>2000-01-01T02:24:45.000Z</time>
      </trkpt>
      <trkpt lat="42.7942" lon="0.5687">
        <ele>828.9</ele>
        <time>2000-01-01T02:24:55.000Z</time>
      </trkpt>
      <trkpt lat="42.79428" lon="0.56841">
        <ele>836</ele>
        <time>2000-01-01T02:25:05.000Z</time>
      </trkpt>
      <trkpt lat="42.7944" lon="0.56814">
        <ele>839</ele>
        <time>2000-01-01T02:25:15.000Z</time>
      </trkpt>
      <trkpt lat="42.79445" lon="0.56798">
        <ele>835.5</ele>
        <time>2000-01-01T02:25:25.000Z</time>
      </trkpt>
      <trkpt lat="42.79453" lon="0.56788">
        <ele>842</ele>
        <time>2000-01-01T02:25:35.000Z</time>
      </trkpt>
      <trkpt lat="42.79456" lon="0.56773">
        <ele>840.1</ele>
        <time>2000-01-01T02:25:45.000Z</time>
      </trkpt>
      <trkpt lat="42.79467" lon="0.56746">
        <ele>842</ele>
        <time>2000-01-01T02:25:55.000Z</time>
      </trkpt>
      <trkpt lat="42.79469" lon="0.5673">
        <ele>838</ele>
        <time>2000-01-01T02:26:05.000Z</time>
      </trkpt>
      <trkpt lat="42.79474" lon="0.56713">
        <ele>839</ele>
        <time>2000-01-01T02:26:15.000Z</time>
      </trkpt>
      <trkpt lat="42.79482" lon="0.56699">
        <ele>833.9</ele>
        <time>2000-01-01T02:26:25.000Z</time>
      </trkpt>
      <trkpt lat="42.7949" lon="0.56687">
        <ele>836</ele>
        <time>2000-01-01T02:26:35.000Z</time>
      </trkpt>
      <trkpt lat="42.79503" lon="0.56659">
        <ele>836</ele>
        <time>2000-01-01T02:26:45.000Z</time>
      </trkpt>
      <trkpt lat="42.79505" lon="0.56644">
        <ele>831.8</ele>
        <time>2000-01-01T02:26:55.000Z</time>
      </trkpt>
      <trkpt lat="42.79509" lon="0.56628">
        <ele>834</ele>
        <time>2000-01-01T02:27:05.000Z</time>
      </trkpt>
      <trkpt lat="42.79511" lon="0.56611">
        <ele>829.1</ele>
        <time>2000-01-01T02:27:15.000Z</time>
      </trkpt>
      <trkpt lat="42.79518" lon="0.56598">
        <ele>832</ele>
        <time>2000-01-01T02:27:25.000Z</time>
      </trkpt>
      <trkpt lat="42.79531" lon="0.56568">
        <ele>830</ele>
        <time>2000-01-01T02:27:35.000Z</time>
      </trkpt>
      <trkpt lat="42.7954" lon="0.56558">
        <ele>821.1</ele>
        <time>2000-01-01T02:27:45.000Z</time>
      </trkpt>
      <trkpt lat="42.79556" lon="0.56535">
        <ele>835</ele>
        <time>2000-01-01T02:27:55.000Z</time>
      </trkpt>
      <trkpt lat="42.79565" lon="0.56526">
        <ele>830.6</ele>
        <time>2000-01-01T02:28:05.000Z</time>
      </trkpt>
      <trkpt lat="42.79575" lon="0.56518">
        <ele>840</ele>
        <time>2000-01-01T02:28:15.000Z</time>
      </trkpt>
      <trkpt lat="42.79587" lon="0.56512">
        <ele>836.8</ele>
        <time>2000-01-01T02:28:25.000Z</time>
      </trkpt>
      <trkpt lat="42.79607" lon="0.56493">
        <ele>840</ele>
        <time>2000-01-01T02:28:35.000Z</time>
      </trkpt>
      <trkpt lat="42.79618" lon="0.56487">
        <ele>835.7</ele>
        <time>2000-01-01T02:28:45.000Z</time>
      </trkpt>
      <trkpt lat="42.7963" lon="0.56478">
        <ele>839</ele>
        <time>2000-01-01T02:28:55.000Z</time>
      </trkpt>
      <trkpt lat="42.7964" lon="0.56468">
        <ele>830.1</ele>
        <time>2000-01-01T02:29:05.000Z</time>
      </trkpt>
      <trkpt lat="42.79656" lon="0.56447">
        <ele>835</ele>
        <time>2000-01-01T02:29:15.000Z</time>
      </trkpt>
      <trkpt lat="42.79664" lon="0.56434">
        <ele>828.2</ele>
        <time>2000-01-01T02:29:25.000Z</time>
      </trkpt>
      <trkpt lat="42.79676" lon="0.56425">
        <ele>832</ele>
        <time>2000-01-01T02:29:35.000Z</time>
      </trkpt>
      <trkpt lat="42.79686" lon="0.56419">
        <ele>829.7</ele>
        <time>2000-01-01T02:29:45.000Z</time>
      </trkpt>
      <trkpt lat="42.79696" lon="0.56412">
        <ele>834</ele>
        <time>2000-01-01T02:29:55.000Z</time>
      </trkpt>
      <trkpt lat="42.79703" lon="0.564">
        <ele>831.7</ele>
        <time>2000-01-01T02:30:05.000Z</time>
      </trkpt>
      <trkpt lat="42.79712" lon="0.5639">
        <ele>830</ele>
        <time>2000-01-01T02:30:15.000Z</time>
      </trkpt>
      <trkpt lat="42.79723" lon="0.56385">
        <ele>828.8</ele>
        <time>2000-01-01T02:30:25.000Z</time>
      </trkpt>
      <trkpt lat="42.79739" lon="0.56395">
        <ele>826</ele>
        <time>2000-01-01T02:30:35.000Z</time>
      </trkpt>
      <trkpt lat="42.79754" lon="0.56402">
        <ele>823.3</ele>
        <time>2000-01-01T02:30:45.000Z</time>
      </trkpt>
      <trkpt lat="42.79765" lon="0.56406">
        <ele>828</ele>
        <time>2000-01-01T02:30:55.000Z</time>
      </trkpt>
      <trkpt lat="42.79776" lon="0.56411">
        <ele>829.5</ele>
        <time>2000-01-01T02:31:05.000Z</time>
      </trkpt>
      <trkpt lat="42.79787" lon="0.56413">
        <ele>830</ele>
        <time>2000-01-01T02:31:15.000Z</time>
      </trkpt>
      <trkpt lat="42.798" lon="0.56413">
        <ele>837.1</ele>
        <time>2000-01-01T02:31:25.000Z</time>
      </trkpt>
      <trkpt lat="42.79821" lon="0.5642">
        <ele>842</ele>
        <time>2000-01-01T02:31:35.000Z</time>
      </trkpt>
      <trkpt lat="42.79832" lon="0.56425">
        <ele>840.7</ele>
        <time>2000-01-01T02:31:45.000Z</time>
      </trkpt>
      <trkpt lat="42.79843" lon="0.5642">
        <ele>845</ele>
        <time>2000-01-01T02:31:55.000Z</time>
      </trkpt>
      <trkpt lat="42.79848" lon="0.56407">
        <ele>846.5</ele>
        <time>2000-01-01T02:32:05.000Z</time>
      </trkpt>
      <trkpt lat="42.79857" lon="0.56398">
        <ele>851</ele>
        <time>2000-01-01T02:32:15.000Z</time>
      </trkpt>
      <trkpt lat="42.79863" lon="0.56385">
        <ele>852.6</ele>
        <time>2000-01-01T02:32:25.000Z</time>
      </trkpt>
      <trkpt lat="42.79879" lon="0.56363">
        <ele>858</ele>
        <time>2000-01-01T02:32:35.000Z</time>
      </trkpt>
      <trkpt lat="42.7989" lon="0.56355">
        <ele>856.4</ele>
        <time>2000-01-01T02:32:45.000Z</time>
      </trkpt>
      <trkpt lat="42.799" lon="0.56345">
        <ele>860</ele>
        <time>2000-01-01T02:32:55.000Z</time>
      </trkpt>
      <trkpt lat="42.79906" lon="0.56331">
        <ele>860.2</ele>
        <time>2000-01-01T02:33:05.000Z</time>
      </trkpt>
      <trkpt lat="42.79915" lon="0.56322">
        <ele>862</ele>
        <time>2000-01-01T02:33:15.000Z</time>
      </trkpt>
      <trkpt lat="42.79923" lon="0.56311">
        <ele>863.6</ele>
        <time>2000-01-01T02:33:25.000Z</time>
      </trkpt>
      <trkpt lat="42.79933" lon="0.56303">
        <ele>863</ele>
        <time>2000-01-01T02:33:35.000Z</time>
      </trkpt>
      <trkpt lat="42.79945" lon="0.56298">
        <ele>865.4</ele>
        <time>2000-01-01T02:33:45.000Z</time>
      </trkpt>
      <trkpt lat="42.79968" lon="0.56292">
        <ele>865</ele>
        <time>2000-01-01T02:33:55.000Z</time>
      </trkpt>
      <trkpt lat="42.79982" lon="0.56291">
        <ele>863.3</ele>
        <time>2000-01-01T02:34:05.000Z</time>
      </trkpt>
      <trkpt lat="42.79993" lon="0.56287">
        <ele>866</ele>
        <time>2000-01-01T02:34:15.000Z</time>
      </trkpt>
      <trkpt lat="42.80004" lon="0.56282">
        <ele>866.7</ele>
        <time>2000-01-01T02:34:25.000Z</time>
      </trkpt>
      <trkpt lat="42.80013" lon="0.56272">
        <ele>873</ele>
        <time>2000-01-01T02:34:35.000Z</time>
      </trkpt>
      <trkpt lat="42.80022" lon="0.56264">
        <ele>871.8</ele>
        <time>2000-01-01T02:34:45.000Z</time>
      </trkpt>
      <trkpt lat="42.80035" lon="0.56235">
        <ele>880</ele>
        <time>2000-01-01T02:34:55.000Z</time>
      </trkpt>
      <trkpt lat="42.80044" lon="0.56226">
        <ele>878.1</ele>
        <time>2000-01-01T02:35:05.000Z</time>
      </trkpt>
      <trkpt lat="42.80054" lon="0.5622">
        <ele>882</ele>
        <time>2000-01-01T02:35:15.000Z</time>
      </trkpt>
      <trkpt lat="42.80069" lon="0.56195">
        <ele>882</ele>
        <time>2000-01-01T02:35:25.000Z</time>
      </trkpt>
      <trkpt lat="42.80074" lon="0.56181">
        <ele>879.4</ele>
        <time>2000-01-01T02:35:35.000Z</time>
      </trkpt>
      <trkpt lat="42.80082" lon="0.56169">
        <ele>881</ele>
        <time>2000-01-01T02:35:45.000Z</time>
      </trkpt>
      <trkpt lat="42.80089" lon="0.56155">
        <ele>878</ele>
        <time>2000-01-01T02:35:55.000Z</time>
      </trkpt>
      <trkpt lat="42.80103" lon="0.5613">
        <ele>881</ele>
        <time>2000-01-01T02:36:05.000Z</time>
      </trkpt>
      <trkpt lat="42.80113" lon="0.56101">
        <ele>881</ele>
        <time>2000-01-01T02:36:15.000Z</time>
      </trkpt>
      <trkpt lat="42.80116" lon="0.56085">
        <ele>881.6</ele>
        <time>2000-01-01T02:36:25.000Z</time>
      </trkpt>
      <trkpt lat="42.80124" lon="0.56073">
        <ele>882</ele>
        <time>2000-01-01T02:36:35.000Z</time>
      </trkpt>
      <trkpt lat="42.80125" lon="0.56057">
        <ele>884.7</ele>
        <time>2000-01-01T02:36:45.000Z</time>
      </trkpt>
      <trkpt lat="42.80134" lon="0.56046">
        <ele>886</ele>
        <time>2000-01-01T02:36:55.000Z</time>
      </trkpt>
      <trkpt lat="42.80138" lon="0.56032">
        <ele>885.4</ele>
        <time>2000-01-01T02:37:05.000Z</time>
      </trkpt>
      <trkpt lat="42.80148" lon="0.56024">
        <ele>888</ele>
        <time>2000-01-01T02:37:15.000Z</time>
      </trkpt>
      <trkpt lat="42.80158" lon="0.55993">
        <ele>890</ele>
        <time>2000-01-01T02:37:25.000Z</time>
      </trkpt>
      <trkpt lat="42.80159" lon="0.55977">
        <ele>890.5</ele>
        <time>2000-01-01T02:37:35.000Z</time>
      </trkpt>
      <trkpt lat="42.80161" lon="0.55962">
        <ele>893</ele>
        <time>2000-01-01T02:37:45.000Z</time>
      </trkpt>
      <trkpt lat="42.80168" lon="0.55949">
        <ele>892.7</ele>
        <time>2000-01-01T02:37:55.000Z</time>
      </trkpt>
      <trkpt lat="42.80175" lon="0.55938">
        <ele>896</ele>
        <time>2000-01-01T02:38:05.000Z</time>
      </trkpt>
      <trkpt lat="42.80181" lon="0.55923">
        <ele>893.6</ele>
        <time>2000-01-01T02:38:15.000Z</time>
      </trkpt>
      <trkpt lat="42.8019" lon="0.55911">
        <ele>896</ele>
        <time>2000-01-01T02:38:25.000Z</time>
      </trkpt>
      <trkpt lat="42.80195" lon="0.55895">
        <ele>893.7</ele>
        <time>2000-01-01T02:38:35.000Z</time>
      </trkpt>
      <trkpt lat="42.80202" lon="0.55881">
        <ele>897</ele>
        <time>2000-01-01T02:38:45.000Z</time>
      </trkpt>
      <trkpt lat="42.80207" lon="0.55868">
        <ele>892.6</ele>
        <time>2000-01-01T02:38:55.000Z</time>
      </trkpt>
      <trkpt lat="42.80205" lon="0.55853">
        <ele>898</ele>
        <time>2000-01-01T02:39:05.000Z</time>
      </trkpt>
      <trkpt lat="42.80207" lon="0.55837">
        <ele>896.6</ele>
        <time>2000-01-01T02:39:15.000Z</time>
      </trkpt>
      <trkpt lat="42.8021" lon="0.55822">
        <ele>897</ele>
        <time>2000-01-01T02:39:25.000Z</time>
      </trkpt>
      <trkpt lat="42.80216" lon="0.55806">
        <ele>896.6</ele>
        <time>2000-01-01T02:39:35.000Z</time>
      </trkpt>
      <trkpt lat="42.80224" lon="0.55794">
        <ele>897</ele>
        <time>2000-01-01T02:39:45.000Z</time>
      </trkpt>
      <trkpt lat="42.80231" lon="0.55782">
        <ele>894.4</ele>
        <time>2000-01-01T02:39:55.000Z</time>
      </trkpt>
      <trkpt lat="42.80236" lon="0.55767">
        <ele>898</ele>
        <time>2000-01-01T02:40:05.000Z</time>
      </trkpt>
      <trkpt lat="42.80247" lon="0.5574">
        <ele>898</ele>
        <time>2000-01-01T02:40:15.000Z</time>
      </trkpt>
      <trkpt lat="42.80246" lon="0.55726">
        <ele>897</ele>
        <time>2000-01-01T02:40:25.000Z</time>
      </trkpt>
      <trkpt lat="42.80244" lon="0.5571">
        <ele>902</ele>
        <time>2000-01-01T02:40:35.000Z</time>
      </trkpt>
      <trkpt lat="42.80243" lon="0.55695">
        <ele>902.2</ele>
        <time>2000-01-01T02:40:45.000Z</time>
      </trkpt>
      <trkpt lat="42.80246" lon="0.55679">
        <ele>902</ele>
        <time>2000-01-01T02:40:55.000Z</time>
      </trkpt>
      <trkpt lat="42.8025" lon="0.55664">
        <ele>902.3</ele>
        <time>2000-01-01T02:41:05.000Z</time>
      </trkpt>
      <trkpt lat="42.80256" lon="0.55652">
        <ele>903</ele>
        <time>2000-01-01T02:41:15.000Z</time>
      </trkpt>
      <trkpt lat="42.8026" lon="0.55637">
        <ele>900.2</ele>
        <time>2000-01-01T02:41:25.000Z</time>
      </trkpt>
      <trkpt lat="42.80265" lon="0.55622">
        <ele>903</ele>
        <time>2000-01-01T02:41:35.000Z</time>
      </trkpt>
      <trkpt lat="42.80267" lon="0.55607">
        <ele>900.6</ele>
        <time>2000-01-01T02:41:45.000Z</time>
      </trkpt>
      <trkpt lat="42.80255" lon="0.55608">
        <ele>909</ele>
        <time>2000-01-01T02:41:55.000Z</time>
      </trkpt>
      <trkpt lat="42.80249" lon="0.55621">
        <ele>907.4</ele>
        <time>2000-01-01T02:42:05.000Z</time>
      </trkpt>
      <trkpt lat="42.80241" lon="0.55632">
        <ele>910</ele>
        <time>2000-01-01T02:42:15.000Z</time>
      </trkpt>
      <trkpt lat="42.80227" lon="0.55656">
        <ele>917</ele>
        <time>2000-01-01T02:42:25.000Z</time>
      </trkpt>
      <trkpt lat="42.80216" lon="0.55683">
        <ele>918</ele>
        <time>2000-01-01T02:42:35.000Z</time>
      </trkpt>
      <trkpt lat="42.80198" lon="0.55688">
        <ele>922.5</ele>
        <time>2000-01-01T02:42:45.000Z</time>
      </trkpt>
      <trkpt lat="42.80191" lon="0.55697">
        <ele>925</ele>
        <time>2000-01-01T02:42:55.000Z</time>
      </trkpt>
      <trkpt lat="42.80185" lon="0.55706">
        <ele>925.3</ele>
        <time>2000-01-01T02:43:05.000Z</time>
      </trkpt>
      <trkpt lat="42.80175" lon="0.55722">
        <ele>930</ele>
        <time>2000-01-01T02:43:15.000Z</time>
      </trkpt>
      <trkpt lat="42.80165" lon="0.5574">
        <ele>928.1</ele>
        <time>2000-01-01T02:43:25.000Z</time>
      </trkpt>
      <trkpt lat="42.80155" lon="0.55755">
        <ele>932</ele>
        <time>2000-01-01T02:43:35.000Z</time>
      </trkpt>
      <trkpt lat="42.80136" lon="0.55796">
        <ele>932</ele>
        <time>2000-01-01T02:43:45.000Z</time>
      </trkpt>
      <trkpt lat="42.80121" lon="0.55821">
        <ele>932</ele>
        <time>2000-01-01T02:43:55.000Z</time>
      </trkpt>
      <trkpt lat="42.80112" lon="0.55829">
        <ele>934.4</ele>
        <time>2000-01-01T02:44:05.000Z</time>
      </trkpt>
      <trkpt lat="42.80095" lon="0.55849">
        <ele>941</ele>
        <time>2000-01-01T02:44:15.000Z</time>
      </trkpt>
      <trkpt lat="42.80074" lon="0.5589">
        <ele>943</ele>
        <time>2000-01-01T02:44:25.000Z</time>
      </trkpt>
      <trkpt lat="42.8006" lon="0.55913">
        <ele>947</ele>
        <time>2000-01-01T02:44:35.000Z</time>
      </trkpt>
      <trkpt lat="42.80054" lon="0.55928">
        <ele>940.4</ele>
        <time>2000-01-01T02:44:45.000Z</time>
      </trkpt>
      <trkpt lat="42.80046" lon="0.55938">
        <ele>947</ele>
        <time>2000-01-01T02:44:55.000Z</time>
      </trkpt>
      <trkpt lat="42.80041" lon="0.55953">
        <ele>941.5</ele>
        <time>2000-01-01T02:45:05.000Z</time>
      </trkpt>
      <trkpt lat="42.80035" lon="0.55968">
        <ele>944</ele>
        <time>2000-01-01T02:45:15.000Z</time>
      </trkpt>
      <trkpt lat="42.80031" lon="0.55982">
        <ele>940</ele>
        <time>2000-01-01T02:45:25.000Z</time>
      </trkpt>
      <trkpt lat="42.80025" lon="0.55996">
        <ele>944</ele>
        <time>2000-01-01T02:45:35.000Z</time>
      </trkpt>
      <trkpt lat="42.79999" lon="0.56029">
        <ele>946</ele>
        <time>2000-01-01T02:45:45.000Z</time>
      </trkpt>
      <trkpt lat="42.79989" lon="0.56038">
        <ele>946.5</ele>
        <time>2000-01-01T02:45:55.000Z</time>
      </trkpt>
      <trkpt lat="42.79974" lon="0.56065">
        <ele>949</ele>
        <time>2000-01-01T02:46:05.000Z</time>
      </trkpt>
      <trkpt lat="42.79968" lon="0.56073">
        <ele>946.9</ele>
        <time>2000-01-01T02:46:15.000Z</time>
      </trkpt>
      <trkpt lat="42.79961" lon="0.5608">
        <ele>947.1</ele>
        <time>2000-01-01T02:46:25.000Z</time>
      </trkpt>
      <trkpt lat="42.79946" lon="0.56093">
        <ele>950</ele>
        <time>2000-01-01T02:46:35.000Z</time>
      </trkpt>
      <trkpt lat="42.79936" lon="0.56096">
        <ele>948.4</ele>
        <time>2000-01-01T02:46:45.000Z</time>
      </trkpt>
      <trkpt lat="42.79926" lon="0.56098">
        <ele>954</ele>
        <time>2000-01-01T02:46:55.000Z</time>
      </trkpt>
      <trkpt lat="42.79917" lon="0.56096">
        <ele>951.9</ele>
        <time>2000-01-01T02:47:05.000Z</time>
      </trkpt>
      <trkpt lat="42.79909" lon="0.56093">
        <ele>954.1</ele>
        <time>2000-01-01T02:47:15.000Z</time>
      </trkpt>
      <trkpt lat="42.79901" lon="0.56092">
        <ele>957</ele>
        <time>2000-01-01T02:47:25.000Z</time>
      </trkpt>
      <trkpt lat="42.79892" lon="0.56094">
        <ele>955.8</ele>
        <time>2000-01-01T02:47:35.000Z</time>
      </trkpt>
      <trkpt lat="42.79874" lon="0.56092">
        <ele>958</ele>
        <time>2000-01-01T02:47:45.000Z</time>
      </trkpt>
      <trkpt lat="42.79855" lon="0.56088">
        <ele>957.8</ele>
        <time>2000-01-01T02:47:55.000Z</time>
      </trkpt>
      <trkpt lat="42.79848" lon="0.56084">
        <ele>960</ele>
        <time>2000-01-01T02:48:05.000Z</time>
      </trkpt>
      <trkpt lat="42.79833" lon="0.56079">
        <ele>961</ele>
        <time>2000-01-01T02:48:15.000Z</time>
      </trkpt>
      <trkpt lat="42.79798" lon="0.56075">
        <ele>964</ele>
        <time>2000-01-01T02:48:25.000Z</time>
      </trkpt>
      <trkpt lat="42.79786" lon="0.56075">
        <ele>963.9</ele>
        <time>2000-01-01T02:48:35.000Z</time>
      </trkpt>
      <trkpt lat="42.79774" lon="0.56073">
        <ele>965</ele>
        <time>2000-01-01T02:48:45.000Z</time>
      </trkpt>
      <trkpt lat="42.79762" lon="0.5607">
        <ele>965.2</ele>
        <time>2000-01-01T02:48:55.000Z</time>
      </trkpt>
      <trkpt lat="42.79732" lon="0.56058">
        <ele>968</ele>
        <time>2000-01-01T02:49:05.000Z</time>
      </trkpt>
      <trkpt lat="42.79742" lon="0.56052">
        <ele>970.3</ele>
        <time>2000-01-01T02:49:15.000Z</time>
      </trkpt>
      <trkpt lat="42.79765" lon="0.5605">
        <ele>970</ele>
        <time>2000-01-01T02:49:25.000Z</time>
      </trkpt>
      <trkpt lat="42.79774" lon="0.56051">
        <ele>973.7</ele>
        <time>2000-01-01T02:49:35.000Z</time>
      </trkpt>
      <trkpt lat="42.79788" lon="0.56054">
        <ele>973</ele>
        <time>2000-01-01T02:49:45.000Z</time>
      </trkpt>
      <trkpt lat="42.79799" lon="0.56049">
        <ele>974.9</ele>
        <time>2000-01-01T02:49:55.000Z</time>
      </trkpt>
      <trkpt lat="42.79817" lon="0.56046">
        <ele>979</ele>
        <time>2000-01-01T02:50:05.000Z</time>
      </trkpt>
      <trkpt lat="42.7984" lon="0.5604">
        <ele>984</ele>
        <time>2000-01-01T02:50:15.000Z</time>
      </trkpt>
      <trkpt lat="42.79852" lon="0.56034">
        <ele>980.8</ele>
        <time>2000-01-01T02:50:25.000Z</time>
      </trkpt>
      <trkpt lat="42.79875" lon="0.56029">
        <ele>985</ele>
        <time>2000-01-01T02:50:35.000Z</time>
      </trkpt>
      <trkpt lat="42.79888" lon="0.56024">
        <ele>981.3</ele>
        <time>2000-01-01T02:50:45.000Z</time>
      </trkpt>
      <trkpt lat="42.79899" lon="0.56015">
        <ele>985</ele>
        <time>2000-01-01T02:50:55.000Z</time>
      </trkpt>
      <trkpt lat="42.79918" lon="0.55994">
        <ele>987</ele>
        <time>2000-01-01T02:51:05.000Z</time>
      </trkpt>
      <trkpt lat="42.79925" lon="0.55982">
        <ele>986.1</ele>
        <time>2000-01-01T02:51:15.000Z</time>
      </trkpt>
      <trkpt lat="42.79934" lon="0.55974">
        <ele>987</ele>
        <time>2000-01-01T02:51:25.000Z</time>
      </trkpt>
      <trkpt lat="42.79952" lon="0.55956">
        <ele>988</ele>
        <time>2000-01-01T02:51:35.000Z</time>
      </trkpt>
      <trkpt lat="42.7996" lon="0.55944">
        <ele>985.4</ele>
        <time>2000-01-01T02:51:45.000Z</time>
      </trkpt>
      <trkpt lat="42.79967" lon="0.55929">
        <ele>993</ele>
        <time>2000-01-01T02:51:55.000Z</time>
      </trkpt>
      <trkpt lat="42.79973" lon="0.55899">
        <ele>995</ele>
        <time>2000-01-01T02:52:05.000Z</time>
      </trkpt>
      <trkpt lat="42.7999" lon="0.55875">
        <ele>995</ele>
        <time>2000-01-01T02:52:15.000Z</time>
      </trkpt>
      <trkpt lat="42.79993" lon="0.5586">
        <ele>990</ele>
        <time>2000-01-01T02:52:25.000Z</time>
      </trkpt>
      <trkpt lat="42.80004" lon="0.55833">
        <ele>990</ele>
        <time>2000-01-01T02:52:35.000Z</time>
      </trkpt>
      <trkpt lat="42.80007" lon="0.55817">
        <ele>989.5</ele>
        <time>2000-01-01T02:52:45.000Z</time>
      </trkpt>
      <trkpt lat="42.80012" lon="0.55804">
        <ele>990</ele>
        <time>2000-01-01T02:52:55.000Z</time>
      </trkpt>
      <trkpt lat="42.80013" lon="0.55788">
        <ele>989.5</ele>
        <time>2000-01-01T02:53:05.000Z</time>
      </trkpt>
      <trkpt lat="42.80015" lon="0.55772">
        <ele>992</ele>
        <time>2000-01-01T02:53:15.000Z</time>
      </trkpt>
      <trkpt lat="42.80012" lon="0.55724">
        <ele>996</ele>
        <time>2000-01-01T02:53:25.000Z</time>
      </trkpt>
      <trkpt lat="42.80009" lon="0.55706">
        <ele>997.9</ele>
        <time>2000-01-01T02:53:35.000Z</time>
      </trkpt>
      <trkpt lat="42.80008" lon="0.55691">
        <ele>1002</ele>
        <time>2000-01-01T02:53:45.000Z</time>
      </trkpt>
      <trkpt lat="42.80004" lon="0.55676">
        <ele>1002.7</ele>
        <time>2000-01-01T02:53:55.000Z</time>
      </trkpt>
      <trkpt lat="42.80008" lon="0.55644">
        <ele>1004</ele>
        <time>2000-01-01T02:54:05.000Z</time>
      </trkpt>
      <trkpt lat="42.80013" lon="0.5563">
        <ele>1003.5</ele>
        <time>2000-01-01T02:54:15.000Z</time>
      </trkpt>
      <trkpt lat="42.80014" lon="0.55614">
        <ele>1006</ele>
        <time>2000-01-01T02:54:25.000Z</time>
      </trkpt>
      <trkpt lat="42.80018" lon="0.55583">
        <ele>1006</ele>
        <time>2000-01-01T02:54:35.000Z</time>
      </trkpt>
      <trkpt lat="42.80019" lon="0.55567">
        <ele>1005.7</ele>
        <time>2000-01-01T02:54:45.000Z</time>
      </trkpt>
      <trkpt lat="42.80022" lon="0.55552">
        <ele>1006</ele>
        <time>2000-01-01T02:54:55.000Z</time>
      </trkpt>
      <trkpt lat="42.80022" lon="0.55536">
        <ele>1006</ele>
        <time>2000-01-01T02:55:05.000Z</time>
      </trkpt>
      <trkpt lat="42.80021" lon="0.5552">
        <ele>1008</ele>
        <time>2000-01-01T02:55:15.000Z</time>
      </trkpt>
      <trkpt lat="42.80018" lon="0.55506">
        <ele>1008.9</ele>
        <time>2000-01-01T02:55:25.000Z</time>
      </trkpt>
      <trkpt lat="42.80017" lon="0.55489">
        <ele>1013</ele>
        <time>2000-01-01T02:55:35.000Z</time>
      </trkpt>
      <trkpt lat="42.80014" lon="0.55473">
        <ele>1011.9</ele>
        <time>2000-01-01T02:55:45.000Z</time>
      </trkpt>
      <trkpt lat="42.8001" lon="0.55457">
        <ele>1014</ele>
        <time>2000-01-01T02:55:55.000Z</time>
      </trkpt>
      <trkpt lat="42.8001" lon="0.55442">
        <ele>1015.4</ele>
        <time>2000-01-01T02:56:05.000Z</time>
      </trkpt>
      <trkpt lat="42.80011" lon="0.55426">
        <ele>1016</ele>
        <time>2000-01-01T02:56:15.000Z</time>
      </trkpt>
      <trkpt lat="42.80017" lon="0.55395">
        <ele>1015</ele>
        <time>2000-01-01T02:56:25.000Z</time>
      </trkpt>
      <trkpt lat="42.80023" lon="0.55381">
        <ele>1011.7</ele>
        <time>2000-01-01T02:56:35.000Z</time>
      </trkpt>
      <trkpt lat="42.80024" lon="0.55366">
        <ele>1015</ele>
        <time>2000-01-01T02:56:45.000Z</time>
      </trkpt>
      <trkpt lat="42.80022" lon="0.55335">
        <ele>1015</ele>
        <time>2000-01-01T02:56:55.000Z</time>
      </trkpt>
      <trkpt lat="42.80019" lon="0.5532">
        <ele>1014.8</ele>
        <time>2000-01-01T02:57:05.000Z</time>
      </trkpt>
      <trkpt lat="42.80025" lon="0.5529">
        <ele>1015</ele>
        <time>2000-01-01T02:57:15.000Z</time>
      </trkpt>
      <trkpt lat="42.80029" lon="0.55275">
        <ele>1011.7</ele>
        <time>2000-01-01T02:57:25.000Z</time>
      </trkpt>
      <trkpt lat="42.80029" lon="0.55257">
        <ele>1014</ele>
        <time>2000-01-01T02:57:35.000Z</time>
      </trkpt>
      <trkpt lat="42.80035" lon="0.55242">
        <ele>1011.7</ele>
        <time>2000-01-01T02:57:45.000Z</time>
      </trkpt>
      <trkpt lat="42.80043" lon="0.55198">
        <ele>1014</ele>
        <time>2000-01-01T02:57:55.000Z</time>
      </trkpt>
      <trkpt lat="42.80049" lon="0.55181">
        <ele>1011.2</ele>
        <time>2000-01-01T02:58:05.000Z</time>
      </trkpt>
      <trkpt lat="42.80056" lon="0.55166">
        <ele>1012</ele>
        <time>2000-01-01T02:58:15.000Z</time>
      </trkpt>
      <trkpt lat="42.80059" lon="0.5515">
        <ele>1008.7</ele>
        <time>2000-01-01T02:58:25.000Z</time>
      </trkpt>
      <trkpt lat="42.80067" lon="0.5514">
        <ele>1008</ele>
        <time>2000-01-01T02:58:35.000Z</time>
      </trkpt>
      <trkpt lat="42.80075" lon="0.55126">
        <ele>1003.1</ele>
        <time>2000-01-01T02:58:45.000Z</time>
      </trkpt>
      <trkpt lat="42.8008" lon="0.55113">
        <ele>1005</ele>
        <time>2000-01-01T02:58:55.000Z</time>
      </trkpt>
      <trkpt lat="42.80084" lon="0.55098">
        <ele>1000.2</ele>
        <time>2000-01-01T02:59:05.000Z</time>
      </trkpt>
      <trkpt lat="42.80089" lon="0.55082">
        <ele>1005</ele>
        <time>2000-01-01T02:59:15.000Z</time>
      </trkpt>
      <trkpt lat="42.80089" lon="0.55064">
        <ele>999.2</ele>
        <time>2000-01-01T02:59:25.000Z</time>
      </trkpt>
      <trkpt lat="42.80087" lon="0.55047">
        <ele>1005</ele>
        <time>2000-01-01T02:59:35.000Z</time>
      </trkpt>
      <trkpt lat="42.80086" lon="0.55032">
        <ele>1001.7</ele>
        <time>2000-01-01T02:59:45.000Z</time>
      </trkpt>
      <trkpt lat="42.80091" lon="0.55014">
        <ele>1003</ele>
        <time>2000-01-01T02:59:55.000Z</time>
      </trkpt>
      <trkpt lat="42.80094" lon="0.54999">
        <ele>999</ele>
        <time>2000-01-01T03:00:05.000Z</time>
      </trkpt>
      <trkpt lat="42.80093" lon="0.54984">
        <ele>1001</ele>
        <time>2000-01-01T03:00:15.000Z</time>
      </trkpt>
      <trkpt lat="42.80091" lon="0.54969">
        <ele>1001.4</ele>
        <time>2000-01-01T03:00:25.000Z</time>
      </trkpt>
      <trkpt lat="42.80091" lon="0.54953">
        <ele>1001</ele>
        <time>2000-01-01T03:00:35.000Z</time>
      </trkpt>
      <trkpt lat="42.80095" lon="0.54938">
        <ele>999.5</ele>
        <time>2000-01-01T03:00:45.000Z</time>
      </trkpt>
      <trkpt lat="42.80094" lon="0.54921">
        <ele>1001</ele>
        <time>2000-01-01T03:00:55.000Z</time>
      </trkpt>
      <trkpt lat="42.80092" lon="0.54906">
        <ele>1000.7</ele>
        <time>2000-01-01T03:01:05.000Z</time>
      </trkpt>
      <trkpt lat="42.80091" lon="0.5489">
        <ele>1002</ele>
        <time>2000-01-01T03:01:15.000Z</time>
      </trkpt>
      <trkpt lat="42.80086" lon="0.54874">
        <ele>1002.3</ele>
        <time>2000-01-01T03:01:25.000Z</time>
      </trkpt>
      <trkpt lat="42.80085" lon="0.54859">
        <ele>1004</ele>
        <time>2000-01-01T03:01:35.000Z</time>
      </trkpt>
      <trkpt lat="42.8008" lon="0.54843">
        <ele>1003.9</ele>
        <time>2000-01-01T03:01:45.000Z</time>
      </trkpt>
      <trkpt lat="42.80071" lon="0.54831">
        <ele>1007</ele>
        <time>2000-01-01T03:01:55.000Z</time>
      </trkpt>
      <trkpt lat="42.80064" lon="0.54816">
        <ele>1010</ele>
        <time>2000-01-01T03:02:05.000Z</time>
      </trkpt>
      <trkpt lat="42.80049" lon="0.54791">
        <ele>1019</ele>
        <time>2000-01-01T03:02:15.000Z</time>
      </trkpt>
      <trkpt lat="42.8004" lon="0.54778">
        <ele>1019.3</ele>
        <time>2000-01-01T03:02:25.000Z</time>
      </trkpt>
      <trkpt lat="42.80034" lon="0.54763">
        <ele>1018</ele>
        <time>2000-01-01T03:02:35.000Z</time>
      </trkpt>
      <trkpt lat="42.80036" lon="0.54746">
        <ele>1019.2</ele>
        <time>2000-01-01T03:02:45.000Z</time>
      </trkpt>
      <trkpt lat="42.80036" lon="0.54713">
        <ele>1018</ele>
        <time>2000-01-01T03:02:55.000Z</time>
      </trkpt>
      <trkpt lat="42.80032" lon="0.54697">
        <ele>1016.5</ele>
        <time>2000-01-01T03:03:05.000Z</time>
      </trkpt>
      <trkpt lat="42.80022" lon="0.54676">
        <ele>1023</ele>
        <time>2000-01-01T03:03:15.000Z</time>
      </trkpt>
      <trkpt lat="42.80011" lon="0.54661">
        <ele>1017.8</ele>
        <time>2000-01-01T03:03:25.000Z</time>
      </trkpt>
      <trkpt lat="42.79977" lon="0.54652">
        <ele>1029</ele>
        <time>2000-01-01T03:03:35.000Z</time>
      </trkpt>
      <trkpt lat="42.79966" lon="0.54651">
        <ele>1030.3</ele>
        <time>2000-01-01T03:03:45.000Z</time>
      </trkpt>
      <trkpt lat="42.79956" lon="0.54655">
        <ele>1034</ele>
        <time>2000-01-01T03:03:55.000Z</time>
      </trkpt>
      <trkpt lat="42.79943" lon="0.54655">
        <ele>1037.5</ele>
        <time>2000-01-01T03:04:05.000Z</time>
      </trkpt>
      <trkpt lat="42.79933" lon="0.54651">
        <ele>1039</ele>
        <time>2000-01-01T03:04:15.000Z</time>
      </trkpt>
      <trkpt lat="42.79923" lon="0.54645">
        <ele>1040.1</ele>
        <time>2000-01-01T03:04:25.000Z</time>
      </trkpt>
      <trkpt lat="42.79913" lon="0.54638">
        <ele>1039</ele>
        <time>2000-01-01T03:04:35.000Z</time>
      </trkpt>
      <trkpt lat="42.79905" lon="0.54624">
        <ele>1041.6</ele>
        <time>2000-01-01T03:04:45.000Z</time>
      </trkpt>
      <trkpt lat="42.79914" lon="0.54613">
        <ele>1037</ele>
        <time>2000-01-01T03:04:55.000Z</time>
      </trkpt>
      <trkpt lat="42.79924" lon="0.54606">
        <ele>1034.5</ele>
        <time>2000-01-01T03:05:05.000Z</time>
      </trkpt>
      <trkpt lat="42.79933" lon="0.54593">
        <ele>1033</ele>
        <time>2000-01-01T03:05:15.000Z</time>
      </trkpt>
      <trkpt lat="42.7994" lon="0.54579">
        <ele>1032</ele>
        <time>2000-01-01T03:05:25.000Z</time>
      </trkpt>
      <trkpt lat="42.79948" lon="0.54567">
        <ele>1033</ele>
        <time>2000-01-01T03:05:35.000Z</time>
      </trkpt>
      <trkpt lat="42.79963" lon="0.54541">
        <ele>1031</ele>
        <time>2000-01-01T03:05:45.000Z</time>
      </trkpt>
      <trkpt lat="42.79987" lon="0.54504">
        <ele>1026</ele>
        <time>2000-01-01T03:05:55.000Z</time>
      </trkpt>
      <trkpt lat="42.7999" lon="0.5449">
        <ele>1022.4</ele>
        <time>2000-01-01T03:06:05.000Z</time>
      </trkpt>
      <trkpt lat="42.79994" lon="0.54459">
        <ele>1026</ele>
        <time>2000-01-01T03:06:15.000Z</time>
      </trkpt>
      <trkpt lat="42.79994" lon="0.54444">
        <ele>1023</ele>
        <time>2000-01-01T03:06:25.000Z</time>
      </trkpt>
      <trkpt lat="42.79997" lon="0.54429">
        <ele>1026</ele>
        <time>2000-01-01T03:06:35.000Z</time>
      </trkpt>
      <trkpt lat="42.7999" lon="0.54416">
        <ele>1026</ele>
        <time>2000-01-01T03:06:45.000Z</time>
      </trkpt>
      <trkpt lat="42.79989" lon="0.54399">
        <ele>1026</ele>
        <time>2000-01-01T03:06:55.000Z</time>
      </trkpt>
      <trkpt lat="42.79991" lon="0.54384">
        <ele>1025.6</ele>
        <time>2000-01-01T03:07:05.000Z</time>
      </trkpt>
      <trkpt lat="42.79991" lon="0.54368">
        <ele>1027</ele>
        <time>2000-01-01T03:07:15.000Z</time>
      </trkpt>
      <trkpt lat="42.79996" lon="0.54353">
        <ele>1023.2</ele>
        <time>2000-01-01T03:07:25.000Z</time>
      </trkpt>
      <trkpt lat="42.79998" lon="0.54336">
        <ele>1027</ele>
        <time>2000-01-01T03:07:35.000Z</time>
      </trkpt>
      <trkpt lat="42.79997" lon="0.54321">
        <ele>1022.6</ele>
        <time>2000-01-01T03:07:45.000Z</time>
      </trkpt>
      <trkpt lat="42.79997" lon="0.54305">
        <ele>1026</ele>
        <time>2000-01-01T03:07:55.000Z</time>
      </trkpt>
      <trkpt lat="42.79996" lon="0.5429">
        <ele>1022</ele>
        <time>2000-01-01T03:08:05.000Z</time>
      </trkpt>
      <trkpt lat="42.79994" lon="0.54275">
        <ele>1027</ele>
        <time>2000-01-01T03:08:15.000Z</time>
      </trkpt>
      <trkpt lat="42.79991" lon="0.54261">
        <ele>1023.1</ele>
        <time>2000-01-01T03:08:25.000Z</time>
      </trkpt>
      <trkpt lat="42.79989" lon="0.54246">
        <ele>1028</ele>
        <time>2000-01-01T03:08:35.000Z</time>
      </trkpt>
      <trkpt lat="42.79991" lon="0.54231">
        <ele>1023.2</ele>
        <time>2000-01-01T03:08:45.000Z</time>
      </trkpt>
      <trkpt lat="42.7999" lon="0.54209">
        <ele>1029</ele>
        <time>2000-01-01T03:08:55.000Z</time>
      </trkpt>
      <trkpt lat="42.79988" lon="0.54185">
        <ele>1026.2</ele>
        <time>2000-01-01T03:09:05.000Z</time>
      </trkpt>
      <trkpt lat="42.79969" lon="0.54146">
        <ele>1042</ele>
        <time>2000-01-01T03:09:15.000Z</time>
      </trkpt>
      <trkpt lat="42.79961" lon="0.54134">
        <ele>1040.4</ele>
        <time>2000-01-01T03:09:25.000Z</time>
      </trkpt>
      <trkpt lat="42.79956" lon="0.54122">
        <ele>1045</ele>
        <time>2000-01-01T03:09:35.000Z</time>
      </trkpt>
      <trkpt lat="42.79951" lon="0.54108">
        <ele>1043.7</ele>
        <time>2000-01-01T03:09:45.000Z</time>
      </trkpt>
      <trkpt lat="42.79944" lon="0.54095">
        <ele>1047</ele>
        <time>2000-01-01T03:09:55.000Z</time>
      </trkpt>
      <trkpt lat="42.79933" lon="0.54068">
        <ele>1050</ele>
        <time>2000-01-01T03:10:05.000Z</time>
      </trkpt>
      <trkpt lat="42.79927" lon="0.54055">
        <ele>1050.5</ele>
        <time>2000-01-01T03:10:15.000Z</time>
      </trkpt>
      <trkpt lat="42.79923" lon="0.54039">
        <ele>1048</ele>
        <time>2000-01-01T03:10:25.000Z</time>
      </trkpt>
      <trkpt lat="42.79926" lon="0.54023">
        <ele>1049.1</ele>
        <time>2000-01-01T03:10:35.000Z</time>
      </trkpt>
      <trkpt lat="42.79931" lon="0.54009">
        <ele>1047</ele>
        <time>2000-01-01T03:10:45.000Z</time>
      </trkpt>
      <trkpt lat="42.79935" lon="0.53993">
        <ele>1044.6</ele>
        <time>2000-01-01T03:10:55.000Z</time>
      </trkpt>
      <trkpt lat="42.79935" lon="0.53979">
        <ele>1046</ele>
        <time>2000-01-01T03:11:05.000Z</time>
      </trkpt>
      <trkpt lat="42.7994" lon="0.53964">
        <ele>1041.6</ele>
        <time>2000-01-01T03:11:15.000Z</time>
      </trkpt>
      <trkpt lat="42.79942" lon="0.53948">
        <ele>1040</ele>
        <time>2000-01-01T03:11:25.000Z</time>
      </trkpt>
      <trkpt lat="42.79948" lon="0.53916">
        <ele>1040</ele>
        <time>2000-01-01T03:11:35.000Z</time>
      </trkpt>
      <trkpt lat="42.79955" lon="0.53901">
        <ele>1034.4</ele>
        <time>2000-01-01T03:11:45.000Z</time>
      </trkpt>
      <trkpt lat="42.79963" lon="0.53889">
        <ele>1032</ele>
        <time>2000-01-01T03:11:55.000Z</time>
      </trkpt>
      <trkpt lat="42.79976" lon="0.53862">
        <ele>1026</ele>
        <time>2000-01-01T03:12:05.000Z</time>
      </trkpt>
      <trkpt lat="42.7998" lon="0.53832">
        <ele>1026</ele>
        <time>2000-01-01T03:12:15.000Z</time>
      </trkpt>
      <trkpt lat="42.79979" lon="0.53814">
        <ele>1022.1</ele>
        <time>2000-01-01T03:12:25.000Z</time>
      </trkpt>
      <trkpt lat="42.79982" lon="0.53796">
        <ele>1021</ele>
        <time>2000-01-01T03:12:35.000Z</time>
      </trkpt>
      <trkpt lat="42.79984" lon="0.5378">
        <ele>1019</ele>
        <time>2000-01-01T03:12:45.000Z</time>
      </trkpt>
      <trkpt lat="42.79984" lon="0.53766">
        <ele>1020</ele>
        <time>2000-01-01T03:12:55.000Z</time>
      </trkpt>
      <trkpt lat="42.79994" lon="0.53738">
        <ele>1019</ele>
        <time>2000-01-01T03:13:05.000Z</time>
      </trkpt>
      <trkpt lat="42.79991" lon="0.5372">
        <ele>1014.1</ele>
        <time>2000-01-01T03:13:15.000Z</time>
      </trkpt>
      <trkpt lat="42.79984" lon="0.53706">
        <ele>1020</ele>
        <time>2000-01-01T03:13:25.000Z</time>
      </trkpt>
      <trkpt lat="42.7998" lon="0.53691">
        <ele>1018.3</ele>
        <time>2000-01-01T03:13:35.000Z</time>
      </trkpt>
      <trkpt lat="42.79977" lon="0.53676">
        <ele>1020</ele>
        <time>2000-01-01T03:13:45.000Z</time>
      </trkpt>
      <trkpt lat="42.79976" lon="0.5366">
        <ele>1019.1</ele>
        <time>2000-01-01T03:13:55.000Z</time>
      </trkpt>
      <trkpt lat="42.79977" lon="0.53645">
        <ele>1020</ele>
        <time>2000-01-01T03:14:05.000Z</time>
      </trkpt>
      <trkpt lat="42.79973" lon="0.53631">
        <ele>1019.4</ele>
        <time>2000-01-01T03:14:15.000Z</time>
      </trkpt>
      <trkpt lat="42.79967" lon="0.53617">
        <ele>1025</ele>
        <time>2000-01-01T03:14:25.000Z</time>
      </trkpt>
      <trkpt lat="42.79964" lon="0.53603">
        <ele>1022.6</ele>
        <time>2000-01-01T03:14:35.000Z</time>
      </trkpt>
      <trkpt lat="42.7996" lon="0.53588">
        <ele>1026</ele>
        <time>2000-01-01T03:14:45.000Z</time>
      </trkpt>
      <trkpt lat="42.7996" lon="0.53571">
        <ele>1023.3</ele>
        <time>2000-01-01T03:14:55.000Z</time>
      </trkpt>
      <trkpt lat="42.79958" lon="0.53559">
        <ele>1027</ele>
        <time>2000-01-01T03:15:05.000Z</time>
      </trkpt>
      <trkpt lat="42.79945" lon="0.53539">
        <ele>1029.1</ele>
        <time>2000-01-01T03:15:15.000Z</time>
      </trkpt>
      <trkpt lat="42.79946" lon="0.53531">
        <ele>1026</ele>
        <time>2000-01-01T03:15:25.000Z</time>
      </trkpt>
      <trkpt lat="42.79954" lon="0.53516">
        <ele>1024.1</ele>
        <time>2000-01-01T03:15:35.000Z</time>
      </trkpt>
      <trkpt lat="42.79959" lon="0.53501">
        <ele>1025</ele>
        <time>2000-01-01T03:15:45.000Z</time>
      </trkpt>
      <trkpt lat="42.79965" lon="0.53489">
        <ele>1018</ele>
        <time>2000-01-01T03:15:55.000Z</time>
      </trkpt>
      <trkpt lat="42.79972" lon="0.53473">
        <ele>1014</ele>
        <time>2000-01-01T03:16:05.000Z</time>
      </trkpt>
      <trkpt lat="42.79975" lon="0.5346">
        <ele>1012.5</ele>
        <time>2000-01-01T03:16:15.000Z</time>
      </trkpt>
      <trkpt lat="42.79977" lon="0.53444">
        <ele>1014</ele>
        <time>2000-01-01T03:16:25.000Z</time>
      </trkpt>
      <trkpt lat="42.79985" lon="0.53412">
        <ele>1010</ele>
        <time>2000-01-01T03:16:35.000Z</time>
      </trkpt>
      <trkpt lat="42.79998" lon="0.53387">
        <ele>1006</ele>
        <time>2000-01-01T03:16:45.000Z</time>
      </trkpt>
      <trkpt lat="42.8" lon="0.53371">
        <ele>1002</ele>
        <time>2000-01-01T03:16:55.000Z</time>
      </trkpt>
      <trkpt lat="42.8" lon="0.53356">
        <ele>1006</ele>
        <time>2000-01-01T03:17:05.000Z</time>
      </trkpt>
      <trkpt lat="42.79999" lon="0.53341">
        <ele>1002.4</ele>
        <time>2000-01-01T03:17:15.000Z</time>
      </trkpt>
      <trkpt lat="42.79999" lon="0.5331">
        <ele>1004</ele>
        <time>2000-01-01T03:17:25.000Z</time>
      </trkpt>
      <trkpt lat="42.80009" lon="0.53314">
        <ele>997.3</ele>
        <time>2000-01-01T03:17:35.000Z</time>
      </trkpt>
      <trkpt lat="42.8001" lon="0.53324">
        <ele>997.5</ele>
        <time>2000-01-01T03:17:45.000Z</time>
      </trkpt>
      <trkpt lat="42.80012" lon="0.53325">
        <ele>997</ele>
        <time>2000-01-01T03:17:55.000Z</time>
      </trkpt>
      <trkpt lat="42.80014" lon="0.53323">
        <ele>995.9</ele>
        <time>2000-01-01T03:18:05.000Z</time>
      </trkpt>
      <trkpt lat="42.8002" lon="0.53309">
        <ele>993</ele>
        <time>2000-01-01T03:18:15.000Z</time>
      </trkpt>
      <trkpt lat="42.8002" lon="0.53284">
        <ele>993</ele>
        <time>2000-01-01T03:18:25.000Z</time>
      </trkpt>
      <trkpt lat="42.80022" lon="0.53269">
        <ele>986.4</ele>
        <time>2000-01-01T03:18:35.000Z</time>
      </trkpt>
      <trkpt lat="42.80017" lon="0.53256">
        <ele>987</ele>
        <time>2000-01-01T03:18:45.000Z</time>
      </trkpt>
      <trkpt lat="42.80016" lon="0.53241">
        <ele>982.9</ele>
        <time>2000-01-01T03:18:55.000Z</time>
      </trkpt>
      <trkpt lat="42.80007" lon="0.5323">
        <ele>986</ele>
        <time>2000-01-01T03:19:05.000Z</time>
      </trkpt>
      <trkpt lat="42.79996" lon="0.5322">
        <ele>986.4</ele>
        <time>2000-01-01T03:19:15.000Z</time>
      </trkpt>
      <trkpt lat="42.79992" lon="0.53206">
        <ele>986</ele>
        <time>2000-01-01T03:19:25.000Z</time>
      </trkpt>
      <trkpt lat="42.79992" lon="0.53188">
        <ele>983.1</ele>
        <time>2000-01-01T03:19:35.000Z</time>
      </trkpt>
      <trkpt lat="42.79995" lon="0.53171">
        <ele>981</ele>
        <time>2000-01-01T03:19:45.000Z</time>
      </trkpt>
      <trkpt lat="42.80001" lon="0.53154">
        <ele>977.3</ele>
        <time>2000-01-01T03:19:55.000Z</time>
      </trkpt>
      <trkpt lat="42.80004" lon="0.5314">
        <ele>977</ele>
        <time>2000-01-01T03:20:05.000Z</time>
      </trkpt>
      <trkpt lat="42.80011" lon="0.53129">
        <ele>975.2</ele>
        <time>2000-01-01T03:20:15.000Z</time>
      </trkpt>
      <trkpt lat="42.80018" lon="0.53116">
        <ele>976</ele>
        <time>2000-01-01T03:20:25.000Z</time>
      </trkpt>
      <trkpt lat="42.80024" lon="0.531">
        <ele>973.7</ele>
        <time>2000-01-01T03:20:35.000Z</time>
      </trkpt>
      <trkpt lat="42.80026" lon="0.53085">
        <ele>975</ele>
        <time>2000-01-01T03:20:45.000Z</time>
      </trkpt>
      <trkpt lat="42.80032" lon="0.53069">
        <ele>973.7</ele>
        <time>2000-01-01T03:20:55.000Z</time>
      </trkpt>
      <trkpt lat="42.80036" lon="0.53055">
        <ele>975</ele>
        <time>2000-01-01T03:21:05.000Z</time>
      </trkpt>
      <trkpt lat="42.80036" lon="0.53039">
        <ele>974.5</ele>
        <time>2000-01-01T03:21:15.000Z</time>
      </trkpt>
      <trkpt lat="42.80032" lon="0.53024">
        <ele>977</ele>
        <time>2000-01-01T03:21:25.000Z</time>
      </trkpt>
      <trkpt lat="42.80033" lon="0.53009">
        <ele>977.6</ele>
        <time>2000-01-01T03:21:35.000Z</time>
      </trkpt>
      <trkpt lat="42.80036" lon="0.52993">
        <ele>980</ele>
        <time>2000-01-01T03:21:45.000Z</time>
      </trkpt>
      <trkpt lat="42.80037" lon="0.52978">
        <ele>978.7</ele>
        <time>2000-01-01T03:21:55.000Z</time>
      </trkpt>
      <trkpt lat="42.80039" lon="0.52962">
        <ele>981</ele>
        <time>2000-01-01T03:22:05.000Z</time>
      </trkpt>
      <trkpt lat="42.80037" lon="0.52947">
        <ele>980.8</ele>
        <time>2000-01-01T03:22:15.000Z</time>
      </trkpt>
      <trkpt lat="42.80037" lon="0.52931">
        <ele>983</ele>
        <time>2000-01-01T03:22:25.000Z</time>
      </trkpt>
      <trkpt lat="42.80033" lon="0.52916">
        <ele>983.1</ele>
        <time>2000-01-01T03:22:35.000Z</time>
      </trkpt>
      <trkpt lat="42.80025" lon="0.52904">
        <ele>989</ele>
        <time>2000-01-01T03:22:45.000Z</time>
      </trkpt>
      <trkpt lat="42.80024" lon="0.52889">
        <ele>986.8</ele>
        <time>2000-01-01T03:22:55.000Z</time>
      </trkpt>
      <trkpt lat="42.80025" lon="0.52872">
        <ele>989</ele>
        <time>2000-01-01T03:23:05.000Z</time>
      </trkpt>
      <trkpt lat="42.80027" lon="0.52856">
        <ele>986.4</ele>
        <time>2000-01-01T03:23:15.000Z</time>
      </trkpt>
      <trkpt lat="42.80033" lon="0.52841">
        <ele>984</ele>
        <time>2000-01-01T03:23:25.000Z</time>
      </trkpt>
      <trkpt lat="42.80036" lon="0.52825">
        <ele>981.9</ele>
        <time>2000-01-01T03:23:35.000Z</time>
      </trkpt>
      <trkpt lat="42.8004" lon="0.52809">
        <ele>983</ele>
        <time>2000-01-01T03:23:45.000Z</time>
      </trkpt>
      <trkpt lat="42.8005" lon="0.52763">
        <ele>978</ele>
        <time>2000-01-01T03:23:55.000Z</time>
      </trkpt>
      <trkpt lat="42.80052" lon="0.52748">
        <ele>971.7</ele>
        <time>2000-01-01T03:24:05.000Z</time>
      </trkpt>
      <trkpt lat="42.80055" lon="0.52731">
        <ele>972</ele>
        <time>2000-01-01T03:24:15.000Z</time>
      </trkpt>
      <trkpt lat="42.80056" lon="0.52716">
        <ele>968.3</ele>
        <time>2000-01-01T03:24:25.000Z</time>
      </trkpt>
      <trkpt lat="42.80056" lon="0.52699">
        <ele>969</ele>
        <time>2000-01-01T03:24:35.000Z</time>
      </trkpt>
      <trkpt lat="42.80059" lon="0.52684">
        <ele>964</ele>
        <time>2000-01-01T03:24:45.000Z</time>
      </trkpt>
      <trkpt lat="42.80059" lon="0.52667">
        <ele>967</ele>
        <time>2000-01-01T03:24:55.000Z</time>
      </trkpt>
      <trkpt lat="42.80061" lon="0.52652">
        <ele>959.4</ele>
        <time>2000-01-01T03:25:05.000Z</time>
      </trkpt>
      <trkpt lat="42.80063" lon="0.52618">
        <ele>962</ele>
        <time>2000-01-01T03:25:15.000Z</time>
      </trkpt>
      <trkpt lat="42.8006" lon="0.52573">
        <ele>958</ele>
        <time>2000-01-01T03:25:25.000Z</time>
      </trkpt>
      <trkpt lat="42.80058" lon="0.52558">
        <ele>951.9</ele>
        <time>2000-01-01T03:25:35.000Z</time>
      </trkpt>
      <trkpt lat="42.80053" lon="0.52543">
        <ele>959</ele>
        <time>2000-01-01T03:25:45.000Z</time>
      </trkpt>
      <trkpt lat="42.80046" lon="0.5253">
        <ele>955.1</ele>
        <time>2000-01-01T03:25:55.000Z</time>
      </trkpt>
      <trkpt lat="42.8004" lon="0.52515">
        <ele>960</ele>
        <time>2000-01-01T03:26:05.000Z</time>
      </trkpt>
      <trkpt lat="42.80035" lon="0.525">
        <ele>957.4</ele>
        <time>2000-01-01T03:26:15.000Z</time>
      </trkpt>
      <trkpt lat="42.80028" lon="0.52487">
        <ele>964</ele>
        <time>2000-01-01T03:26:25.000Z</time>
      </trkpt>
      <trkpt lat="42.80024" lon="0.52472">
        <ele>960.2</ele>
        <time>2000-01-01T03:26:35.000Z</time>
      </trkpt>
      <trkpt lat="42.80018" lon="0.52459">
        <ele>965</ele>
        <time>2000-01-01T03:26:45.000Z</time>
      </trkpt>
      <trkpt lat="42.80011" lon="0.52446">
        <ele>965.2</ele>
        <time>2000-01-01T03:26:55.000Z</time>
      </trkpt>
      <trkpt lat="42.80006" lon="0.52433">
        <ele>965</ele>
        <time>2000-01-01T03:27:05.000Z</time>
      </trkpt>
      <trkpt lat="42.80003" lon="0.52416">
        <ele>967.2</ele>
        <time>2000-01-01T03:27:15.000Z</time>
      </trkpt>
      <trkpt lat="42.80002" lon="0.52401">
        <ele>966</ele>
        <time>2000-01-01T03:27:25.000Z</time>
      </trkpt>
      <trkpt lat="42.79996" lon="0.52389">
        <ele>968.7</ele>
        <time>2000-01-01T03:27:35.000Z</time>
      </trkpt>
      <trkpt lat="42.79991" lon="0.52375">
        <ele>972</ele>
        <time>2000-01-01T03:27:45.000Z</time>
      </trkpt>
      <trkpt lat="42.79982" lon="0.52365">
        <ele>976.6</ele>
        <time>2000-01-01T03:27:55.000Z</time>
      </trkpt>
      <trkpt lat="42.79979" lon="0.52349">
        <ele>975</ele>
        <time>2000-01-01T03:28:05.000Z</time>
      </trkpt>
      <trkpt lat="42.79979" lon="0.52333">
        <ele>976.3</ele>
        <time>2000-01-01T03:28:15.000Z</time>
      </trkpt>
      <trkpt lat="42.79976" lon="0.52318">
        <ele>975</ele>
        <time>2000-01-01T03:28:25.000Z</time>
      </trkpt>
      <trkpt lat="42.79975" lon="0.52302">
        <ele>975.8</ele>
        <time>2000-01-01T03:28:35.000Z</time>
      </trkpt>
      <trkpt lat="42.79977" lon="0.52285">
        <ele>974</ele>
        <time>2000-01-01T03:28:45.000Z</time>
      </trkpt>
      <trkpt lat="42.79973" lon="0.52268">
        <ele>973.8</ele>
        <time>2000-01-01T03:28:55.000Z</time>
      </trkpt>
      <trkpt lat="42.79971" lon="0.52252">
        <ele>977</ele>
        <time>2000-01-01T03:29:05.000Z</time>
      </trkpt>
      <trkpt lat="42.79962" lon="0.52202">
        <ele>977</ele>
        <time>2000-01-01T03:29:15.000Z</time>
      </trkpt>
      <trkpt lat="42.7996" lon="0.52187">
        <ele>978.8</ele>
        <time>2000-01-01T03:29:25.000Z</time>
      </trkpt>
      <trkpt lat="42.79961" lon="0.52171">
        <ele>978</ele>
        <time>2000-01-01T03:29:35.000Z</time>
      </trkpt>
      <trkpt lat="42.79959" lon="0.52136">
        <ele>980</ele>
        <time>2000-01-01T03:29:45.000Z</time>
      </trkpt>
      <trkpt lat="42.79954" lon="0.52118">
        <ele>980</ele>
        <time>2000-01-01T03:29:55.000Z</time>
      </trkpt>
      <trkpt lat="42.79951" lon="0.52101">
        <ele>982</ele>
        <time>2000-01-01T03:30:05.000Z</time>
      </trkpt>
      <trkpt lat="42.79949" lon="0.52085">
        <ele>982.6</ele>
        <time>2000-01-01T03:30:15.000Z</time>
      </trkpt>
      <trkpt lat="42.79949" lon="0.52069">
        <ele>981</ele>
        <time>2000-01-01T03:30:25.000Z</time>
      </trkpt>
      <trkpt lat="42.79951" lon="0.52053">
        <ele>980.3</ele>
        <time>2000-01-01T03:30:35.000Z</time>
      </trkpt>
      <trkpt lat="42.79951" lon="0.52038">
        <ele>980</ele>
        <time>2000-01-01T03:30:45.000Z</time>
      </trkpt>
      <trkpt lat="42.79953" lon="0.52023">
        <ele>978.8</ele>
        <time>2000-01-01T03:30:55.000Z</time>
      </trkpt>
      <trkpt lat="42.79955" lon="0.51993">
        <ele>980</ele>
        <time>2000-01-01T03:31:05.000Z</time>
      </trkpt>
      <trkpt lat="42.79957" lon="0.51977">
        <ele>975.1</ele>
        <time>2000-01-01T03:31:15.000Z</time>
      </trkpt>
      <trkpt lat="42.79958" lon="0.5196">
        <ele>979</ele>
        <time>2000-01-01T03:31:25.000Z</time>
      </trkpt>
      <trkpt lat="42.79965" lon="0.51946">
        <ele>968</ele>
        <time>2000-01-01T03:31:35.000Z</time>
      </trkpt>
      <trkpt lat="42.79968" lon="0.51931">
        <ele>972</ele>
        <time>2000-01-01T03:31:45.000Z</time>
      </trkpt>
      <trkpt lat="42.79969" lon="0.51915">
        <ele>965.3</ele>
        <time>2000-01-01T03:31:55.000Z</time>
      </trkpt>
      <trkpt lat="42.79969" lon="0.51899">
        <ele>972</ele>
        <time>2000-01-01T03:32:05.000Z</time>
      </trkpt>
      <trkpt lat="42.79968" lon="0.51883">
        <ele>966.7</ele>
        <time>2000-01-01T03:32:15.000Z</time>
      </trkpt>
      <trkpt lat="42.79965" lon="0.51866">
        <ele>972</ele>
        <time>2000-01-01T03:32:25.000Z</time>
      </trkpt>
      <trkpt lat="42.79964" lon="0.5185">
        <ele>968.9</ele>
        <time>2000-01-01T03:32:35.000Z</time>
      </trkpt>
      <trkpt lat="42.79961" lon="0.51834">
        <ele>972</ele>
        <time>2000-01-01T03:32:45.000Z</time>
      </trkpt>
      <trkpt lat="42.79957" lon="0.51819">
        <ele>972</ele>
        <time>2000-01-01T03:32:55.000Z</time>
      </trkpt>
      <trkpt lat="42.79956" lon="0.51803">
        <ele>971</ele>
        <time>2000-01-01T03:33:05.000Z</time>
      </trkpt>
      <trkpt lat="42.79958" lon="0.51786">
        <ele>968.9</ele>
        <time>2000-01-01T03:33:15.000Z</time>
      </trkpt>
      <trkpt lat="42.79955" lon="0.51772">
        <ele>971</ele>
        <time>2000-01-01T03:33:25.000Z</time>
      </trkpt>
      <trkpt lat="42.79948" lon="0.51759">
        <ele>970.7</ele>
        <time>2000-01-01T03:33:35.000Z</time>
      </trkpt>
      <trkpt lat="42.79948" lon="0.51742">
        <ele>971</ele>
        <time>2000-01-01T03:33:45.000Z</time>
      </trkpt>
      <trkpt lat="42.79951" lon="0.51727">
        <ele>965.1</ele>
        <time>2000-01-01T03:33:55.000Z</time>
      </trkpt>
      <trkpt lat="42.79953" lon="0.51709">
        <ele>963</ele>
        <time>2000-01-01T03:34:05.000Z</time>
      </trkpt>
      <trkpt lat="42.79954" lon="0.51693">
        <ele>961.5</ele>
        <time>2000-01-01T03:34:15.000Z</time>
      </trkpt>
      <trkpt lat="42.79954" lon="0.51661">
        <ele>965</ele>
        <time>2000-01-01T03:34:25.000Z</time>
      </trkpt>
      <trkpt lat="42.7995" lon="0.51646">
        <ele>962.7</ele>
        <time>2000-01-01T03:34:35.000Z</time>
      </trkpt>
      <trkpt lat="42.79948" lon="0.5163">
        <ele>967</ele>
        <time>2000-01-01T03:34:45.000Z</time>
      </trkpt>
      <trkpt lat="42.79944" lon="0.51614">
        <ele>966.1</ele>
        <time>2000-01-01T03:34:55.000Z</time>
      </trkpt>
      <trkpt lat="42.79942" lon="0.51598">
        <ele>968</ele>
        <time>2000-01-01T03:35:05.000Z</time>
      </trkpt>
      <trkpt lat="42.79943" lon="0.5158">
        <ele>967.7</ele>
        <time>2000-01-01T03:35:15.000Z</time>
      </trkpt>
      <trkpt lat="42.79947" lon="0.51566">
        <ele>968</ele>
        <time>2000-01-01T03:35:25.000Z</time>
      </trkpt>
      <trkpt lat="42.7995" lon="0.51551">
        <ele>964.7</ele>
        <time>2000-01-01T03:35:35.000Z</time>
      </trkpt>
      <trkpt lat="42.79954" lon="0.51518">
        <ele>961</ele>
        <time>2000-01-01T03:35:45.000Z</time>
      </trkpt>
      <trkpt lat="42.79954" lon="0.51503">
        <ele>959.5</ele>
        <time>2000-01-01T03:35:55.000Z</time>
      </trkpt>
      <trkpt lat="42.79946" lon="0.5149">
        <ele>961</ele>
        <time>2000-01-01T03:36:05.000Z</time>
      </trkpt>
      <trkpt lat="42.79937" lon="0.5148">
        <ele>962.9</ele>
        <time>2000-01-01T03:36:15.000Z</time>
      </trkpt>
      <trkpt lat="42.79916" lon="0.5144">
        <ele>962</ele>
        <time>2000-01-01T03:36:25.000Z</time>
      </trkpt>
      <trkpt lat="42.79907" lon="0.51408">
        <ele>962</ele>
        <time>2000-01-01T03:36:35.000Z</time>
      </trkpt>
      <trkpt lat="42.79901" lon="0.51396">
        <ele>961.7</ele>
        <time>2000-01-01T03:36:45.000Z</time>
      </trkpt>
      <trkpt lat="42.79896" lon="0.51381">
        <ele>962</ele>
        <time>2000-01-01T03:36:55.000Z</time>
      </trkpt>
      <trkpt lat="42.79893" lon="0.51367">
        <ele>960.7</ele>
        <time>2000-01-01T03:37:05.000Z</time>
      </trkpt>
      <trkpt lat="42.79887" lon="0.51353">
        <ele>962</ele>
        <time>2000-01-01T03:37:15.000Z</time>
      </trkpt>
      <trkpt lat="42.79871" lon="0.51311">
        <ele>962</ele>
        <time>2000-01-01T03:37:25.000Z</time>
      </trkpt>
      <trkpt lat="42.7986" lon="0.51266">
        <ele>962</ele>
        <time>2000-01-01T03:37:35.000Z</time>
      </trkpt>
      <trkpt lat="42.79853" lon="0.51252">
        <ele>961.8</ele>
        <time>2000-01-01T03:37:45.000Z</time>
      </trkpt>
      <trkpt lat="42.79849" lon="0.51238">
        <ele>964</ele>
        <time>2000-01-01T03:37:55.000Z</time>
      </trkpt>
      <trkpt lat="42.79835" lon="0.51211">
        <ele>964</ele>
        <time>2000-01-01T03:38:05.000Z</time>
      </trkpt>
      <trkpt lat="42.7983" lon="0.51196">
        <ele>963.4</ele>
        <time>2000-01-01T03:38:15.000Z</time>
      </trkpt>
      <trkpt lat="42.79821" lon="0.51183">
        <ele>965</ele>
        <time>2000-01-01T03:38:25.000Z</time>
      </trkpt>
      <trkpt lat="42.79813" lon="0.5117">
        <ele>966</ele>
        <time>2000-01-01T03:38:35.000Z</time>
      </trkpt>
      <trkpt lat="42.79801" lon="0.51147">
        <ele>966</ele>
        <time>2000-01-01T03:38:45.000Z</time>
      </trkpt>
      <trkpt lat="42.79795" lon="0.51134">
        <ele>967.6</ele>
        <time>2000-01-01T03:38:55.000Z</time>
      </trkpt>
      <trkpt lat="42.7979" lon="0.5112">
        <ele>966</ele>
        <time>2000-01-01T03:39:05.000Z</time>
      </trkpt>
      <trkpt lat="42.79787" lon="0.51105">
        <ele>967.1</ele>
        <time>2000-01-01T03:39:15.000Z</time>
      </trkpt>
      <trkpt lat="42.79787" lon="0.5109">
        <ele>966</ele>
        <time>2000-01-01T03:39:25.000Z</time>
      </trkpt>
      <trkpt lat="42.79784" lon="0.51073">
        <ele>965.3</ele>
        <time>2000-01-01T03:39:35.000Z</time>
      </trkpt>
      <trkpt lat="42.79782" lon="0.51057">
        <ele>967</ele>
        <time>2000-01-01T03:39:45.000Z</time>
      </trkpt>
      <trkpt lat="42.7977" lon="0.5103">
        <ele>966</ele>
        <time>2000-01-01T03:39:55.000Z</time>
      </trkpt>
      <trkpt lat="42.79765" lon="0.51016">
        <ele>967.3</ele>
        <time>2000-01-01T03:40:05.000Z</time>
      </trkpt>
      <trkpt lat="42.79762" lon="0.51002">
        <ele>966</ele>
        <time>2000-01-01T03:40:15.000Z</time>
      </trkpt>
      <trkpt lat="42.79754" lon="0.50973">
        <ele>966</ele>
        <time>2000-01-01T03:40:25.000Z</time>
      </trkpt>
      <trkpt lat="42.79738" lon="0.5095">
        <ele>965</ele>
        <time>2000-01-01T03:40:35.000Z</time>
      </trkpt>
      <trkpt lat="42.79723" lon="0.50909">
        <ele>964</ele>
        <time>2000-01-01T03:40:45.000Z</time>
      </trkpt>
      <trkpt lat="42.79705" lon="0.50875">
        <ele>964</ele>
        <time>2000-01-01T03:40:55.000Z</time>
      </trkpt>
      <trkpt lat="42.79693" lon="0.5084">
        <ele>961</ele>
        <time>2000-01-01T03:41:05.000Z</time>
      </trkpt>
      <trkpt lat="42.79687" lon="0.5083">
        <ele>963.3</ele>
        <time>2000-01-01T03:41:15.000Z</time>
      </trkpt>
      <trkpt lat="42.79706" lon="0.50836">
        <ele>959</ele>
        <time>2000-01-01T03:41:25.000Z</time>
      </trkpt>
      <trkpt lat="42.79714" lon="0.50816">
        <ele>959</ele>
        <time>2000-01-01T03:41:35.000Z</time>
      </trkpt>
      <trkpt lat="42.7972" lon="0.50799">
        <ele>959</ele>
        <time>2000-01-01T03:41:45.000Z</time>
      </trkpt>
      <trkpt lat="42.79714" lon="0.50788">
        <ele>959.4</ele>
        <time>2000-01-01T03:41:55.000Z</time>
      </trkpt>
      <trkpt lat="42.79704" lon="0.50777">
        <ele>959</ele>
        <time>2000-01-01T03:42:05.000Z</time>
      </trkpt>
      <trkpt lat="42.79696" lon="0.50765">
        <ele>959.5</ele>
        <time>2000-01-01T03:42:15.000Z</time>
      </trkpt>
      <trkpt lat="42.79684" lon="0.50738">
        <ele>959</ele>
        <time>2000-01-01T03:42:25.000Z</time>
      </trkpt>
      <trkpt lat="42.7968" lon="0.50724">
        <ele>960.4</ele>
        <time>2000-01-01T03:42:35.000Z</time>
      </trkpt>
      <trkpt lat="42.79677" lon="0.50708">
        <ele>960</ele>
        <time>2000-01-01T03:42:45.000Z</time>
      </trkpt>
      <trkpt lat="42.79673" lon="0.50694">
        <ele>960.5</ele>
        <time>2000-01-01T03:42:55.000Z</time>
      </trkpt>
      <trkpt lat="42.79669" lon="0.50663">
        <ele>962</ele>
        <time>2000-01-01T03:43:05.000Z</time>
      </trkpt>
      <trkpt lat="42.79666" lon="0.50648">
        <ele>962.7</ele>
        <time>2000-01-01T03:43:15.000Z</time>
      </trkpt>
      <trkpt lat="42.79664" lon="0.50633">
        <ele>963</ele>
        <time>2000-01-01T03:43:25.000Z</time>
      </trkpt>
      <trkpt lat="42.79657" lon="0.50619">
        <ele>963.7</ele>
        <time>2000-01-01T03:43:35.000Z</time>
      </trkpt>
      <trkpt lat="42.79648" lon="0.50609">
        <ele>963</ele>
        <time>2000-01-01T03:43:45.000Z</time>
      </trkpt>
      <trkpt lat="42.7964" lon="0.50598">
        <ele>964</ele>
        <time>2000-01-01T03:43:55.000Z</time>
      </trkpt>
      <trkpt lat="42.79633" lon="0.50585">
        <ele>964</ele>
        <time>2000-01-01T03:44:05.000Z</time>
      </trkpt>
      <trkpt lat="42.79619" lon="0.50577">
        <ele>964.3</ele>
        <time>2000-01-01T03:44:15.000Z</time>
      </trkpt>
      <trkpt lat="42.79604" lon="0.50566">
        <ele>964</ele>
        <time>2000-01-01T03:44:25.000Z</time>
      </trkpt>
      <trkpt lat="42.7958" lon="0.50557">
        <ele>964</ele>
        <time>2000-01-01T03:44:35.000Z</time>
      </trkpt>
      <trkpt lat="42.79568" lon="0.50554">
        <ele>964.5</ele>
        <time>2000-01-01T03:44:45.000Z</time>
      </trkpt>
      <trkpt lat="42.7956" lon="0.50553">
        <ele>964</ele>
        <time>2000-01-01T03:44:55.000Z</time>
      </trkpt>
      <trkpt lat="42.79546" lon="0.50548">
        <ele>964.3</ele>
        <time>2000-01-01T03:45:05.000Z</time>
      </trkpt>
      <trkpt lat="42.79531" lon="0.50541">
        <ele>964</ele>
        <time>2000-01-01T03:45:15.000Z</time>
      </trkpt>
      <trkpt lat="42.79523" lon="0.50539">
        <ele>964.7</ele>
        <time>2000-01-01T03:45:25.000Z</time>
      </trkpt>
      <trkpt lat="42.79474" lon="0.50515">
        <ele>966</ele>
        <time>2000-01-01T03:45:35.000Z</time>
      </trkpt>
      <trkpt lat="42.79466" lon="0.5051">
        <ele>966.1</ele>
        <time>2000-01-01T03:45:45.000Z</time>
      </trkpt>
      <trkpt lat="42.79442" lon="0.50504">
        <ele>967</ele>
        <time>2000-01-01T03:45:55.000Z</time>
      </trkpt>
      <trkpt lat="42.79434" lon="0.505">
        <ele>967.4</ele>
        <time>2000-01-01T03:46:05.000Z</time>
      </trkpt>
      <trkpt lat="42.79419" lon="0.50495">
        <ele>968</ele>
        <time>2000-01-01T03:46:15.000Z</time>
      </trkpt>
      <trkpt lat="42.79406" lon="0.50494">
        <ele>968.5</ele>
        <time>2000-01-01T03:46:25.000Z</time>
      </trkpt>
      <trkpt lat="42.79382" lon="0.50494">
        <ele>969</ele>
        <time>2000-01-01T03:46:35.000Z</time>
      </trkpt>
      <trkpt lat="42.79367" lon="0.50491">
        <ele>969.3</ele>
        <time>2000-01-01T03:46:45.000Z</time>
      </trkpt>
      <trkpt lat="42.79359" lon="0.50489">
        <ele>970</ele>
        <time>2000-01-01T03:46:55.000Z</time>
      </trkpt>
      <trkpt lat="42.79342" lon="0.50481">
        <ele>969.7</ele>
        <time>2000-01-01T03:47:05.000Z</time>
      </trkpt>
      <trkpt lat="42.79319" lon="0.50477">
        <ele>971</ele>
        <time>2000-01-01T03:47:15.000Z</time>
      </trkpt>
      <trkpt lat="42.79307" lon="0.50472">
        <ele>970.9</ele>
        <time>2000-01-01T03:47:25.000Z</time>
      </trkpt>
      <trkpt lat="42.79282" lon="0.50466">
        <ele>971</ele>
        <time>2000-01-01T03:47:35.000Z</time>
      </trkpt>
      <trkpt lat="42.79271" lon="0.50465">
        <ele>972</ele>
        <time>2000-01-01T03:47:45.000Z</time>
      </trkpt>
      <trkpt lat="42.7923" lon="0.50465">
        <ele>973</ele>
        <time>2000-01-01T03:47:55.000Z</time>
      </trkpt>
      <trkpt lat="42.79218" lon="0.50466">
        <ele>973.9</ele>
        <time>2000-01-01T03:48:05.000Z</time>
      </trkpt>
      <trkpt lat="42.79196" lon="0.5047">
        <ele>975</ele>
        <time>2000-01-01T03:48:15.000Z</time>
      </trkpt>
      <trkpt lat="42.79185" lon="0.50473">
        <ele>976.6</ele>
        <time>2000-01-01T03:48:25.000Z</time>
      </trkpt>
      <trkpt lat="42.79174" lon="0.50475">
        <ele>977</ele>
        <time>2000-01-01T03:48:35.000Z</time>
      </trkpt>
      <trkpt lat="42.79163" lon="0.50475">
        <ele>977.6</ele>
        <time>2000-01-01T03:48:45.000Z</time>
      </trkpt>
      <trkpt lat="42.79152" lon="0.50474">
        <ele>977</ele>
        <time>2000-01-01T03:48:55.000Z</time>
      </trkpt>
      <trkpt lat="42.7914" lon="0.50476">
        <ele>977.6</ele>
        <time>2000-01-01T03:49:05.000Z</time>
      </trkpt>
      <trkpt lat="42.79115" lon="0.50474">
        <ele>979</ele>
        <time>2000-01-01T03:49:15.000Z</time>
      </trkpt>
      <trkpt lat="42.79104" lon="0.50477">
        <ele>979.7</ele>
        <time>2000-01-01T03:49:25.000Z</time>
      </trkpt>
      <trkpt lat="42.79092" lon="0.50479">
        <ele>980</ele>
        <time>2000-01-01T03:49:35.000Z</time>
      </trkpt>
      <trkpt lat="42.79081" lon="0.50483">
        <ele>980.4</ele>
        <time>2000-01-01T03:49:45.000Z</time>
      </trkpt>
      <trkpt lat="42.79057" lon="0.50485">
        <ele>982</ele>
        <time>2000-01-01T03:49:55.000Z</time>
      </trkpt>
      <trkpt lat="42.79034" lon="0.50491">
        <ele>982</ele>
        <time>2000-01-01T03:50:05.000Z</time>
      </trkpt>
      <trkpt lat="42.79022" lon="0.50496">
        <ele>982.7</ele>
        <time>2000-01-01T03:50:15.000Z</time>
      </trkpt>
      <trkpt lat="42.79012" lon="0.50502">
        <ele>983</ele>
        <time>2000-01-01T03:50:25.000Z</time>
      </trkpt>
      <trkpt lat="42.78999" lon="0.50507">
        <ele>983.5</ele>
        <time>2000-01-01T03:50:35.000Z</time>
      </trkpt>
      <trkpt lat="42.78988" lon="0.50508">
        <ele>984</ele>
        <time>2000-01-01T03:50:45.000Z</time>
      </trkpt>
      <trkpt lat="42.78977" lon="0.50507">
        <ele>984.3</ele>
        <time>2000-01-01T03:50:55.000Z</time>
      </trkpt>
      <trkpt lat="42.78964" lon="0.50509">
        <ele>985</ele>
        <time>2000-01-01T03:51:05.000Z</time>
      </trkpt>
      <trkpt lat="42.78951" lon="0.50507">
        <ele>985.3</ele>
        <time>2000-01-01T03:51:15.000Z</time>
      </trkpt>
      <trkpt lat="42.7894" lon="0.50509">
        <ele>986</ele>
        <time>2000-01-01T03:51:25.000Z</time>
      </trkpt>
      <trkpt lat="42.78929" lon="0.50515">
        <ele>985.5</ele>
        <time>2000-01-01T03:51:35.000Z</time>
      </trkpt>
      <trkpt lat="42.78918" lon="0.50519">
        <ele>986</ele>
        <time>2000-01-01T03:51:45.000Z</time>
      </trkpt>
      <trkpt lat="42.78906" lon="0.50521">
        <ele>986</ele>
        <time>2000-01-01T03:51:55.000Z</time>
      </trkpt>
      <trkpt lat="42.78894" lon="0.50521">
        <ele>986</ele>
        <time>2000-01-01T03:52:05.000Z</time>
      </trkpt>
      <trkpt lat="42.78883" lon="0.50518">
        <ele>987.4</ele>
        <time>2000-01-01T03:52:15.000Z</time>
      </trkpt>
      <trkpt lat="42.78872" lon="0.50519">
        <ele>989</ele>
        <time>2000-01-01T03:52:25.000Z</time>
      </trkpt>
      <trkpt lat="42.78849" lon="0.50523">
        <ele>991</ele>
        <time>2000-01-01T03:52:35.000Z</time>
      </trkpt>
      <trkpt lat="42.78826" lon="0.50521">
        <ele>993</ele>
        <time>2000-01-01T03:52:45.000Z</time>
      </trkpt>
      <trkpt lat="42.78816" lon="0.50519">
        <ele>994.2</ele>
        <time>2000-01-01T03:52:55.000Z</time>
      </trkpt>
      <trkpt lat="42.78807" lon="0.5052">
        <ele>995.1</ele>
        <time>2000-01-01T03:53:05.000Z</time>
      </trkpt>
      <trkpt lat="42.78792" lon="0.50524">
        <ele>994</ele>
        <time>2000-01-01T03:53:15.000Z</time>
      </trkpt>
      <trkpt lat="42.78778" lon="0.50531">
        <ele>996.5</ele>
        <time>2000-01-01T03:53:25.000Z</time>
      </trkpt>
      <trkpt lat="42.78767" lon="0.50532">
        <ele>996</ele>
        <time>2000-01-01T03:53:35.000Z</time>
      </trkpt>
      <trkpt lat="42.78754" lon="0.50531">
        <ele>995.9</ele>
        <time>2000-01-01T03:53:45.000Z</time>
      </trkpt>
      <trkpt lat="42.78742" lon="0.50527">
        <ele>997</ele>
        <time>2000-01-01T03:53:55.000Z</time>
      </trkpt>
      <trkpt lat="42.7873" lon="0.50525">
        <ele>997.2</ele>
        <time>2000-01-01T03:54:05.000Z</time>
      </trkpt>
      <trkpt lat="42.78703" lon="0.50528">
        <ele>1000</ele>
        <time>2000-01-01T03:54:15.000Z</time>
      </trkpt>
      <trkpt lat="42.78692" lon="0.50532">
        <ele>999.7</ele>
        <time>2000-01-01T03:54:25.000Z</time>
      </trkpt>
      <trkpt lat="42.78675" lon="0.50537">
        <ele>1000</ele>
        <time>2000-01-01T03:54:35.000Z</time>
      </trkpt>
      <trkpt lat="42.7866" lon="0.50548">
        <ele>1000.3</ele>
        <time>2000-01-01T03:54:45.000Z</time>
      </trkpt>
      <trkpt lat="42.7865" lon="0.50554">
        <ele>1001</ele>
        <time>2000-01-01T03:54:55.000Z</time>
      </trkpt>
      <trkpt lat="42.78639" lon="0.50559">
        <ele>1000.5</ele>
        <time>2000-01-01T03:55:05.000Z</time>
      </trkpt>
      <trkpt lat="42.78626" lon="0.50559">
        <ele>1003</ele>
        <time>2000-01-01T03:55:15.000Z</time>
      </trkpt>
      <trkpt lat="42.78614" lon="0.50557">
        <ele>1002.6</ele>
        <time>2000-01-01T03:55:25.000Z</time>
      </trkpt>
      <trkpt lat="42.7858" lon="0.50539">
        <ele>1008</ele>
        <time>2000-01-01T03:55:35.000Z</time>
      </trkpt>
      <trkpt lat="42.7857" lon="0.50533">
        <ele>1008</ele>
        <time>2000-01-01T03:55:45.000Z</time>
      </trkpt>
      <trkpt lat="42.78558" lon="0.50528">
        <ele>1007</ele>
        <time>2000-01-01T03:55:55.000Z</time>
      </trkpt>
      <trkpt lat="42.78545" lon="0.50525">
        <ele>1009.2</ele>
        <time>2000-01-01T03:56:05.000Z</time>
      </trkpt>
      <trkpt lat="42.7852" lon="0.50521">
        <ele>1007</ele>
        <time>2000-01-01T03:56:15.000Z</time>
      </trkpt>
      <trkpt lat="42.78499" lon="0.50506">
        <ele>1010</ele>
        <time>2000-01-01T03:56:25.000Z</time>
      </trkpt>
      <trkpt lat="42.78488" lon="0.50504">
        <ele>1010.3</ele>
        <time>2000-01-01T03:56:35.000Z</time>
      </trkpt>
      <trkpt lat="42.78478" lon="0.505">
        <ele>1011</ele>
        <time>2000-01-01T03:56:45.000Z</time>
      </trkpt>
      <trkpt lat="42.78456" lon="0.50488">
        <ele>1014</ele>
        <time>2000-01-01T03:56:55.000Z</time>
      </trkpt>
      <trkpt lat="42.78445" lon="0.50483">
        <ele>1013.3</ele>
        <time>2000-01-01T03:57:05.000Z</time>
      </trkpt>
      <trkpt lat="42.78434" lon="0.50479">
        <ele>1016</ele>
        <time>2000-01-01T03:57:15.000Z</time>
      </trkpt>
      <trkpt lat="42.78411" lon="0.50473">
        <ele>1018</ele>
        <time>2000-01-01T03:57:25.000Z</time>
      </trkpt>
      <trkpt lat="42.784" lon="0.50471">
        <ele>1019.1</ele>
        <time>2000-01-01T03:57:35.000Z</time>
      </trkpt>
      <trkpt lat="42.78388" lon="0.50473">
        <ele>1018</ele>
        <time>2000-01-01T03:57:45.000Z</time>
      </trkpt>
      <trkpt lat="42.78378" lon="0.50481">
        <ele>1019.1</ele>
        <time>2000-01-01T03:57:55.000Z</time>
      </trkpt>
      <trkpt lat="42.7837" lon="0.50494">
        <ele>1018</ele>
        <time>2000-01-01T03:58:05.000Z</time>
      </trkpt>
      <trkpt lat="42.7836" lon="0.50505">
        <ele>1016</ele>
        <time>2000-01-01T03:58:15.000Z</time>
      </trkpt>
      <trkpt lat="42.78341" lon="0.50521">
        <ele>1017</ele>
        <time>2000-01-01T03:58:25.000Z</time>
      </trkpt>
      <trkpt lat="42.78331" lon="0.50531">
        <ele>1014.6</ele>
        <time>2000-01-01T03:58:35.000Z</time>
      </trkpt>
      <trkpt lat="42.78316" lon="0.5054">
        <ele>1016</ele>
        <time>2000-01-01T03:58:45.000Z</time>
      </trkpt>
      <trkpt lat="42.78308" lon="0.50543">
        <ele>1014.1</ele>
        <time>2000-01-01T03:58:55.000Z</time>
      </trkpt>
      <trkpt lat="42.78271" lon="0.50553">
        <ele>1018</ele>
        <time>2000-01-01T03:59:05.000Z</time>
      </trkpt>
      <trkpt lat="42.7826" lon="0.50557">
        <ele>1016.1</ele>
        <time>2000-01-01T03:59:15.000Z</time>
      </trkpt>
      <trkpt lat="42.78237" lon="0.5056">
        <ele>1020</ele>
        <time>2000-01-01T03:59:25.000Z</time>
      </trkpt>
      <trkpt lat="42.78213" lon="0.50551">
        <ele>1021</ele>
        <time>2000-01-01T03:59:35.000Z</time>
      </trkpt>
      <trkpt lat="42.78202" lon="0.50548">
        <ele>1024.1</ele>
        <time>2000-01-01T03:59:45.000Z</time>
      </trkpt>
      <trkpt lat="42.78191" lon="0.50542">
        <ele>1027</ele>
        <time>2000-01-01T03:59:55.000Z</time>
      </trkpt>
      <trkpt lat="42.78181" lon="0.50535">
        <ele>1029.1</ele>
        <time>2000-01-01T04:00:05.000Z</time>
      </trkpt>
      <trkpt lat="42.7817" lon="0.50526">
        <ele>1034</ele>
        <time>2000-01-01T04:00:15.000Z</time>
      </trkpt>
      <trkpt lat="42.7816" lon="0.5052">
        <ele>1034.8</ele>
        <time>2000-01-01T04:00:25.000Z</time>
      </trkpt>
      <trkpt lat="42.78148" lon="0.50522">
        <ele>1034</ele>
        <time>2000-01-01T04:00:35.000Z</time>
      </trkpt>
      <trkpt lat="42.78136" lon="0.50525">
        <ele>1034</ele>
        <time>2000-01-01T04:00:45.000Z</time>
      </trkpt>
      <trkpt lat="42.78124" lon="0.50524">
        <ele>1035</ele>
        <time>2000-01-01T04:00:55.000Z</time>
      </trkpt>
      <trkpt lat="42.78112" lon="0.50524">
        <ele>1035.2</ele>
        <time>2000-01-01T04:01:05.000Z</time>
      </trkpt>
      <trkpt lat="42.78104" lon="0.50526">
        <ele>1035</ele>
        <time>2000-01-01T04:01:15.000Z</time>
      </trkpt>
      <trkpt lat="42.78093" lon="0.50524">
        <ele>1035.9</ele>
        <time>2000-01-01T04:01:25.000Z</time>
      </trkpt>
      <trkpt lat="42.78081" lon="0.50527">
        <ele>1036</ele>
        <time>2000-01-01T04:01:35.000Z</time>
      </trkpt>
      <trkpt lat="42.7807" lon="0.50523">
        <ele>1036.5</ele>
        <time>2000-01-01T04:01:45.000Z</time>
      </trkpt>
      <trkpt lat="42.78058" lon="0.50522">
        <ele>1037</ele>
        <time>2000-01-01T04:01:55.000Z</time>
      </trkpt>
      <trkpt lat="42.78048" lon="0.50515">
        <ele>1039.6</ele>
        <time>2000-01-01T04:02:05.000Z</time>
      </trkpt>
      <trkpt lat="42.78037" lon="0.5051">
        <ele>1044</ele>
        <time>2000-01-01T04:02:15.000Z</time>
      </trkpt>
      <trkpt lat="42.78026" lon="0.50509">
        <ele>1042.6</ele>
        <time>2000-01-01T04:02:25.000Z</time>
      </trkpt>
      <trkpt lat="42.78014" lon="0.50512">
        <ele>1044</ele>
        <time>2000-01-01T04:02:35.000Z</time>
      </trkpt>
      <trkpt lat="42.78003" lon="0.50516">
        <ele>1043.1</ele>
        <time>2000-01-01T04:02:45.000Z</time>
      </trkpt>
      <trkpt lat="42.77991" lon="0.50515">
        <ele>1046</ele>
        <time>2000-01-01T04:02:55.000Z</time>
      </trkpt>
      <trkpt lat="42.7798" lon="0.50517">
        <ele>1045.5</ele>
        <time>2000-01-01T04:03:05.000Z</time>
      </trkpt>
      <trkpt lat="42.77969" lon="0.5052">
        <ele>1046</ele>
        <time>2000-01-01T04:03:15.000Z</time>
      </trkpt>
      <trkpt lat="42.77957" lon="0.50525">
        <ele>1045.5</ele>
        <time>2000-01-01T04:03:25.000Z</time>
      </trkpt>
      <trkpt lat="42.77942" lon="0.5053">
        <ele>1047</ele>
        <time>2000-01-01T04:03:35.000Z</time>
      </trkpt>
      <trkpt lat="42.77931" lon="0.50536">
        <ele>1045.4</ele>
        <time>2000-01-01T04:03:45.000Z</time>
      </trkpt>
      <trkpt lat="42.7791" lon="0.50542">
        <ele>1048</ele>
        <time>2000-01-01T04:03:55.000Z</time>
      </trkpt>
      <trkpt lat="42.779" lon="0.50544">
        <ele>1046.4</ele>
        <time>2000-01-01T04:04:05.000Z</time>
      </trkpt>
      <trkpt lat="42.77889" lon="0.50542">
        <ele>1048</ele>
        <time>2000-01-01T04:04:15.000Z</time>
      </trkpt>
      <trkpt lat="42.77882" lon="0.50539">
        <ele>1048.5</ele>
        <time>2000-01-01T04:04:25.000Z</time>
      </trkpt>
      <trkpt lat="42.77863" lon="0.50535">
        <ele>1049</ele>
        <time>2000-01-01T04:04:35.000Z</time>
      </trkpt>
      <trkpt lat="42.77846" lon="0.50529">
        <ele>1049.7</ele>
        <time>2000-01-01T04:04:45.000Z</time>
      </trkpt>
      <trkpt lat="42.77822" lon="0.50526">
        <ele>1051</ele>
        <time>2000-01-01T04:04:55.000Z</time>
      </trkpt>
      <trkpt lat="42.77813" lon="0.50516">
        <ele>1053</ele>
        <time>2000-01-01T04:05:05.000Z</time>
      </trkpt>
      <trkpt lat="42.77805" lon="0.50504">
        <ele>1057</ele>
        <time>2000-01-01T04:05:15.000Z</time>
      </trkpt>
      <trkpt lat="42.77797" lon="0.50495">
        <ele>1058.1</ele>
        <time>2000-01-01T04:05:25.000Z</time>
      </trkpt>
      <trkpt lat="42.77778" lon="0.50477">
        <ele>1065</ele>
        <time>2000-01-01T04:05:35.000Z</time>
      </trkpt>
      <trkpt lat="42.77757" lon="0.50465">
        <ele>1067</ele>
        <time>2000-01-01T04:05:45.000Z</time>
      </trkpt>
      <trkpt lat="42.77751" lon="0.50459">
        <ele>1069.3</ele>
        <time>2000-01-01T04:05:55.000Z</time>
      </trkpt>
      <trkpt lat="42.77743" lon="0.50455">
        <ele>1070.2</ele>
        <time>2000-01-01T04:06:05.000Z</time>
      </trkpt>
      <trkpt lat="42.77728" lon="0.5045">
        <ele>1073</ele>
        <time>2000-01-01T04:06:15.000Z</time>
      </trkpt>
      <trkpt lat="42.77721" lon="0.50445">
        <ele>1071.7</ele>
        <time>2000-01-01T04:06:25.000Z</time>
      </trkpt>
      <trkpt lat="42.7771" lon="0.50435">
        <ele>1074</ele>
        <time>2000-01-01T04:06:35.000Z</time>
      </trkpt>
      <trkpt lat="42.77687" lon="0.50427">
        <ele>1077</ele>
        <time>2000-01-01T04:06:45.000Z</time>
      </trkpt>
      <trkpt lat="42.77675" lon="0.50424">
        <ele>1074.7</ele>
        <time>2000-01-01T04:06:55.000Z</time>
      </trkpt>
      <trkpt lat="42.77667" lon="0.50414">
        <ele>1078</ele>
        <time>2000-01-01T04:07:05.000Z</time>
      </trkpt>
      <trkpt lat="42.77651" lon="0.50392">
        <ele>1080</ele>
        <time>2000-01-01T04:07:15.000Z</time>
      </trkpt>
      <trkpt lat="42.7763" lon="0.50378">
        <ele>1082</ele>
        <time>2000-01-01T04:07:25.000Z</time>
      </trkpt>
      <trkpt lat="42.77621" lon="0.50368">
        <ele>1085.8</ele>
        <time>2000-01-01T04:07:35.000Z</time>
      </trkpt>
      <trkpt lat="42.77612" lon="0.50356">
        <ele>1089</ele>
        <time>2000-01-01T04:07:45.000Z</time>
      </trkpt>
      <trkpt lat="42.77604" lon="0.50343">
        <ele>1091.4</ele>
        <time>2000-01-01T04:07:55.000Z</time>
      </trkpt>
      <trkpt lat="42.77595" lon="0.5033">
        <ele>1092</ele>
        <time>2000-01-01T04:08:05.000Z</time>
      </trkpt>
      <trkpt lat="42.77586" lon="0.50322">
        <ele>1095.2</ele>
        <time>2000-01-01T04:08:15.000Z</time>
      </trkpt>
      <trkpt lat="42.77575" lon="0.50316">
        <ele>1095</ele>
        <time>2000-01-01T04:08:25.000Z</time>
      </trkpt>
      <trkpt lat="42.77573" lon="0.50313">
        <ele>1095.5</ele>
        <time>2000-01-01T04:08:35.000Z</time>
      </trkpt>
      <trkpt lat="42.77569" lon="0.50311">
        <ele>1095</ele>
        <time>2000-01-01T04:08:45.000Z</time>
      </trkpt>
      <trkpt lat="42.77561" lon="0.50302">
        <ele>1096.7</ele>
        <time>2000-01-01T04:08:55.000Z</time>
      </trkpt>
      <trkpt lat="42.77546" lon="0.5029">
        <ele>1100</ele>
        <time>2000-01-01T04:09:05.000Z</time>
      </trkpt>
      <trkpt lat="42.77536" lon="0.5028">
        <ele>1101.8</ele>
        <time>2000-01-01T04:09:15.000Z</time>
      </trkpt>
      <trkpt lat="42.77524" lon="0.50278">
        <ele>1104</ele>
        <time>2000-01-01T04:09:25.000Z</time>
      </trkpt>
      <trkpt lat="42.77513" lon="0.50272">
        <ele>1103.3</ele>
        <time>2000-01-01T04:09:35.000Z</time>
      </trkpt>
      <trkpt lat="42.77502" lon="0.50269">
        <ele>1107</ele>
        <time>2000-01-01T04:09:45.000Z</time>
      </trkpt>
      <trkpt lat="42.77491" lon="0.50268">
        <ele>1104.3</ele>
        <time>2000-01-01T04:09:55.000Z</time>
      </trkpt>
      <trkpt lat="42.77479" lon="0.5027">
        <ele>1107</ele>
        <time>2000-01-01T04:10:05.000Z</time>
      </trkpt>
      <trkpt lat="42.77456" lon="0.5027">
        <ele>1107</ele>
        <time>2000-01-01T04:10:15.000Z</time>
      </trkpt>
      <trkpt lat="42.77446" lon="0.50264">
        <ele>1106.4</ele>
        <time>2000-01-01T04:10:25.000Z</time>
      </trkpt>
      <trkpt lat="42.77425" lon="0.50253">
        <ele>1107</ele>
        <time>2000-01-01T04:10:35.000Z</time>
      </trkpt>
      <trkpt lat="42.77415" lon="0.50246">
        <ele>1108.3</ele>
        <time>2000-01-01T04:10:45.000Z</time>
      </trkpt>
      <trkpt lat="42.77405" lon="0.50236">
        <ele>1108</ele>
        <time>2000-01-01T04:10:55.000Z</time>
      </trkpt>
      <trkpt lat="42.77385" lon="0.50224">
        <ele>1110</ele>
        <time>2000-01-01T04:11:05.000Z</time>
      </trkpt>
      <trkpt lat="42.77364" lon="0.5021">
        <ele>1118</ele>
        <time>2000-01-01T04:11:15.000Z</time>
      </trkpt>
      <trkpt lat="42.77353" lon="0.50204">
        <ele>1115.3</ele>
        <time>2000-01-01T04:11:25.000Z</time>
      </trkpt>
      <trkpt lat="42.77344" lon="0.50196">
        <ele>1119</ele>
        <time>2000-01-01T04:11:35.000Z</time>
      </trkpt>
      <trkpt lat="42.77331" lon="0.50192">
        <ele>1117.8</ele>
        <time>2000-01-01T04:11:45.000Z</time>
      </trkpt>
      <trkpt lat="42.7732" lon="0.50185">
        <ele>1121</ele>
        <time>2000-01-01T04:11:55.000Z</time>
      </trkpt>
      <trkpt lat="42.77309" lon="0.50183">
        <ele>1118.7</ele>
        <time>2000-01-01T04:12:05.000Z</time>
      </trkpt>
      <trkpt lat="42.77297" lon="0.50177">
        <ele>1121</ele>
        <time>2000-01-01T04:12:15.000Z</time>
      </trkpt>
      <trkpt lat="42.77287" lon="0.5017">
        <ele>1121.4</ele>
        <time>2000-01-01T04:12:25.000Z</time>
      </trkpt>
      <trkpt lat="42.77277" lon="0.50164">
        <ele>1123</ele>
        <time>2000-01-01T04:12:35.000Z</time>
      </trkpt>
      <trkpt lat="42.77268" lon="0.50155">
        <ele>1124.9</ele>
        <time>2000-01-01T04:12:45.000Z</time>
      </trkpt>
      <trkpt lat="42.77259" lon="0.50144">
        <ele>1129</ele>
        <time>2000-01-01T04:12:55.000Z</time>
      </trkpt>
      <trkpt lat="42.77248" lon="0.50143">
        <ele>1128.2</ele>
        <time>2000-01-01T04:13:05.000Z</time>
      </trkpt>
      <trkpt lat="42.77237" lon="0.50139">
        <ele>1130</ele>
        <time>2000-01-01T04:13:15.000Z</time>
      </trkpt>
      <trkpt lat="42.77216" lon="0.50124">
        <ele>1134</ele>
        <time>2000-01-01T04:13:25.000Z</time>
      </trkpt>
      <trkpt lat="42.77205" lon="0.5012">
        <ele>1134.3</ele>
        <time>2000-01-01T04:13:35.000Z</time>
      </trkpt>
      <trkpt lat="42.77194" lon="0.5012">
        <ele>1138</ele>
        <time>2000-01-01T04:13:45.000Z</time>
      </trkpt>
      <trkpt lat="42.77183" lon="0.50116">
        <ele>1136.4</ele>
        <time>2000-01-01T04:13:55.000Z</time>
      </trkpt>
      <trkpt lat="42.77172" lon="0.50117">
        <ele>1137</ele>
        <time>2000-01-01T04:14:05.000Z</time>
      </trkpt>
      <trkpt lat="42.77161" lon="0.50115">
        <ele>1137</ele>
        <time>2000-01-01T04:14:15.000Z</time>
      </trkpt>
      <trkpt lat="42.77149" lon="0.50116">
        <ele>1137</ele>
        <time>2000-01-01T04:14:25.000Z</time>
      </trkpt>
      <trkpt lat="42.77128" lon="0.50104">
        <ele>1137</ele>
        <time>2000-01-01T04:14:35.000Z</time>
      </trkpt>
      <trkpt lat="42.77115" lon="0.50102">
        <ele>1137.3</ele>
        <time>2000-01-01T04:14:45.000Z</time>
      </trkpt>
      <trkpt lat="42.77105" lon="0.50103">
        <ele>1136</ele>
        <time>2000-01-01T04:14:55.000Z</time>
      </trkpt>
      <trkpt lat="42.77093" lon="0.50107">
        <ele>1136.5</ele>
        <time>2000-01-01T04:15:05.000Z</time>
      </trkpt>
      <trkpt lat="42.77082" lon="0.50112">
        <ele>1136</ele>
        <time>2000-01-01T04:15:15.000Z</time>
      </trkpt>
      <trkpt lat="42.77071" lon="0.50113">
        <ele>1135.7</ele>
        <time>2000-01-01T04:15:25.000Z</time>
      </trkpt>
      <trkpt lat="42.7707" lon="0.50112">
        <ele>1136.1</ele>
        <time>2000-01-01T04:15:35.000Z</time>
      </trkpt>
      <trkpt lat="42.7704" lon="0.50114">
        <ele>1136</ele>
        <time>2000-01-01T04:15:45.000Z</time>
      </trkpt>
      <trkpt lat="42.77029" lon="0.50109">
        <ele>1136.9</ele>
        <time>2000-01-01T04:15:55.000Z</time>
      </trkpt>
      <trkpt lat="42.77006" lon="0.50103">
        <ele>1138</ele>
        <time>2000-01-01T04:16:05.000Z</time>
      </trkpt>
      <trkpt lat="42.76994" lon="0.50106">
        <ele>1134.8</ele>
        <time>2000-01-01T04:16:15.000Z</time>
      </trkpt>
      <trkpt lat="42.76984" lon="0.50098">
        <ele>1138</ele>
        <time>2000-01-01T04:16:25.000Z</time>
      </trkpt>
      <trkpt lat="42.76981" lon="0.50083">
        <ele>1140.4</ele>
        <time>2000-01-01T04:16:35.000Z</time>
      </trkpt>
      <trkpt lat="42.76969" lon="0.50083">
        <ele>1138</ele>
        <time>2000-01-01T04:16:45.000Z</time>
      </trkpt>
      <trkpt lat="42.76957" lon="0.50081">
        <ele>1137.9</ele>
        <time>2000-01-01T04:16:55.000Z</time>
      </trkpt>
      <trkpt lat="42.76944" lon="0.50067">
        <ele>1141</ele>
        <time>2000-01-01T04:17:05.000Z</time>
      </trkpt>
      <trkpt lat="42.76934" lon="0.5006">
        <ele>1140.6</ele>
        <time>2000-01-01T04:17:15.000Z</time>
      </trkpt>
      <trkpt lat="42.76925" lon="0.50058">
        <ele>1140</ele>
        <time>2000-01-01T04:17:25.000Z</time>
      </trkpt>
      <trkpt lat="42.76903" lon="0.50066">
        <ele>1140</ele>
        <time>2000-01-01T04:17:35.000Z</time>
      </trkpt>
      <trkpt lat="42.76884" lon="0.5007">
        <ele>1136.9</ele>
        <time>2000-01-01T04:17:45.000Z</time>
      </trkpt>
      <trkpt lat="42.76869" lon="0.50071">
        <ele>1139</ele>
        <time>2000-01-01T04:17:55.000Z</time>
      </trkpt>
      <trkpt lat="42.76861" lon="0.5007">
        <ele>1137.3</ele>
        <time>2000-01-01T04:18:05.000Z</time>
      </trkpt>
      <trkpt lat="42.76853" lon="0.5007">
        <ele>1137.6</ele>
        <time>2000-01-01T04:18:15.000Z</time>
      </trkpt>
      <trkpt lat="42.76841" lon="0.50071">
        <ele>1140</ele>
        <time>2000-01-01T04:18:25.000Z</time>
      </trkpt>
      <trkpt lat="42.76832" lon="0.50074">
        <ele>1136.6</ele>
        <time>2000-01-01T04:18:35.000Z</time>
      </trkpt>
      <trkpt lat="42.76823" lon="0.50072">
        <ele>1136.5</ele>
        <time>2000-01-01T04:18:45.000Z</time>
      </trkpt>
      <trkpt lat="42.76815" lon="0.50069">
        <ele>1140</ele>
        <time>2000-01-01T04:18:55.000Z</time>
      </trkpt>
      <trkpt lat="42.76801" lon="0.50061">
        <ele>1138.5</ele>
        <time>2000-01-01T04:19:05.000Z</time>
      </trkpt>
      <trkpt lat="42.76793" lon="0.50058">
        <ele>1140</ele>
        <time>2000-01-01T04:19:15.000Z</time>
      </trkpt>
      <trkpt lat="42.76782" lon="0.50055">
        <ele>1136.3</ele>
        <time>2000-01-01T04:19:25.000Z</time>
      </trkpt>
      <trkpt lat="42.76773" lon="0.50054">
        <ele>1135</ele>
        <time>2000-01-01T04:19:35.000Z</time>
      </trkpt>
      <trkpt lat="42.76757" lon="0.50054">
        <ele>1131.9</ele>
        <time>2000-01-01T04:19:45.000Z</time>
      </trkpt>
      <trkpt lat="42.76749" lon="0.50055">
        <ele>1130</ele>
        <time>2000-01-01T04:19:55.000Z</time>
      </trkpt>
      <trkpt lat="42.76712" lon="0.50055">
        <ele>1127</ele>
        <time>2000-01-01T04:20:05.000Z</time>
      </trkpt>
      <trkpt lat="42.76693" lon="0.50057">
        <ele>1124.7</ele>
        <time>2000-01-01T04:20:15.000Z</time>
      </trkpt>
      <trkpt lat="42.76671" lon="0.50069">
        <ele>1123</ele>
        <time>2000-01-01T04:20:25.000Z</time>
      </trkpt>
      <trkpt lat="42.76664" lon="0.50078">
        <ele>1120.7</ele>
        <time>2000-01-01T04:20:35.000Z</time>
      </trkpt>
      <trkpt lat="42.76663" lon="0.50088">
        <ele>1120</ele>
        <time>2000-01-01T04:20:45.000Z</time>
      </trkpt>
      <trkpt lat="42.76659" lon="0.5011">
        <ele>1119</ele>
        <time>2000-01-01T04:20:55.000Z</time>
      </trkpt>
      <trkpt lat="42.7663" lon="0.50105">
        <ele>1119</ele>
        <time>2000-01-01T04:21:05.000Z</time>
      </trkpt>
      <trkpt lat="42.76618" lon="0.50099">
        <ele>1120.3</ele>
        <time>2000-01-01T04:21:15.000Z</time>
      </trkpt>
      <trkpt lat="42.76599" lon="0.50096">
        <ele>1121</ele>
        <time>2000-01-01T04:21:25.000Z</time>
      </trkpt>
      <trkpt lat="42.76591" lon="0.50098">
        <ele>1121.3</ele>
        <time>2000-01-01T04:21:35.000Z</time>
      </trkpt>
      <trkpt lat="42.76573" lon="0.50096">
        <ele>1121</ele>
        <time>2000-01-01T04:21:45.000Z</time>
      </trkpt>
      <trkpt lat="42.76558" lon="0.50097">
        <ele>1122.4</ele>
        <time>2000-01-01T04:21:55.000Z</time>
      </trkpt>
      <trkpt lat="42.7655" lon="0.50099">
        <ele>1122</ele>
        <time>2000-01-01T04:22:05.000Z</time>
      </trkpt>
      <trkpt lat="42.76531" lon="0.50099">
        <ele>1123.4</ele>
        <time>2000-01-01T04:22:15.000Z</time>
      </trkpt>
      <trkpt lat="42.76523" lon="0.50097">
        <ele>1123</ele>
        <time>2000-01-01T04:22:25.000Z</time>
      </trkpt>
      <trkpt lat="42.76507" lon="0.50099">
        <ele>1124.3</ele>
        <time>2000-01-01T04:22:35.000Z</time>
      </trkpt>
      <trkpt lat="42.765" lon="0.50105">
        <ele>1124</ele>
        <time>2000-01-01T04:22:45.000Z</time>
      </trkpt>
      <trkpt lat="42.76495" lon="0.50116">
        <ele>1125.6</ele>
        <time>2000-01-01T04:22:55.000Z</time>
      </trkpt>
      <trkpt lat="42.76495" lon="0.50118">
        <ele>1125.8</ele>
        <time>2000-01-01T04:23:05.000Z</time>
      </trkpt>
      <trkpt lat="42.76506" lon="0.5013">
        <ele>1125</ele>
        <time>2000-01-01T04:23:15.000Z</time>
      </trkpt>
      <trkpt lat="42.76518" lon="0.50138">
        <ele>1128.5</ele>
        <time>2000-01-01T04:23:25.000Z</time>
      </trkpt>
      <trkpt lat="42.76524" lon="0.5015">
        <ele>1128</ele>
        <time>2000-01-01T04:23:35.000Z</time>
      </trkpt>
      <trkpt lat="42.76508" lon="0.50162">
        <ele>1133</ele>
        <time>2000-01-01T04:23:45.000Z</time>
      </trkpt>
      <trkpt lat="42.765" lon="0.50166">
        <ele>1133</ele>
        <time>2000-01-01T04:23:55.000Z</time>
      </trkpt>
      <trkpt lat="42.76461" lon="0.50177">
        <ele>1134</ele>
        <time>2000-01-01T04:24:05.000Z</time>
      </trkpt>
      <trkpt lat="42.76449" lon="0.50177">
        <ele>1136.4</ele>
        <time>2000-01-01T04:24:15.000Z</time>
      </trkpt>
      <trkpt lat="42.76438" lon="0.50179">
        <ele>1135</ele>
        <time>2000-01-01T04:24:25.000Z</time>
      </trkpt>
      <trkpt lat="42.76427" lon="0.50182">
        <ele>1137.5</ele>
        <time>2000-01-01T04:24:35.000Z</time>
      </trkpt>
      <trkpt lat="42.76415" lon="0.50187">
        <ele>1137</ele>
        <time>2000-01-01T04:24:45.000Z</time>
      </trkpt>
      <trkpt lat="42.76405" lon="0.50193">
        <ele>1139.7</ele>
        <time>2000-01-01T04:24:55.000Z</time>
      </trkpt>
      <trkpt lat="42.76395" lon="0.50206">
        <ele>1140</ele>
        <time>2000-01-01T04:25:05.000Z</time>
      </trkpt>
      <trkpt lat="42.76383" lon="0.50203">
        <ele>1142.6</ele>
        <time>2000-01-01T04:25:15.000Z</time>
      </trkpt>
      <trkpt lat="42.76372" lon="0.50199">
        <ele>1142</ele>
        <time>2000-01-01T04:25:25.000Z</time>
      </trkpt>
      <trkpt lat="42.7635" lon="0.50188">
        <ele>1144</ele>
        <time>2000-01-01T04:25:35.000Z</time>
      </trkpt>
      <trkpt lat="42.76338" lon="0.50187">
        <ele>1146.3</ele>
        <time>2000-01-01T04:25:45.000Z</time>
      </trkpt>
      <trkpt lat="42.76327" lon="0.50188">
        <ele>1147</ele>
        <time>2000-01-01T04:25:55.000Z</time>
      </trkpt>
      <trkpt lat="42.76316" lon="0.50186">
        <ele>1148.8</ele>
        <time>2000-01-01T04:26:05.000Z</time>
      </trkpt>
      <trkpt lat="42.76304" lon="0.50187">
        <ele>1150</ele>
        <time>2000-01-01T04:26:15.000Z</time>
      </trkpt>
      <trkpt lat="42.76293" lon="0.50184">
        <ele>1151.7</ele>
        <time>2000-01-01T04:26:25.000Z</time>
      </trkpt>
      <trkpt lat="42.7626" lon="0.50168">
        <ele>1154</ele>
        <time>2000-01-01T04:26:35.000Z</time>
      </trkpt>
      <trkpt lat="42.76238" lon="0.50162">
        <ele>1156</ele>
        <time>2000-01-01T04:26:45.000Z</time>
      </trkpt>
      <trkpt lat="42.76218" lon="0.50161">
        <ele>1158</ele>
        <time>2000-01-01T04:26:55.000Z</time>
      </trkpt>
      <trkpt lat="42.76202" lon="0.50162">
        <ele>1159.6</ele>
        <time>2000-01-01T04:27:05.000Z</time>
      </trkpt>
      <trkpt lat="42.76179" lon="0.50162">
        <ele>1161</ele>
        <time>2000-01-01T04:27:15.000Z</time>
      </trkpt>
      <trkpt lat="42.76165" lon="0.50165">
        <ele>1161.8</ele>
        <time>2000-01-01T04:27:25.000Z</time>
      </trkpt>
      <trkpt lat="42.7615" lon="0.50181">
        <ele>1163</ele>
        <time>2000-01-01T04:27:35.000Z</time>
      </trkpt>
      <trkpt lat="42.76141" lon="0.50188">
        <ele>1165.2</ele>
        <time>2000-01-01T04:27:45.000Z</time>
      </trkpt>
      <trkpt lat="42.76133" lon="0.50192">
        <ele>1166.3</ele>
        <time>2000-01-01T04:27:55.000Z</time>
      </trkpt>
      <trkpt lat="42.76128" lon="0.50192">
        <ele>1164</ele>
        <time>2000-01-01T04:28:05.000Z</time>
      </trkpt>
      <trkpt lat="42.76106" lon="0.50177">
        <ele>1166</ele>
        <time>2000-01-01T04:28:15.000Z</time>
      </trkpt>
      <trkpt lat="42.76097" lon="0.50177">
        <ele>1167.5</ele>
        <time>2000-01-01T04:28:25.000Z</time>
      </trkpt>
      <trkpt lat="42.76086" lon="0.50175">
        <ele>1167</ele>
        <time>2000-01-01T04:28:35.000Z</time>
      </trkpt>
      <trkpt lat="42.76074" lon="0.50174">
        <ele>1168.2</ele>
        <time>2000-01-01T04:28:45.000Z</time>
      </trkpt>
      <trkpt lat="42.76058" lon="0.50177">
        <ele>1168</ele>
        <time>2000-01-01T04:28:55.000Z</time>
      </trkpt>
      <trkpt lat="42.7605" lon="0.5018">
        <ele>1169.6</ele>
        <time>2000-01-01T04:29:05.000Z</time>
      </trkpt>
      <trkpt lat="42.76042" lon="0.50185">
        <ele>1170.1</ele>
        <time>2000-01-01T04:29:15.000Z</time>
      </trkpt>
      <trkpt lat="42.76036" lon="0.50193">
        <ele>1170</ele>
        <time>2000-01-01T04:29:25.000Z</time>
      </trkpt>
      <trkpt lat="42.76021" lon="0.50202">
        <ele>1172.2</ele>
        <time>2000-01-01T04:29:35.000Z</time>
      </trkpt>
      <trkpt lat="42.7601" lon="0.50203">
        <ele>1171</ele>
        <time>2000-01-01T04:29:45.000Z</time>
      </trkpt>
      <trkpt lat="42.75999" lon="0.50207">
        <ele>1172.7</ele>
        <time>2000-01-01T04:29:55.000Z</time>
      </trkpt>
      <trkpt lat="42.75989" lon="0.50216">
        <ele>1173</ele>
        <time>2000-01-01T04:30:05.000Z</time>
      </trkpt>
      <trkpt lat="42.75981" lon="0.50228">
        <ele>1177.2</ele>
        <time>2000-01-01T04:30:15.000Z</time>
      </trkpt>
      <trkpt lat="42.75972" lon="0.50239">
        <ele>1177</ele>
        <time>2000-01-01T04:30:25.000Z</time>
      </trkpt>
      <trkpt lat="42.75961" lon="0.50246">
        <ele>1181.5</ele>
        <time>2000-01-01T04:30:35.000Z</time>
      </trkpt>
      <trkpt lat="42.75941" lon="0.50264">
        <ele>1186</ele>
        <time>2000-01-01T04:30:45.000Z</time>
      </trkpt>
      <trkpt lat="42.7593" lon="0.5026">
        <ele>1187.8</ele>
        <time>2000-01-01T04:30:55.000Z</time>
      </trkpt>
      <trkpt lat="42.75919" lon="0.50255">
        <ele>1186</ele>
        <time>2000-01-01T04:31:05.000Z</time>
      </trkpt>
      <trkpt lat="42.7591" lon="0.50246">
        <ele>1185.4</ele>
        <time>2000-01-01T04:31:15.000Z</time>
      </trkpt>
      <trkpt lat="42.759" lon="0.50243">
        <ele>1186</ele>
        <time>2000-01-01T04:31:25.000Z</time>
      </trkpt>
      <trkpt lat="42.75878" lon="0.50243">
        <ele>1187</ele>
        <time>2000-01-01T04:31:35.000Z</time>
      </trkpt>
      <trkpt lat="42.75866" lon="0.50244">
        <ele>1190.6</ele>
        <time>2000-01-01T04:31:45.000Z</time>
      </trkpt>
      <trkpt lat="42.75844" lon="0.5024">
        <ele>1189</ele>
        <time>2000-01-01T04:31:55.000Z</time>
      </trkpt>
      <trkpt lat="42.75833" lon="0.50239">
        <ele>1195.6</ele>
        <time>2000-01-01T04:32:05.000Z</time>
      </trkpt>
      <trkpt lat="42.75822" lon="0.50236">
        <ele>1194</ele>
        <time>2000-01-01T04:32:15.000Z</time>
      </trkpt>
      <trkpt lat="42.7581" lon="0.50231">
        <ele>1199.9</ele>
        <time>2000-01-01T04:32:25.000Z</time>
      </trkpt>
      <trkpt lat="42.75799" lon="0.5023">
        <ele>1202</ele>
        <time>2000-01-01T04:32:35.000Z</time>
      </trkpt>
      <trkpt lat="42.75786" lon="0.50227">
        <ele>1206.1</ele>
        <time>2000-01-01T04:32:45.000Z</time>
      </trkpt>
      <trkpt lat="42.75776" lon="0.50221">
        <ele>1209</ele>
        <time>2000-01-01T04:32:55.000Z</time>
      </trkpt>
      <trkpt lat="42.75764" lon="0.50215">
        <ele>1209</ele>
        <time>2000-01-01T04:33:05.000Z</time>
      </trkpt>
      <trkpt lat="42.75754" lon="0.50211">
        <ele>1211</ele>
        <time>2000-01-01T04:33:15.000Z</time>
      </trkpt>
      <trkpt lat="42.75742" lon="0.5021">
        <ele>1214.9</ele>
        <time>2000-01-01T04:33:25.000Z</time>
      </trkpt>
      <trkpt lat="42.75731" lon="0.50206">
        <ele>1215</ele>
        <time>2000-01-01T04:33:35.000Z</time>
      </trkpt>
      <trkpt lat="42.75712" lon="0.5019">
        <ele>1221</ele>
        <time>2000-01-01T04:33:45.000Z</time>
      </trkpt>
      <trkpt lat="42.75703" lon="0.5018">
        <ele>1226.2</ele>
        <time>2000-01-01T04:33:55.000Z</time>
      </trkpt>
      <trkpt lat="42.75697" lon="0.50165">
        <ele>1229</ele>
        <time>2000-01-01T04:34:05.000Z</time>
      </trkpt>
      <trkpt lat="42.75689" lon="0.50154">
        <ele>1226.1</ele>
        <time>2000-01-01T04:34:15.000Z</time>
      </trkpt>
      <trkpt lat="42.75678" lon="0.50143">
        <ele>1230</ele>
        <time>2000-01-01T04:34:25.000Z</time>
      </trkpt>
      <trkpt lat="42.75668" lon="0.50138">
        <ele>1231.1</ele>
        <time>2000-01-01T04:34:35.000Z</time>
      </trkpt>
      <trkpt lat="42.75656" lon="0.50136">
        <ele>1239</ele>
        <time>2000-01-01T04:34:45.000Z</time>
      </trkpt>
      <trkpt lat="42.75647" lon="0.50126">
        <ele>1239.2</ele>
        <time>2000-01-01T04:34:55.000Z</time>
      </trkpt>
      <trkpt lat="42.7563" lon="0.50105">
        <ele>1248</ele>
        <time>2000-01-01T04:35:05.000Z</time>
      </trkpt>
      <trkpt lat="42.75619" lon="0.50098">
        <ele>1247.5</ele>
        <time>2000-01-01T04:35:15.000Z</time>
      </trkpt>
      <trkpt lat="42.75603" lon="0.50073">
        <ele>1250</ele>
        <time>2000-01-01T04:35:25.000Z</time>
      </trkpt>
      <trkpt lat="42.75597" lon="0.50061">
        <ele>1250.6</ele>
        <time>2000-01-01T04:35:35.000Z</time>
      </trkpt>
      <trkpt lat="42.7559" lon="0.50049">
        <ele>1251</ele>
        <time>2000-01-01T04:35:45.000Z</time>
      </trkpt>
      <trkpt lat="42.75581" lon="0.50039">
        <ele>1253.4</ele>
        <time>2000-01-01T04:35:55.000Z</time>
      </trkpt>
      <trkpt lat="42.75573" lon="0.50027">
        <ele>1251</ele>
        <time>2000-01-01T04:36:05.000Z</time>
      </trkpt>
      <trkpt lat="42.75567" lon="0.50013">
        <ele>1252.1</ele>
        <time>2000-01-01T04:36:15.000Z</time>
      </trkpt>
      <trkpt lat="42.75551" lon="0.49992">
        <ele>1251</ele>
        <time>2000-01-01T04:36:25.000Z</time>
      </trkpt>
      <trkpt lat="42.75542" lon="0.49983">
        <ele>1251.9</ele>
        <time>2000-01-01T04:36:35.000Z</time>
      </trkpt>
      <trkpt lat="42.75531" lon="0.49978">
        <ele>1251</ele>
        <time>2000-01-01T04:36:45.000Z</time>
      </trkpt>
      <trkpt lat="42.75519" lon="0.49976">
        <ele>1256.8</ele>
        <time>2000-01-01T04:36:55.000Z</time>
      </trkpt>
      <trkpt lat="42.755" lon="0.49961">
        <ele>1259</ele>
        <time>2000-01-01T04:37:05.000Z</time>
      </trkpt>
      <trkpt lat="42.75489" lon="0.4996">
        <ele>1260</ele>
        <time>2000-01-01T04:37:15.000Z</time>
      </trkpt>
      <trkpt lat="42.75479" lon="0.49956">
        <ele>1262</ele>
        <time>2000-01-01T04:37:25.000Z</time>
      </trkpt>
      <trkpt lat="42.75467" lon="0.49955">
        <ele>1264.6</ele>
        <time>2000-01-01T04:37:35.000Z</time>
      </trkpt>
      <trkpt lat="42.75455" lon="0.49951">
        <ele>1264</ele>
        <time>2000-01-01T04:37:45.000Z</time>
      </trkpt>
      <trkpt lat="42.75445" lon="0.4995">
        <ele>1268.5</ele>
        <time>2000-01-01T04:37:55.000Z</time>
      </trkpt>
      <trkpt lat="42.75433" lon="0.4995">
        <ele>1266</ele>
        <time>2000-01-01T04:38:05.000Z</time>
      </trkpt>
      <trkpt lat="42.75422" lon="0.49954">
        <ele>1275.3</ele>
        <time>2000-01-01T04:38:15.000Z</time>
      </trkpt>
      <trkpt lat="42.75411" lon="0.49955">
        <ele>1277</ele>
        <time>2000-01-01T04:38:25.000Z</time>
      </trkpt>
      <trkpt lat="42.75387" lon="0.49964">
        <ele>1290</ele>
        <time>2000-01-01T04:38:35.000Z</time>
      </trkpt>
      <trkpt lat="42.75376" lon="0.49969">
        <ele>1296</ele>
        <time>2000-01-01T04:38:45.000Z</time>
      </trkpt>
      <trkpt lat="42.75365" lon="0.49965">
        <ele>1296</ele>
        <time>2000-01-01T04:38:55.000Z</time>
      </trkpt>
      <trkpt lat="42.75354" lon="0.4996">
        <ele>1299.5</ele>
        <time>2000-01-01T04:39:05.000Z</time>
      </trkpt>
      <trkpt lat="42.7533" lon="0.49946">
        <ele>1296</ele>
        <time>2000-01-01T04:39:15.000Z</time>
      </trkpt>
      <trkpt lat="42.7532" lon="0.49943">
        <ele>1305</ele>
        <time>2000-01-01T04:39:25.000Z</time>
      </trkpt>
      <trkpt lat="42.75311" lon="0.4993">
        <ele>1297</ele>
        <time>2000-01-01T04:39:35.000Z</time>
      </trkpt>
      <trkpt lat="42.753" lon="0.49927">
        <ele>1305</ele>
        <time>2000-01-01T04:39:45.000Z</time>
      </trkpt>
      <trkpt lat="42.75293" lon="0.49914">
        <ele>1295</ele>
        <time>2000-01-01T04:39:55.000Z</time>
      </trkpt>
      <trkpt lat="42.75287" lon="0.49899">
        <ele>1296.1</ele>
        <time>2000-01-01T04:40:05.000Z</time>
      </trkpt>
      <trkpt lat="42.75277" lon="0.49888">
        <ele>1297</ele>
        <time>2000-01-01T04:40:15.000Z</time>
      </trkpt>
      <trkpt lat="42.75267" lon="0.49879">
        <ele>1296.1</ele>
        <time>2000-01-01T04:40:25.000Z</time>
      </trkpt>
      <trkpt lat="42.75257" lon="0.49872">
        <ele>1299</ele>
        <time>2000-01-01T04:40:35.000Z</time>
      </trkpt>
      <trkpt lat="42.75248" lon="0.49864">
        <ele>1299.2</ele>
        <time>2000-01-01T04:40:45.000Z</time>
      </trkpt>
      <trkpt lat="42.75237" lon="0.49856">
        <ele>1304</ele>
        <time>2000-01-01T04:40:55.000Z</time>
      </trkpt>
      <trkpt lat="42.75228" lon="0.49845">
        <ele>1303.7</ele>
        <time>2000-01-01T04:41:05.000Z</time>
      </trkpt>
      <trkpt lat="42.7522" lon="0.49834">
        <ele>1309</ele>
        <time>2000-01-01T04:41:15.000Z</time>
      </trkpt>
      <trkpt lat="42.75211" lon="0.49824">
        <ele>1308.3</ele>
        <time>2000-01-01T04:41:25.000Z</time>
      </trkpt>
      <trkpt lat="42.75203" lon="0.49811">
        <ele>1312</ele>
        <time>2000-01-01T04:41:35.000Z</time>
      </trkpt>
      <trkpt lat="42.75198" lon="0.49797">
        <ele>1311.1</ele>
        <time>2000-01-01T04:41:45.000Z</time>
      </trkpt>
      <trkpt lat="42.75198" lon="0.49783">
        <ele>1313</ele>
        <time>2000-01-01T04:41:55.000Z</time>
      </trkpt>
      <trkpt lat="42.7519" lon="0.49772">
        <ele>1312.2</ele>
        <time>2000-01-01T04:42:05.000Z</time>
      </trkpt>
      <trkpt lat="42.75181" lon="0.49763">
        <ele>1315</ele>
        <time>2000-01-01T04:42:15.000Z</time>
      </trkpt>
      <trkpt lat="42.75164" lon="0.49741">
        <ele>1326</ele>
        <time>2000-01-01T04:42:25.000Z</time>
      </trkpt>
      <trkpt lat="42.75158" lon="0.49729">
        <ele>1326.7</ele>
        <time>2000-01-01T04:42:35.000Z</time>
      </trkpt>
      <trkpt lat="42.75159" lon="0.49713">
        <ele>1328</ele>
        <time>2000-01-01T04:42:45.000Z</time>
      </trkpt>
      <trkpt lat="42.75156" lon="0.49698">
        <ele>1324.5</ele>
        <time>2000-01-01T04:42:55.000Z</time>
      </trkpt>
      <trkpt lat="42.75148" lon="0.49687">
        <ele>1332</ele>
        <time>2000-01-01T04:43:05.000Z</time>
      </trkpt>
      <trkpt lat="42.75143" lon="0.49675">
        <ele>1330.2</ele>
        <time>2000-01-01T04:43:15.000Z</time>
      </trkpt>
      <trkpt lat="42.7514" lon="0.49661">
        <ele>1336</ele>
        <time>2000-01-01T04:43:25.000Z</time>
      </trkpt>
      <trkpt lat="42.75133" lon="0.4965">
        <ele>1335.5</ele>
        <time>2000-01-01T04:43:35.000Z</time>
      </trkpt>
      <trkpt lat="42.75135" lon="0.49666">
        <ele>1336</ele>
        <time>2000-01-01T04:43:45.000Z</time>
      </trkpt>
      <trkpt lat="42.75141" lon="0.4968">
        <ele>1331.7</ele>
        <time>2000-01-01T04:43:55.000Z</time>
      </trkpt>
      <trkpt lat="42.75139" lon="0.49695">
        <ele>1338</ele>
        <time>2000-01-01T04:44:05.000Z</time>
      </trkpt>
      <trkpt lat="42.75129" lon="0.49703">
        <ele>1341</ele>
        <time>2000-01-01T04:44:15.000Z</time>
      </trkpt>
      <trkpt lat="42.75127" lon="0.49686">
        <ele>1342</ele>
        <time>2000-01-01T04:44:25.000Z</time>
      </trkpt>
      <trkpt lat="42.75121" lon="0.49672">
        <ele>1342.8</ele>
        <time>2000-01-01T04:44:35.000Z</time>
      </trkpt>
      <trkpt lat="42.75113" lon="0.49662">
        <ele>1349</ele>
        <time>2000-01-01T04:44:45.000Z</time>
      </trkpt>
      <trkpt lat="42.75106" lon="0.49649">
        <ele>1351.9</ele>
        <time>2000-01-01T04:44:55.000Z</time>
      </trkpt>
      <trkpt lat="42.75106" lon="0.49663">
        <ele>1350</ele>
        <time>2000-01-01T04:45:05.000Z</time>
      </trkpt>
      <trkpt lat="42.75108" lon="0.49679">
        <ele>1351.4</ele>
        <time>2000-01-01T04:45:15.000Z</time>
      </trkpt>
      <trkpt lat="42.75112" lon="0.49694">
        <ele>1351</ele>
        <time>2000-01-01T04:45:25.000Z</time>
      </trkpt>
      <trkpt lat="42.75112" lon="0.49709">
        <ele>1352</ele>
        <time>2000-01-01T04:45:35.000Z</time>
      </trkpt>
      <trkpt lat="42.75102" lon="0.49701">
        <ele>1358</ele>
        <time>2000-01-01T04:45:45.000Z</time>
      </trkpt>
      <trkpt lat="42.75099" lon="0.49687">
        <ele>1358.4</ele>
        <time>2000-01-01T04:45:55.000Z</time>
      </trkpt>
      <trkpt lat="42.7509" lon="0.49678">
        <ele>1369</ele>
        <time>2000-01-01T04:46:05.000Z</time>
      </trkpt>
      <trkpt lat="42.75085" lon="0.49665">
        <ele>1365</ele>
        <time>2000-01-01T04:46:15.000Z</time>
      </trkpt>
      <trkpt lat="42.75084" lon="0.49679">
        <ele>1369</ele>
        <time>2000-01-01T04:46:25.000Z</time>
      </trkpt>
      <trkpt lat="42.75087" lon="0.49694">
        <ele>1367.4</ele>
        <time>2000-01-01T04:46:35.000Z</time>
      </trkpt>
      <trkpt lat="42.75082" lon="0.49708">
        <ele>1373</ele>
        <time>2000-01-01T04:46:45.000Z</time>
      </trkpt>
      <trkpt lat="42.75076" lon="0.49695">
        <ele>1375.6</ele>
        <time>2000-01-01T04:46:55.000Z</time>
      </trkpt>
      <trkpt lat="42.75067" lon="0.49686">
        <ele>1383</ele>
        <time>2000-01-01T04:47:05.000Z</time>
      </trkpt>
      <trkpt lat="42.75059" lon="0.49676">
        <ele>1385.7</ele>
        <time>2000-01-01T04:47:15.000Z</time>
      </trkpt>
      <trkpt lat="42.75049" lon="0.49669">
        <ele>1398</ele>
        <time>2000-01-01T04:47:25.000Z</time>
      </trkpt>
      <trkpt lat="42.75031" lon="0.49652">
        <ele>1406</ele>
        <time>2000-01-01T04:47:35.000Z</time>
      </trkpt>
      <trkpt lat="42.75028" lon="0.49638">
        <ele>1409.8</ele>
        <time>2000-01-01T04:47:45.000Z</time>
      </trkpt>
      <trkpt lat="42.75034" lon="0.49622">
        <ele>1404</ele>
        <time>2000-01-01T04:47:55.000Z</time>
      </trkpt>
      <trkpt lat="42.75041" lon="0.49592">
        <ele>1403</ele>
        <time>2000-01-01T04:48:05.000Z</time>
      </trkpt>
      <trkpt lat="42.75053" lon="0.49568">
        <ele>1403</ele>
        <time>2000-01-01T04:48:15.000Z</time>
      </trkpt>
      <trkpt lat="42.75062" lon="0.49558">
        <ele>1397.4</ele>
        <time>2000-01-01T04:48:25.000Z</time>
      </trkpt>
      <trkpt lat="42.75068" lon="0.49544">
        <ele>1405</ele>
        <time>2000-01-01T04:48:35.000Z</time>
      </trkpt>
      <trkpt lat="42.75069" lon="0.4953">
        <ele>1402.5</ele>
        <time>2000-01-01T04:48:45.000Z</time>
      </trkpt>
      <trkpt lat="42.75074" lon="0.49516">
        <ele>1408</ele>
        <time>2000-01-01T04:48:55.000Z</time>
      </trkpt>
      <trkpt lat="42.75073" lon="0.49502">
        <ele>1409.4</ele>
        <time>2000-01-01T04:49:05.000Z</time>
      </trkpt>
      <trkpt lat="42.75063" lon="0.49508">
        <ele>1413</ele>
        <time>2000-01-01T04:49:15.000Z</time>
      </trkpt>
      <trkpt lat="42.75051" lon="0.49508">
        <ele>1414.7</ele>
        <time>2000-01-01T04:49:25.000Z</time>
      </trkpt>
      <trkpt lat="42.75045" lon="0.49497">
        <ele>1422</ele>
        <time>2000-01-01T04:49:35.000Z</time>
      </trkpt>
      <trkpt lat="42.75047" lon="0.49482">
        <ele>1422</ele>
        <time>2000-01-01T04:49:45.000Z</time>
      </trkpt>
      <trkpt lat="42.75052" lon="0.49469">
        <ele>1425</ele>
        <time>2000-01-01T04:49:55.000Z</time>
      </trkpt>
      <trkpt lat="42.75056" lon="0.49453">
        <ele>1423.6</ele>
        <time>2000-01-01T04:50:05.000Z</time>
      </trkpt>
      <trkpt lat="42.75048" lon="0.49465">
        <ele>1426</ele>
        <time>2000-01-01T04:50:15.000Z</time>
      </trkpt>
      <trkpt lat="42.75043" lon="0.49479">
        <ele>1424.1</ele>
        <time>2000-01-01T04:50:25.000Z</time>
      </trkpt>
      <trkpt lat="42.75034" lon="0.49489">
        <ele>1427</ele>
        <time>2000-01-01T04:50:35.000Z</time>
      </trkpt>
      <trkpt lat="42.75024" lon="0.49495">
        <ele>1428</ele>
        <time>2000-01-01T04:50:45.000Z</time>
      </trkpt>
      <trkpt lat="42.75018" lon="0.49507">
        <ele>1433</ele>
        <time>2000-01-01T04:50:55.000Z</time>
      </trkpt>
      <trkpt lat="42.75006" lon="0.4951">
        <ele>1435.5</ele>
        <time>2000-01-01T04:51:05.000Z</time>
      </trkpt>
      <trkpt lat="42.74995" lon="0.49509">
        <ele>1446</ele>
        <time>2000-01-01T04:51:15.000Z</time>
      </trkpt>
      <trkpt lat="42.74997" lon="0.49495">
        <ele>1442.6</ele>
        <time>2000-01-01T04:51:25.000Z</time>
      </trkpt>
      <trkpt lat="42.74989" lon="0.49485">
        <ele>1454</ele>
        <time>2000-01-01T04:51:35.000Z</time>
      </trkpt>
      <trkpt lat="42.74986" lon="0.49471">
        <ele>1452.2</ele>
        <time>2000-01-01T04:51:45.000Z</time>
      </trkpt>
      <trkpt lat="42.7499" lon="0.49457">
        <ele>1458</ele>
        <time>2000-01-01T04:51:55.000Z</time>
      </trkpt>
      <trkpt lat="42.7498" lon="0.49463">
        <ele>1457</ele>
        <time>2000-01-01T04:52:05.000Z</time>
      </trkpt>
      <trkpt lat="42.74974" lon="0.49476">
        <ele>1459</ele>
        <time>2000-01-01T04:52:15.000Z</time>
      </trkpt>
      <trkpt lat="42.74976" lon="0.49492">
        <ele>1457</ele>
        <time>2000-01-01T04:52:25.000Z</time>
      </trkpt>
      <trkpt lat="42.74972" lon="0.49507">
        <ele>1460</ele>
        <time>2000-01-01T04:52:35.000Z</time>
      </trkpt>
      <trkpt lat="42.74966" lon="0.49502">
        <ele>1464.2</ele>
        <time>2000-01-01T04:52:45.000Z</time>
      </trkpt>
      <trkpt lat="42.74966" lon="0.49502">
        <ele>1464.2</ele>
        <time>2000-01-01T04:52:55.000Z</time>
      </trkpt>
      <trkpt lat="42.74966" lon="0.4951">
        <ele>1464.2</ele>
        <time>2000-01-01T04:53:05.000Z</time>
      </trkpt>
      <trkpt lat="42.74962" lon="0.49524">
        <ele>1470</ele>
        <time>2000-01-01T04:53:15.000Z</time>
      </trkpt>
      <trkpt lat="42.74956" lon="0.49513">
        <ele>1472.7</ele>
        <time>2000-01-01T04:53:25.000Z</time>
      </trkpt>
      <trkpt lat="42.74957" lon="0.49497">
        <ele>1477</ele>
        <time>2000-01-01T04:53:35.000Z</time>
      </trkpt>
      <trkpt lat="42.74956" lon="0.49485">
        <ele>1472.9</ele>
        <time>2000-01-01T04:53:45.000Z</time>
      </trkpt>
      <trkpt lat="42.74956" lon="0.49485">
        <ele>1472.9</ele>
        <time>2000-01-01T04:53:55.000Z</time>
      </trkpt>
      <trkpt lat="42.74953" lon="0.49473">
        <ele>1475.5</ele>
        <time>2000-01-01T04:54:05.000Z</time>
      </trkpt>
      <trkpt lat="42.74946" lon="0.49459">
        <ele>1485</ele>
        <time>2000-01-01T04:54:15.000Z</time>
      </trkpt>
      <trkpt lat="42.74937" lon="0.49448">
        <ele>1488</ele>
        <time>2000-01-01T04:54:25.000Z</time>
      </trkpt>
      <trkpt lat="42.74928" lon="0.49456">
        <ele>1500</ele>
        <time>2000-01-01T04:54:35.000Z</time>
      </trkpt>
      <trkpt lat="42.7492" lon="0.49427">
        <ele>1502</ele>
        <time>2000-01-01T04:54:45.000Z</time>
      </trkpt>
      <trkpt lat="42.74913" lon="0.49416">
        <ele>1501.2</ele>
        <time>2000-01-01T04:54:55.000Z</time>
      </trkpt>
      <trkpt lat="42.74904" lon="0.49405">
        <ele>1507</ele>
        <time>2000-01-01T04:55:05.000Z</time>
      </trkpt>
      <trkpt lat="42.74896" lon="0.49394">
        <ele>1507.5</ele>
        <time>2000-01-01T04:55:15.000Z</time>
      </trkpt>
      <trkpt lat="42.7489" lon="0.4938">
        <ele>1510</ele>
        <time>2000-01-01T04:55:25.000Z</time>
      </trkpt>
      <trkpt lat="42.74882" lon="0.4937">
        <ele>1509.3</ele>
        <time>2000-01-01T04:55:35.000Z</time>
      </trkpt>
      <trkpt lat="42.74877" lon="0.49357">
        <ele>1512</ele>
        <time>2000-01-01T04:55:45.000Z</time>
      </trkpt>
      <trkpt lat="42.74858" lon="0.49338">
        <ele>1515</ele>
        <time>2000-01-01T04:55:55.000Z</time>
      </trkpt>
      <trkpt lat="42.7485" lon="0.49328">
        <ele>1515.9</ele>
        <time>2000-01-01T04:56:05.000Z</time>
      </trkpt>
      <trkpt lat="42.7484" lon="0.49317">
        <ele>1516</ele>
        <time>2000-01-01T04:56:15.000Z</time>
      </trkpt>
      <trkpt lat="42.74829" lon="0.49311">
        <ele>1523.3</ele>
        <time>2000-01-01T04:56:25.000Z</time>
      </trkpt>
      <trkpt lat="42.74822" lon="0.49299">
        <ele>1517</ele>
        <time>2000-01-01T04:56:35.000Z</time>
      </trkpt>
      <trkpt lat="42.74814" lon="0.49287">
        <ele>1520.8</ele>
        <time>2000-01-01T04:56:45.000Z</time>
      </trkpt>
      <trkpt lat="42.74809" lon="0.49271">
        <ele>1509</ele>
        <time>2000-01-01T04:56:55.000Z</time>
      </trkpt>
      <trkpt lat="42.748" lon="0.4926">
        <ele>1514.6</ele>
        <time>2000-01-01T04:57:05.000Z</time>
      </trkpt>
      <trkpt lat="42.74801" lon="0.49244">
        <ele>1507</ele>
        <time>2000-01-01T04:57:15.000Z</time>
      </trkpt>
      <trkpt lat="42.74793" lon="0.49233">
        <ele>1503.2</ele>
        <time>2000-01-01T04:57:25.000Z</time>
      </trkpt>
      <trkpt lat="42.74774" lon="0.49217">
        <ele>1508</ele>
        <time>2000-01-01T04:57:35.000Z</time>
      </trkpt>
      <trkpt lat="42.74767" lon="0.49205">
        <ele>1505.9</ele>
        <time>2000-01-01T04:57:45.000Z</time>
      </trkpt>
      <trkpt lat="42.74757" lon="0.49198">
        <ele>1505</ele>
        <time>2000-01-01T04:57:55.000Z</time>
      </trkpt>
      <trkpt lat="42.74744" lon="0.49192">
        <ele>1510.9</ele>
        <time>2000-01-01T04:58:05.000Z</time>
      </trkpt>
      <trkpt lat="42.74733" lon="0.49176">
        <ele>1502</ele>
        <time>2000-01-01T04:58:15.000Z</time>
      </trkpt>
      <trkpt lat="42.74704" lon="0.49144">
        <ele>1494</ele>
        <time>2000-01-01T04:58:25.000Z</time>
      </trkpt>
      <trkpt lat="42.74694" lon="0.49138">
        <ele>1494.6</ele>
        <time>2000-01-01T04:58:35.000Z</time>
      </trkpt>
      <trkpt lat="42.74684" lon="0.49131">
        <ele>1492</ele>
        <time>2000-01-01T04:58:45.000Z</time>
      </trkpt>
      <trkpt lat="42.74675" lon="0.49123">
        <ele>1488.9</ele>
        <time>2000-01-01T04:58:55.000Z</time>
      </trkpt>
      <trkpt lat="42.74652" lon="0.4912">
        <ele>1490</ele>
        <time>2000-01-01T04:59:05.000Z</time>
      </trkpt>
      <trkpt lat="42.7464" lon="0.49121">
        <ele>1489.8</ele>
        <time>2000-01-01T04:59:15.000Z</time>
      </trkpt>
      <trkpt lat="42.74628" lon="0.49127">
        <ele>1488</ele>
        <time>2000-01-01T04:59:25.000Z</time>
      </trkpt>
      <trkpt lat="42.74617" lon="0.49131">
        <ele>1491.9</ele>
        <time>2000-01-01T04:59:35.000Z</time>
      </trkpt>
      <trkpt lat="42.74594" lon="0.49127">
        <ele>1488</ele>
        <time>2000-01-01T04:59:45.000Z</time>
      </trkpt>
      <trkpt lat="42.74582" lon="0.49127">
        <ele>1490.4</ele>
        <time>2000-01-01T04:59:55.000Z</time>
      </trkpt>
      <trkpt lat="42.74569" lon="0.49128">
        <ele>1488</ele>
        <time>2000-01-01T05:00:05.000Z</time>
      </trkpt>
      <trkpt lat="42.7456" lon="0.4912">
        <ele>1489.2</ele>
        <time>2000-01-01T05:00:15.000Z</time>
      </trkpt>
      <trkpt lat="42.74549" lon="0.49116">
        <ele>1487</ele>
        <time>2000-01-01T05:00:25.000Z</time>
      </trkpt>
      <trkpt lat="42.74527" lon="0.49125">
        <ele>1487</ele>
        <time>2000-01-01T05:00:35.000Z</time>
      </trkpt>
      <trkpt lat="42.74516" lon="0.49131">
        <ele>1489.8</ele>
        <time>2000-01-01T05:00:45.000Z</time>
      </trkpt>
      <trkpt lat="42.74505" lon="0.49138">
        <ele>1488</ele>
        <time>2000-01-01T05:00:55.000Z</time>
      </trkpt>
      <trkpt lat="42.74496" lon="0.49147">
        <ele>1492.5</ele>
        <time>2000-01-01T05:01:05.000Z</time>
      </trkpt>
      <trkpt lat="42.74485" lon="0.49146">
        <ele>1492</ele>
        <time>2000-01-01T05:01:15.000Z</time>
      </trkpt>
      <trkpt lat="42.74475" lon="0.4914">
        <ele>1493.8</ele>
        <time>2000-01-01T05:01:25.000Z</time>
      </trkpt>
      <trkpt lat="42.74469" lon="0.49154">
        <ele>1496</ele>
        <time>2000-01-01T05:01:35.000Z</time>
      </trkpt>
      <trkpt lat="42.74456" lon="0.49163">
        <ele>1501.3</ele>
        <time>2000-01-01T05:01:45.000Z</time>
      </trkpt>
      <trkpt lat="42.74437" lon="0.49156">
        <ele>1499</ele>
        <time>2000-01-01T05:01:55.000Z</time>
      </trkpt>
      <trkpt lat="42.74428" lon="0.49164">
        <ele>1503</ele>
        <time>2000-01-01T05:02:05.000Z</time>
      </trkpt>
      <trkpt lat="42.74418" lon="0.49167">
        <ele>1500</ele>
        <time>2000-01-01T05:02:15.000Z</time>
      </trkpt>
      <trkpt lat="42.74421" lon="0.49193">
        <ele>1509.6</ele>
        <time>2000-01-01T05:02:25.000Z</time>
      </trkpt>
      <trkpt lat="42.74412" lon="0.49208">
        <ele>1508</ele>
        <time>2000-01-01T05:02:35.000Z</time>
      </trkpt>
      <trkpt lat="42.7441" lon="0.49225">
        <ele>1518.2</ele>
        <time>2000-01-01T05:02:45.000Z</time>
      </trkpt>
      <trkpt lat="42.74404" lon="0.49238">
        <ele>1508</ele>
        <time>2000-01-01T05:02:55.000Z</time>
      </trkpt>
      <trkpt lat="42.74394" lon="0.49245">
        <ele>1517.5</ele>
        <time>2000-01-01T05:03:05.000Z</time>
      </trkpt>
      <trkpt lat="42.7439" lon="0.4926">
        <ele>1509</ele>
        <time>2000-01-01T05:03:15.000Z</time>
      </trkpt>
      <trkpt lat="42.74392" lon="0.4928">
        <ele>1524.5</ele>
        <time>2000-01-01T05:03:25.000Z</time>
      </trkpt>
      <trkpt lat="42.74389" lon="0.49306">
        <ele>1517</ele>
        <time>2000-01-01T05:03:35.000Z</time>
      </trkpt>
      <trkpt lat="42.74385" lon="0.4932">
        <ele>1526</ele>
        <time>2000-01-01T05:03:45.000Z</time>
      </trkpt>
      <trkpt lat="42.74386" lon="0.49336">
        <ele>1523</ele>
        <time>2000-01-01T05:03:55.000Z</time>
      </trkpt>
      <trkpt lat="42.74385" lon="0.49353">
        <ele>1534.7</ele>
        <time>2000-01-01T05:04:05.000Z</time>
      </trkpt>
      <trkpt lat="42.7438" lon="0.49366">
        <ele>1528</ele>
        <time>2000-01-01T05:04:15.000Z</time>
      </trkpt>
      <trkpt lat="42.74362" lon="0.49385">
        <ele>1529</ele>
        <time>2000-01-01T05:04:25.000Z</time>
      </trkpt>
      <trkpt lat="42.74355" lon="0.49397">
        <ele>1538.4</ele>
        <time>2000-01-01T05:04:35.000Z</time>
      </trkpt>
      <trkpt lat="42.74346" lon="0.4941">
        <ele>1529</ele>
        <time>2000-01-01T05:04:45.000Z</time>
      </trkpt>
      <trkpt lat="42.74338" lon="0.49417">
        <ele>1537.5</ele>
        <time>2000-01-01T05:04:55.000Z</time>
      </trkpt>
      <trkpt lat="42.74329" lon="0.49432">
        <ele>1530</ele>
        <time>2000-01-01T05:05:05.000Z</time>
      </trkpt>
      <trkpt lat="42.74325" lon="0.49445">
        <ele>1538.3</ele>
        <time>2000-01-01T05:05:15.000Z</time>
      </trkpt>
      <trkpt lat="42.74322" lon="0.49461">
        <ele>1541</ele>
        <time>2000-01-01T05:05:25.000Z</time>
      </trkpt>
      <trkpt lat="42.74319" lon="0.49474">
        <ele>1543.6</ele>
        <time>2000-01-01T05:05:35.000Z</time>
      </trkpt>
      <trkpt lat="42.74317" lon="0.49491">
        <ele>1541</ele>
        <time>2000-01-01T05:05:45.000Z</time>
      </trkpt>
      <trkpt lat="42.74315" lon="0.49502">
        <ele>1547.8</ele>
        <time>2000-01-01T05:05:55.000Z</time>
      </trkpt>
      <trkpt lat="42.74305" lon="0.49522">
        <ele>1547</ele>
        <time>2000-01-01T05:06:05.000Z</time>
      </trkpt>
      <trkpt lat="42.74292" lon="0.49545">
        <ele>1548</ele>
        <time>2000-01-01T05:06:15.000Z</time>
      </trkpt>
      <trkpt lat="42.74273" lon="0.49556">
        <ele>1550</ele>
        <time>2000-01-01T05:06:25.000Z</time>
      </trkpt>
      <trkpt lat="42.74263" lon="0.49568">
        <ele>1553.7</ele>
        <time>2000-01-01T05:06:35.000Z</time>
      </trkpt>
      <trkpt lat="42.74256" lon="0.49584">
        <ele>1550</ele>
        <time>2000-01-01T05:06:45.000Z</time>
      </trkpt>
      <trkpt lat="42.74257" lon="0.49584">
        <ele>1557.1</ele>
        <time>2000-01-01T05:06:55.000Z</time>
      </trkpt>
      <trkpt lat="42.74257" lon="0.49585">
        <ele>1557.5</ele>
        <time>2000-01-01T05:07:05.000Z</time>
      </trkpt>
      <trkpt lat="42.74233" lon="0.496">
        <ele>1554</ele>
        <time>2000-01-01T05:07:15.000Z</time>
      </trkpt>
      <trkpt lat="42.74212" lon="0.49622">
        <ele>1559</ele>
        <time>2000-01-01T05:07:25.000Z</time>
      </trkpt>
      <trkpt lat="42.74201" lon="0.49643">
        <ele>1563</ele>
        <time>2000-01-01T05:07:35.000Z</time>
      </trkpt>
      <trkpt lat="42.74194" lon="0.49665">
        <ele>1562</ele>
        <time>2000-01-01T05:07:45.000Z</time>
      </trkpt>
      <trkpt lat="42.74187" lon="0.49681">
        <ele>1573.9</ele>
        <time>2000-01-01T05:07:55.000Z</time>
      </trkpt>
      <trkpt lat="42.74181" lon="0.49684">
        <ele>1569</ele>
        <time>2000-01-01T05:08:05.000Z</time>
      </trkpt>
      <trkpt lat="42.74171" lon="0.49687">
        <ele>1575.9</ele>
        <time>2000-01-01T05:08:15.000Z</time>
      </trkpt>
      <trkpt lat="42.74157" lon="0.49686">
        <ele>1574</ele>
        <time>2000-01-01T05:08:25.000Z</time>
      </trkpt>
      <trkpt lat="42.74151" lon="0.49691">
        <ele>1577.5</ele>
        <time>2000-01-01T05:08:35.000Z</time>
      </trkpt>
      <trkpt lat="42.74143" lon="0.49705">
        <ele>1583.6</ele>
        <time>2000-01-01T05:08:45.000Z</time>
      </trkpt>
      <trkpt lat="42.74134" lon="0.49718">
        <ele>1583</ele>
        <time>2000-01-01T05:08:55.000Z</time>
      </trkpt>
      <trkpt lat="42.74133" lon="0.49728">
        <ele>1590.7</ele>
        <time>2000-01-01T05:09:05.000Z</time>
      </trkpt>
      <trkpt lat="42.74147" lon="0.49725">
        <ele>1589</ele>
        <time>2000-01-01T05:09:15.000Z</time>
      </trkpt>
      <trkpt lat="42.74157" lon="0.49724">
        <ele>1592.5</ele>
        <time>2000-01-01T05:09:25.000Z</time>
      </trkpt>
      <trkpt lat="42.74149" lon="0.4974">
        <ele>1598</ele>
        <time>2000-01-01T05:09:35.000Z</time>
      </trkpt>
      <trkpt lat="42.74144" lon="0.4975">
        <ele>1602.7</ele>
        <time>2000-01-01T05:09:45.000Z</time>
      </trkpt>
      <trkpt lat="42.74156" lon="0.49752">
        <ele>1606</ele>
        <time>2000-01-01T05:09:55.000Z</time>
      </trkpt>
      <trkpt lat="42.7416" lon="0.49753">
        <ele>1606.4</ele>
        <time>2000-01-01T05:10:05.000Z</time>
      </trkpt>
      <trkpt lat="42.74154" lon="0.49762">
        <ele>1609.2</ele>
        <time>2000-01-01T05:10:15.000Z</time>
      </trkpt>
      <trkpt lat="42.74142" lon="0.49778">
        <ele>1609</ele>
        <time>2000-01-01T05:10:25.000Z</time>
      </trkpt>
      <trkpt lat="42.74151" lon="0.49782">
        <ele>1617.5</ele>
        <time>2000-01-01T05:10:35.000Z</time>
      </trkpt>
      <trkpt lat="42.74162" lon="0.49779">
        <ele>1616</ele>
        <time>2000-01-01T05:10:45.000Z</time>
      </trkpt>
      <trkpt lat="42.74174" lon="0.49778">
        <ele>1618.3</ele>
        <time>2000-01-01T05:10:55.000Z</time>
      </trkpt>
      <trkpt lat="42.74168" lon="0.49791">
        <ele>1623</ele>
        <time>2000-01-01T05:11:05.000Z</time>
      </trkpt>
      <trkpt lat="42.74159" lon="0.49804">
        <ele>1631.3</ele>
        <time>2000-01-01T05:11:15.000Z</time>
      </trkpt>
      <trkpt lat="42.7417" lon="0.49804">
        <ele>1630</ele>
        <time>2000-01-01T05:11:25.000Z</time>
      </trkpt>
      <trkpt lat="42.74159" lon="0.49816">
        <ele>1640.8</ele>
        <time>2000-01-01T05:11:35.000Z</time>
      </trkpt>
      <trkpt lat="42.74171" lon="0.49825">
        <ele>1640</ele>
        <time>2000-01-01T05:11:45.000Z</time>
      </trkpt>
      <trkpt lat="42.7418" lon="0.49832">
        <ele>1648.8</ele>
        <time>2000-01-01T05:11:55.000Z</time>
      </trkpt>
      <trkpt lat="42.74165" lon="0.49832">
        <ele>1654</ele>
        <time>2000-01-01T05:12:05.000Z</time>
      </trkpt>
      <trkpt lat="42.74153" lon="0.49831">
        <ele>1653.9</ele>
        <time>2000-01-01T05:12:15.000Z</time>
      </trkpt>
      <trkpt lat="42.7416" lon="0.49838">
        <ele>1654</ele>
        <time>2000-01-01T05:12:25.000Z</time>
      </trkpt>
      <trkpt lat="42.74168" lon="0.49841">
        <ele>1659.6</ele>
        <time>2000-01-01T05:12:35.000Z</time>
      </trkpt>
      <trkpt lat="42.74171" lon="0.4985">
        <ele>1665.5</ele>
        <time>2000-01-01T05:12:45.000Z</time>
      </trkpt>
      <trkpt lat="42.7416" lon="0.49849">
        <ele>1661</ele>
        <time>2000-01-01T05:12:55.000Z</time>
      </trkpt>
      <trkpt lat="42.74151" lon="0.49847">
        <ele>1667.6</ele>
        <time>2000-01-01T05:13:05.000Z</time>
      </trkpt>
      <trkpt lat="42.74141" lon="0.49849">
        <ele>1671.1</ele>
        <time>2000-01-01T05:13:15.000Z</time>
      </trkpt>
      <trkpt lat="42.74132" lon="0.49848">
        <ele>1664</ele>
        <time>2000-01-01T05:13:25.000Z</time>
      </trkpt>
      <trkpt lat="42.74112" lon="0.49859">
        <ele>1666</ele>
        <time>2000-01-01T05:13:35.000Z</time>
      </trkpt>
      <trkpt lat="42.74093" lon="0.49881">
        <ele>1685</ele>
        <time>2000-01-01T05:13:45.000Z</time>
      </trkpt>
      <trkpt lat="42.74082" lon="0.49884">
        <ele>1687.3</ele>
        <time>2000-01-01T05:13:55.000Z</time>
      </trkpt>
      <trkpt lat="42.74073" lon="0.49891">
        <ele>1687</ele>
        <time>2000-01-01T05:14:05.000Z</time>
      </trkpt>
      <trkpt lat="42.74061" lon="0.49893">
        <ele>1694.8</ele>
        <time>2000-01-01T05:14:15.000Z</time>
      </trkpt>
      <trkpt lat="42.74048" lon="0.49894">
        <ele>1690</ele>
        <time>2000-01-01T05:14:25.000Z</time>
      </trkpt>
      <trkpt lat="42.74037" lon="0.49896">
        <ele>1695.7</ele>
        <time>2000-01-01T05:14:35.000Z</time>
      </trkpt>
      <trkpt lat="42.74025" lon="0.49896">
        <ele>1689</ele>
        <time>2000-01-01T05:14:45.000Z</time>
      </trkpt>
      <trkpt lat="42.74014" lon="0.49893">
        <ele>1691.8</ele>
        <time>2000-01-01T05:14:55.000Z</time>
      </trkpt>
      <trkpt lat="42.74002" lon="0.49897">
        <ele>1689</ele>
        <time>2000-01-01T05:15:05.000Z</time>
      </trkpt>
      <trkpt lat="42.73991" lon="0.49898">
        <ele>1693</ele>
        <time>2000-01-01T05:15:15.000Z</time>
      </trkpt>
      <trkpt lat="42.73968" lon="0.49898">
        <ele>1690</ele>
        <time>2000-01-01T05:15:25.000Z</time>
      </trkpt>
      <trkpt lat="42.73945" lon="0.49893">
        <ele>1689</ele>
        <time>2000-01-01T05:15:35.000Z</time>
      </trkpt>
      <trkpt lat="42.73933" lon="0.49888">
        <ele>1688.4</ele>
        <time>2000-01-01T05:15:45.000Z</time>
      </trkpt>
      <trkpt lat="42.73924" lon="0.49896">
        <ele>1689</ele>
        <time>2000-01-01T05:15:55.000Z</time>
      </trkpt>
      <trkpt lat="42.73918" lon="0.49908">
        <ele>1694.8</ele>
        <time>2000-01-01T05:16:05.000Z</time>
      </trkpt>
      <trkpt lat="42.73909" lon="0.49919">
        <ele>1692</ele>
        <time>2000-01-01T05:16:15.000Z</time>
      </trkpt>
      <trkpt lat="42.73901" lon="0.4993">
        <ele>1700.7</ele>
        <time>2000-01-01T05:16:25.000Z</time>
      </trkpt>
      <trkpt lat="42.73892" lon="0.49934">
        <ele>1695</ele>
        <time>2000-01-01T05:16:35.000Z</time>
      </trkpt>
      <trkpt lat="42.73875" lon="0.49917">
        <ele>1696</ele>
        <time>2000-01-01T05:16:45.000Z</time>
      </trkpt>
      <trkpt lat="42.73869" lon="0.49909">
        <ele>1697.5</ele>
        <time>2000-01-01T05:16:55.000Z</time>
      </trkpt>
      <trkpt lat="42.73859" lon="0.49903">
        <ele>1699.3</ele>
        <time>2000-01-01T05:17:05.000Z</time>
      </trkpt>
      <trkpt lat="42.73848" lon="0.49895">
        <ele>1694</ele>
        <time>2000-01-01T05:17:15.000Z</time>
      </trkpt>
      <trkpt lat="42.73836" lon="0.49891">
        <ele>1695.9</ele>
        <time>2000-01-01T05:17:25.000Z</time>
      </trkpt>
      <trkpt lat="42.73826" lon="0.49899">
        <ele>1693</ele>
        <time>2000-01-01T05:17:35.000Z</time>
      </trkpt>
      <trkpt lat="42.73815" lon="0.49906">
        <ele>1699.2</ele>
        <time>2000-01-01T05:17:45.000Z</time>
      </trkpt>
      <trkpt lat="42.73804" lon="0.4991">
        <ele>1693</ele>
        <time>2000-01-01T05:17:55.000Z</time>
      </trkpt>
      <trkpt lat="42.73785" lon="0.49925">
        <ele>1701</ele>
        <time>2000-01-01T05:18:05.000Z</time>
      </trkpt>
      <trkpt lat="42.73773" lon="0.49927">
        <ele>1711.6</ele>
        <time>2000-01-01T05:18:15.000Z</time>
      </trkpt>
      <trkpt lat="42.73767" lon="0.49914">
        <ele>1713</ele>
        <time>2000-01-01T05:18:25.000Z</time>
      </trkpt>
      <trkpt lat="42.7376" lon="0.49922">
        <ele>1718.5</ele>
        <time>2000-01-01T05:18:35.000Z</time>
      </trkpt>
      <trkpt lat="42.73758" lon="0.49893">
        <ele>1723</ele>
        <time>2000-01-01T05:18:45.000Z</time>
      </trkpt>
      <trkpt lat="42.73747" lon="0.49886">
        <ele>1722.8</ele>
        <time>2000-01-01T05:18:55.000Z</time>
      </trkpt>
      <trkpt lat="42.73738" lon="0.49877">
        <ele>1726</ele>
        <time>2000-01-01T05:19:05.000Z</time>
      </trkpt>
      <trkpt lat="42.73733" lon="0.49888">
        <ele>1729.8</ele>
        <time>2000-01-01T05:19:15.000Z</time>
      </trkpt>
      <trkpt lat="42.73722" lon="0.4989">
        <ele>1732</ele>
        <time>2000-01-01T05:19:25.000Z</time>
      </trkpt>
      <trkpt lat="42.73711" lon="0.49886">
        <ele>1738</ele>
        <time>2000-01-01T05:19:35.000Z</time>
      </trkpt>
      <trkpt lat="42.73707" lon="0.49872">
        <ele>1739</ele>
        <time>2000-01-01T05:19:45.000Z</time>
      </trkpt>
      <trkpt lat="42.737" lon="0.49883">
        <ele>1741.8</ele>
        <time>2000-01-01T05:19:55.000Z</time>
      </trkpt>
      <trkpt lat="42.73698" lon="0.49897">
        <ele>1747</ele>
        <time>2000-01-01T05:20:05.000Z</time>
      </trkpt>
      <trkpt lat="42.73705" lon="0.49909">
        <ele>1747.4</ele>
        <time>2000-01-01T05:20:15.000Z</time>
      </trkpt>
      <trkpt lat="42.73711" lon="0.49921">
        <ele>1748</ele>
        <time>2000-01-01T05:20:25.000Z</time>
      </trkpt>
      <trkpt lat="42.73706" lon="0.49933">
        <ele>1759.6</ele>
        <time>2000-01-01T05:20:35.000Z</time>
      </trkpt>
      <trkpt lat="42.73686" lon="0.49935">
        <ele>1764</ele>
        <time>2000-01-01T05:20:45.000Z</time>
      </trkpt>
      <trkpt lat="42.73666" lon="0.49921">
        <ele>1768</ele>
        <time>2000-01-01T05:20:55.000Z</time>
      </trkpt>
      <trkpt lat="42.73656" lon="0.49918">
        <ele>1768.2</ele>
        <time>2000-01-01T05:21:05.000Z</time>
      </trkpt>
      <trkpt lat="42.73644" lon="0.49917">
        <ele>1769</ele>
        <time>2000-01-01T05:21:15.000Z</time>
      </trkpt>
      <trkpt lat="42.73641" lon="0.49922">
        <ele>1775</ele>
        <time>2000-01-01T05:21:25.000Z</time>
      </trkpt>
      <trkpt lat="42.73637" lon="0.49924">
        <ele>1777.1</ele>
        <time>2000-01-01T05:21:35.000Z</time>
      </trkpt>
      <trkpt lat="42.73625" lon="0.49924">
        <ele>1779</ele>
        <time>2000-01-01T05:21:45.000Z</time>
      </trkpt>
      <trkpt lat="42.73622" lon="0.49922">
        <ele>1779.2</ele>
        <time>2000-01-01T05:21:55.000Z</time>
      </trkpt>
      <trkpt lat="42.73611" lon="0.49925">
        <ele>1782.9</ele>
        <time>2000-01-01T05:22:05.000Z</time>
      </trkpt>
      <trkpt lat="42.73608" lon="0.49923">
        <ele>1782.4</ele>
        <time>2000-01-01T05:22:15.000Z</time>
      </trkpt>
      <trkpt lat="42.73607" lon="0.49927">
        <ele>1782</ele>
        <time>2000-01-01T05:22:25.000Z</time>
      </trkpt>
      <trkpt lat="42.73589" lon="0.49943">
        <ele>1789</ele>
        <time>2000-01-01T05:22:35.000Z</time>
      </trkpt>
      <trkpt lat="42.73577" lon="0.49942">
        <ele>1793.9</ele>
        <time>2000-01-01T05:22:45.000Z</time>
      </trkpt>
      <trkpt lat="42.73566" lon="0.49938">
        <ele>1796</ele>
        <time>2000-01-01T05:22:55.000Z</time>
      </trkpt>
      <trkpt lat="42.73562" lon="0.49934">
        <ele>1798.6</ele>
        <time>2000-01-01T05:23:05.000Z</time>
      </trkpt>
      <trkpt lat="42.73568" lon="0.49945">
        <ele>1798.4</ele>
        <time>2000-01-01T05:23:15.000Z</time>
      </trkpt>
      <trkpt lat="42.73558" lon="0.49951">
        <ele>1808</ele>
        <time>2000-01-01T05:23:25.000Z</time>
      </trkpt>
      <trkpt lat="42.73549" lon="0.49954">
        <ele>1810.3</ele>
        <time>2000-01-01T05:23:35.000Z</time>
      </trkpt>
      <trkpt lat="42.73538" lon="0.49956">
        <ele>1813</ele>
        <time>2000-01-01T05:23:45.000Z</time>
      </trkpt>
      <trkpt lat="42.73528" lon="0.49961">
        <ele>1818.1</ele>
        <time>2000-01-01T05:23:55.000Z</time>
      </trkpt>
      <trkpt lat="42.73517" lon="0.49962">
        <ele>1820</ele>
        <time>2000-01-01T05:24:05.000Z</time>
      </trkpt>
      <trkpt lat="42.73511" lon="0.49965">
        <ele>1824.6</ele>
        <time>2000-01-01T05:24:15.000Z</time>
      </trkpt>
      <trkpt lat="42.73512" lon="0.49971">
        <ele>1826.1</ele>
        <time>2000-01-01T05:24:25.000Z</time>
      </trkpt>
      <trkpt lat="42.73502" lon="0.49972">
        <ele>1827</ele>
        <time>2000-01-01T05:24:35.000Z</time>
      </trkpt>
      <trkpt lat="42.73491" lon="0.4997">
        <ele>1831</ele>
        <time>2000-01-01T05:24:45.000Z</time>
      </trkpt>
      <trkpt lat="42.73484" lon="0.49974">
        <ele>1833.7</ele>
        <time>2000-01-01T05:24:55.000Z</time>
      </trkpt>
      <trkpt lat="42.73481" lon="0.49973">
        <ele>1832</ele>
        <time>2000-01-01T05:25:05.000Z</time>
      </trkpt>
      <trkpt lat="42.73477" lon="0.49969">
        <ele>1834.7</ele>
        <time>2000-01-01T05:25:15.000Z</time>
      </trkpt>
      <trkpt lat="42.73476" lon="0.49954">
        <ele>1834.6</ele>
        <time>2000-01-01T05:25:25.000Z</time>
      </trkpt>
      <trkpt lat="42.73463" lon="0.49957">
        <ele>1838</ele>
        <time>2000-01-01T05:25:35.000Z</time>
      </trkpt>
      <trkpt lat="42.73453" lon="0.49972">
        <ele>1839.5</ele>
        <time>2000-01-01T05:25:45.000Z</time>
      </trkpt>
      <trkpt lat="42.7345" lon="0.49974">
        <ele>1840.7</ele>
        <time>2000-01-01T05:25:55.000Z</time>
      </trkpt>
      <trkpt lat="42.73449" lon="0.4999">
        <ele>1843</ele>
        <time>2000-01-01T05:26:05.000Z</time>
      </trkpt>
      <trkpt lat="42.73438" lon="0.49995">
        <ele>1851.6</ele>
        <time>2000-01-01T05:26:15.000Z</time>
      </trkpt>
      <trkpt lat="42.73428" lon="0.49998">
        <ele>1850</ele>
        <time>2000-01-01T05:26:25.000Z</time>
      </trkpt>
      <trkpt lat="42.73417" lon="0.5">
        <ele>1857.9</ele>
        <time>2000-01-01T05:26:35.000Z</time>
      </trkpt>
      <trkpt lat="42.73407" lon="0.49994">
        <ele>1858</ele>
        <time>2000-01-01T05:26:45.000Z</time>
      </trkpt>
      <trkpt lat="42.73397" lon="0.49996">
        <ele>1862.2</ele>
        <time>2000-01-01T05:26:55.000Z</time>
      </trkpt>
      <trkpt lat="42.73385" lon="0.49989">
        <ele>1867</ele>
        <time>2000-01-01T05:27:05.000Z</time>
      </trkpt>
      <trkpt lat="42.73379" lon="0.49982">
        <ele>1870.6</ele>
        <time>2000-01-01T05:27:15.000Z</time>
      </trkpt>
      <trkpt lat="42.7337" lon="0.49989">
        <ele>1873.9</ele>
        <time>2000-01-01T05:27:25.000Z</time>
      </trkpt>
      <trkpt lat="42.73362" lon="0.49998">
        <ele>1876</ele>
        <time>2000-01-01T05:27:35.000Z</time>
      </trkpt>
      <trkpt lat="42.73356" lon="0.50014">
        <ele>1879.5</ele>
        <time>2000-01-01T05:27:45.000Z</time>
      </trkpt>
      <trkpt lat="42.73346" lon="0.5002">
        <ele>1880</ele>
        <time>2000-01-01T05:27:55.000Z</time>
      </trkpt>
      <trkpt lat="42.73336" lon="0.50019">
        <ele>1885.7</ele>
        <time>2000-01-01T05:28:05.000Z</time>
      </trkpt>
      <trkpt lat="42.73333" lon="0.50016">
        <ele>1886.2</ele>
        <time>2000-01-01T05:28:15.000Z</time>
      </trkpt>
      <trkpt lat="42.73326" lon="0.50016">
        <ele>1886</ele>
        <time>2000-01-01T05:28:25.000Z</time>
      </trkpt>
      <trkpt lat="42.73318" lon="0.50018">
        <ele>1889.4</ele>
        <time>2000-01-01T05:28:35.000Z</time>
      </trkpt>
      <trkpt lat="42.7331" lon="0.50021">
        <ele>1891.1</ele>
        <time>2000-01-01T05:28:45.000Z</time>
      </trkpt>
      <trkpt lat="42.73295" lon="0.50021">
        <ele>1892</ele>
        <time>2000-01-01T05:28:55.000Z</time>
      </trkpt>
      <trkpt lat="42.73284" lon="0.50022">
        <ele>1894.7</ele>
        <time>2000-01-01T05:29:05.000Z</time>
      </trkpt>
      <trkpt lat="42.73273" lon="0.50028">
        <ele>1896</ele>
        <time>2000-01-01T05:29:15.000Z</time>
      </trkpt>
      <trkpt lat="42.73251" lon="0.50047">
        <ele>1897</ele>
        <time>2000-01-01T05:29:25.000Z</time>
      </trkpt>
      <trkpt lat="42.73241" lon="0.50053">
        <ele>1903</ele>
        <time>2000-01-01T05:29:35.000Z</time>
      </trkpt>
      <trkpt lat="42.73227" lon="0.50053">
        <ele>1900</ele>
        <time>2000-01-01T05:29:45.000Z</time>
      </trkpt>
      <trkpt lat="42.73236" lon="0.50066">
        <ele>1907.9</ele>
        <time>2000-01-01T05:29:55.000Z</time>
      </trkpt>
      <trkpt lat="42.73242" lon="0.50068">
        <ele>1906.6</ele>
        <time>2000-01-01T05:30:05.000Z</time>
      </trkpt>
      <trkpt lat="42.73243" lon="0.5007">
        <ele>1900</ele>
        <time>2000-01-01T05:30:15.000Z</time>
      </trkpt>
      <trkpt lat="42.73241" lon="0.50075">
        <ele>1909.4</ele>
        <time>2000-01-01T05:30:25.000Z</time>
      </trkpt>
      <trkpt lat="42.73239" lon="0.50079">
        <ele>1911.3</ele>
        <time>2000-01-01T05:30:35.000Z</time>
      </trkpt>
      <trkpt lat="42.7325" lon="0.50077">
        <ele>1907.5</ele>
        <time>2000-01-01T05:30:45.000Z</time>
      </trkpt>
      <trkpt lat="42.73272" lon="0.5007">
        <ele>1900</ele>
        <time>2000-01-01T05:30:55.000Z</time>
      </trkpt>
      <trkpt lat="42.73283" lon="0.50068">
        <ele>1905.7</ele>
        <time>2000-01-01T05:31:05.000Z</time>
      </trkpt>
      <trkpt lat="42.733" lon="0.50063">
        <ele>1902</ele>
        <time>2000-01-01T05:31:15.000Z</time>
      </trkpt>
      <trkpt lat="42.73323" lon="0.50069">
        <ele>1903</ele>
        <time>2000-01-01T05:31:25.000Z</time>
      </trkpt>
      <trkpt lat="42.73332" lon="0.50069">
        <ele>1909.7</ele>
        <time>2000-01-01T05:31:35.000Z</time>
      </trkpt>
      <trkpt lat="42.7334" lon="0.50071">
        <ele>1911.1</ele>
        <time>2000-01-01T05:31:45.000Z</time>
      </trkpt>
      <trkpt lat="42.73344" lon="0.50069">
        <ele>1905</ele>
        <time>2000-01-01T05:31:55.000Z</time>
      </trkpt>
      <trkpt lat="42.73352" lon="0.50069">
        <ele>1910.4</ele>
        <time>2000-01-01T05:32:05.000Z</time>
      </trkpt>
      <trkpt lat="42.7336" lon="0.50068">
        <ele>1910.2</ele>
        <time>2000-01-01T05:32:15.000Z</time>
      </trkpt>
      <trkpt lat="42.73394" lon="0.5009">
        <ele>1914</ele>
        <time>2000-01-01T05:32:25.000Z</time>
      </trkpt>
      <trkpt lat="42.73403" lon="0.50093">
        <ele>1918.1</ele>
        <time>2000-01-01T05:32:35.000Z</time>
      </trkpt>
      <trkpt lat="42.73414" lon="0.50098">
        <ele>1916</ele>
        <time>2000-01-01T05:32:45.000Z</time>
      </trkpt>
      <trkpt lat="42.73422" lon="0.50104">
        <ele>1919.3</ele>
        <time>2000-01-01T05:32:55.000Z</time>
      </trkpt>
      <trkpt lat="42.73429" lon="0.50112">
        <ele>1920.8</ele>
        <time>2000-01-01T05:33:05.000Z</time>
      </trkpt>
      <trkpt lat="42.73437" lon="0.50118">
        <ele>1919</ele>
        <time>2000-01-01T05:33:15.000Z</time>
      </trkpt>
      <trkpt lat="42.73462" lon="0.5014">
        <ele>1919</ele>
        <time>2000-01-01T05:33:25.000Z</time>
      </trkpt>
      <trkpt lat="42.73471" lon="0.50144">
        <ele>1922.7</ele>
        <time>2000-01-01T05:33:35.000Z</time>
      </trkpt>
      <trkpt lat="42.73481" lon="0.50145">
        <ele>1921.2</ele>
        <time>2000-01-01T05:33:45.000Z</time>
      </trkpt>
      <trkpt lat="42.73489" lon="0.50148">
        <ele>1918</ele>
        <time>2000-01-01T05:33:55.000Z</time>
      </trkpt>
      <trkpt lat="42.73497" lon="0.50154">
        <ele>1922.1</ele>
        <time>2000-01-01T05:34:05.000Z</time>
      </trkpt>
      <trkpt lat="42.73506" lon="0.50157">
        <ele>1922.2</ele>
        <time>2000-01-01T05:34:15.000Z</time>
      </trkpt>
      <trkpt lat="42.73529" lon="0.50157">
        <ele>1918</ele>
        <time>2000-01-01T05:34:25.000Z</time>
      </trkpt>
      <trkpt lat="42.73542" lon="0.5016">
        <ele>1918.8</ele>
        <time>2000-01-01T05:34:35.000Z</time>
      </trkpt>
      <trkpt lat="42.73557" lon="0.50166">
        <ele>1918</ele>
        <time>2000-01-01T05:34:45.000Z</time>
      </trkpt>
      <trkpt lat="42.73565" lon="0.50173">
        <ele>1920.2</ele>
        <time>2000-01-01T05:34:55.000Z</time>
      </trkpt>
      <trkpt lat="42.73572" lon="0.50178">
        <ele>1921.4</ele>
        <time>2000-01-01T05:35:05.000Z</time>
      </trkpt>
      <trkpt lat="42.73581" lon="0.5018">
        <ele>1918</ele>
        <time>2000-01-01T05:35:15.000Z</time>
      </trkpt>
      <trkpt lat="42.73592" lon="0.50184">
        <ele>1921.5</ele>
        <time>2000-01-01T05:35:25.000Z</time>
      </trkpt>
      <trkpt lat="42.736" lon="0.50188">
        <ele>1918</ele>
        <time>2000-01-01T05:35:35.000Z</time>
      </trkpt>
      <trkpt lat="42.73608" lon="0.5019">
        <ele>1923.5</ele>
        <time>2000-01-01T05:35:45.000Z</time>
      </trkpt>
      <trkpt lat="42.73615" lon="0.50195">
        <ele>1925.9</ele>
        <time>2000-01-01T05:35:55.000Z</time>
      </trkpt>
      <trkpt lat="42.73624" lon="0.50197">
        <ele>1923</ele>
        <time>2000-01-01T05:36:05.000Z</time>
      </trkpt>
      <trkpt lat="42.73655" lon="0.50222">
        <ele>1927</ele>
        <time>2000-01-01T05:36:15.000Z</time>
      </trkpt>
      <trkpt lat="42.73662" lon="0.50229">
        <ele>1938.3</ele>
        <time>2000-01-01T05:36:25.000Z</time>
      </trkpt>
      <trkpt lat="42.73665" lon="0.50233">
        <ele>1939.3</ele>
        <time>2000-01-01T05:36:35.000Z</time>
      </trkpt>
      <trkpt lat="42.73674" lon="0.50235">
        <ele>1932</ele>
        <time>2000-01-01T05:36:45.000Z</time>
      </trkpt>
      <trkpt lat="42.73678" lon="0.50237">
        <ele>1937.9</ele>
        <time>2000-01-01T05:36:55.000Z</time>
      </trkpt>
      <trkpt lat="42.73682" lon="0.50237">
        <ele>1936.7</ele>
        <time>2000-01-01T05:37:05.000Z</time>
      </trkpt>
      <trkpt lat="42.73701" lon="0.5025">
        <ele>1932</ele>
        <time>2000-01-01T05:37:15.000Z</time>
      </trkpt>
      <trkpt lat="42.73707" lon="0.50256">
        <ele>1939.8</ele>
        <time>2000-01-01T05:37:25.000Z</time>
      </trkpt>
      <trkpt lat="42.73708" lon="0.5026">
        <ele>1941.1</ele>
        <time>2000-01-01T05:37:35.000Z</time>
      </trkpt>
      <trkpt lat="42.73711" lon="0.50263">
        <ele>1941.4</ele>
        <time>2000-01-01T05:37:45.000Z</time>
      </trkpt>
      <trkpt lat="42.73716" lon="0.50272">
        <ele>1944</ele>
        <time>2000-01-01T05:37:55.000Z</time>
      </trkpt>
      <trkpt lat="42.73723" lon="0.50276">
        <ele>1943.2</ele>
        <time>2000-01-01T05:38:05.000Z</time>
      </trkpt>
      <trkpt lat="42.73733" lon="0.50286">
        <ele>1946.4</ele>
        <time>2000-01-01T05:38:15.000Z</time>
      </trkpt>
      <trkpt lat="42.73743" lon="0.50298">
        <ele>1946</ele>
        <time>2000-01-01T05:38:25.000Z</time>
      </trkpt>
      <trkpt lat="42.73751" lon="0.50298">
        <ele>1949.4</ele>
        <time>2000-01-01T05:38:35.000Z</time>
      </trkpt>
      <trkpt lat="42.73759" lon="0.50297">
        <ele>1949.6</ele>
        <time>2000-01-01T05:38:45.000Z</time>
      </trkpt>
      <trkpt lat="42.73762" lon="0.50294">
        <ele>1948</ele>
        <time>2000-01-01T05:38:55.000Z</time>
      </trkpt>
      <trkpt lat="42.73767" lon="0.5029">
        <ele>1947.6</ele>
        <time>2000-01-01T05:39:05.000Z</time>
      </trkpt>
      <trkpt lat="42.73772" lon="0.50298">
        <ele>1950.9</ele>
        <time>2000-01-01T05:39:15.000Z</time>
      </trkpt>
      <trkpt lat="42.73778" lon="0.5031">
        <ele>1952</ele>
        <time>2000-01-01T05:39:25.000Z</time>
      </trkpt>
      <trkpt lat="42.7378" lon="0.50318">
        <ele>1957.8</ele>
        <time>2000-01-01T05:39:35.000Z</time>
      </trkpt>
      <trkpt lat="42.73783" lon="0.5032">
        <ele>1957.1</ele>
        <time>2000-01-01T05:39:45.000Z</time>
      </trkpt>
      <trkpt lat="42.73785" lon="0.50326">
        <ele>1958.2</ele>
        <time>2000-01-01T05:39:55.000Z</time>
      </trkpt>
      <trkpt lat="42.73777" lon="0.50326">
        <ele>1960</ele>
        <time>2000-01-01T05:40:05.000Z</time>
      </trkpt>
      <trkpt lat="42.73767" lon="0.50326">
        <ele>1961.6</ele>
        <time>2000-01-01T05:40:15.000Z</time>
      </trkpt>
      <trkpt lat="42.7377" lon="0.50333">
        <ele>1964.6</ele>
        <time>2000-01-01T05:40:25.000Z</time>
      </trkpt>
      <trkpt lat="42.73778" lon="0.50341">
        <ele>1969</ele>
        <time>2000-01-01T05:40:35.000Z</time>
      </trkpt>
      <trkpt lat="42.7378" lon="0.50351">
        <ele>1971.7</ele>
        <time>2000-01-01T05:40:45.000Z</time>
      </trkpt>
      <trkpt lat="42.73774" lon="0.50354">
        <ele>1973.8</ele>
        <time>2000-01-01T05:40:55.000Z</time>
      </trkpt>
      <trkpt lat="42.73767" lon="0.50358">
        <ele>1972</ele>
        <time>2000-01-01T05:41:05.000Z</time>
      </trkpt>
      <trkpt lat="42.73771" lon="0.50364">
        <ele>1978.1</ele>
        <time>2000-01-01T05:41:15.000Z</time>
      </trkpt>
      <trkpt lat="42.73773" lon="0.5037">
        <ele>1980.9</ele>
        <time>2000-01-01T05:41:25.000Z</time>
      </trkpt>
      <trkpt lat="42.73777" lon="0.50376">
        <ele>1983.9</ele>
        <time>2000-01-01T05:41:35.000Z</time>
      </trkpt>
      <trkpt lat="42.73782" lon="0.50389">
        <ele>1985</ele>
        <time>2000-01-01T05:41:45.000Z</time>
      </trkpt>
      <trkpt lat="42.73798" lon="0.50409">
        <ele>1993</ele>
        <time>2000-01-01T05:41:55.000Z</time>
      </trkpt>
      <trkpt lat="42.7378" lon="0.50409">
        <ele>1998.3</ele>
        <time>2000-01-01T05:42:05.000Z</time>
      </trkpt>
      <trkpt lat="42.73774" lon="0.50413">
        <ele>2000</ele>
        <time>2000-01-01T05:42:15.000Z</time>
      </trkpt>
      <trkpt lat="42.73764" lon="0.50412">
        <ele>1999.4</ele>
        <time>2000-01-01T05:42:25.000Z</time>
      </trkpt>
      <trkpt lat="42.73771" lon="0.50419">
        <ele>2002.9</ele>
        <time>2000-01-01T05:42:35.000Z</time>
      </trkpt>
      <trkpt lat="42.73786" lon="0.50437">
        <ele>2009</ele>
        <time>2000-01-01T05:42:45.000Z</time>
      </trkpt>
      <trkpt lat="42.73805" lon="0.50452">
        <ele>2012</ele>
        <time>2000-01-01T05:42:55.000Z</time>
      </trkpt>
      <trkpt lat="42.73814" lon="0.50466">
        <ele>2018.5</ele>
        <time>2000-01-01T05:43:05.000Z</time>
      </trkpt>
      <trkpt lat="42.73822" lon="0.50476">
        <ele>2018</ele>
        <time>2000-01-01T05:43:15.000Z</time>
      </trkpt>
      <trkpt lat="42.73826" lon="0.50479">
        <ele>2024</ele>
        <time>2000-01-01T05:43:25.000Z</time>
      </trkpt>
      <trkpt lat="42.73831" lon="0.50487">
        <ele>2028.9</ele>
        <time>2000-01-01T05:43:35.000Z</time>
      </trkpt>
      <trkpt lat="42.73837" lon="0.50495">
        <ele>2022</ele>
        <time>2000-01-01T05:43:45.000Z</time>
      </trkpt>
      <trkpt lat="42.73845" lon="0.50493">
        <ele>2031.1</ele>
        <time>2000-01-01T05:43:55.000Z</time>
      </trkpt>
      <trkpt lat="42.7386" lon="0.50496">
        <ele>2027</ele>
        <time>2000-01-01T05:44:05.000Z</time>
      </trkpt>
      <trkpt lat="42.73879" lon="0.50504">
        <ele>2036.9</ele>
        <time>2000-01-01T05:44:15.000Z</time>
      </trkpt>
      <trkpt lat="42.73897" lon="0.50509">
        <ele>2036</ele>
        <time>2000-01-01T05:44:25.000Z</time>
      </trkpt>
      <trkpt lat="42.73888" lon="0.5052">
        <ele>2046.8</ele>
        <time>2000-01-01T05:44:35.000Z</time>
      </trkpt>
      <trkpt lat="42.73885" lon="0.50522">
        <ele>2047.8</ele>
        <time>2000-01-01T05:44:45.000Z</time>
      </trkpt>
      <trkpt lat="42.73888" lon="0.50528">
        <ele>2046</ele>
        <time>2000-01-01T05:44:55.000Z</time>
      </trkpt>
      <trkpt lat="42.739" lon="0.50529">
        <ele>2054.6</ele>
        <time>2000-01-01T05:45:05.000Z</time>
      </trkpt>
      <trkpt lat="42.7392" lon="0.50522">
        <ele>2053</ele>
        <time>2000-01-01T05:45:15.000Z</time>
      </trkpt>
      <trkpt lat="42.73927" lon="0.50518">
        <ele>2057.6</ele>
        <time>2000-01-01T05:45:25.000Z</time>
      </trkpt>
      <trkpt lat="42.73942" lon="0.50512">
        <ele>2059</ele>
        <time>2000-01-01T05:45:35.000Z</time>
      </trkpt>
      <trkpt lat="42.7395" lon="0.50512">
        <ele>2062.5</ele>
        <time>2000-01-01T05:45:45.000Z</time>
      </trkpt>
      <trkpt lat="42.73965" lon="0.50516">
        <ele>2063</ele>
        <time>2000-01-01T05:45:55.000Z</time>
      </trkpt>
      <trkpt lat="42.73972" lon="0.50519">
        <ele>2071.3</ele>
        <time>2000-01-01T05:46:05.000Z</time>
      </trkpt>
      <trkpt lat="42.73979" lon="0.50521">
        <ele>2072.9</ele>
        <time>2000-01-01T05:46:15.000Z</time>
      </trkpt>
      <trkpt lat="42.73972" lon="0.50531">
        <ele>2078</ele>
        <time>2000-01-01T05:46:25.000Z</time>
      </trkpt>
      <trkpt lat="42.73968" lon="0.50533">
        <ele>2079</ele>
        <time>2000-01-01T05:46:35.000Z</time>
      </trkpt>
      <trkpt lat="42.73972" lon="0.50539">
        <ele>2083.8</ele>
        <time>2000-01-01T05:46:45.000Z</time>
      </trkpt>
      <trkpt lat="42.73999" lon="0.50549">
        <ele>2085</ele>
        <time>2000-01-01T05:46:55.000Z</time>
      </trkpt>
      <trkpt lat="42.74007" lon="0.50554">
        <ele>2094.1</ele>
        <time>2000-01-01T05:47:05.000Z</time>
      </trkpt>
      <trkpt lat="42.74007" lon="0.50561">
        <ele>2098.1</ele>
        <time>2000-01-01T05:47:15.000Z</time>
      </trkpt>
      <trkpt lat="42.74" lon="0.50563">
        <ele>2098</ele>
        <time>2000-01-01T05:47:25.000Z</time>
      </trkpt>
      <trkpt lat="42.73997" lon="0.50569">
        <ele>2102.7</ele>
        <time>2000-01-01T05:47:35.000Z</time>
      </trkpt>
      <trkpt lat="42.74005" lon="0.50574">
        <ele>2105.5</ele>
        <time>2000-01-01T05:47:45.000Z</time>
      </trkpt>
      <trkpt lat="42.74013" lon="0.50577">
        <ele>2102</ele>
        <time>2000-01-01T05:47:55.000Z</time>
      </trkpt>
      <trkpt lat="42.74021" lon="0.50582">
        <ele>2109.5</ele>
        <time>2000-01-01T05:48:05.000Z</time>
      </trkpt>
      <trkpt lat="42.7403" lon="0.50584">
        <ele>2111</ele>
        <time>2000-01-01T05:48:15.000Z</time>
      </trkpt>
      <trkpt lat="42.74045" lon="0.50581">
        <ele>2111</ele>
        <time>2000-01-01T05:48:25.000Z</time>
      </trkpt>
      <trkpt lat="42.74057" lon="0.5058">
        <ele>2116.9</ele>
        <time>2000-01-01T05:48:35.000Z</time>
      </trkpt>
      <trkpt lat="42.7406" lon="0.50578">
        <ele>2117.1</ele>
        <time>2000-01-01T05:48:45.000Z</time>
      </trkpt>
      <trkpt lat="42.74064" lon="0.50578">
        <ele>2118.7</ele>
        <time>2000-01-01T05:48:55.000Z</time>
      </trkpt>
      <trkpt lat="42.74064" lon="0.50582">
        <ele>2119</ele>
        <time>2000-01-01T05:49:05.000Z</time>
      </trkpt>
      <trkpt lat="42.74062" lon="0.50586">
        <ele>2122</ele>
        <time>2000-01-01T05:49:15.000Z</time>
      </trkpt>
      <trkpt lat="42.74071" lon="0.50589">
        <ele>2127.1</ele>
        <time>2000-01-01T05:49:25.000Z</time>
      </trkpt>
      <trkpt lat="42.74078" lon="0.50586">
        <ele>2122</ele>
        <time>2000-01-01T05:49:35.000Z</time>
      </trkpt>
      <trkpt lat="42.74097" lon="0.5058">
        <ele>2128.4</ele>
        <time>2000-01-01T05:49:45.000Z</time>
      </trkpt>
      <trkpt lat="42.74094" lon="0.50594">
        <ele>2135</ele>
        <time>2000-01-01T05:49:55.000Z</time>
      </trkpt>
      <trkpt lat="42.74073" lon="0.50626">
        <ele>2143</ele>
        <time>2000-01-01T05:50:05.000Z</time>
      </trkpt>
      <trkpt lat="42.74061" lon="0.50641">
        <ele>2150</ele>
        <time>2000-01-01T05:50:15.000Z</time>
      </trkpt>
      <trkpt lat="42.74061" lon="0.50649">
        <ele>2148</ele>
        <time>2000-01-01T05:50:25.000Z</time>
      </trkpt>
      <trkpt lat="42.74069" lon="0.50649">
        <ele>2156.9</ele>
        <time>2000-01-01T05:50:35.000Z</time>
      </trkpt>
      <trkpt lat="42.74092" lon="0.50646">
        <ele>2158</ele>
        <time>2000-01-01T05:50:45.000Z</time>
      </trkpt>
      <trkpt lat="42.741" lon="0.50647">
        <ele>2162.9</ele>
        <time>2000-01-01T05:50:55.000Z</time>
      </trkpt>
      <trkpt lat="42.74106" lon="0.50654">
        <ele>2167.1</ele>
        <time>2000-01-01T05:51:05.000Z</time>
      </trkpt>
      <trkpt lat="42.74099" lon="0.50658">
        <ele>2165</ele>
        <time>2000-01-01T05:51:15.000Z</time>
      </trkpt>
      <trkpt lat="42.74093" lon="0.50664">
        <ele>2170.7</ele>
        <time>2000-01-01T05:51:25.000Z</time>
      </trkpt>
      <trkpt lat="42.74091" lon="0.50672">
        <ele>2174.4</ele>
        <time>2000-01-01T05:51:35.000Z</time>
      </trkpt>
      <trkpt lat="42.74102" lon="0.50675">
        <ele>2175</ele>
        <time>2000-01-01T05:51:45.000Z</time>
      </trkpt>
      <trkpt lat="42.74101" lon="0.50683">
        <ele>2180.9</ele>
        <time>2000-01-01T05:51:55.000Z</time>
      </trkpt>
      <trkpt lat="42.74094" lon="0.50688">
        <ele>2182.4</ele>
        <time>2000-01-01T05:52:05.000Z</time>
      </trkpt>
      <trkpt lat="42.74096" lon="0.50696">
        <ele>2183</ele>
        <time>2000-01-01T05:52:15.000Z</time>
      </trkpt>
      <trkpt lat="42.74103" lon="0.50699">
        <ele>2189</ele>
        <time>2000-01-01T05:52:25.000Z</time>
      </trkpt>
      <trkpt lat="42.74109" lon="0.50704">
        <ele>2191.9</ele>
        <time>2000-01-01T05:52:35.000Z</time>
      </trkpt>
      <trkpt lat="42.74108" lon="0.50711">
        <ele>2195</ele>
        <time>2000-01-01T05:52:45.000Z</time>
      </trkpt>
      <trkpt lat="42.74101" lon="0.50715">
        <ele>2195</ele>
        <time>2000-01-01T05:52:55.000Z</time>
      </trkpt>
      <trkpt lat="42.74096" lon="0.50722">
        <ele>2199.9</ele>
        <time>2000-01-01T05:53:05.000Z</time>
      </trkpt>
      <trkpt lat="42.74111" lon="0.50728">
        <ele>2198</ele>
        <time>2000-01-01T05:53:15.000Z</time>
      </trkpt>
      <trkpt lat="42.74133" lon="0.50741">
        <ele>2212</ele>
        <time>2000-01-01T05:53:25.000Z</time>
      </trkpt>
      <trkpt lat="42.74141" lon="0.50745">
        <ele>2216</ele>
        <time>2000-01-01T05:53:35.000Z</time>
      </trkpt>
      <trkpt lat="42.74148" lon="0.5075">
        <ele>2219</ele>
        <time>2000-01-01T05:53:45.000Z</time>
      </trkpt>
      <trkpt lat="42.74156" lon="0.50752">
        <ele>2219</ele>
        <time>2000-01-01T05:53:55.000Z</time>
      </trkpt>
      <trkpt lat="42.74164" lon="0.50755">
        <ele>2220.6</ele>
        <time>2000-01-01T05:54:05.000Z</time>
      </trkpt>
      <trkpt lat="42.74164" lon="0.50758">
        <ele>2222.5</ele>
        <time>2000-01-01T05:54:15.000Z</time>
      </trkpt>
      <trkpt lat="42.74155" lon="0.50759">
        <ele>2224.4</ele>
        <time>2000-01-01T05:54:25.000Z</time>
      </trkpt>
      <trkpt lat="42.74141" lon="0.50764">
        <ele>2226</ele>
        <time>2000-01-01T05:54:35.000Z</time>
      </trkpt>
      <trkpt lat="42.74122" lon="0.50769">
        <ele>2232.5</ele>
        <time>2000-01-01T05:54:45.000Z</time>
      </trkpt>
      <trkpt lat="42.74123" lon="0.50775">
        <ele>2235</ele>
        <time>2000-01-01T05:54:55.000Z</time>
      </trkpt>
      <trkpt lat="42.74131" lon="0.50778">
        <ele>2239.6</ele>
        <time>2000-01-01T05:55:05.000Z</time>
      </trkpt>
      <trkpt lat="42.74138" lon="0.50782">
        <ele>2242.8</ele>
        <time>2000-01-01T05:55:15.000Z</time>
      </trkpt>
      <trkpt lat="42.74165" lon="0.50804">
        <ele>2252</ele>
        <time>2000-01-01T05:55:25.000Z</time>
      </trkpt>
      <trkpt lat="42.74181" lon="0.50814">
        <ele>2257.3</ele>
        <time>2000-01-01T05:55:35.000Z</time>
      </trkpt>
      <trkpt lat="42.74187" lon="0.5082">
        <ele>2253</ele>
        <time>2000-01-01T05:55:45.000Z</time>
      </trkpt>
      <trkpt lat="42.74203" lon="0.50832">
        <ele>2265</ele>
        <time>2000-01-01T05:55:55.000Z</time>
      </trkpt>
      <trkpt lat="42.74206" lon="0.50835">
        <ele>2264</ele>
        <time>2000-01-01T05:56:05.000Z</time>
      </trkpt>
      <trkpt lat="42.74202" lon="0.5084">
        <ele>2265.4</ele>
        <time>2000-01-01T05:56:15.000Z</time>
      </trkpt>
      <trkpt lat="42.74186" lon="0.50846">
        <ele>2264</ele>
        <time>2000-01-01T05:56:25.000Z</time>
      </trkpt>
      <trkpt lat="42.74181" lon="0.50851">
        <ele>2269</ele>
        <time>2000-01-01T05:56:35.000Z</time>
      </trkpt>
      <trkpt lat="42.74192" lon="0.50858">
        <ele>2266.6</ele>
        <time>2000-01-01T05:56:45.000Z</time>
      </trkpt>
      <trkpt lat="42.74207" lon="0.5087">
        <ele>2259</ele>
        <time>2000-01-01T05:56:55.000Z</time>
      </trkpt>
      <trkpt lat="42.74213" lon="0.50876">
        <ele>2251.4</ele>
        <time>2000-01-01T05:57:05.000Z</time>
      </trkpt>
      <trkpt lat="42.74212" lon="0.50882">
        <ele>2247.5</ele>
        <time>2000-01-01T05:57:15.000Z</time>
      </trkpt>
      <trkpt lat="42.74204" lon="0.50885">
        <ele>2255</ele>
        <time>2000-01-01T05:57:25.000Z</time>
      </trkpt>
      <trkpt lat="42.74195" lon="0.50891">
        <ele>2247</ele>
        <time>2000-01-01T05:57:35.000Z</time>
      </trkpt>
      <trkpt lat="42.74192" lon="0.509">
        <ele>2240.6</ele>
        <time>2000-01-01T05:57:45.000Z</time>
      </trkpt>
      <trkpt lat="42.74184" lon="0.5091">
        <ele>2244</ele>
        <time>2000-01-01T05:57:55.000Z</time>
      </trkpt>
      <trkpt lat="42.74179" lon="0.50921">
        <ele>2228.6</ele>
        <time>2000-01-01T05:58:05.000Z</time>
      </trkpt>
      <trkpt lat="42.74175" lon="0.50932">
        <ele>2222.8</ele>
        <time>2000-01-01T05:58:15.000Z</time>
      </trkpt>
      <trkpt lat="42.74165" lon="0.50947">
        <ele>2224</ele>
        <time>2000-01-01T05:58:25.000Z</time>
      </trkpt>
      <trkpt lat="42.7415" lon="0.50983">
        <ele>2212</ele>
        <time>2000-01-01T05:58:35.000Z</time>
      </trkpt>
      <trkpt lat="42.74144" lon="0.50993">
        <ele>2206.8</ele>
        <time>2000-01-01T05:58:45.000Z</time>
      </trkpt>
      <trkpt lat="42.74138" lon="0.51001">
        <ele>2207</ele>
        <time>2000-01-01T05:58:55.000Z</time>
      </trkpt>
      <trkpt lat="42.74134" lon="0.51012">
        <ele>2206</ele>
        <time>2000-01-01T05:59:05.000Z</time>
      </trkpt>
      <trkpt lat="42.74133" lon="0.51023">
        <ele>2203.7</ele>
        <time>2000-01-01T05:59:15.000Z</time>
      </trkpt>
      <trkpt lat="42.74134" lon="0.51033">
        <ele>2202.1</ele>
        <time>2000-01-01T05:59:25.000Z</time>
      </trkpt>
      <trkpt lat="42.74136" lon="0.51043">
        <ele>2204</ele>
        <time>2000-01-01T05:59:35.000Z</time>
      </trkpt>
      <trkpt lat="42.74142" lon="0.51059">
        <ele>2197.2</ele>
        <time>2000-01-01T05:59:45.000Z</time>
      </trkpt>
      <trkpt lat="42.74144" lon="0.51069">
        <ele>2199</ele>
        <time>2000-01-01T05:59:55.000Z</time>
      </trkpt>
      <trkpt lat="42.7415" lon="0.51091">
        <ele>2194.2</ele>
        <time>2000-01-01T06:00:05.000Z</time>
      </trkpt>
      <trkpt lat="42.74151" lon="0.51103">
        <ele>2193</ele>
        <time>2000-01-01T06:00:15.000Z</time>
      </trkpt>
      <trkpt lat="42.7415" lon="0.51116">
        <ele>2194.6</ele>
        <time>2000-01-01T06:00:25.000Z</time>
      </trkpt>
      <trkpt lat="42.74152" lon="0.51128">
        <ele>2193.1</ele>
        <time>2000-01-01T06:00:35.000Z</time>
      </trkpt>
      <trkpt lat="42.74156" lon="0.51142">
        <ele>2193</ele>
        <time>2000-01-01T06:00:45.000Z</time>
      </trkpt>
      <trkpt lat="42.74161" lon="0.51172">
        <ele>2191</ele>
        <time>2000-01-01T06:00:55.000Z</time>
      </trkpt>
      <trkpt lat="42.7416" lon="0.51183">
        <ele>2187</ele>
        <time>2000-01-01T06:01:05.000Z</time>
      </trkpt>
      <trkpt lat="42.74165" lon="0.5122">
        <ele>2189</ele>
        <time>2000-01-01T06:01:15.000Z</time>
      </trkpt>
      <trkpt lat="42.74168" lon="0.51236">
        <ele>2181.9</ele>
        <time>2000-01-01T06:01:25.000Z</time>
      </trkpt>
      <trkpt lat="42.7417" lon="0.51251">
        <ele>2186</ele>
        <time>2000-01-01T06:01:35.000Z</time>
      </trkpt>
      <trkpt lat="42.74166" lon="0.51276">
        <ele>2180</ele>
        <time>2000-01-01T06:01:45.000Z</time>
      </trkpt>
      <trkpt lat="42.74169" lon="0.51288">
        <ele>2185</ele>
        <time>2000-01-01T06:01:55.000Z</time>
      </trkpt>
      <trkpt lat="42.74174" lon="0.51303">
        <ele>2176.2</ele>
        <time>2000-01-01T06:02:05.000Z</time>
      </trkpt>
      <trkpt lat="42.74182" lon="0.51314">
        <ele>2178</ele>
        <time>2000-01-01T06:02:15.000Z</time>
      </trkpt>
      <trkpt lat="42.74185" lon="0.51332">
        <ele>2170.7</ele>
        <time>2000-01-01T06:02:25.000Z</time>
      </trkpt>
      <trkpt lat="42.7419" lon="0.51353">
        <ele>2172</ele>
        <time>2000-01-01T06:02:35.000Z</time>
      </trkpt>
      <trkpt lat="42.74189" lon="0.51372">
        <ele>2168.2</ele>
        <time>2000-01-01T06:02:45.000Z</time>
      </trkpt>
      <trkpt lat="42.74196" lon="0.51396">
        <ele>2166</ele>
        <time>2000-01-01T06:02:55.000Z</time>
      </trkpt>
      <trkpt lat="42.74208" lon="0.51448">
        <ele>2165</ele>
        <time>2000-01-01T06:03:05.000Z</time>
      </trkpt>
      <trkpt lat="42.74217" lon="0.51463">
        <ele>2155.5</ele>
        <time>2000-01-01T06:03:15.000Z</time>
      </trkpt>
      <trkpt lat="42.74225" lon="0.51481">
        <ele>2156</ele>
        <time>2000-01-01T06:03:25.000Z</time>
      </trkpt>
      <trkpt lat="42.74241" lon="0.5149">
        <ele>2144.1</ele>
        <time>2000-01-01T06:03:35.000Z</time>
      </trkpt>
      <trkpt lat="42.74248" lon="0.51496">
        <ele>2143</ele>
        <time>2000-01-01T06:03:45.000Z</time>
      </trkpt>
      <trkpt lat="42.74261" lon="0.51503">
        <ele>2132.9</ele>
        <time>2000-01-01T06:03:55.000Z</time>
      </trkpt>
      <trkpt lat="42.74271" lon="0.51516">
        <ele>2135</ele>
        <time>2000-01-01T06:04:05.000Z</time>
      </trkpt>
      <trkpt lat="42.74278" lon="0.5153">
        <ele>2130.8</ele>
        <time>2000-01-01T06:04:15.000Z</time>
      </trkpt>
      <trkpt lat="42.74283" lon="0.51538">
        <ele>2128</ele>
        <time>2000-01-01T06:04:25.000Z</time>
      </trkpt>
      <trkpt lat="42.74297" lon="0.51556">
        <ele>2129.1</ele>
        <time>2000-01-01T06:04:35.000Z</time>
      </trkpt>
      <trkpt lat="42.74312" lon="0.51573">
        <ele>2127</ele>
        <time>2000-01-01T06:04:45.000Z</time>
      </trkpt>
      <trkpt lat="42.7432" lon="0.51574">
        <ele>2126.4</ele>
        <time>2000-01-01T06:04:55.000Z</time>
      </trkpt>
      <trkpt lat="42.74328" lon="0.51581">
        <ele>2125.7</ele>
        <time>2000-01-01T06:05:05.000Z</time>
      </trkpt>
      <trkpt lat="42.74335" lon="0.51591">
        <ele>2127</ele>
        <time>2000-01-01T06:05:15.000Z</time>
      </trkpt>
      <trkpt lat="42.74346" lon="0.51609">
        <ele>2129.6</ele>
        <time>2000-01-01T06:05:25.000Z</time>
      </trkpt>
      <trkpt lat="42.74353" lon="0.51618">
        <ele>2128</ele>
        <time>2000-01-01T06:05:35.000Z</time>
      </trkpt>
      <trkpt lat="42.74361" lon="0.51626">
        <ele>2130.5</ele>
        <time>2000-01-01T06:05:45.000Z</time>
      </trkpt>
      <trkpt lat="42.74374" lon="0.51632">
        <ele>2127</ele>
        <time>2000-01-01T06:05:55.000Z</time>
      </trkpt>
      <trkpt lat="42.74385" lon="0.51636">
        <ele>2128.4</ele>
        <time>2000-01-01T06:06:05.000Z</time>
      </trkpt>
      <trkpt lat="42.74396" lon="0.51649">
        <ele>2127</ele>
        <time>2000-01-01T06:06:15.000Z</time>
      </trkpt>
      <trkpt lat="42.74401" lon="0.51659">
        <ele>2128.1</ele>
        <time>2000-01-01T06:06:25.000Z</time>
      </trkpt>
      <trkpt lat="42.74407" lon="0.51668">
        <ele>2127.9</ele>
        <time>2000-01-01T06:06:35.000Z</time>
      </trkpt>
      <trkpt lat="42.74418" lon="0.51677">
        <ele>2127</ele>
        <time>2000-01-01T06:06:45.000Z</time>
      </trkpt>
      <trkpt lat="42.74423" lon="0.51685">
        <ele>2128.2</ele>
        <time>2000-01-01T06:06:55.000Z</time>
      </trkpt>
      <trkpt lat="42.74438" lon="0.51691">
        <ele>2127</ele>
        <time>2000-01-01T06:07:05.000Z</time>
      </trkpt>
      <trkpt lat="42.74456" lon="0.51706">
        <ele>2127</ele>
        <time>2000-01-01T06:07:15.000Z</time>
      </trkpt>
      <trkpt lat="42.74464" lon="0.51705">
        <ele>2129.1</ele>
        <time>2000-01-01T06:07:25.000Z</time>
      </trkpt>
      <trkpt lat="42.74476" lon="0.5171">
        <ele>2127</ele>
        <time>2000-01-01T06:07:35.000Z</time>
      </trkpt>
      <trkpt lat="42.74483" lon="0.51717">
        <ele>2130.2</ele>
        <time>2000-01-01T06:07:45.000Z</time>
      </trkpt>
      <trkpt lat="42.74492" lon="0.51722">
        <ele>2129.8</ele>
        <time>2000-01-01T06:07:55.000Z</time>
      </trkpt>
      <trkpt lat="42.74499" lon="0.5173">
        <ele>2129</ele>
        <time>2000-01-01T06:08:05.000Z</time>
      </trkpt>
      <trkpt lat="42.74518" lon="0.51744">
        <ele>2130</ele>
        <time>2000-01-01T06:08:15.000Z</time>
      </trkpt>
      <trkpt lat="42.74529" lon="0.51749">
        <ele>2131.9</ele>
        <time>2000-01-01T06:08:25.000Z</time>
      </trkpt>
      <trkpt lat="42.74547" lon="0.51771">
        <ele>2135</ele>
        <time>2000-01-01T06:08:35.000Z</time>
      </trkpt>
      <trkpt lat="42.7455" lon="0.5178">
        <ele>2138.6</ele>
        <time>2000-01-01T06:08:45.000Z</time>
      </trkpt>
      <trkpt lat="42.74558" lon="0.51809">
        <ele>2146</ele>
        <time>2000-01-01T06:08:55.000Z</time>
      </trkpt>
      <trkpt lat="42.74564" lon="0.51816">
        <ele>2148.8</ele>
        <time>2000-01-01T06:09:05.000Z</time>
      </trkpt>
      <trkpt lat="42.74569" lon="0.51825">
        <ele>2150.6</ele>
        <time>2000-01-01T06:09:15.000Z</time>
      </trkpt>
      <trkpt lat="42.74575" lon="0.51833">
        <ele>2148</ele>
        <time>2000-01-01T06:09:25.000Z</time>
      </trkpt>
      <trkpt lat="42.74581" lon="0.51839">
        <ele>2151.6</ele>
        <time>2000-01-01T06:09:35.000Z</time>
      </trkpt>
      <trkpt lat="42.74592" lon="0.51847">
        <ele>2151</ele>
        <time>2000-01-01T06:09:45.000Z</time>
      </trkpt>
      <trkpt lat="42.74599" lon="0.5185">
        <ele>2153.8</ele>
        <time>2000-01-01T06:09:55.000Z</time>
      </trkpt>
      <trkpt lat="42.74609" lon="0.51859">
        <ele>2156.4</ele>
        <time>2000-01-01T06:10:05.000Z</time>
      </trkpt>
      <trkpt lat="42.74621" lon="0.51872">
        <ele>2158</ele>
        <time>2000-01-01T06:10:15.000Z</time>
      </trkpt>
      <trkpt lat="42.74629" lon="0.51875">
        <ele>2160.4</ele>
        <time>2000-01-01T06:10:25.000Z</time>
      </trkpt>
      <trkpt lat="42.74637" lon="0.51879">
        <ele>2161.2</ele>
        <time>2000-01-01T06:10:35.000Z</time>
      </trkpt>
      <trkpt lat="42.74645" lon="0.51882">
        <ele>2161</ele>
        <time>2000-01-01T06:10:45.000Z</time>
      </trkpt>
      <trkpt lat="42.74659" lon="0.5188">
        <ele>2166.3</ele>
        <time>2000-01-01T06:10:55.000Z</time>
      </trkpt>
      <trkpt lat="42.74667" lon="0.51876">
        <ele>2161</ele>
        <time>2000-01-01T06:11:05.000Z</time>
      </trkpt>
      <trkpt lat="42.74675" lon="0.51876">
        <ele>2169.6</ele>
        <time>2000-01-01T06:11:15.000Z</time>
      </trkpt>
      <trkpt lat="42.7468" lon="0.51878">
        <ele>2172.5</ele>
        <time>2000-01-01T06:11:25.000Z</time>
      </trkpt>
      <trkpt lat="42.74673" lon="0.51889">
        <ele>2168</ele>
        <time>2000-01-01T06:11:35.000Z</time>
      </trkpt>
      <trkpt lat="42.74668" lon="0.51902">
        <ele>2177.6</ele>
        <time>2000-01-01T06:11:45.000Z</time>
      </trkpt>
      <trkpt lat="42.74665" lon="0.51912">
        <ele>2180.7</ele>
        <time>2000-01-01T06:11:55.000Z</time>
      </trkpt>
      <trkpt lat="42.74658" lon="0.51925">
        <ele>2181</ele>
        <time>2000-01-01T06:12:05.000Z</time>
      </trkpt>
      <trkpt lat="42.74646" lon="0.51944">
        <ele>2190.6</ele>
        <time>2000-01-01T06:12:15.000Z</time>
      </trkpt>
      <trkpt lat="42.74651" lon="0.51953">
        <ele>2194</ele>
        <time>2000-01-01T06:12:25.000Z</time>
      </trkpt>
      <trkpt lat="42.74658" lon="0.5195">
        <ele>2194.5</ele>
        <time>2000-01-01T06:12:35.000Z</time>
      </trkpt>
      <trkpt lat="42.74661" lon="0.51946">
        <ele>2193</ele>
        <time>2000-01-01T06:12:45.000Z</time>
      </trkpt>
      <trkpt lat="42.7466" lon="0.51955">
        <ele>2196.7</ele>
        <time>2000-01-01T06:12:55.000Z</time>
      </trkpt>
      <trkpt lat="42.7465" lon="0.51971">
        <ele>2196</ele>
        <time>2000-01-01T06:13:05.000Z</time>
      </trkpt>
      <trkpt lat="42.74659" lon="0.51974">
        <ele>2204.9</ele>
        <time>2000-01-01T06:13:15.000Z</time>
      </trkpt>
      <trkpt lat="42.7467" lon="0.5197">
        <ele>2199</ele>
        <time>2000-01-01T06:13:25.000Z</time>
      </trkpt>
      <trkpt lat="42.74679" lon="0.51963">
        <ele>2196.6</ele>
        <time>2000-01-01T06:13:35.000Z</time>
      </trkpt>
      <trkpt lat="42.74681" lon="0.51969">
        <ele>2197.9</ele>
        <time>2000-01-01T06:13:45.000Z</time>
      </trkpt>
      <trkpt lat="42.7468" lon="0.51979">
        <ele>2202</ele>
        <time>2000-01-01T06:13:55.000Z</time>
      </trkpt>
      <trkpt lat="42.74682" lon="0.51991">
        <ele>2203.6</ele>
        <time>2000-01-01T06:14:05.000Z</time>
      </trkpt>
      <trkpt lat="42.74682" lon="0.52002">
        <ele>2206.2</ele>
        <time>2000-01-01T06:14:15.000Z</time>
      </trkpt>
      <trkpt lat="42.74683" lon="0.52013">
        <ele>2212</ele>
        <time>2000-01-01T06:14:25.000Z</time>
      </trkpt>
      <trkpt lat="42.74682" lon="0.52024">
        <ele>2207.7</ele>
        <time>2000-01-01T06:14:35.000Z</time>
      </trkpt>
      <trkpt lat="42.74678" lon="0.52046">
        <ele>2214</ele>
        <time>2000-01-01T06:14:45.000Z</time>
      </trkpt>
      <trkpt lat="42.74677" lon="0.52057">
        <ele>2209</ele>
        <time>2000-01-01T06:14:55.000Z</time>
      </trkpt>
      <trkpt lat="42.74679" lon="0.52078">
        <ele>2214</ele>
        <time>2000-01-01T06:15:05.000Z</time>
      </trkpt>
      <trkpt lat="42.74679" lon="0.5209">
        <ele>2211</ele>
        <time>2000-01-01T06:15:15.000Z</time>
      </trkpt>
      <trkpt lat="42.74687" lon="0.52114">
        <ele>2211</ele>
        <time>2000-01-01T06:15:25.000Z</time>
      </trkpt>
      <trkpt lat="42.74683" lon="0.52132">
        <ele>2203.4</ele>
        <time>2000-01-01T06:15:35.000Z</time>
      </trkpt>
      <trkpt lat="42.74675" lon="0.52138">
        <ele>2208</ele>
        <time>2000-01-01T06:15:45.000Z</time>
      </trkpt>
      <trkpt lat="42.74663" lon="0.52145">
        <ele>2202.9</ele>
        <time>2000-01-01T06:15:55.000Z</time>
      </trkpt>
      <trkpt lat="42.74656" lon="0.5215">
        <ele>2207</ele>
        <time>2000-01-01T06:16:05.000Z</time>
      </trkpt>
      <trkpt lat="42.74661" lon="0.5216">
        <ele>2196.3</ele>
        <time>2000-01-01T06:16:15.000Z</time>
      </trkpt>
      <trkpt lat="42.74671" lon="0.52158">
        <ele>2195.4</ele>
        <time>2000-01-01T06:16:25.000Z</time>
      </trkpt>
      <trkpt lat="42.7471" lon="0.52162">
        <ele>2188</ele>
        <time>2000-01-01T06:16:35.000Z</time>
      </trkpt>
      <trkpt lat="42.74714" lon="0.52167">
        <ele>2182.6</ele>
        <time>2000-01-01T06:16:45.000Z</time>
      </trkpt>
      <trkpt lat="42.74707" lon="0.52176">
        <ele>2182.7</ele>
        <time>2000-01-01T06:16:55.000Z</time>
      </trkpt>
      <trkpt lat="42.74703" lon="0.52187">
        <ele>2185</ele>
        <time>2000-01-01T06:17:05.000Z</time>
      </trkpt>
      <trkpt lat="42.74696" lon="0.52196">
        <ele>2181.1</ele>
        <time>2000-01-01T06:17:15.000Z</time>
      </trkpt>
      <trkpt lat="42.74691" lon="0.52205">
        <ele>2179.3</ele>
        <time>2000-01-01T06:17:25.000Z</time>
      </trkpt>
      <trkpt lat="42.74683" lon="0.52228">
        <ele>2176</ele>
        <time>2000-01-01T06:17:35.000Z</time>
      </trkpt>
      <trkpt lat="42.74681" lon="0.52239">
        <ele>2172.1</ele>
        <time>2000-01-01T06:17:45.000Z</time>
      </trkpt>
      <trkpt lat="42.74678" lon="0.52251">
        <ele>2170.6</ele>
        <time>2000-01-01T06:17:55.000Z</time>
      </trkpt>
      <trkpt lat="42.74681" lon="0.52268">
        <ele>2169</ele>
        <time>2000-01-01T06:18:05.000Z</time>
      </trkpt>
      <trkpt lat="42.74694" lon="0.52288">
        <ele>2165.3</ele>
        <time>2000-01-01T06:18:15.000Z</time>
      </trkpt>
      <trkpt lat="42.74705" lon="0.52303">
        <ele>2163</ele>
        <time>2000-01-01T06:18:25.000Z</time>
      </trkpt>
      <trkpt lat="42.74712" lon="0.52308">
        <ele>2160.8</ele>
        <time>2000-01-01T06:18:35.000Z</time>
      </trkpt>
      <trkpt lat="42.74718" lon="0.52317">
        <ele>2159.1</ele>
        <time>2000-01-01T06:18:45.000Z</time>
      </trkpt>
      <trkpt lat="42.74726" lon="0.52339">
        <ele>2159</ele>
        <time>2000-01-01T06:18:55.000Z</time>
      </trkpt>
      <trkpt lat="42.74727" lon="0.52349">
        <ele>2156.5</ele>
        <time>2000-01-01T06:19:05.000Z</time>
      </trkpt>
      <trkpt lat="42.74737" lon="0.52374">
        <ele>2156</ele>
        <time>2000-01-01T06:19:15.000Z</time>
      </trkpt>
      <trkpt lat="42.74742" lon="0.52401">
        <ele>2155</ele>
        <time>2000-01-01T06:19:25.000Z</time>
      </trkpt>
      <trkpt lat="42.74745" lon="0.52414">
        <ele>2154</ele>
        <time>2000-01-01T06:19:35.000Z</time>
      </trkpt>
      <trkpt lat="42.74751" lon="0.52424">
        <ele>2152.4</ele>
        <time>2000-01-01T06:19:45.000Z</time>
      </trkpt>
      <trkpt lat="42.74757" lon="0.5244">
        <ele>2155</ele>
        <time>2000-01-01T06:19:55.000Z</time>
      </trkpt>
      <trkpt lat="42.74759" lon="0.52451">
        <ele>2153.4</ele>
        <time>2000-01-01T06:20:05.000Z</time>
      </trkpt>
      <trkpt lat="42.7477" lon="0.5247">
        <ele>2153</ele>
        <time>2000-01-01T06:20:15.000Z</time>
      </trkpt>
      <trkpt lat="42.7478" lon="0.52476">
        <ele>2152.4</ele>
        <time>2000-01-01T06:20:25.000Z</time>
      </trkpt>
      <trkpt lat="42.74791" lon="0.52485">
        <ele>2150</ele>
        <time>2000-01-01T06:20:35.000Z</time>
      </trkpt>
      <trkpt lat="42.74802" lon="0.5249">
        <ele>2149.3</ele>
        <time>2000-01-01T06:20:45.000Z</time>
      </trkpt>
      <trkpt lat="42.74812" lon="0.52502">
        <ele>2150</ele>
        <time>2000-01-01T06:20:55.000Z</time>
      </trkpt>
      <trkpt lat="42.74831" lon="0.52522">
        <ele>2150</ele>
        <time>2000-01-01T06:21:05.000Z</time>
      </trkpt>
      <trkpt lat="42.74852" lon="0.5254">
        <ele>2149</ele>
        <time>2000-01-01T06:21:15.000Z</time>
      </trkpt>
      <trkpt lat="42.74862" lon="0.52547">
        <ele>2149.7</ele>
        <time>2000-01-01T06:21:25.000Z</time>
      </trkpt>
      <trkpt lat="42.74874" lon="0.52554">
        <ele>2149</ele>
        <time>2000-01-01T06:21:35.000Z</time>
      </trkpt>
      <trkpt lat="42.74885" lon="0.52558">
        <ele>2148.9</ele>
        <time>2000-01-01T06:21:45.000Z</time>
      </trkpt>
      <trkpt lat="42.74903" lon="0.52576">
        <ele>2151</ele>
        <time>2000-01-01T06:21:55.000Z</time>
      </trkpt>
      <trkpt lat="42.74913" lon="0.52582">
        <ele>2155.8</ele>
        <time>2000-01-01T06:22:05.000Z</time>
      </trkpt>
      <trkpt lat="42.74923" lon="0.52589">
        <ele>2154</ele>
        <time>2000-01-01T06:22:15.000Z</time>
      </trkpt>
      <trkpt lat="42.74934" lon="0.5259">
        <ele>2160.2</ele>
        <time>2000-01-01T06:22:25.000Z</time>
      </trkpt>
      <trkpt lat="42.74956" lon="0.52586">
        <ele>2157</ele>
        <time>2000-01-01T06:22:35.000Z</time>
      </trkpt>
      <trkpt lat="42.74968" lon="0.52587">
        <ele>2166</ele>
        <time>2000-01-01T06:22:45.000Z</time>
      </trkpt>
      <trkpt lat="42.74979" lon="0.52586">
        <ele>2163</ele>
        <time>2000-01-01T06:22:55.000Z</time>
      </trkpt>
      <trkpt lat="42.74991" lon="0.52574">
        <ele>2173</ele>
        <time>2000-01-01T06:23:05.000Z</time>
      </trkpt>
      <trkpt lat="42.74994" lon="0.52567">
        <ele>2164</ele>
        <time>2000-01-01T06:23:15.000Z</time>
      </trkpt>
      <trkpt lat="42.75002" lon="0.52567">
        <ele>2175</ele>
        <time>2000-01-01T06:23:25.000Z</time>
      </trkpt>
      <trkpt lat="42.75011" lon="0.52572">
        <ele>2180</ele>
        <time>2000-01-01T06:23:35.000Z</time>
      </trkpt>
      <trkpt lat="42.75017" lon="0.52572">
        <ele>2171</ele>
        <time>2000-01-01T06:23:45.000Z</time>
      </trkpt>
      <trkpt lat="42.75023" lon="0.52569">
        <ele>2180.7</ele>
        <time>2000-01-01T06:23:55.000Z</time>
      </trkpt>
      <trkpt lat="42.75045" lon="0.52576">
        <ele>2174</ele>
        <time>2000-01-01T06:24:05.000Z</time>
      </trkpt>
      <trkpt lat="42.7505" lon="0.52568">
        <ele>2179.1</ele>
        <time>2000-01-01T06:24:15.000Z</time>
      </trkpt>
      <trkpt lat="42.75054" lon="0.52567">
        <ele>2178.6</ele>
        <time>2000-01-01T06:24:25.000Z</time>
      </trkpt>
      <trkpt lat="42.75059" lon="0.52575">
        <ele>2177.4</ele>
        <time>2000-01-01T06:24:35.000Z</time>
      </trkpt>
      <trkpt lat="42.75065" lon="0.52598">
        <ele>2172</ele>
        <time>2000-01-01T06:24:45.000Z</time>
      </trkpt>
      <trkpt lat="42.75072" lon="0.52614">
        <ele>2172.8</ele>
        <time>2000-01-01T06:24:55.000Z</time>
      </trkpt>
      <trkpt lat="42.75086" lon="0.52641">
        <ele>2171</ele>
        <time>2000-01-01T06:25:05.000Z</time>
      </trkpt>
      <trkpt lat="42.75092" lon="0.52657">
        <ele>2165.7</ele>
        <time>2000-01-01T06:25:15.000Z</time>
      </trkpt>
      <trkpt lat="42.75099" lon="0.52671">
        <ele>2168</ele>
        <time>2000-01-01T06:25:25.000Z</time>
      </trkpt>
      <trkpt lat="42.75104" lon="0.52685">
        <ele>2166.5</ele>
        <time>2000-01-01T06:25:35.000Z</time>
      </trkpt>
      <trkpt lat="42.75105" lon="0.527">
        <ele>2168</ele>
        <time>2000-01-01T06:25:45.000Z</time>
      </trkpt>
      <trkpt lat="42.75109" lon="0.52714">
        <ele>2175.9</ele>
        <time>2000-01-01T06:25:55.000Z</time>
      </trkpt>
      <trkpt lat="42.75111" lon="0.52729">
        <ele>2179</ele>
        <time>2000-01-01T06:26:05.000Z</time>
      </trkpt>
      <trkpt lat="42.7511" lon="0.52739">
        <ele>2184.2</ele>
        <time>2000-01-01T06:26:15.000Z</time>
      </trkpt>
      <trkpt lat="42.75114" lon="0.5275">
        <ele>2186.3</ele>
        <time>2000-01-01T06:26:25.000Z</time>
      </trkpt>
      <trkpt lat="42.75129" lon="0.5276">
        <ele>2183</ele>
        <time>2000-01-01T06:26:35.000Z</time>
      </trkpt>
      <trkpt lat="42.75138" lon="0.52765">
        <ele>2188.3</ele>
        <time>2000-01-01T06:26:45.000Z</time>
      </trkpt>
      <trkpt lat="42.75144" lon="0.52772">
        <ele>2191.7</ele>
        <time>2000-01-01T06:26:55.000Z</time>
      </trkpt>
      <trkpt lat="42.75157" lon="0.52779">
        <ele>2190</ele>
        <time>2000-01-01T06:27:05.000Z</time>
      </trkpt>
      <trkpt lat="42.75151" lon="0.52788">
        <ele>2200.5</ele>
        <time>2000-01-01T06:27:15.000Z</time>
      </trkpt>
      <trkpt lat="42.75148" lon="0.52789">
        <ele>2201.1</ele>
        <time>2000-01-01T06:27:25.000Z</time>
      </trkpt>
      <trkpt lat="42.75125" lon="0.52786">
        <ele>2199</ele>
        <time>2000-01-01T06:27:35.000Z</time>
      </trkpt>
      <trkpt lat="42.7512" lon="0.52789">
        <ele>2205</ele>
        <time>2000-01-01T06:27:45.000Z</time>
      </trkpt>
      <trkpt lat="42.75134" lon="0.52801">
        <ele>2209</ele>
        <time>2000-01-01T06:27:55.000Z</time>
      </trkpt>
      <trkpt lat="42.75149" lon="0.5281">
        <ele>2213</ele>
        <time>2000-01-01T06:28:05.000Z</time>
      </trkpt>
      <trkpt lat="42.75164" lon="0.52811">
        <ele>2211</ele>
        <time>2000-01-01T06:28:15.000Z</time>
      </trkpt>
      <trkpt lat="42.75172" lon="0.52809">
        <ele>2212.5</ele>
        <time>2000-01-01T06:28:25.000Z</time>
      </trkpt>
      <trkpt lat="42.75184" lon="0.52811">
        <ele>2212</ele>
        <time>2000-01-01T06:28:35.000Z</time>
      </trkpt>
      <trkpt lat="42.75193" lon="0.52816">
        <ele>2218.8</ele>
        <time>2000-01-01T06:28:45.000Z</time>
      </trkpt>
      <trkpt lat="42.75182" lon="0.52826">
        <ele>2217</ele>
        <time>2000-01-01T06:28:55.000Z</time>
      </trkpt>
      <trkpt lat="42.75169" lon="0.52836">
        <ele>2227</ele>
        <time>2000-01-01T06:29:05.000Z</time>
      </trkpt>
      <trkpt lat="42.75155" lon="0.52845">
        <ele>2228</ele>
        <time>2000-01-01T06:29:15.000Z</time>
      </trkpt>
      <trkpt lat="42.75133" lon="0.52844">
        <ele>2231</ele>
        <time>2000-01-01T06:29:25.000Z</time>
      </trkpt>
      <trkpt lat="42.75126" lon="0.52847">
        <ele>2235.5</ele>
        <time>2000-01-01T06:29:35.000Z</time>
      </trkpt>
      <trkpt lat="42.75127" lon="0.52856">
        <ele>2240</ele>
        <time>2000-01-01T06:29:45.000Z</time>
      </trkpt>
      <trkpt lat="42.7514" lon="0.52866">
        <ele>2242</ele>
        <time>2000-01-01T06:29:55.000Z</time>
      </trkpt>
      <trkpt lat="42.75142" lon="0.52872">
        <ele>2247</ele>
        <time>2000-01-01T06:30:05.000Z</time>
      </trkpt>
      <trkpt lat="42.75135" lon="0.52876">
        <ele>2249.4</ele>
        <time>2000-01-01T06:30:15.000Z</time>
      </trkpt>
      <trkpt lat="42.75125" lon="0.52883">
        <ele>2251</ele>
        <time>2000-01-01T06:30:25.000Z</time>
      </trkpt>
      <trkpt lat="42.75124" lon="0.5289">
        <ele>2257</ele>
        <time>2000-01-01T06:30:35.000Z</time>
      </trkpt>
      <trkpt lat="42.75139" lon="0.52893">
        <ele>2257</ele>
        <time>2000-01-01T06:30:45.000Z</time>
      </trkpt>
      <trkpt lat="42.75142" lon="0.52897">
        <ele>2260.4</ele>
        <time>2000-01-01T06:30:55.000Z</time>
      </trkpt>
      <trkpt lat="42.75134" lon="0.52906">
        <ele>2264.5</ele>
        <time>2000-01-01T06:31:05.000Z</time>
      </trkpt>
      <trkpt lat="42.75119" lon="0.52917">
        <ele>2264</ele>
        <time>2000-01-01T06:31:15.000Z</time>
      </trkpt>
      <trkpt lat="42.75111" lon="0.52922">
        <ele>2269.4</ele>
        <time>2000-01-01T06:31:25.000Z</time>
      </trkpt>
      <trkpt lat="42.75104" lon="0.52925">
        <ele>2270.5</ele>
        <time>2000-01-01T06:31:35.000Z</time>
      </trkpt>
      <trkpt lat="42.75097" lon="0.52931">
        <ele>2267</ele>
        <time>2000-01-01T06:31:45.000Z</time>
      </trkpt>
      <trkpt lat="42.7509" lon="0.52935">
        <ele>2272.4</ele>
        <time>2000-01-01T06:31:55.000Z</time>
      </trkpt>
      <trkpt lat="42.75088" lon="0.52939">
        <ele>2272.8</ele>
        <time>2000-01-01T06:32:05.000Z</time>
      </trkpt>
      <trkpt lat="42.75086" lon="0.52961">
        <ele>2262</ele>
        <time>2000-01-01T06:32:15.000Z</time>
      </trkpt>
      <trkpt lat="42.75089" lon="0.52971">
        <ele>2267.9</ele>
        <time>2000-01-01T06:32:25.000Z</time>
      </trkpt>
      <trkpt lat="42.75093" lon="0.53007">
        <ele>2257</ele>
        <time>2000-01-01T06:32:35.000Z</time>
      </trkpt>
      <trkpt lat="42.75098" lon="0.5302">
        <ele>2251.8</ele>
        <time>2000-01-01T06:32:45.000Z</time>
      </trkpt>
      <trkpt lat="42.75091" lon="0.53028">
        <ele>2249</ele>
        <time>2000-01-01T06:32:55.000Z</time>
      </trkpt>
      <trkpt lat="42.75081" lon="0.53029">
        <ele>2245.7</ele>
        <time>2000-01-01T06:33:05.000Z</time>
      </trkpt>
      <trkpt lat="42.75072" lon="0.53035">
        <ele>2244</ele>
        <time>2000-01-01T06:33:15.000Z</time>
      </trkpt>
      <trkpt lat="42.75068" lon="0.53047">
        <ele>2241.7</ele>
        <time>2000-01-01T06:33:25.000Z</time>
      </trkpt>
      <trkpt lat="42.75061" lon="0.53072">
        <ele>2236</ele>
        <time>2000-01-01T06:33:35.000Z</time>
      </trkpt>
      <trkpt lat="42.75046" lon="0.53091">
        <ele>2233</ele>
        <time>2000-01-01T06:33:45.000Z</time>
      </trkpt>
      <trkpt lat="42.7504" lon="0.531">
        <ele>2231.8</ele>
        <time>2000-01-01T06:33:55.000Z</time>
      </trkpt>
      <trkpt lat="42.75037" lon="0.53109">
        <ele>2230</ele>
        <time>2000-01-01T06:34:05.000Z</time>
      </trkpt>
      <trkpt lat="42.75037" lon="0.53115">
        <ele>2229</ele>
        <time>2000-01-01T06:34:15.000Z</time>
      </trkpt>
      <trkpt lat="42.75034" lon="0.53118">
        <ele>2228.2</ele>
        <time>2000-01-01T06:34:25.000Z</time>
      </trkpt>
      <trkpt lat="42.7503" lon="0.53127">
        <ele>2225.9</ele>
        <time>2000-01-01T06:34:35.000Z</time>
      </trkpt>
      <trkpt lat="42.75029" lon="0.53138">
        <ele>2223.5</ele>
        <time>2000-01-01T06:34:45.000Z</time>
      </trkpt>
      <trkpt lat="42.75024" lon="0.53148">
        <ele>2222</ele>
        <time>2000-01-01T06:34:55.000Z</time>
      </trkpt>
      <trkpt lat="42.75019" lon="0.53161">
        <ele>2217.4</ele>
        <time>2000-01-01T06:35:05.000Z</time>
      </trkpt>
      <trkpt lat="42.75019" lon="0.53184">
        <ele>2212</ele>
        <time>2000-01-01T06:35:15.000Z</time>
      </trkpt>
      <trkpt lat="42.75025" lon="0.53209">
        <ele>2206.5</ele>
        <time>2000-01-01T06:35:25.000Z</time>
      </trkpt>
      <trkpt lat="42.75031" lon="0.53222">
        <ele>2204</ele>
        <time>2000-01-01T06:35:35.000Z</time>
      </trkpt>
      <trkpt lat="42.75037" lon="0.53233">
        <ele>2203.5</ele>
        <time>2000-01-01T06:35:45.000Z</time>
      </trkpt>
      <trkpt lat="42.7504" lon="0.53245">
        <ele>2201.4</ele>
        <time>2000-01-01T06:35:55.000Z</time>
      </trkpt>
      <trkpt lat="42.75046" lon="0.53256">
        <ele>2200</ele>
        <time>2000-01-01T06:36:05.000Z</time>
      </trkpt>
      <trkpt lat="42.75052" lon="0.53264">
        <ele>2199.3</ele>
        <time>2000-01-01T06:36:15.000Z</time>
      </trkpt>
      <trkpt lat="42.75059" lon="0.53268">
        <ele>2199.4</ele>
        <time>2000-01-01T06:36:25.000Z</time>
      </trkpt>
      <trkpt lat="42.75068" lon="0.53275">
        <ele>2198</ele>
        <time>2000-01-01T06:36:35.000Z</time>
      </trkpt>
      <trkpt lat="42.75077" lon="0.53285">
        <ele>2196.2</ele>
        <time>2000-01-01T06:36:45.000Z</time>
      </trkpt>
      <trkpt lat="42.75091" lon="0.53306">
        <ele>2194</ele>
        <time>2000-01-01T06:36:55.000Z</time>
      </trkpt>
      <trkpt lat="42.75097" lon="0.53316">
        <ele>2191.9</ele>
        <time>2000-01-01T06:37:05.000Z</time>
      </trkpt>
      <trkpt lat="42.75105" lon="0.53326">
        <ele>2191</ele>
        <time>2000-01-01T06:37:15.000Z</time>
      </trkpt>
      <trkpt lat="42.7511" lon="0.53338">
        <ele>2189.4</ele>
        <time>2000-01-01T06:37:25.000Z</time>
      </trkpt>
      <trkpt lat="42.75115" lon="0.53348">
        <ele>2189.1</ele>
        <time>2000-01-01T06:37:35.000Z</time>
      </trkpt>
      <trkpt lat="42.75128" lon="0.53364">
        <ele>2187</ele>
        <time>2000-01-01T06:37:45.000Z</time>
      </trkpt>
      <trkpt lat="42.75133" lon="0.53377">
        <ele>2186.5</ele>
        <time>2000-01-01T06:37:55.000Z</time>
      </trkpt>
      <trkpt lat="42.75137" lon="0.53396">
        <ele>2183</ele>
        <time>2000-01-01T06:38:05.000Z</time>
      </trkpt>
      <trkpt lat="42.75137" lon="0.53408">
        <ele>2180</ele>
        <time>2000-01-01T06:38:15.000Z</time>
      </trkpt>
      <trkpt lat="42.75141" lon="0.53433">
        <ele>2174</ele>
        <time>2000-01-01T06:38:25.000Z</time>
      </trkpt>
      <trkpt lat="42.7514" lon="0.53445">
        <ele>2172.1</ele>
        <time>2000-01-01T06:38:35.000Z</time>
      </trkpt>
      <trkpt lat="42.75142" lon="0.53458">
        <ele>2169.6</ele>
        <time>2000-01-01T06:38:45.000Z</time>
      </trkpt>
      <trkpt lat="42.7514" lon="0.53472">
        <ele>2166</ele>
        <time>2000-01-01T06:38:55.000Z</time>
      </trkpt>
      <trkpt lat="42.75136" lon="0.53477">
        <ele>2164.8</ele>
        <time>2000-01-01T06:39:05.000Z</time>
      </trkpt>
      <trkpt lat="42.75125" lon="0.53481">
        <ele>2163.7</ele>
        <time>2000-01-01T06:39:15.000Z</time>
      </trkpt>
      <trkpt lat="42.75115" lon="0.5348">
        <ele>2164</ele>
        <time>2000-01-01T06:39:25.000Z</time>
      </trkpt>
      <trkpt lat="42.75103" lon="0.53474">
        <ele>2161.6</ele>
        <time>2000-01-01T06:39:35.000Z</time>
      </trkpt>
      <trkpt lat="42.75094" lon="0.53463">
        <ele>2160</ele>
        <time>2000-01-01T06:39:45.000Z</time>
      </trkpt>
      <trkpt lat="42.75071" lon="0.53432">
        <ele>2156</ele>
        <time>2000-01-01T06:39:55.000Z</time>
      </trkpt>
      <trkpt lat="42.75067" lon="0.53428">
        <ele>2156.7</ele>
        <time>2000-01-01T06:40:05.000Z</time>
      </trkpt>
      <trkpt lat="42.75071" lon="0.53442">
        <ele>2155.6</ele>
        <time>2000-01-01T06:40:15.000Z</time>
      </trkpt>
      <trkpt lat="42.75073" lon="0.53455">
        <ele>2153</ele>
        <time>2000-01-01T06:40:25.000Z</time>
      </trkpt>
      <trkpt lat="42.75072" lon="0.5347">
        <ele>2152.6</ele>
        <time>2000-01-01T06:40:35.000Z</time>
      </trkpt>
      <trkpt lat="42.75064" lon="0.53497">
        <ele>2146</ele>
        <time>2000-01-01T06:40:45.000Z</time>
      </trkpt>
      <trkpt lat="42.75061" lon="0.53509">
        <ele>2146.3</ele>
        <time>2000-01-01T06:40:55.000Z</time>
      </trkpt>
      <trkpt lat="42.75061" lon="0.53522">
        <ele>2145.4</ele>
        <time>2000-01-01T06:41:05.000Z</time>
      </trkpt>
      <trkpt lat="42.75062" lon="0.53536">
        <ele>2143</ele>
        <time>2000-01-01T06:41:15.000Z</time>
      </trkpt>
      <trkpt lat="42.75065" lon="0.53549">
        <ele>2141.8</ele>
        <time>2000-01-01T06:41:25.000Z</time>
      </trkpt>
      <trkpt lat="42.7507" lon="0.53561">
        <ele>2136</ele>
        <time>2000-01-01T06:41:35.000Z</time>
      </trkpt>
      <trkpt lat="42.75078" lon="0.53586">
        <ele>2133</ele>
        <time>2000-01-01T06:41:45.000Z</time>
      </trkpt>
      <trkpt lat="42.75086" lon="0.53608">
        <ele>2127.5</ele>
        <time>2000-01-01T06:41:55.000Z</time>
      </trkpt>
      <trkpt lat="42.75095" lon="0.53618">
        <ele>2126</ele>
        <time>2000-01-01T06:42:05.000Z</time>
      </trkpt>
      <trkpt lat="42.75106" lon="0.53627">
        <ele>2122.4</ele>
        <time>2000-01-01T06:42:15.000Z</time>
      </trkpt>
      <trkpt lat="42.75112" lon="0.53636">
        <ele>2119</ele>
        <time>2000-01-01T06:42:25.000Z</time>
      </trkpt>
      <trkpt lat="42.7512" lon="0.53644">
        <ele>2117.8</ele>
        <time>2000-01-01T06:42:35.000Z</time>
      </trkpt>
      <trkpt lat="42.75147" lon="0.53704">
        <ele>2100</ele>
        <time>2000-01-01T06:42:45.000Z</time>
      </trkpt>
      <trkpt lat="42.75149" lon="0.53717">
        <ele>2102.4</ele>
        <time>2000-01-01T06:42:55.000Z</time>
      </trkpt>
      <trkpt lat="42.75152" lon="0.5373">
        <ele>2101</ele>
        <time>2000-01-01T06:43:05.000Z</time>
      </trkpt>
      <trkpt lat="42.75154" lon="0.53744">
        <ele>2097</ele>
        <time>2000-01-01T06:43:15.000Z</time>
      </trkpt>
      <trkpt lat="42.75154" lon="0.5376">
        <ele>2097.3</ele>
        <time>2000-01-01T06:43:25.000Z</time>
      </trkpt>
      <trkpt lat="42.75152" lon="0.53773">
        <ele>2094</ele>
        <time>2000-01-01T06:43:35.000Z</time>
      </trkpt>
      <trkpt lat="42.75152" lon="0.53826">
        <ele>2087</ele>
        <time>2000-01-01T06:43:45.000Z</time>
      </trkpt>
      <trkpt lat="42.75153" lon="0.53839">
        <ele>2084</ele>
        <time>2000-01-01T06:43:55.000Z</time>
      </trkpt>
      <trkpt lat="42.75143" lon="0.53845">
        <ele>2078</ele>
        <time>2000-01-01T06:44:05.000Z</time>
      </trkpt>
      <trkpt lat="42.75138" lon="0.53843">
        <ele>2076.8</ele>
        <time>2000-01-01T06:44:15.000Z</time>
      </trkpt>
      <trkpt lat="42.75136" lon="0.5385">
        <ele>2074</ele>
        <time>2000-01-01T06:44:25.000Z</time>
      </trkpt>
      <trkpt lat="42.75138" lon="0.5386">
        <ele>2072</ele>
        <time>2000-01-01T06:44:35.000Z</time>
      </trkpt>
      <trkpt lat="42.75139" lon="0.53875">
        <ele>2067</ele>
        <time>2000-01-01T06:44:45.000Z</time>
      </trkpt>
      <trkpt lat="42.75142" lon="0.53888">
        <ele>2061.2</ele>
        <time>2000-01-01T06:44:55.000Z</time>
      </trkpt>
      <trkpt lat="42.75141" lon="0.53893">
        <ele>2058.2</ele>
        <time>2000-01-01T06:45:05.000Z</time>
      </trkpt>
      <trkpt lat="42.75145" lon="0.53896">
        <ele>2057.5</ele>
        <time>2000-01-01T06:45:15.000Z</time>
      </trkpt>
      <trkpt lat="42.75147" lon="0.53901">
        <ele>2053</ele>
        <time>2000-01-01T06:45:25.000Z</time>
      </trkpt>
      <trkpt lat="42.75143" lon="0.53905">
        <ele>2051.8</ele>
        <time>2000-01-01T06:45:35.000Z</time>
      </trkpt>
      <trkpt lat="42.75149" lon="0.53913">
        <ele>2049</ele>
        <time>2000-01-01T06:45:45.000Z</time>
      </trkpt>
      <trkpt lat="42.75158" lon="0.5392">
        <ele>2051</ele>
        <time>2000-01-01T06:45:55.000Z</time>
      </trkpt>
      <trkpt lat="42.75166" lon="0.53928">
        <ele>2046.9</ele>
        <time>2000-01-01T06:46:05.000Z</time>
      </trkpt>
      <trkpt lat="42.75174" lon="0.53939">
        <ele>2046</ele>
        <time>2000-01-01T06:46:15.000Z</time>
      </trkpt>
      <trkpt lat="42.75188" lon="0.53962">
        <ele>2041</ele>
        <time>2000-01-01T06:46:25.000Z</time>
      </trkpt>
      <trkpt lat="42.75192" lon="0.53976">
        <ele>2041.8</ele>
        <time>2000-01-01T06:46:35.000Z</time>
      </trkpt>
      <trkpt lat="42.75197" lon="0.54">
        <ele>2036</ele>
        <time>2000-01-01T06:46:45.000Z</time>
      </trkpt>
      <trkpt lat="42.75203" lon="0.54022">
        <ele>2033.5</ele>
        <time>2000-01-01T06:46:55.000Z</time>
      </trkpt>
      <trkpt lat="42.75206" lon="0.54036">
        <ele>2029</ele>
        <time>2000-01-01T06:47:05.000Z</time>
      </trkpt>
      <trkpt lat="42.75213" lon="0.54057">
        <ele>2027</ele>
        <time>2000-01-01T06:47:15.000Z</time>
      </trkpt>
      <trkpt lat="42.75206" lon="0.54062">
        <ele>2026</ele>
        <time>2000-01-01T06:47:25.000Z</time>
      </trkpt>
      <trkpt lat="42.75197" lon="0.5405">
        <ele>2022.6</ele>
        <time>2000-01-01T06:47:35.000Z</time>
      </trkpt>
      <trkpt lat="42.75186" lon="0.54029">
        <ele>2023</ele>
        <time>2000-01-01T06:47:45.000Z</time>
      </trkpt>
      <trkpt lat="42.75179" lon="0.5402">
        <ele>2023</ele>
        <time>2000-01-01T06:47:55.000Z</time>
      </trkpt>
      <trkpt lat="42.7516" lon="0.54008">
        <ele>2017</ele>
        <time>2000-01-01T06:48:05.000Z</time>
      </trkpt>
      <trkpt lat="42.75154" lon="0.5401">
        <ele>2015.4</ele>
        <time>2000-01-01T06:48:15.000Z</time>
      </trkpt>
      <trkpt lat="42.75159" lon="0.5402">
        <ele>2014.6</ele>
        <time>2000-01-01T06:48:25.000Z</time>
      </trkpt>
      <trkpt lat="42.75166" lon="0.54031">
        <ele>2012</ele>
        <time>2000-01-01T06:48:35.000Z</time>
      </trkpt>
      <trkpt lat="42.75171" lon="0.54041">
        <ele>2013.6</ele>
        <time>2000-01-01T06:48:45.000Z</time>
      </trkpt>
      <trkpt lat="42.75175" lon="0.54069">
        <ele>2008</ele>
        <time>2000-01-01T06:48:55.000Z</time>
      </trkpt>
      <trkpt lat="42.75175" lon="0.54084">
        <ele>2005.5</ele>
        <time>2000-01-01T06:49:05.000Z</time>
      </trkpt>
      <trkpt lat="42.75181" lon="0.54122">
        <ele>2001</ele>
        <time>2000-01-01T06:49:15.000Z</time>
      </trkpt>
      <trkpt lat="42.75178" lon="0.5413">
        <ele>1997.2</ele>
        <time>2000-01-01T06:49:25.000Z</time>
      </trkpt>
      <trkpt lat="42.75169" lon="0.54121">
        <ele>1995.2</ele>
        <time>2000-01-01T06:49:35.000Z</time>
      </trkpt>
      <trkpt lat="42.75162" lon="0.5411">
        <ele>1994</ele>
        <time>2000-01-01T06:49:45.000Z</time>
      </trkpt>
      <trkpt lat="42.75149" lon="0.54098">
        <ele>1991.5</ele>
        <time>2000-01-01T06:49:55.000Z</time>
      </trkpt>
      <trkpt lat="42.75141" lon="0.54094">
        <ele>1993</ele>
        <time>2000-01-01T06:50:05.000Z</time>
      </trkpt>
      <trkpt lat="42.75133" lon="0.54087">
        <ele>1990.6</ele>
        <time>2000-01-01T06:50:15.000Z</time>
      </trkpt>
      <trkpt lat="42.75125" lon="0.54083">
        <ele>1991.1</ele>
        <time>2000-01-01T06:50:25.000Z</time>
      </trkpt>
      <trkpt lat="42.7512" lon="0.54082">
        <ele>1993</ele>
        <time>2000-01-01T06:50:35.000Z</time>
      </trkpt>
      <trkpt lat="42.75112" lon="0.5409">
        <ele>1989.3</ele>
        <time>2000-01-01T06:50:45.000Z</time>
      </trkpt>
      <trkpt lat="42.75107" lon="0.541">
        <ele>1990.1</ele>
        <time>2000-01-01T06:50:55.000Z</time>
      </trkpt>
      <trkpt lat="42.75105" lon="0.5411">
        <ele>1993</ele>
        <time>2000-01-01T06:51:05.000Z</time>
      </trkpt>
      <trkpt lat="42.75095" lon="0.54134">
        <ele>1993</ele>
        <time>2000-01-01T06:51:15.000Z</time>
      </trkpt>
      <trkpt lat="42.75089" lon="0.54139">
        <ele>1992.5</ele>
        <time>2000-01-01T06:51:25.000Z</time>
      </trkpt>
      <trkpt lat="42.75085" lon="0.54149">
        <ele>1992.8</ele>
        <time>2000-01-01T06:51:35.000Z</time>
      </trkpt>
      <trkpt lat="42.75085" lon="0.54163">
        <ele>1991</ele>
        <time>2000-01-01T06:51:45.000Z</time>
      </trkpt>
      <trkpt lat="42.75083" lon="0.54178">
        <ele>1989.5</ele>
        <time>2000-01-01T06:51:55.000Z</time>
      </trkpt>
      <trkpt lat="42.75082" lon="0.54191">
        <ele>1989</ele>
        <time>2000-01-01T06:52:05.000Z</time>
      </trkpt>
      <trkpt lat="42.75082" lon="0.54204">
        <ele>1985.6</ele>
        <time>2000-01-01T06:52:15.000Z</time>
      </trkpt>
      <trkpt lat="42.7508" lon="0.54219">
        <ele>1989</ele>
        <time>2000-01-01T06:52:25.000Z</time>
      </trkpt>
      <trkpt lat="42.75081" lon="0.54234">
        <ele>1980.8</ele>
        <time>2000-01-01T06:52:35.000Z</time>
      </trkpt>
      <trkpt lat="42.75083" lon="0.54241">
        <ele>1979.4</ele>
        <time>2000-01-01T06:52:45.000Z</time>
      </trkpt>
      <trkpt lat="42.75085" lon="0.54235">
        <ele>1982</ele>
        <time>2000-01-01T06:52:55.000Z</time>
      </trkpt>
      <trkpt lat="42.75091" lon="0.54237">
        <ele>1976.7</ele>
        <time>2000-01-01T06:53:05.000Z</time>
      </trkpt>
      <trkpt lat="42.75097" lon="0.54251">
        <ele>1971.9</ele>
        <time>2000-01-01T06:53:15.000Z</time>
      </trkpt>
      <trkpt lat="42.75101" lon="0.54266">
        <ele>1970</ele>
        <time>2000-01-01T06:53:25.000Z</time>
      </trkpt>
      <trkpt lat="42.75102" lon="0.54281">
        <ele>1965.6</ele>
        <time>2000-01-01T06:53:35.000Z</time>
      </trkpt>
      <trkpt lat="42.75102" lon="0.54295">
        <ele>1965</ele>
        <time>2000-01-01T06:53:45.000Z</time>
      </trkpt>
      <trkpt lat="42.75104" lon="0.5431">
        <ele>1958.7</ele>
        <time>2000-01-01T06:53:55.000Z</time>
      </trkpt>
      <trkpt lat="42.75102" lon="0.54324">
        <ele>1957</ele>
        <time>2000-01-01T06:54:05.000Z</time>
      </trkpt>
      <trkpt lat="42.75101" lon="0.54338">
        <ele>1951.3</ele>
        <time>2000-01-01T06:54:15.000Z</time>
      </trkpt>
      <trkpt lat="42.75089" lon="0.54344">
        <ele>1948</ele>
        <time>2000-01-01T06:54:25.000Z</time>
      </trkpt>
      <trkpt lat="42.75081" lon="0.54337">
        <ele>1951</ele>
        <time>2000-01-01T06:54:35.000Z</time>
      </trkpt>
      <trkpt lat="42.75072" lon="0.54331">
        <ele>1951.3</ele>
        <time>2000-01-01T06:54:45.000Z</time>
      </trkpt>
      <trkpt lat="42.75065" lon="0.54332">
        <ele>1947</ele>
        <time>2000-01-01T06:54:55.000Z</time>
      </trkpt>
      <trkpt lat="42.75073" lon="0.54342">
        <ele>1947.7</ele>
        <time>2000-01-01T06:55:05.000Z</time>
      </trkpt>
      <trkpt lat="42.75073" lon="0.54349">
        <ele>1945.3</ele>
        <time>2000-01-01T06:55:15.000Z</time>
      </trkpt>
      <trkpt lat="42.75068" lon="0.54348">
        <ele>1944</ele>
        <time>2000-01-01T06:55:25.000Z</time>
      </trkpt>
      <trkpt lat="42.75067" lon="0.54354">
        <ele>1943.2</ele>
        <time>2000-01-01T06:55:35.000Z</time>
      </trkpt>
      <trkpt lat="42.75075" lon="0.54363">
        <ele>1940.2</ele>
        <time>2000-01-01T06:55:45.000Z</time>
      </trkpt>
      <trkpt lat="42.75082" lon="0.54374">
        <ele>1935</ele>
        <time>2000-01-01T06:55:55.000Z</time>
      </trkpt>
      <trkpt lat="42.75085" lon="0.54389">
        <ele>1928.1</ele>
        <time>2000-01-01T06:56:05.000Z</time>
      </trkpt>
      <trkpt lat="42.7509" lon="0.54392">
        <ele>1927</ele>
        <time>2000-01-01T06:56:15.000Z</time>
      </trkpt>
      <trkpt lat="42.75091" lon="0.54404">
        <ele>1922</ele>
        <time>2000-01-01T06:56:25.000Z</time>
      </trkpt>
      <trkpt lat="42.75088" lon="0.54408">
        <ele>1919.2</ele>
        <time>2000-01-01T06:56:35.000Z</time>
      </trkpt>
      <trkpt lat="42.75091" lon="0.54414">
        <ele>1916.3</ele>
        <time>2000-01-01T06:56:45.000Z</time>
      </trkpt>
      <trkpt lat="42.75098" lon="0.54414">
        <ele>1916.3</ele>
        <time>2000-01-01T06:56:55.000Z</time>
      </trkpt>
      <trkpt lat="42.75115" lon="0.54422">
        <ele>1914</ele>
        <time>2000-01-01T06:57:05.000Z</time>
      </trkpt>
      <trkpt lat="42.75125" lon="0.54437">
        <ele>1907.3</ele>
        <time>2000-01-01T06:57:15.000Z</time>
      </trkpt>
      <trkpt lat="42.75128" lon="0.54453">
        <ele>1903</ele>
        <time>2000-01-01T06:57:25.000Z</time>
      </trkpt>
      <trkpt lat="42.75132" lon="0.54464">
        <ele>1900.3</ele>
        <time>2000-01-01T06:57:35.000Z</time>
      </trkpt>
      <trkpt lat="42.75135" lon="0.54481">
        <ele>1896</ele>
        <time>2000-01-01T06:57:45.000Z</time>
      </trkpt>
      <trkpt lat="42.75139" lon="0.54496">
        <ele>1895.7</ele>
        <time>2000-01-01T06:57:55.000Z</time>
      </trkpt>
      <trkpt lat="42.75142" lon="0.54512">
        <ele>1893</ele>
        <time>2000-01-01T06:58:05.000Z</time>
      </trkpt>
      <trkpt lat="42.75146" lon="0.54529">
        <ele>1886.9</ele>
        <time>2000-01-01T06:58:15.000Z</time>
      </trkpt>
      <trkpt lat="42.75148" lon="0.54544">
        <ele>1885</ele>
        <time>2000-01-01T06:58:25.000Z</time>
      </trkpt>
      <trkpt lat="42.75151" lon="0.5456">
        <ele>1879.3</ele>
        <time>2000-01-01T06:58:35.000Z</time>
      </trkpt>
      <trkpt lat="42.75156" lon="0.54575">
        <ele>1879</ele>
        <time>2000-01-01T06:58:45.000Z</time>
      </trkpt>
      <trkpt lat="42.75162" lon="0.5459">
        <ele>1872.8</ele>
        <time>2000-01-01T06:58:55.000Z</time>
      </trkpt>
      <trkpt lat="42.75168" lon="0.54602">
        <ele>1871</ele>
        <time>2000-01-01T06:59:05.000Z</time>
      </trkpt>
      <trkpt lat="42.75159" lon="0.54602">
        <ele>1869.5</ele>
        <time>2000-01-01T06:59:15.000Z</time>
      </trkpt>
      <trkpt lat="42.7515" lon="0.54594">
        <ele>1870.5</ele>
        <time>2000-01-01T06:59:25.000Z</time>
      </trkpt>
      <trkpt lat="42.75141" lon="0.54592">
        <ele>1870</ele>
        <time>2000-01-01T06:59:35.000Z</time>
      </trkpt>
      <trkpt lat="42.75131" lon="0.54592">
        <ele>1869.9</ele>
        <time>2000-01-01T06:59:45.000Z</time>
      </trkpt>
      <trkpt lat="42.75124" lon="0.54595">
        <ele>1869.6</ele>
        <time>2000-01-01T06:59:55.000Z</time>
      </trkpt>
      <trkpt lat="42.75119" lon="0.54612">
        <ele>1870</ele>
        <time>2000-01-01T07:00:05.000Z</time>
      </trkpt>
      <trkpt lat="42.75122" lon="0.54628">
        <ele>1864.9</ele>
        <time>2000-01-01T07:00:15.000Z</time>
      </trkpt>
      <trkpt lat="42.75124" lon="0.54644">
        <ele>1862</ele>
        <time>2000-01-01T07:00:25.000Z</time>
      </trkpt>
      <trkpt lat="42.75127" lon="0.54656">
        <ele>1857.8</ele>
        <time>2000-01-01T07:00:35.000Z</time>
      </trkpt>
      <trkpt lat="42.75137" lon="0.54646">
        <ele>1860</ele>
        <time>2000-01-01T07:00:45.000Z</time>
      </trkpt>
      <trkpt lat="42.75146" lon="0.54643">
        <ele>1857.3</ele>
        <time>2000-01-01T07:00:55.000Z</time>
      </trkpt>
      <trkpt lat="42.7515" lon="0.54644">
        <ele>1857.3</ele>
        <time>2000-01-01T07:01:05.000Z</time>
      </trkpt>
      <trkpt lat="42.75151" lon="0.54649">
        <ele>1855.8</ele>
        <time>2000-01-01T07:01:15.000Z</time>
      </trkpt>
      <trkpt lat="42.75147" lon="0.54654">
        <ele>1855</ele>
        <time>2000-01-01T07:01:25.000Z</time>
      </trkpt>
      <trkpt lat="42.75146" lon="0.54658">
        <ele>1852.8</ele>
        <time>2000-01-01T07:01:35.000Z</time>
      </trkpt>
      <trkpt lat="42.75155" lon="0.54665">
        <ele>1851.1</ele>
        <time>2000-01-01T07:01:45.000Z</time>
      </trkpt>
      <trkpt lat="42.75162" lon="0.54681">
        <ele>1845</ele>
        <time>2000-01-01T07:01:55.000Z</time>
      </trkpt>
      <trkpt lat="42.75171" lon="0.54693">
        <ele>1840.9</ele>
        <time>2000-01-01T07:02:05.000Z</time>
      </trkpt>
      <trkpt lat="42.7518" lon="0.547">
        <ele>1843</ele>
        <time>2000-01-01T07:02:15.000Z</time>
      </trkpt>
      <trkpt lat="42.75184" lon="0.54708">
        <ele>1834.4</ele>
        <time>2000-01-01T07:02:25.000Z</time>
      </trkpt>
      <trkpt lat="42.75179" lon="0.5471">
        <ele>1834.4</ele>
        <time>2000-01-01T07:02:35.000Z</time>
      </trkpt>
      <trkpt lat="42.75163" lon="0.54727">
        <ele>1832</ele>
        <time>2000-01-01T07:02:45.000Z</time>
      </trkpt>
      <trkpt lat="42.75154" lon="0.54739">
        <ele>1829.6</ele>
        <time>2000-01-01T07:02:55.000Z</time>
      </trkpt>
      <trkpt lat="42.75155" lon="0.54752">
        <ele>1825</ele>
        <time>2000-01-01T07:03:05.000Z</time>
      </trkpt>
      <trkpt lat="42.75152" lon="0.54762">
        <ele>1824.1</ele>
        <time>2000-01-01T07:03:15.000Z</time>
      </trkpt>
      <trkpt lat="42.75153" lon="0.54773">
        <ele>1820.7</ele>
        <time>2000-01-01T07:03:25.000Z</time>
      </trkpt>
      <trkpt lat="42.75157" lon="0.54775">
        <ele>1819</ele>
        <time>2000-01-01T07:03:35.000Z</time>
      </trkpt>
      <trkpt lat="42.75161" lon="0.54771">
        <ele>1817.3</ele>
        <time>2000-01-01T07:03:45.000Z</time>
      </trkpt>
      <trkpt lat="42.75168" lon="0.54776">
        <ele>1812.4</ele>
        <time>2000-01-01T07:03:55.000Z</time>
      </trkpt>
      <trkpt lat="42.75174" lon="0.54808">
        <ele>1804</ele>
        <time>2000-01-01T07:04:05.000Z</time>
      </trkpt>
      <trkpt lat="42.75172" lon="0.54828">
        <ele>1796.8</ele>
        <time>2000-01-01T07:04:15.000Z</time>
      </trkpt>
      <trkpt lat="42.75172" lon="0.54845">
        <ele>1794</ele>
        <time>2000-01-01T07:04:25.000Z</time>
      </trkpt>
      <trkpt lat="42.75174" lon="0.54842">
        <ele>1792.2</ele>
        <time>2000-01-01T07:04:35.000Z</time>
      </trkpt>
      <trkpt lat="42.75179" lon="0.54857">
        <ele>1786.2</ele>
        <time>2000-01-01T07:04:45.000Z</time>
      </trkpt>
      <trkpt lat="42.75175" lon="0.54866">
        <ele>1787</ele>
        <time>2000-01-01T07:04:55.000Z</time>
      </trkpt>
      <trkpt lat="42.75171" lon="0.54867">
        <ele>1784.7</ele>
        <time>2000-01-01T07:05:05.000Z</time>
      </trkpt>
      <trkpt lat="42.75169" lon="0.5487">
        <ele>1784.1</ele>
        <time>2000-01-01T07:05:15.000Z</time>
      </trkpt>
      <trkpt lat="42.75166" lon="0.54886">
        <ele>1779.5</ele>
        <time>2000-01-01T07:05:25.000Z</time>
      </trkpt>
      <trkpt lat="42.75165" lon="0.54906">
        <ele>1777</ele>
        <time>2000-01-01T07:05:35.000Z</time>
      </trkpt>
      <trkpt lat="42.75168" lon="0.54906">
        <ele>1773.1</ele>
        <time>2000-01-01T07:05:45.000Z</time>
      </trkpt>
      <trkpt lat="42.75184" lon="0.5489">
        <ele>1777</ele>
        <time>2000-01-01T07:05:55.000Z</time>
      </trkpt>
      <trkpt lat="42.7519" lon="0.54898">
        <ele>1766.8</ele>
        <time>2000-01-01T07:06:05.000Z</time>
      </trkpt>
      <trkpt lat="42.75189" lon="0.54905">
        <ele>1765</ele>
        <time>2000-01-01T07:06:15.000Z</time>
      </trkpt>
      <trkpt lat="42.75191" lon="0.54907">
        <ele>1763.5</ele>
        <time>2000-01-01T07:06:25.000Z</time>
      </trkpt>
      <trkpt lat="42.75196" lon="0.54906">
        <ele>1763</ele>
        <time>2000-01-01T07:06:35.000Z</time>
      </trkpt>
      <trkpt lat="42.752" lon="0.54908">
        <ele>1760.7</ele>
        <time>2000-01-01T07:06:45.000Z</time>
      </trkpt>
      <trkpt lat="42.752" lon="0.54922">
        <ele>1756.1</ele>
        <time>2000-01-01T07:06:55.000Z</time>
      </trkpt>
      <trkpt lat="42.75199" lon="0.54937">
        <ele>1755</ele>
        <time>2000-01-01T07:07:05.000Z</time>
      </trkpt>
      <trkpt lat="42.75198" lon="0.54942">
        <ele>1750.1</ele>
        <time>2000-01-01T07:07:15.000Z</time>
      </trkpt>
      <trkpt lat="42.75197" lon="0.54943">
        <ele>1750</ele>
        <time>2000-01-01T07:07:25.000Z</time>
      </trkpt>
      <trkpt lat="42.75202" lon="0.54941">
        <ele>1749.7</ele>
        <time>2000-01-01T07:07:35.000Z</time>
      </trkpt>
      <trkpt lat="42.75204" lon="0.54954">
        <ele>1747</ele>
        <time>2000-01-01T07:07:45.000Z</time>
      </trkpt>
      <trkpt lat="42.752" lon="0.54964">
        <ele>1742.5</ele>
        <time>2000-01-01T07:07:55.000Z</time>
      </trkpt>
      <trkpt lat="42.75201" lon="0.54969">
        <ele>1740.7</ele>
        <time>2000-01-01T07:08:05.000Z</time>
      </trkpt>
      <trkpt lat="42.75205" lon="0.54967">
        <ele>1740.5</ele>
        <time>2000-01-01T07:08:15.000Z</time>
      </trkpt>
      <trkpt lat="42.75203" lon="0.54982">
        <ele>1737</ele>
        <time>2000-01-01T07:08:25.000Z</time>
      </trkpt>
      <trkpt lat="42.752" lon="0.54996">
        <ele>1734.2</ele>
        <time>2000-01-01T07:08:35.000Z</time>
      </trkpt>
      <trkpt lat="42.75201" lon="0.55013">
        <ele>1731</ele>
        <time>2000-01-01T07:08:45.000Z</time>
      </trkpt>
      <trkpt lat="42.75201" lon="0.5503">
        <ele>1727.1</ele>
        <time>2000-01-01T07:08:55.000Z</time>
      </trkpt>
      <trkpt lat="42.75203" lon="0.55043">
        <ele>1726</ele>
        <time>2000-01-01T07:09:05.000Z</time>
      </trkpt>
      <trkpt lat="42.7521" lon="0.55033">
        <ele>1723</ele>
        <time>2000-01-01T07:09:15.000Z</time>
      </trkpt>
      <trkpt lat="42.75216" lon="0.5502">
        <ele>1725</ele>
        <time>2000-01-01T07:09:25.000Z</time>
      </trkpt>
      <trkpt lat="42.75224" lon="0.55015">
        <ele>1722</ele>
        <time>2000-01-01T07:09:35.000Z</time>
      </trkpt>
      <trkpt lat="42.75232" lon="0.55018">
        <ele>1720.1</ele>
        <time>2000-01-01T07:09:45.000Z</time>
      </trkpt>
      <trkpt lat="42.75238" lon="0.55012">
        <ele>1721</ele>
        <time>2000-01-01T07:09:55.000Z</time>
      </trkpt>
      <trkpt lat="42.75242" lon="0.55012">
        <ele>1720.6</ele>
        <time>2000-01-01T07:10:05.000Z</time>
      </trkpt>
      <trkpt lat="42.75248" lon="0.55023">
        <ele>1716</ele>
        <time>2000-01-01T07:10:15.000Z</time>
      </trkpt>
      <trkpt lat="42.75261" lon="0.55054">
        <ele>1709</ele>
        <time>2000-01-01T07:10:25.000Z</time>
      </trkpt>
      <trkpt lat="42.75268" lon="0.55055">
        <ele>1710.1</ele>
        <time>2000-01-01T07:10:35.000Z</time>
      </trkpt>
      <trkpt lat="42.75276" lon="0.5506">
        <ele>1709.9</ele>
        <time>2000-01-01T07:10:45.000Z</time>
      </trkpt>
      <trkpt lat="42.75291" lon="0.55082">
        <ele>1710</ele>
        <time>2000-01-01T07:10:55.000Z</time>
      </trkpt>
      <trkpt lat="42.75306" lon="0.55096">
        <ele>1711.1</ele>
        <time>2000-01-01T07:11:05.000Z</time>
      </trkpt>
      <trkpt lat="42.75311" lon="0.55108">
        <ele>1708</ele>
        <time>2000-01-01T07:11:15.000Z</time>
      </trkpt>
      <trkpt lat="42.75313" lon="0.5512">
        <ele>1709.1</ele>
        <time>2000-01-01T07:11:25.000Z</time>
      </trkpt>
      <trkpt lat="42.75318" lon="0.55132">
        <ele>1708.6</ele>
        <time>2000-01-01T07:11:35.000Z</time>
      </trkpt>
      <trkpt lat="42.75324" lon="0.55142">
        <ele>1708</ele>
        <time>2000-01-01T07:11:45.000Z</time>
      </trkpt>
      <trkpt lat="42.75338" lon="0.55157">
        <ele>1711.1</ele>
        <time>2000-01-01T07:11:55.000Z</time>
      </trkpt>
      <trkpt lat="42.75349" lon="0.55177">
        <ele>1708</ele>
        <time>2000-01-01T07:12:05.000Z</time>
      </trkpt>
      <trkpt lat="42.75356" lon="0.55185">
        <ele>1712.1</ele>
        <time>2000-01-01T07:12:15.000Z</time>
      </trkpt>
      <trkpt lat="42.75362" lon="0.55193">
        <ele>1713</ele>
        <time>2000-01-01T07:12:25.000Z</time>
      </trkpt>
      <trkpt lat="42.75366" lon="0.55204">
        <ele>1710</ele>
        <time>2000-01-01T07:12:35.000Z</time>
      </trkpt>
      <trkpt lat="42.75371" lon="0.55214">
        <ele>1713.4</ele>
        <time>2000-01-01T07:12:45.000Z</time>
      </trkpt>
      <trkpt lat="42.75382" lon="0.55231">
        <ele>1714</ele>
        <time>2000-01-01T07:12:55.000Z</time>
      </trkpt>
      <trkpt lat="42.75388" lon="0.55242">
        <ele>1716.7</ele>
        <time>2000-01-01T07:13:05.000Z</time>
      </trkpt>
      <trkpt lat="42.75394" lon="0.5525">
        <ele>1717.8</ele>
        <time>2000-01-01T07:13:15.000Z</time>
      </trkpt>
      <trkpt lat="42.75405" lon="0.55271">
        <ele>1716</ele>
        <time>2000-01-01T07:13:25.000Z</time>
      </trkpt>
      <trkpt lat="42.75411" lon="0.5528">
        <ele>1717.4</ele>
        <time>2000-01-01T07:13:35.000Z</time>
      </trkpt>
      <trkpt lat="42.75419" lon="0.55289">
        <ele>1718</ele>
        <time>2000-01-01T07:13:45.000Z</time>
      </trkpt>
      <trkpt lat="42.75434" lon="0.55301">
        <ele>1719</ele>
        <time>2000-01-01T07:13:55.000Z</time>
      </trkpt>
      <trkpt lat="42.75441" lon="0.55309">
        <ele>1720.4</ele>
        <time>2000-01-01T07:14:05.000Z</time>
      </trkpt>
      <trkpt lat="42.75453" lon="0.55327">
        <ele>1717</ele>
        <time>2000-01-01T07:14:15.000Z</time>
      </trkpt>
      <trkpt lat="42.75463" lon="0.55346">
        <ele>1721.9</ele>
        <time>2000-01-01T07:14:25.000Z</time>
      </trkpt>
      <trkpt lat="42.75467" lon="0.55372">
        <ele>1716</ele>
        <time>2000-01-01T07:14:35.000Z</time>
      </trkpt>
      <trkpt lat="42.75473" lon="0.55393">
        <ele>1720.7</ele>
        <time>2000-01-01T07:14:45.000Z</time>
      </trkpt>
      <trkpt lat="42.75477" lon="0.55416">
        <ele>1716</ele>
        <time>2000-01-01T07:14:55.000Z</time>
      </trkpt>
      <trkpt lat="42.75482" lon="0.55438">
        <ele>1716.8</ele>
        <time>2000-01-01T07:15:05.000Z</time>
      </trkpt>
      <trkpt lat="42.75485" lon="0.5545">
        <ele>1716</ele>
        <time>2000-01-01T07:15:15.000Z</time>
      </trkpt>
      <trkpt lat="42.75491" lon="0.5546">
        <ele>1718</ele>
        <time>2000-01-01T07:15:25.000Z</time>
      </trkpt>
      <trkpt lat="42.75503" lon="0.55477">
        <ele>1720</ele>
        <time>2000-01-01T07:15:35.000Z</time>
      </trkpt>
      <trkpt lat="42.75515" lon="0.55492">
        <ele>1724.2</ele>
        <time>2000-01-01T07:15:45.000Z</time>
      </trkpt>
      <trkpt lat="42.75522" lon="0.55498">
        <ele>1722</ele>
        <time>2000-01-01T07:15:55.000Z</time>
      </trkpt>
      <trkpt lat="42.7554" lon="0.55517">
        <ele>1725</ele>
        <time>2000-01-01T07:16:05.000Z</time>
      </trkpt>
      <trkpt lat="42.75554" lon="0.55529">
        <ele>1729.1</ele>
        <time>2000-01-01T07:16:15.000Z</time>
      </trkpt>
      <trkpt lat="42.75562" lon="0.55537">
        <ele>1731</ele>
        <time>2000-01-01T07:16:25.000Z</time>
      </trkpt>
      <trkpt lat="42.75573" lon="0.55556">
        <ele>1733</ele>
        <time>2000-01-01T07:16:35.000Z</time>
      </trkpt>
      <trkpt lat="42.75578" lon="0.55568">
        <ele>1731</ele>
        <time>2000-01-01T07:16:45.000Z</time>
      </trkpt>
      <trkpt lat="42.75581" lon="0.55579">
        <ele>1733.4</ele>
        <time>2000-01-01T07:16:55.000Z</time>
      </trkpt>
      <trkpt lat="42.75583" lon="0.55589">
        <ele>1732.4</ele>
        <time>2000-01-01T07:17:05.000Z</time>
      </trkpt>
      <trkpt lat="42.75589" lon="0.55609">
        <ele>1733</ele>
        <time>2000-01-01T07:17:15.000Z</time>
      </trkpt>
      <trkpt lat="42.75602" lon="0.55638">
        <ele>1732</ele>
        <time>2000-01-01T07:17:25.000Z</time>
      </trkpt>
      <trkpt lat="42.75613" lon="0.55657">
        <ele>1734.7</ele>
        <time>2000-01-01T07:17:35.000Z</time>
      </trkpt>
      <trkpt lat="42.75619" lon="0.55666">
        <ele>1732</ele>
        <time>2000-01-01T07:17:45.000Z</time>
      </trkpt>
      <trkpt lat="42.75638" lon="0.5569">
        <ele>1733</ele>
        <time>2000-01-01T07:17:55.000Z</time>
      </trkpt>
      <trkpt lat="42.75646" lon="0.55699">
        <ele>1736.8</ele>
        <time>2000-01-01T07:18:05.000Z</time>
      </trkpt>
      <trkpt lat="42.75658" lon="0.55715">
        <ele>1733</ele>
        <time>2000-01-01T07:18:15.000Z</time>
      </trkpt>
      <trkpt lat="42.75664" lon="0.55721">
        <ele>1736.4</ele>
        <time>2000-01-01T07:18:25.000Z</time>
      </trkpt>
      <trkpt lat="42.75695" lon="0.55743">
        <ele>1734</ele>
        <time>2000-01-01T07:18:35.000Z</time>
      </trkpt>
      <trkpt lat="42.75701" lon="0.55749">
        <ele>1736.3</ele>
        <time>2000-01-01T07:18:45.000Z</time>
      </trkpt>
      <trkpt lat="42.75707" lon="0.55759">
        <ele>1737</ele>
        <time>2000-01-01T07:18:55.000Z</time>
      </trkpt>
      <trkpt lat="42.75711" lon="0.55771">
        <ele>1732</ele>
        <time>2000-01-01T07:19:05.000Z</time>
      </trkpt>
      <trkpt lat="42.75712" lon="0.55785">
        <ele>1736.8</ele>
        <time>2000-01-01T07:19:15.000Z</time>
      </trkpt>
      <trkpt lat="42.75712" lon="0.55796">
        <ele>1735.8</ele>
        <time>2000-01-01T07:19:25.000Z</time>
      </trkpt>
      <trkpt lat="42.75714" lon="0.55821">
        <ele>1732</ele>
        <time>2000-01-01T07:19:35.000Z</time>
      </trkpt>
      <trkpt lat="42.75717" lon="0.55831">
        <ele>1735.9</ele>
        <time>2000-01-01T07:19:45.000Z</time>
      </trkpt>
      <trkpt lat="42.75719" lon="0.55842">
        <ele>1736.3</ele>
        <time>2000-01-01T07:19:55.000Z</time>
      </trkpt>
      <trkpt lat="42.75722" lon="0.55854">
        <ele>1731</ele>
        <time>2000-01-01T07:20:05.000Z</time>
      </trkpt>
      <trkpt lat="42.75723" lon="0.55864">
        <ele>1737.1</ele>
        <time>2000-01-01T07:20:15.000Z</time>
      </trkpt>
      <trkpt lat="42.75727" lon="0.55884">
        <ele>1731</ele>
        <time>2000-01-01T07:20:25.000Z</time>
      </trkpt>
      <trkpt lat="42.75732" lon="0.55894">
        <ele>1737.6</ele>
        <time>2000-01-01T07:20:35.000Z</time>
      </trkpt>
      <trkpt lat="42.7574" lon="0.55914">
        <ele>1733</ele>
        <time>2000-01-01T07:20:45.000Z</time>
      </trkpt>
      <trkpt lat="42.75751" lon="0.55927">
        <ele>1738.2</ele>
        <time>2000-01-01T07:20:55.000Z</time>
      </trkpt>
      <trkpt lat="42.75767" lon="0.55933">
        <ele>1739</ele>
        <time>2000-01-01T07:21:05.000Z</time>
      </trkpt>
      <trkpt lat="42.75784" lon="0.55933">
        <ele>1743.8</ele>
        <time>2000-01-01T07:21:15.000Z</time>
      </trkpt>
      <trkpt lat="42.75802" lon="0.55936">
        <ele>1748</ele>
        <time>2000-01-01T07:21:25.000Z</time>
      </trkpt>
      <trkpt lat="42.7581" lon="0.55939">
        <ele>1747.1</ele>
        <time>2000-01-01T07:21:35.000Z</time>
      </trkpt>
      <trkpt lat="42.7583" lon="0.55949">
        <ele>1750</ele>
        <time>2000-01-01T07:21:45.000Z</time>
      </trkpt>
      <trkpt lat="42.75839" lon="0.55952">
        <ele>1751.1</ele>
        <time>2000-01-01T07:21:55.000Z</time>
      </trkpt>
      <trkpt lat="42.75854" lon="0.55961">
        <ele>1751</ele>
        <time>2000-01-01T07:22:05.000Z</time>
      </trkpt>
      <trkpt lat="42.7586" lon="0.55967">
        <ele>1753.4</ele>
        <time>2000-01-01T07:22:15.000Z</time>
      </trkpt>
      <trkpt lat="42.75873" lon="0.55977">
        <ele>1756</ele>
        <time>2000-01-01T07:22:25.000Z</time>
      </trkpt>
      <trkpt lat="42.75883" lon="0.55994">
        <ele>1760.5</ele>
        <time>2000-01-01T07:22:35.000Z</time>
      </trkpt>
      <trkpt lat="42.75886" lon="0.56004">
        <ele>1758</ele>
        <time>2000-01-01T07:22:45.000Z</time>
      </trkpt>
      <trkpt lat="42.75891" lon="0.56027">
        <ele>1761.5</ele>
        <time>2000-01-01T07:22:55.000Z</time>
      </trkpt>
      <trkpt lat="42.75905" lon="0.56083">
        <ele>1761</ele>
        <time>2000-01-01T07:23:05.000Z</time>
      </trkpt>
      <trkpt lat="42.75911" lon="0.56103">
        <ele>1768.1</ele>
        <time>2000-01-01T07:23:15.000Z</time>
      </trkpt>
      <trkpt lat="42.75919" lon="0.56123">
        <ele>1766</ele>
        <time>2000-01-01T07:23:25.000Z</time>
      </trkpt>
      <trkpt lat="42.75932" lon="0.56149">
        <ele>1773</ele>
        <time>2000-01-01T07:23:35.000Z</time>
      </trkpt>
      <trkpt lat="42.75943" lon="0.56165">
        <ele>1776.7</ele>
        <time>2000-01-01T07:23:45.000Z</time>
      </trkpt>
      <trkpt lat="42.75955" lon="0.56179">
        <ele>1778</ele>
        <time>2000-01-01T07:23:55.000Z</time>
      </trkpt>
      <trkpt lat="42.75969" lon="0.56192">
        <ele>1782.2</ele>
        <time>2000-01-01T07:24:05.000Z</time>
      </trkpt>
      <trkpt lat="42.76008" lon="0.56244">
        <ele>1784</ele>
        <time>2000-01-01T07:24:15.000Z</time>
      </trkpt>
      <trkpt lat="42.76012" lon="0.56253">
        <ele>1786.7</ele>
        <time>2000-01-01T07:24:25.000Z</time>
      </trkpt>
      <trkpt lat="42.76019" lon="0.5626">
        <ele>1788.6</ele>
        <time>2000-01-01T07:24:35.000Z</time>
      </trkpt>
      <trkpt lat="42.76025" lon="0.56269">
        <ele>1787</ele>
        <time>2000-01-01T07:24:45.000Z</time>
      </trkpt>
      <trkpt lat="42.76035" lon="0.56286">
        <ele>1790.7</ele>
        <time>2000-01-01T07:24:55.000Z</time>
      </trkpt>
      <trkpt lat="42.76041" lon="0.56294">
        <ele>1789</ele>
        <time>2000-01-01T07:25:05.000Z</time>
      </trkpt>
      <trkpt lat="42.76051" lon="0.56312">
        <ele>1794.2</ele>
        <time>2000-01-01T07:25:15.000Z</time>
      </trkpt>
      <trkpt lat="42.76056" lon="0.56322">
        <ele>1791</ele>
        <time>2000-01-01T07:25:25.000Z</time>
      </trkpt>
      <trkpt lat="42.76059" lon="0.56331">
        <ele>1795.4</ele>
        <time>2000-01-01T07:25:35.000Z</time>
      </trkpt>
      <trkpt lat="42.76072" lon="0.56359">
        <ele>1799</ele>
        <time>2000-01-01T07:25:45.000Z</time>
      </trkpt>
      <trkpt lat="42.76088" lon="0.56407">
        <ele>1800</ele>
        <time>2000-01-01T07:25:55.000Z</time>
      </trkpt>
      <trkpt lat="42.7609" lon="0.56418">
        <ele>1805.3</ele>
        <time>2000-01-01T07:26:05.000Z</time>
      </trkpt>
      <trkpt lat="42.76105" lon="0.5647">
        <ele>1808</ele>
        <time>2000-01-01T07:26:15.000Z</time>
      </trkpt>
      <trkpt lat="42.76109" lon="0.56481">
        <ele>1810.7</ele>
        <time>2000-01-01T07:26:25.000Z</time>
      </trkpt>
      <trkpt lat="42.76113" lon="0.5649">
        <ele>1811.2</ele>
        <time>2000-01-01T07:26:35.000Z</time>
      </trkpt>
      <trkpt lat="42.76125" lon="0.56503">
        <ele>1813</ele>
        <time>2000-01-01T07:26:45.000Z</time>
      </trkpt>
      <trkpt lat="42.7614" lon="0.56517">
        <ele>1816.8</ele>
        <time>2000-01-01T07:26:55.000Z</time>
      </trkpt>
      <trkpt lat="42.76146" lon="0.56524">
        <ele>1815</ele>
        <time>2000-01-01T07:27:05.000Z</time>
      </trkpt>
      <trkpt lat="42.76152" lon="0.56533">
        <ele>1818.6</ele>
        <time>2000-01-01T07:27:15.000Z</time>
      </trkpt>
      <trkpt lat="42.76158" lon="0.5654">
        <ele>1819.9</ele>
        <time>2000-01-01T07:27:25.000Z</time>
      </trkpt>
      <trkpt lat="42.76167" lon="0.56559">
        <ele>1818</ele>
        <time>2000-01-01T07:27:35.000Z</time>
      </trkpt>
      <trkpt lat="42.76171" lon="0.5657">
        <ele>1821.2</ele>
        <time>2000-01-01T07:27:45.000Z</time>
      </trkpt>
      <trkpt lat="42.76176" lon="0.56579">
        <ele>1822.6</ele>
        <time>2000-01-01T07:27:55.000Z</time>
      </trkpt>
      <trkpt lat="42.76182" lon="0.56592">
        <ele>1823</ele>
        <time>2000-01-01T07:28:05.000Z</time>
      </trkpt>
      <trkpt lat="42.76184" lon="0.56605">
        <ele>1823.2</ele>
        <time>2000-01-01T07:28:15.000Z</time>
      </trkpt>
      <trkpt lat="42.76196" lon="0.56637">
        <ele>1823</ele>
        <time>2000-01-01T07:28:25.000Z</time>
      </trkpt>
      <trkpt lat="42.76201" lon="0.56646">
        <ele>1827.6</ele>
        <time>2000-01-01T07:28:35.000Z</time>
      </trkpt>
      <trkpt lat="42.76206" lon="0.56666">
        <ele>1826</ele>
        <time>2000-01-01T07:28:45.000Z</time>
      </trkpt>
      <trkpt lat="42.76207" lon="0.56672">
        <ele>1829.7</ele>
        <time>2000-01-01T07:28:55.000Z</time>
      </trkpt>
      <trkpt lat="42.76213" lon="0.56675">
        <ele>1832.4</ele>
        <time>2000-01-01T07:29:05.000Z</time>
      </trkpt>
      <trkpt lat="42.76222" lon="0.56654">
        <ele>1835</ele>
        <time>2000-01-01T07:29:15.000Z</time>
      </trkpt>
      <trkpt lat="42.76228" lon="0.56647">
        <ele>1837.3</ele>
        <time>2000-01-01T07:29:25.000Z</time>
      </trkpt>
      <trkpt lat="42.76239" lon="0.56641">
        <ele>1838.7</ele>
        <time>2000-01-01T07:29:35.000Z</time>
      </trkpt>
      <trkpt lat="42.76247" lon="0.56642">
        <ele>1839</ele>
        <time>2000-01-01T07:29:45.000Z</time>
      </trkpt>
      <trkpt lat="42.76252" lon="0.56651">
        <ele>1839.3</ele>
        <time>2000-01-01T07:29:55.000Z</time>
      </trkpt>
      <trkpt lat="42.76256" lon="0.56693">
        <ele>1838</ele>
        <time>2000-01-01T07:30:05.000Z</time>
      </trkpt>
      <trkpt lat="42.7626" lon="0.567">
        <ele>1840.2</ele>
        <time>2000-01-01T07:30:15.000Z</time>
      </trkpt>
      <trkpt lat="42.76268" lon="0.567">
        <ele>1839.4</ele>
        <time>2000-01-01T07:30:25.000Z</time>
      </trkpt>
      <trkpt lat="42.76289" lon="0.5671">
        <ele>1838</ele>
        <time>2000-01-01T07:30:35.000Z</time>
      </trkpt>
      <trkpt lat="42.76299" lon="0.56732">
        <ele>1835.5</ele>
        <time>2000-01-01T07:30:45.000Z</time>
      </trkpt>
      <trkpt lat="42.76305" lon="0.56754">
        <ele>1836</ele>
        <time>2000-01-01T07:30:55.000Z</time>
      </trkpt>
      <trkpt lat="42.76305" lon="0.56765">
        <ele>1835.6</ele>
        <time>2000-01-01T07:31:05.000Z</time>
      </trkpt>
      <trkpt lat="42.76303" lon="0.56789">
        <ele>1835</ele>
        <time>2000-01-01T07:31:15.000Z</time>
      </trkpt>
      <trkpt lat="42.76301" lon="0.568">
        <ele>1834.2</ele>
        <time>2000-01-01T07:31:25.000Z</time>
      </trkpt>
      <trkpt lat="42.76295" lon="0.56879">
        <ele>1831</ele>
        <time>2000-01-01T07:31:35.000Z</time>
      </trkpt>
      <trkpt lat="42.76295" lon="0.56908">
        <ele>1829</ele>
        <time>2000-01-01T07:31:45.000Z</time>
      </trkpt>
      <trkpt lat="42.76297" lon="0.56921">
        <ele>1827.4</ele>
        <time>2000-01-01T07:31:55.000Z</time>
      </trkpt>
      <trkpt lat="42.76303" lon="0.56947">
        <ele>1826</ele>
        <time>2000-01-01T07:32:05.000Z</time>
      </trkpt>
      <trkpt lat="42.76311" lon="0.56972">
        <ele>1824</ele>
        <time>2000-01-01T07:32:15.000Z</time>
      </trkpt>
      <trkpt lat="42.76314" lon="0.56985">
        <ele>1823.3</ele>
        <time>2000-01-01T07:32:25.000Z</time>
      </trkpt>
      <trkpt lat="42.76318" lon="0.56997">
        <ele>1823.1</ele>
        <time>2000-01-01T07:32:35.000Z</time>
      </trkpt>
      <trkpt lat="42.76323" lon="0.57007">
        <ele>1824</ele>
        <time>2000-01-01T07:32:45.000Z</time>
      </trkpt>
      <trkpt lat="42.76333" lon="0.57031">
        <ele>1824</ele>
        <time>2000-01-01T07:32:55.000Z</time>
      </trkpt>
      <trkpt lat="42.76336" lon="0.57042">
        <ele>1822.9</ele>
        <time>2000-01-01T07:33:05.000Z</time>
      </trkpt>
      <trkpt lat="42.76338" lon="0.57068">
        <ele>1824</ele>
        <time>2000-01-01T07:33:15.000Z</time>
      </trkpt>
      <trkpt lat="42.76338" lon="0.57094">
        <ele>1821.3</ele>
        <time>2000-01-01T07:33:25.000Z</time>
      </trkpt>
      <trkpt lat="42.76337" lon="0.57107">
        <ele>1824</ele>
        <time>2000-01-01T07:33:35.000Z</time>
      </trkpt>
      <trkpt lat="42.76335" lon="0.57121">
        <ele>1822</ele>
        <time>2000-01-01T07:33:45.000Z</time>
      </trkpt>
      <trkpt lat="42.76335" lon="0.57133">
        <ele>1821.6</ele>
        <time>2000-01-01T07:33:55.000Z</time>
      </trkpt>
      <trkpt lat="42.76333" lon="0.57146">
        <ele>1822</ele>
        <time>2000-01-01T07:34:05.000Z</time>
      </trkpt>
      <trkpt lat="42.76331" lon="0.57171">
        <ele>1820.8</ele>
        <time>2000-01-01T07:34:15.000Z</time>
      </trkpt>
      <trkpt lat="42.76329" lon="0.57183">
        <ele>1821</ele>
        <time>2000-01-01T07:34:25.000Z</time>
      </trkpt>
      <trkpt lat="42.76328" lon="0.57196">
        <ele>1819.1</ele>
        <time>2000-01-01T07:34:35.000Z</time>
      </trkpt>
      <trkpt lat="42.76326" lon="0.5721">
        <ele>1820</ele>
        <time>2000-01-01T07:34:45.000Z</time>
      </trkpt>
      <trkpt lat="42.76326" lon="0.57224">
        <ele>1817.4</ele>
        <time>2000-01-01T07:34:55.000Z</time>
      </trkpt>
      <trkpt lat="42.76327" lon="0.57239">
        <ele>1818</ele>
        <time>2000-01-01T07:35:05.000Z</time>
      </trkpt>
      <trkpt lat="42.76327" lon="0.57252">
        <ele>1815.6</ele>
        <time>2000-01-01T07:35:15.000Z</time>
      </trkpt>
      <trkpt lat="42.76326" lon="0.57262">
        <ele>1815.4</ele>
        <time>2000-01-01T07:35:25.000Z</time>
      </trkpt>
      <trkpt lat="42.76328" lon="0.57274">
        <ele>1816</ele>
        <time>2000-01-01T07:35:35.000Z</time>
      </trkpt>
      <trkpt lat="42.7633" lon="0.57302">
        <ele>1815</ele>
        <time>2000-01-01T07:35:45.000Z</time>
      </trkpt>
      <trkpt lat="42.7633" lon="0.57316">
        <ele>1814</ele>
        <time>2000-01-01T07:35:55.000Z</time>
      </trkpt>
      <trkpt lat="42.76331" lon="0.5733">
        <ele>1813</ele>
        <time>2000-01-01T07:36:05.000Z</time>
      </trkpt>
      <trkpt lat="42.76331" lon="0.57344">
        <ele>1813.9</ele>
        <time>2000-01-01T07:36:15.000Z</time>
      </trkpt>
      <trkpt lat="42.76332" lon="0.57357">
        <ele>1813</ele>
        <time>2000-01-01T07:36:25.000Z</time>
      </trkpt>
      <trkpt lat="42.76332" lon="0.5737">
        <ele>1813.9</ele>
        <time>2000-01-01T07:36:35.000Z</time>
      </trkpt>
      <trkpt lat="42.76334" lon="0.57383">
        <ele>1813.7</ele>
        <time>2000-01-01T07:36:45.000Z</time>
      </trkpt>
      <trkpt lat="42.76335" lon="0.57394">
        <ele>1813</ele>
        <time>2000-01-01T07:36:55.000Z</time>
      </trkpt>
      <trkpt lat="42.76338" lon="0.57405">
        <ele>1812.5</ele>
        <time>2000-01-01T07:37:05.000Z</time>
      </trkpt>
      <trkpt lat="42.7634" lon="0.57417">
        <ele>1812.1</ele>
        <time>2000-01-01T07:37:15.000Z</time>
      </trkpt>
      <trkpt lat="42.7634" lon="0.57431">
        <ele>1814</ele>
        <time>2000-01-01T07:37:25.000Z</time>
      </trkpt>
      <trkpt lat="42.76339" lon="0.57442">
        <ele>1813.7</ele>
        <time>2000-01-01T07:37:35.000Z</time>
      </trkpt>
      <trkpt lat="42.76333" lon="0.57461">
        <ele>1815</ele>
        <time>2000-01-01T07:37:45.000Z</time>
      </trkpt>
      <trkpt lat="42.76333" lon="0.57482">
        <ele>1815.9</ele>
        <time>2000-01-01T07:37:55.000Z</time>
      </trkpt>
      <trkpt lat="42.76334" lon="0.57492">
        <ele>1815</ele>
        <time>2000-01-01T07:38:05.000Z</time>
      </trkpt>
      <trkpt lat="42.76333" lon="0.57503">
        <ele>1816</ele>
        <time>2000-01-01T07:38:15.000Z</time>
      </trkpt>
      <trkpt lat="42.76335" lon="0.57516">
        <ele>1816.3</ele>
        <time>2000-01-01T07:38:25.000Z</time>
      </trkpt>
      <trkpt lat="42.76338" lon="0.57555">
        <ele>1815</ele>
        <time>2000-01-01T07:38:35.000Z</time>
      </trkpt>
      <trkpt lat="42.76338" lon="0.57593">
        <ele>1815</ele>
        <time>2000-01-01T07:38:45.000Z</time>
      </trkpt>
      <trkpt lat="42.76339" lon="0.57605">
        <ele>1820.9</ele>
        <time>2000-01-01T07:38:55.000Z</time>
      </trkpt>
      <trkpt lat="42.76338" lon="0.57616">
        <ele>1821.6</ele>
        <time>2000-01-01T07:39:05.000Z</time>
      </trkpt>
      <trkpt lat="42.76338" lon="0.57626">
        <ele>1816</ele>
        <time>2000-01-01T07:39:15.000Z</time>
      </trkpt>
      <trkpt lat="42.7634" lon="0.57638">
        <ele>1822.5</ele>
        <time>2000-01-01T07:39:25.000Z</time>
      </trkpt>
      <trkpt lat="42.76343" lon="0.57649">
        <ele>1822.4</ele>
        <time>2000-01-01T07:39:35.000Z</time>
      </trkpt>
      <trkpt lat="42.76348" lon="0.57659">
        <ele>1816</ele>
        <time>2000-01-01T07:39:45.000Z</time>
      </trkpt>
      <trkpt lat="42.76355" lon="0.57664">
        <ele>1822.1</ele>
        <time>2000-01-01T07:39:55.000Z</time>
      </trkpt>
      <trkpt lat="42.76364" lon="0.57666">
        <ele>1821.3</ele>
        <time>2000-01-01T07:40:05.000Z</time>
      </trkpt>
      <trkpt lat="42.76374" lon="0.57667">
        <ele>1816</ele>
        <time>2000-01-01T07:40:15.000Z</time>
      </trkpt>
      <trkpt lat="42.76417" lon="0.57667">
        <ele>1810</ele>
        <time>2000-01-01T07:40:25.000Z</time>
      </trkpt>
      <trkpt lat="42.76438" lon="0.57669">
        <ele>1806</ele>
        <time>2000-01-01T07:40:35.000Z</time>
      </trkpt>
      <trkpt lat="42.76448" lon="0.57665">
        <ele>1804.4</ele>
        <time>2000-01-01T07:40:45.000Z</time>
      </trkpt>
      <trkpt lat="42.76458" lon="0.5766">
        <ele>1802</ele>
        <time>2000-01-01T07:40:55.000Z</time>
      </trkpt>
      <trkpt lat="42.76468" lon="0.57654">
        <ele>1801.1</ele>
        <time>2000-01-01T07:41:05.000Z</time>
      </trkpt>
      <trkpt lat="42.76477" lon="0.57647">
        <ele>1800</ele>
        <time>2000-01-01T07:41:15.000Z</time>
      </trkpt>
      <trkpt lat="42.76485" lon="0.57642">
        <ele>1799.2</ele>
        <time>2000-01-01T07:41:25.000Z</time>
      </trkpt>
      <trkpt lat="42.76494" lon="0.57638">
        <ele>1798.3</ele>
        <time>2000-01-01T07:41:35.000Z</time>
      </trkpt>
      <trkpt lat="42.76515" lon="0.57627">
        <ele>1794</ele>
        <time>2000-01-01T07:41:45.000Z</time>
      </trkpt>
      <trkpt lat="42.76535" lon="0.57619">
        <ele>1791</ele>
        <time>2000-01-01T07:41:55.000Z</time>
      </trkpt>
      <trkpt lat="42.76567" lon="0.57602">
        <ele>1787</ele>
        <time>2000-01-01T07:42:05.000Z</time>
      </trkpt>
      <trkpt lat="42.76577" lon="0.57598">
        <ele>1786.9</ele>
        <time>2000-01-01T07:42:15.000Z</time>
      </trkpt>
      <trkpt lat="42.76587" lon="0.57596">
        <ele>1785</ele>
        <time>2000-01-01T07:42:25.000Z</time>
      </trkpt>
      <trkpt lat="42.76617" lon="0.57599">
        <ele>1782</ele>
        <time>2000-01-01T07:42:35.000Z</time>
      </trkpt>
      <trkpt lat="42.76628" lon="0.57599">
        <ele>1780.5</ele>
        <time>2000-01-01T07:42:45.000Z</time>
      </trkpt>
      <trkpt lat="42.76637" lon="0.57601">
        <ele>1781</ele>
        <time>2000-01-01T07:42:55.000Z</time>
      </trkpt>
      <trkpt lat="42.76647" lon="0.57606">
        <ele>1779.5</ele>
        <time>2000-01-01T07:43:05.000Z</time>
      </trkpt>
      <trkpt lat="42.76661" lon="0.57618">
        <ele>1782</ele>
        <time>2000-01-01T07:43:15.000Z</time>
      </trkpt>
      <trkpt lat="42.76669" lon="0.57626">
        <ele>1781.8</ele>
        <time>2000-01-01T07:43:25.000Z</time>
      </trkpt>
      <trkpt lat="42.76697" lon="0.57626">
        <ele>1783</ele>
        <time>2000-01-01T07:43:35.000Z</time>
      </trkpt>
      <trkpt lat="42.76712" lon="0.57619">
        <ele>1785.7</ele>
        <time>2000-01-01T07:43:45.000Z</time>
      </trkpt>
      <trkpt lat="42.76721" lon="0.57616">
        <ele>1785</ele>
        <time>2000-01-01T07:43:55.000Z</time>
      </trkpt>
      <trkpt lat="42.76737" lon="0.57618">
        <ele>1787.6</ele>
        <time>2000-01-01T07:44:05.000Z</time>
      </trkpt>
      <trkpt lat="42.76757" lon="0.57633">
        <ele>1789</ele>
        <time>2000-01-01T07:44:15.000Z</time>
      </trkpt>
      <trkpt lat="42.76764" lon="0.57636">
        <ele>1791</ele>
        <time>2000-01-01T07:44:25.000Z</time>
      </trkpt>
      <trkpt lat="42.7678" lon="0.57647">
        <ele>1791</ele>
        <time>2000-01-01T07:44:35.000Z</time>
      </trkpt>
      <trkpt lat="42.76789" lon="0.57654">
        <ele>1794.4</ele>
        <time>2000-01-01T07:44:45.000Z</time>
      </trkpt>
      <trkpt lat="42.76802" lon="0.57667">
        <ele>1793</ele>
        <time>2000-01-01T07:44:55.000Z</time>
      </trkpt>
      <trkpt lat="42.7681" lon="0.57673">
        <ele>1796.4</ele>
        <time>2000-01-01T07:45:05.000Z</time>
      </trkpt>
      <trkpt lat="42.76817" lon="0.57676">
        <ele>1796.6</ele>
        <time>2000-01-01T07:45:15.000Z</time>
      </trkpt>
      <trkpt lat="42.76825" lon="0.57678">
        <ele>1793</ele>
        <time>2000-01-01T07:45:25.000Z</time>
      </trkpt>
      <trkpt lat="42.76851" lon="0.5769">
        <ele>1792</ele>
        <time>2000-01-01T07:45:35.000Z</time>
      </trkpt>
      <trkpt lat="42.76861" lon="0.57688">
        <ele>1796.8</ele>
        <time>2000-01-01T07:45:45.000Z</time>
      </trkpt>
      <trkpt lat="42.76868" lon="0.57683">
        <ele>1796.1</ele>
        <time>2000-01-01T07:45:55.000Z</time>
      </trkpt>
      <trkpt lat="42.76875" lon="0.57679">
        <ele>1790</ele>
        <time>2000-01-01T07:46:05.000Z</time>
      </trkpt>
      <trkpt lat="42.76884" lon="0.57677">
        <ele>1794.7</ele>
        <time>2000-01-01T07:46:15.000Z</time>
      </trkpt>
      <trkpt lat="42.76902" lon="0.57675">
        <ele>1789</ele>
        <time>2000-01-01T07:46:25.000Z</time>
      </trkpt>
      <trkpt lat="42.76914" lon="0.57668">
        <ele>1787.9</ele>
        <time>2000-01-01T07:46:35.000Z</time>
      </trkpt>
      <trkpt lat="42.76913" lon="0.57653">
        <ele>1784</ele>
        <time>2000-01-01T07:46:45.000Z</time>
      </trkpt>
      <trkpt lat="42.76914" lon="0.57638">
        <ele>1783.4</ele>
        <time>2000-01-01T07:46:55.000Z</time>
      </trkpt>
      <trkpt lat="42.76917" lon="0.57623">
        <ele>1779</ele>
        <time>2000-01-01T07:47:05.000Z</time>
      </trkpt>
      <trkpt lat="42.76915" lon="0.5761">
        <ele>1779.1</ele>
        <time>2000-01-01T07:47:15.000Z</time>
      </trkpt>
      <trkpt lat="42.76915" lon="0.57596">
        <ele>1775</ele>
        <time>2000-01-01T07:47:25.000Z</time>
      </trkpt>
      <trkpt lat="42.76913" lon="0.57578">
        <ele>1774.4</ele>
        <time>2000-01-01T07:47:35.000Z</time>
      </trkpt>
      <trkpt lat="42.76921" lon="0.57562">
        <ele>1768</ele>
        <time>2000-01-01T07:47:45.000Z</time>
      </trkpt>
      <trkpt lat="42.76926" lon="0.57559">
        <ele>1768.4</ele>
        <time>2000-01-01T07:47:55.000Z</time>
      </trkpt>
      <trkpt lat="42.76926" lon="0.57546">
        <ele>1765</ele>
        <time>2000-01-01T07:48:05.000Z</time>
      </trkpt>
      <trkpt lat="42.7692" lon="0.57536">
        <ele>1762</ele>
        <time>2000-01-01T07:48:15.000Z</time>
      </trkpt>
      <trkpt lat="42.76916" lon="0.57525">
        <ele>1760.4</ele>
        <time>2000-01-01T07:48:25.000Z</time>
      </trkpt>
      <trkpt lat="42.76909" lon="0.57511">
        <ele>1759</ele>
        <time>2000-01-01T07:48:35.000Z</time>
      </trkpt>
      <trkpt lat="42.76904" lon="0.57496">
        <ele>1755.2</ele>
        <time>2000-01-01T07:48:45.000Z</time>
      </trkpt>
      <trkpt lat="42.76903" lon="0.57485">
        <ele>1751</ele>
        <time>2000-01-01T07:48:55.000Z</time>
      </trkpt>
      <trkpt lat="42.76899" lon="0.57463">
        <ele>1747</ele>
        <time>2000-01-01T07:49:05.000Z</time>
      </trkpt>
      <trkpt lat="42.76894" lon="0.57449">
        <ele>1741</ele>
        <time>2000-01-01T07:49:15.000Z</time>
      </trkpt>
      <trkpt lat="42.76888" lon="0.57438">
        <ele>1741.7</ele>
        <time>2000-01-01T07:49:25.000Z</time>
      </trkpt>
      <trkpt lat="42.7688" lon="0.57427">
        <ele>1737</ele>
        <time>2000-01-01T07:49:35.000Z</time>
      </trkpt>
      <trkpt lat="42.76873" lon="0.57415">
        <ele>1737.6</ele>
        <time>2000-01-01T07:49:45.000Z</time>
      </trkpt>
      <trkpt lat="42.76864" lon="0.57408">
        <ele>1733</ele>
        <time>2000-01-01T07:49:55.000Z</time>
      </trkpt>
      <trkpt lat="42.76856" lon="0.574">
        <ele>1734</ele>
        <time>2000-01-01T07:50:05.000Z</time>
      </trkpt>
      <trkpt lat="42.76838" lon="0.57385">
        <ele>1728</ele>
        <time>2000-01-01T07:50:15.000Z</time>
      </trkpt>
      <trkpt lat="42.76816" lon="0.57368">
        <ele>1720</ele>
        <time>2000-01-01T07:50:25.000Z</time>
      </trkpt>
      <trkpt lat="42.76806" lon="0.57365">
        <ele>1722.7</ele>
        <time>2000-01-01T07:50:35.000Z</time>
      </trkpt>
      <trkpt lat="42.76775" lon="0.57353">
        <ele>1715</ele>
        <time>2000-01-01T07:50:45.000Z</time>
      </trkpt>
      <trkpt lat="42.76766" lon="0.57351">
        <ele>1717.8</ele>
        <time>2000-01-01T07:50:55.000Z</time>
      </trkpt>
      <trkpt lat="42.76748" lon="0.5734">
        <ele>1708</ele>
        <time>2000-01-01T07:51:05.000Z</time>
      </trkpt>
      <trkpt lat="42.76735" lon="0.57333">
        <ele>1708.9</ele>
        <time>2000-01-01T07:51:15.000Z</time>
      </trkpt>
      <trkpt lat="42.76722" lon="0.57327">
        <ele>1703</ele>
        <time>2000-01-01T07:51:25.000Z</time>
      </trkpt>
      <trkpt lat="42.76704" lon="0.57323">
        <ele>1704.3</ele>
        <time>2000-01-01T07:51:35.000Z</time>
      </trkpt>
      <trkpt lat="42.76689" lon="0.57319">
        <ele>1698</ele>
        <time>2000-01-01T07:51:45.000Z</time>
      </trkpt>
      <trkpt lat="42.7668" lon="0.57314">
        <ele>1700.1</ele>
        <time>2000-01-01T07:51:55.000Z</time>
      </trkpt>
      <trkpt lat="42.76666" lon="0.57305">
        <ele>1694</ele>
        <time>2000-01-01T07:52:05.000Z</time>
      </trkpt>
      <trkpt lat="42.76653" lon="0.57296">
        <ele>1695.3</ele>
        <time>2000-01-01T07:52:15.000Z</time>
      </trkpt>
      <trkpt lat="42.76638" lon="0.57279">
        <ele>1688</ele>
        <time>2000-01-01T07:52:25.000Z</time>
      </trkpt>
      <trkpt lat="42.7663" lon="0.57268">
        <ele>1689.2</ele>
        <time>2000-01-01T07:52:35.000Z</time>
      </trkpt>
      <trkpt lat="42.76622" lon="0.57253">
        <ele>1685</ele>
        <time>2000-01-01T07:52:45.000Z</time>
      </trkpt>
      <trkpt lat="42.76615" lon="0.57232">
        <ele>1682.4</ele>
        <time>2000-01-01T07:52:55.000Z</time>
      </trkpt>
      <trkpt lat="42.76614" lon="0.57215">
        <ele>1678</ele>
        <time>2000-01-01T07:53:05.000Z</time>
      </trkpt>
      <trkpt lat="42.76613" lon="0.57202">
        <ele>1677.1</ele>
        <time>2000-01-01T07:53:15.000Z</time>
      </trkpt>
      <trkpt lat="42.76613" lon="0.57184">
        <ele>1673</ele>
        <time>2000-01-01T07:53:25.000Z</time>
      </trkpt>
      <trkpt lat="42.76615" lon="0.57163">
        <ele>1670.5</ele>
        <time>2000-01-01T07:53:35.000Z</time>
      </trkpt>
      <trkpt lat="42.76618" lon="0.57146">
        <ele>1667</ele>
        <time>2000-01-01T07:53:45.000Z</time>
      </trkpt>
      <trkpt lat="42.76621" lon="0.5713">
        <ele>1663.6</ele>
        <time>2000-01-01T07:53:55.000Z</time>
      </trkpt>
      <trkpt lat="42.76626" lon="0.57109">
        <ele>1659</ele>
        <time>2000-01-01T07:54:05.000Z</time>
      </trkpt>
      <trkpt lat="42.76629" lon="0.57091">
        <ele>1654.7</ele>
        <time>2000-01-01T07:54:15.000Z</time>
      </trkpt>
      <trkpt lat="42.76635" lon="0.57067">
        <ele>1647</ele>
        <time>2000-01-01T07:54:25.000Z</time>
      </trkpt>
      <trkpt lat="42.7664" lon="0.57039">
        <ele>1643</ele>
        <time>2000-01-01T07:54:35.000Z</time>
      </trkpt>
      <trkpt lat="42.76643" lon="0.57028">
        <ele>1639</ele>
        <time>2000-01-01T07:54:45.000Z</time>
      </trkpt>
      <trkpt lat="42.76644" lon="0.57013">
        <ele>1637.6</ele>
        <time>2000-01-01T07:54:55.000Z</time>
      </trkpt>
      <trkpt lat="42.76645" lon="0.57">
        <ele>1638</ele>
        <time>2000-01-01T07:55:05.000Z</time>
      </trkpt>
      <trkpt lat="42.76645" lon="0.56993">
        <ele>1635.7</ele>
        <time>2000-01-01T07:55:15.000Z</time>
      </trkpt>
      <trkpt lat="42.76646" lon="0.5698">
        <ele>1634.5</ele>
        <time>2000-01-01T07:55:25.000Z</time>
      </trkpt>
      <trkpt lat="42.76649" lon="0.56973">
        <ele>1634</ele>
        <time>2000-01-01T07:55:35.000Z</time>
      </trkpt>
      <trkpt lat="42.76652" lon="0.56968">
        <ele>1631.8</ele>
        <time>2000-01-01T07:55:45.000Z</time>
      </trkpt>
      <trkpt lat="42.76657" lon="0.56964">
        <ele>1630</ele>
        <time>2000-01-01T07:55:55.000Z</time>
      </trkpt>
      <trkpt lat="42.76663" lon="0.56958">
        <ele>1627.6</ele>
        <time>2000-01-01T07:56:05.000Z</time>
      </trkpt>
      <trkpt lat="42.76667" lon="0.56951">
        <ele>1626</ele>
        <time>2000-01-01T07:56:15.000Z</time>
      </trkpt>
      <trkpt lat="42.76672" lon="0.56943">
        <ele>1623.1</ele>
        <time>2000-01-01T07:56:25.000Z</time>
      </trkpt>
      <trkpt lat="42.76677" lon="0.56936">
        <ele>1620.6</ele>
        <time>2000-01-01T07:56:35.000Z</time>
      </trkpt>
      <trkpt lat="42.76682" lon="0.56931">
        <ele>1617</ele>
        <time>2000-01-01T07:56:45.000Z</time>
      </trkpt>
      <trkpt lat="42.76687" lon="0.56924">
        <ele>1615.7</ele>
        <time>2000-01-01T07:56:55.000Z</time>
      </trkpt>
      <trkpt lat="42.7669" lon="0.56919">
        <ele>1613.9</ele>
        <time>2000-01-01T07:57:05.000Z</time>
      </trkpt>
      <trkpt lat="42.76695" lon="0.56914">
        <ele>1611.5</ele>
        <time>2000-01-01T07:57:15.000Z</time>
      </trkpt>
      <trkpt lat="42.767" lon="0.56907">
        <ele>1606</ele>
        <time>2000-01-01T07:57:25.000Z</time>
      </trkpt>
      <trkpt lat="42.76706" lon="0.569">
        <ele>1606.3</ele>
        <time>2000-01-01T07:57:35.000Z</time>
      </trkpt>
      <trkpt lat="42.76711" lon="0.56896">
        <ele>1604.3</ele>
        <time>2000-01-01T07:57:45.000Z</time>
      </trkpt>
      <trkpt lat="42.76715" lon="0.56892">
        <ele>1602.5</ele>
        <time>2000-01-01T07:57:55.000Z</time>
      </trkpt>
      <trkpt lat="42.76719" lon="0.56885">
        <ele>1601</ele>
        <time>2000-01-01T07:58:05.000Z</time>
      </trkpt>
      <trkpt lat="42.76723" lon="0.5688">
        <ele>1598.4</ele>
        <time>2000-01-01T07:58:15.000Z</time>
      </trkpt>
      <trkpt lat="42.76727" lon="0.56877">
        <ele>1596.5</ele>
        <time>2000-01-01T07:58:25.000Z</time>
      </trkpt>
      <trkpt lat="42.7673" lon="0.56872">
        <ele>1594.7</ele>
        <time>2000-01-01T07:58:35.000Z</time>
      </trkpt>
      <trkpt lat="42.76734" lon="0.56866">
        <ele>1591</ele>
        <time>2000-01-01T07:58:45.000Z</time>
      </trkpt>
      <trkpt lat="42.76738" lon="0.56857">
        <ele>1589.7</ele>
        <time>2000-01-01T07:58:55.000Z</time>
      </trkpt>
      <trkpt lat="42.76741" lon="0.5685">
        <ele>1587.5</ele>
        <time>2000-01-01T07:59:05.000Z</time>
      </trkpt>
      <trkpt lat="42.76744" lon="0.56842">
        <ele>1585</ele>
        <time>2000-01-01T07:59:15.000Z</time>
      </trkpt>
      <trkpt lat="42.76747" lon="0.56835">
        <ele>1583.2</ele>
        <time>2000-01-01T07:59:25.000Z</time>
      </trkpt>
      <trkpt lat="42.76749" lon="0.56827">
        <ele>1581.2</ele>
        <time>2000-01-01T07:59:35.000Z</time>
      </trkpt>
      <trkpt lat="42.76752" lon="0.56824">
        <ele>1579.7</ele>
        <time>2000-01-01T07:59:45.000Z</time>
      </trkpt>
      <trkpt lat="42.76756" lon="0.56813">
        <ele>1578</ele>
        <time>2000-01-01T07:59:55.000Z</time>
      </trkpt>
      <trkpt lat="42.76761" lon="0.56803">
        <ele>1573.4</ele>
        <time>2000-01-01T08:00:05.000Z</time>
      </trkpt>
      <trkpt lat="42.76765" lon="0.56792">
        <ele>1570.5</ele>
        <time>2000-01-01T08:00:15.000Z</time>
      </trkpt>
      <trkpt lat="42.76768" lon="0.56781">
        <ele>1569</ele>
        <time>2000-01-01T08:00:25.000Z</time>
      </trkpt>
      <trkpt lat="42.7677" lon="0.56774">
        <ele>1566</ele>
        <time>2000-01-01T08:00:35.000Z</time>
      </trkpt>
      <trkpt lat="42.76774" lon="0.56762">
        <ele>1563</ele>
        <time>2000-01-01T08:00:45.000Z</time>
      </trkpt>
      <trkpt lat="42.76776" lon="0.5675">
        <ele>1561</ele>
        <time>2000-01-01T08:00:55.000Z</time>
      </trkpt>
      <trkpt lat="42.76782" lon="0.56742">
        <ele>1558.2</ele>
        <time>2000-01-01T08:01:05.000Z</time>
      </trkpt>
      <trkpt lat="42.76786" lon="0.5673">
        <ele>1556</ele>
        <time>2000-01-01T08:01:15.000Z</time>
      </trkpt>
      <trkpt lat="42.76789" lon="0.56718">
        <ele>1557</ele>
        <time>2000-01-01T08:01:25.000Z</time>
      </trkpt>
      <trkpt lat="42.76793" lon="0.56709">
        <ele>1552.1</ele>
        <time>2000-01-01T08:01:35.000Z</time>
      </trkpt>
      <trkpt lat="42.76797" lon="0.56702">
        <ele>1550.3</ele>
        <time>2000-01-01T08:01:45.000Z</time>
      </trkpt>
      <trkpt lat="42.76801" lon="0.56695">
        <ele>1548</ele>
        <time>2000-01-01T08:01:55.000Z</time>
      </trkpt>
      <trkpt lat="42.76805" lon="0.56692">
        <ele>1547</ele>
        <time>2000-01-01T08:02:05.000Z</time>
      </trkpt>
      <trkpt lat="42.76814" lon="0.56685">
        <ele>1543.4</ele>
        <time>2000-01-01T08:02:15.000Z</time>
      </trkpt>
      <trkpt lat="42.76818" lon="0.56683">
        <ele>1541.9</ele>
        <time>2000-01-01T08:02:25.000Z</time>
      </trkpt>
      <trkpt lat="42.76822" lon="0.56676">
        <ele>1539</ele>
        <time>2000-01-01T08:02:35.000Z</time>
      </trkpt>
      <trkpt lat="42.76826" lon="0.56673">
        <ele>1538.7</ele>
        <time>2000-01-01T08:02:45.000Z</time>
      </trkpt>
      <trkpt lat="42.76831" lon="0.56668">
        <ele>1536.8</ele>
        <time>2000-01-01T08:02:55.000Z</time>
      </trkpt>
      <trkpt lat="42.76836" lon="0.56661">
        <ele>1534.4</ele>
        <time>2000-01-01T08:03:05.000Z</time>
      </trkpt>
      <trkpt lat="42.76841" lon="0.56661">
        <ele>1533</ele>
        <time>2000-01-01T08:03:15.000Z</time>
      </trkpt>
      <trkpt lat="42.76845" lon="0.56657">
        <ele>1530.9</ele>
        <time>2000-01-01T08:03:25.000Z</time>
      </trkpt>
      <trkpt lat="42.76849" lon="0.56653">
        <ele>1529.2</ele>
        <time>2000-01-01T08:03:35.000Z</time>
      </trkpt>
      <trkpt lat="42.76853" lon="0.56647">
        <ele>1527.3</ele>
        <time>2000-01-01T08:03:45.000Z</time>
      </trkpt>
      <trkpt lat="42.76857" lon="0.56644">
        <ele>1526</ele>
        <time>2000-01-01T08:03:55.000Z</time>
      </trkpt>
      <trkpt lat="42.76861" lon="0.5664">
        <ele>1524.1</ele>
        <time>2000-01-01T08:04:05.000Z</time>
      </trkpt>
      <trkpt lat="42.76867" lon="0.56635">
        <ele>1521.6</ele>
        <time>2000-01-01T08:04:15.000Z</time>
      </trkpt>
      <trkpt lat="42.76871" lon="0.56634">
        <ele>1520.2</ele>
        <time>2000-01-01T08:04:25.000Z</time>
      </trkpt>
      <trkpt lat="42.76874" lon="0.56633">
        <ele>1519.2</ele>
        <time>2000-01-01T08:04:35.000Z</time>
      </trkpt>
      <trkpt lat="42.76879" lon="0.56628">
        <ele>1518</ele>
        <time>2000-01-01T08:04:45.000Z</time>
      </trkpt>
      <trkpt lat="42.76882" lon="0.56626">
        <ele>1516.1</ele>
        <time>2000-01-01T08:04:55.000Z</time>
      </trkpt>
      <trkpt lat="42.76885" lon="0.56625">
        <ele>1515.1</ele>
        <time>2000-01-01T08:05:05.000Z</time>
      </trkpt>
      <trkpt lat="42.76887" lon="0.56619">
        <ele>1514.1</ele>
        <time>2000-01-01T08:05:15.000Z</time>
      </trkpt>
      <trkpt lat="42.7689" lon="0.56619">
        <ele>1513.3</ele>
        <time>2000-01-01T08:05:25.000Z</time>
      </trkpt>
      <trkpt lat="42.76894" lon="0.56613">
        <ele>1510</ele>
        <time>2000-01-01T08:05:35.000Z</time>
      </trkpt>
      <trkpt lat="42.76897" lon="0.56611">
        <ele>1510.7</ele>
        <time>2000-01-01T08:05:45.000Z</time>
      </trkpt>
      <trkpt lat="42.769" lon="0.56606">
        <ele>1509.4</ele>
        <time>2000-01-01T08:05:55.000Z</time>
      </trkpt>
      <trkpt lat="42.76902" lon="0.56601">
        <ele>1508.3</ele>
        <time>2000-01-01T08:06:05.000Z</time>
      </trkpt>
      <trkpt lat="42.76905" lon="0.56598">
        <ele>1507.1</ele>
        <time>2000-01-01T08:06:15.000Z</time>
      </trkpt>
      <trkpt lat="42.76907" lon="0.56594">
        <ele>1506.2</ele>
        <time>2000-01-01T08:06:25.000Z</time>
      </trkpt>
      <trkpt lat="42.76909" lon="0.56589">
        <ele>1506</ele>
        <time>2000-01-01T08:06:35.000Z</time>
      </trkpt>
      <trkpt lat="42.76914" lon="0.56587">
        <ele>1503.2</ele>
        <time>2000-01-01T08:06:45.000Z</time>
      </trkpt>
      <trkpt lat="42.76916" lon="0.56584">
        <ele>1502.3</ele>
        <time>2000-01-01T08:06:55.000Z</time>
      </trkpt>
      <trkpt lat="42.76918" lon="0.56581">
        <ele>1501.7</ele>
        <time>2000-01-01T08:07:05.000Z</time>
      </trkpt>
      <trkpt lat="42.76919" lon="0.56579">
        <ele>1501.4</ele>
        <time>2000-01-01T08:07:15.000Z</time>
      </trkpt>
      <trkpt lat="42.76921" lon="0.56575">
        <ele>1500.9</ele>
        <time>2000-01-01T08:07:25.000Z</time>
      </trkpt>
      <trkpt lat="42.76922" lon="0.56571">
        <ele>1500.5</ele>
        <time>2000-01-01T08:07:35.000Z</time>
      </trkpt>
      <trkpt lat="42.76923" lon="0.56571">
        <ele>1500</ele>
        <time>2000-01-01T08:07:45.000Z</time>
      </trkpt>
      <trkpt lat="42.76925" lon="0.56569">
        <ele>1499.6</ele>
        <time>2000-01-01T08:07:55.000Z</time>
      </trkpt>
      <trkpt lat="42.76925" lon="0.56568">
        <ele>1499.5</ele>
        <time>2000-01-01T08:08:05.000Z</time>
      </trkpt>
      <trkpt lat="42.76928" lon="0.56566">
        <ele>1498.5</ele>
        <time>2000-01-01T08:08:15.000Z</time>
      </trkpt>
      <trkpt lat="42.76931" lon="0.56563">
        <ele>1497.4</ele>
        <time>2000-01-01T08:08:25.000Z</time>
      </trkpt>
      <trkpt lat="42.76933" lon="0.5656">
        <ele>1496.5</ele>
        <time>2000-01-01T08:08:35.000Z</time>
      </trkpt>
      <trkpt lat="42.76936" lon="0.56559">
        <ele>1495.4</ele>
        <time>2000-01-01T08:08:45.000Z</time>
      </trkpt>
      <trkpt lat="42.7694" lon="0.56555">
        <ele>1498</ele>
        <time>2000-01-01T08:08:55.000Z</time>
      </trkpt>
      <trkpt lat="42.76944" lon="0.56552">
        <ele>1492.6</ele>
        <time>2000-01-01T08:09:05.000Z</time>
      </trkpt>
      <trkpt lat="42.76949" lon="0.5655">
        <ele>1491.4</ele>
        <time>2000-01-01T08:09:15.000Z</time>
      </trkpt>
      <trkpt lat="42.76954" lon="0.56546">
        <ele>1490.1</ele>
        <time>2000-01-01T08:09:25.000Z</time>
      </trkpt>
      <trkpt lat="42.7696" lon="0.56541">
        <ele>1491</ele>
        <time>2000-01-01T08:09:35.000Z</time>
      </trkpt>
      <trkpt lat="42.76967" lon="0.56537">
        <ele>1485.3</ele>
        <time>2000-01-01T08:09:45.000Z</time>
      </trkpt>
      <trkpt lat="42.76971" lon="0.56527">
        <ele>1482.6</ele>
        <time>2000-01-01T08:09:55.000Z</time>
      </trkpt>
      <trkpt lat="42.76986" lon="0.56514">
        <ele>1480</ele>
        <time>2000-01-01T08:10:05.000Z</time>
      </trkpt>
      <trkpt lat="42.77006" lon="0.56507">
        <ele>1472</ele>
        <time>2000-01-01T08:10:15.000Z</time>
      </trkpt>
      <trkpt lat="42.77014" lon="0.56506">
        <ele>1470.8</ele>
        <time>2000-01-01T08:10:25.000Z</time>
      </trkpt>
      <trkpt lat="42.7702" lon="0.565">
        <ele>1468.4</ele>
        <time>2000-01-01T08:10:35.000Z</time>
      </trkpt>
      <trkpt lat="42.77025" lon="0.56492">
        <ele>1468</ele>
        <time>2000-01-01T08:10:45.000Z</time>
      </trkpt>
      <trkpt lat="42.77039" lon="0.56476">
        <ele>1462.6</ele>
        <time>2000-01-01T08:10:55.000Z</time>
      </trkpt>
      <trkpt lat="42.77052" lon="0.56459">
        <ele>1461</ele>
        <time>2000-01-01T08:11:05.000Z</time>
      </trkpt>
      <trkpt lat="42.77059" lon="0.56453">
        <ele>1458.6</ele>
        <time>2000-01-01T08:11:15.000Z</time>
      </trkpt>
      <trkpt lat="42.77066" lon="0.56451">
        <ele>1455.3</ele>
        <time>2000-01-01T08:11:25.000Z</time>
      </trkpt>
      <trkpt lat="42.77082" lon="0.56453">
        <ele>1445</ele>
        <time>2000-01-01T08:11:35.000Z</time>
      </trkpt>
      <trkpt lat="42.77091" lon="0.56452">
        <ele>1448.3</ele>
        <time>2000-01-01T08:11:45.000Z</time>
      </trkpt>
      <trkpt lat="42.77099" lon="0.56453">
        <ele>1448.5</ele>
        <time>2000-01-01T08:11:55.000Z</time>
      </trkpt>
      <trkpt lat="42.77124" lon="0.56453">
        <ele>1445</ele>
        <time>2000-01-01T08:12:05.000Z</time>
      </trkpt>
      <trkpt lat="42.77132" lon="0.56452">
        <ele>1447.5</ele>
        <time>2000-01-01T08:12:15.000Z</time>
      </trkpt>
      <trkpt lat="42.7714" lon="0.56452">
        <ele>1447.5</ele>
        <time>2000-01-01T08:12:25.000Z</time>
      </trkpt>
      <trkpt lat="42.77148" lon="0.5645">
        <ele>1445</ele>
        <time>2000-01-01T08:12:35.000Z</time>
      </trkpt>
      <trkpt lat="42.77168" lon="0.56441">
        <ele>1445</ele>
        <time>2000-01-01T08:12:45.000Z</time>
      </trkpt>
      <trkpt lat="42.77181" lon="0.56427">
        <ele>1442.5</ele>
        <time>2000-01-01T08:12:55.000Z</time>
      </trkpt>
      <trkpt lat="42.7719" lon="0.56422">
        <ele>1440</ele>
        <time>2000-01-01T08:13:05.000Z</time>
      </trkpt>
      <trkpt lat="42.77198" lon="0.56408">
        <ele>1438.1</ele>
        <time>2000-01-01T08:13:15.000Z</time>
      </trkpt>
      <trkpt lat="42.77205" lon="0.56401">
        <ele>1436</ele>
        <time>2000-01-01T08:13:25.000Z</time>
      </trkpt>
      <trkpt lat="42.77213" lon="0.56398">
        <ele>1434.1</ele>
        <time>2000-01-01T08:13:35.000Z</time>
      </trkpt>
      <trkpt lat="42.77227" lon="0.56385">
        <ele>1431</ele>
        <time>2000-01-01T08:13:45.000Z</time>
      </trkpt>
      <trkpt lat="42.77237" lon="0.5637">
        <ele>1424</ele>
        <time>2000-01-01T08:13:55.000Z</time>
      </trkpt>
      <trkpt lat="42.77243" lon="0.56356">
        <ele>1424</ele>
        <time>2000-01-01T08:14:05.000Z</time>
      </trkpt>
      <trkpt lat="42.77249" lon="0.56344">
        <ele>1414.4</ele>
        <time>2000-01-01T08:14:15.000Z</time>
      </trkpt>
      <trkpt lat="42.77263" lon="0.56326">
        <ele>1415</ele>
        <time>2000-01-01T08:14:25.000Z</time>
      </trkpt>
      <trkpt lat="42.77275" lon="0.56312">
        <ele>1402.1</ele>
        <time>2000-01-01T08:14:35.000Z</time>
      </trkpt>
      <trkpt lat="42.77312" lon="0.56288">
        <ele>1395</ele>
        <time>2000-01-01T08:14:45.000Z</time>
      </trkpt>
      <trkpt lat="42.7732" lon="0.56284">
        <ele>1386.1</ele>
        <time>2000-01-01T08:14:55.000Z</time>
      </trkpt>
      <trkpt lat="42.77337" lon="0.5628">
        <ele>1385</ele>
        <time>2000-01-01T08:15:05.000Z</time>
      </trkpt>
      <trkpt lat="42.77347" lon="0.56279">
        <ele>1377.1</ele>
        <time>2000-01-01T08:15:15.000Z</time>
      </trkpt>
      <trkpt lat="42.77356" lon="0.56281">
        <ele>1376.4</ele>
        <time>2000-01-01T08:15:25.000Z</time>
      </trkpt>
      <trkpt lat="42.77371" lon="0.56283">
        <ele>1379</ele>
        <time>2000-01-01T08:15:35.000Z</time>
      </trkpt>
      <trkpt lat="42.7738" lon="0.56286">
        <ele>1371.2</ele>
        <time>2000-01-01T08:15:45.000Z</time>
      </trkpt>
      <trkpt lat="42.77395" lon="0.56287">
        <ele>1369</ele>
        <time>2000-01-01T08:15:55.000Z</time>
      </trkpt>
      <trkpt lat="42.77409" lon="0.56297">
        <ele>1363.4</ele>
        <time>2000-01-01T08:16:05.000Z</time>
      </trkpt>
      <trkpt lat="42.77417" lon="0.56304">
        <ele>1367</ele>
        <time>2000-01-01T08:16:15.000Z</time>
      </trkpt>
      <trkpt lat="42.77427" lon="0.56314">
        <ele>1359.4</ele>
        <time>2000-01-01T08:16:25.000Z</time>
      </trkpt>
      <trkpt lat="42.7744" lon="0.56342">
        <ele>1364</ele>
        <time>2000-01-01T08:16:35.000Z</time>
      </trkpt>
      <trkpt lat="42.77458" lon="0.56363">
        <ele>1351</ele>
        <time>2000-01-01T08:16:45.000Z</time>
      </trkpt>
      <trkpt lat="42.77468" lon="0.56392">
        <ele>1346</ele>
        <time>2000-01-01T08:16:55.000Z</time>
      </trkpt>
      <trkpt lat="42.77475" lon="0.56404">
        <ele>1334.4</ele>
        <time>2000-01-01T08:17:05.000Z</time>
      </trkpt>
      <trkpt lat="42.77479" lon="0.56418">
        <ele>1340</ele>
        <time>2000-01-01T08:17:15.000Z</time>
      </trkpt>
      <trkpt lat="42.7748" lon="0.56433">
        <ele>1331.4</ele>
        <time>2000-01-01T08:17:25.000Z</time>
      </trkpt>
      <trkpt lat="42.77507" lon="0.56482">
        <ele>1320</ele>
        <time>2000-01-01T08:17:35.000Z</time>
      </trkpt>
      <trkpt lat="42.77508" lon="0.56497">
        <ele>1312</ele>
        <time>2000-01-01T08:17:45.000Z</time>
      </trkpt>
      <trkpt lat="42.77512" lon="0.56518">
        <ele>1312</ele>
        <time>2000-01-01T08:17:55.000Z</time>
      </trkpt>
      <trkpt lat="42.77512" lon="0.56526">
        <ele>1309.3</ele>
        <time>2000-01-01T08:18:05.000Z</time>
      </trkpt>
      <trkpt lat="42.77524" lon="0.56552">
        <ele>1309</ele>
        <time>2000-01-01T08:18:15.000Z</time>
      </trkpt>
      <trkpt lat="42.77527" lon="0.56568">
        <ele>1300</ele>
        <time>2000-01-01T08:18:25.000Z</time>
      </trkpt>
      <trkpt lat="42.77531" lon="0.56584">
        <ele>1310</ele>
        <time>2000-01-01T08:18:35.000Z</time>
      </trkpt>
      <trkpt lat="42.77539" lon="0.56611">
        <ele>1307</ele>
        <time>2000-01-01T08:18:45.000Z</time>
      </trkpt>
      <trkpt lat="42.7754" lon="0.56627">
        <ele>1296</ele>
        <time>2000-01-01T08:18:55.000Z</time>
      </trkpt>
      <trkpt lat="42.77546" lon="0.56639">
        <ele>1304</ele>
        <time>2000-01-01T08:19:05.000Z</time>
      </trkpt>
      <trkpt lat="42.77554" lon="0.56653">
        <ele>1290.3</ele>
        <time>2000-01-01T08:19:15.000Z</time>
      </trkpt>
      <trkpt lat="42.7756" lon="0.56667">
        <ele>1299</ele>
        <time>2000-01-01T08:19:25.000Z</time>
      </trkpt>
      <trkpt lat="42.77564" lon="0.56681">
        <ele>1287.4</ele>
        <time>2000-01-01T08:19:35.000Z</time>
      </trkpt>
      <trkpt lat="42.77571" lon="0.56693">
        <ele>1294</ele>
        <time>2000-01-01T08:19:45.000Z</time>
      </trkpt>
      <trkpt lat="42.77567" lon="0.5671">
        <ele>1284.3</ele>
        <time>2000-01-01T08:19:55.000Z</time>
      </trkpt>
      <trkpt lat="42.77566" lon="0.56727">
        <ele>1290</ele>
        <time>2000-01-01T08:20:05.000Z</time>
      </trkpt>
      <trkpt lat="42.77569" lon="0.56743">
        <ele>1275.9</ele>
        <time>2000-01-01T08:20:15.000Z</time>
      </trkpt>
      <trkpt lat="42.77574" lon="0.56757">
        <ele>1282</ele>
        <time>2000-01-01T08:20:25.000Z</time>
      </trkpt>
      <trkpt lat="42.77586" lon="0.56754">
        <ele>1266.3</ele>
        <time>2000-01-01T08:20:35.000Z</time>
      </trkpt>
      <trkpt lat="42.77599" lon="0.56756">
        <ele>1271</ele>
        <time>2000-01-01T08:20:45.000Z</time>
      </trkpt>
      <trkpt lat="42.77608" lon="0.56765">
        <ele>1258.6</ele>
        <time>2000-01-01T08:20:55.000Z</time>
      </trkpt>
      <trkpt lat="42.77612" lon="0.56782">
        <ele>1267</ele>
        <time>2000-01-01T08:21:05.000Z</time>
      </trkpt>
      <trkpt lat="42.77613" lon="0.56799">
        <ele>1256.3</ele>
        <time>2000-01-01T08:21:15.000Z</time>
      </trkpt>
      <trkpt lat="42.77616" lon="0.56814">
        <ele>1264</ele>
        <time>2000-01-01T08:21:25.000Z</time>
      </trkpt>
      <trkpt lat="42.7762" lon="0.56829">
        <ele>1251</ele>
        <time>2000-01-01T08:21:35.000Z</time>
      </trkpt>
      <trkpt lat="42.77625" lon="0.5684">
        <ele>1262</ele>
        <time>2000-01-01T08:21:45.000Z</time>
      </trkpt>
      <trkpt lat="42.77636" lon="0.56845">
        <ele>1246.1</ele>
        <time>2000-01-01T08:21:55.000Z</time>
      </trkpt>
      <trkpt lat="42.77642" lon="0.56857">
        <ele>1257</ele>
        <time>2000-01-01T08:22:05.000Z</time>
      </trkpt>
      <trkpt lat="42.7765" lon="0.56864">
        <ele>1242.8</ele>
        <time>2000-01-01T08:22:15.000Z</time>
      </trkpt>
      <trkpt lat="42.7766" lon="0.5687">
        <ele>1257</ele>
        <time>2000-01-01T08:22:25.000Z</time>
      </trkpt>
      <trkpt lat="42.77671" lon="0.5687">
        <ele>1239.5</ele>
        <time>2000-01-01T08:22:35.000Z</time>
      </trkpt>
      <trkpt lat="42.77673" lon="0.56868">
        <ele>1238.6</ele>
        <time>2000-01-01T08:22:45.000Z</time>
      </trkpt>
      <trkpt lat="42.77674" lon="0.56869">
        <ele>1239</ele>
        <time>2000-01-01T08:22:55.000Z</time>
      </trkpt>
      <trkpt lat="42.77682" lon="0.56867">
        <ele>1253</ele>
        <time>2000-01-01T08:23:05.000Z</time>
      </trkpt>
      <trkpt lat="42.77692" lon="0.56859">
        <ele>1234.2</ele>
        <time>2000-01-01T08:23:15.000Z</time>
      </trkpt>
      <trkpt lat="42.77703" lon="0.56849">
        <ele>1242</ele>
        <time>2000-01-01T08:23:25.000Z</time>
      </trkpt>
      <trkpt lat="42.77716" lon="0.56848">
        <ele>1223.9</ele>
        <time>2000-01-01T08:23:35.000Z</time>
      </trkpt>
      <trkpt lat="42.77729" lon="0.56852">
        <ele>1238</ele>
        <time>2000-01-01T08:23:45.000Z</time>
      </trkpt>
      <trkpt lat="42.77739" lon="0.5686">
        <ele>1215.1</ele>
        <time>2000-01-01T08:23:55.000Z</time>
      </trkpt>
      <trkpt lat="42.77747" lon="0.56872">
        <ele>1228</ele>
        <time>2000-01-01T08:24:05.000Z</time>
      </trkpt>
      <trkpt lat="42.77751" lon="0.56886">
        <ele>1202.4</ele>
        <time>2000-01-01T08:24:15.000Z</time>
      </trkpt>
      <trkpt lat="42.77751" lon="0.56901">
        <ele>1230</ele>
        <time>2000-01-01T08:24:25.000Z</time>
      </trkpt>
      <trkpt lat="42.77747" lon="0.56915">
        <ele>1207.1</ele>
        <time>2000-01-01T08:24:35.000Z</time>
      </trkpt>
      <trkpt lat="42.77742" lon="0.56929">
        <ele>1233</ele>
        <time>2000-01-01T08:24:45.000Z</time>
      </trkpt>
      <trkpt lat="42.77747" lon="0.56942">
        <ele>1218.5</ele>
        <time>2000-01-01T08:24:55.000Z</time>
      </trkpt>
      <trkpt lat="42.77757" lon="0.56936">
        <ele>1233</ele>
        <time>2000-01-01T08:25:05.000Z</time>
      </trkpt>
      <trkpt lat="42.77766" lon="0.56928">
        <ele>1217.6</ele>
        <time>2000-01-01T08:25:15.000Z</time>
      </trkpt>
      <trkpt lat="42.77774" lon="0.56913">
        <ele>1223</ele>
        <time>2000-01-01T08:25:25.000Z</time>
      </trkpt>
      <trkpt lat="42.77782" lon="0.56902">
        <ele>1209.2</ele>
        <time>2000-01-01T08:25:35.000Z</time>
      </trkpt>
      <trkpt lat="42.77788" lon="0.56887">
        <ele>1211</ele>
        <time>2000-01-01T08:25:45.000Z</time>
      </trkpt>
      <trkpt lat="42.77799" lon="0.56881">
        <ele>1207.7</ele>
        <time>2000-01-01T08:25:55.000Z</time>
      </trkpt>
      <trkpt lat="42.77806" lon="0.5687">
        <ele>1202</ele>
        <time>2000-01-01T08:26:05.000Z</time>
      </trkpt>
      <trkpt lat="42.77825" lon="0.56852">
        <ele>1199</ele>
        <time>2000-01-01T08:26:15.000Z</time>
      </trkpt>
      <trkpt lat="42.77816" lon="0.56844">
        <ele>1190.3</ele>
        <time>2000-01-01T08:26:25.000Z</time>
      </trkpt>
      <trkpt lat="42.77821" lon="0.56834">
        <ele>1187.2</ele>
        <time>2000-01-01T08:26:35.000Z</time>
      </trkpt>
      <trkpt lat="42.77829" lon="0.56815">
        <ele>1183</ele>
        <time>2000-01-01T08:26:45.000Z</time>
      </trkpt>
      <trkpt lat="42.7784" lon="0.56812">
        <ele>1182.9</ele>
        <time>2000-01-01T08:26:55.000Z</time>
      </trkpt>
      <trkpt lat="42.77851" lon="0.56818">
        <ele>1182</ele>
        <time>2000-01-01T08:27:05.000Z</time>
      </trkpt>
      <trkpt lat="42.77862" lon="0.56827">
        <ele>1181.4</ele>
        <time>2000-01-01T08:27:15.000Z</time>
      </trkpt>
      <trkpt lat="42.77871" lon="0.56833">
        <ele>1182</ele>
        <time>2000-01-01T08:27:25.000Z</time>
      </trkpt>
      <trkpt lat="42.77879" lon="0.56845">
        <ele>1174</ele>
        <time>2000-01-01T08:27:35.000Z</time>
      </trkpt>
      <trkpt lat="42.77893" lon="0.56869">
        <ele>1178</ele>
        <time>2000-01-01T08:27:45.000Z</time>
      </trkpt>
      <trkpt lat="42.77903" lon="0.56881">
        <ele>1165.8</ele>
        <time>2000-01-01T08:27:55.000Z</time>
      </trkpt>
      <trkpt lat="42.77913" lon="0.56889">
        <ele>1169</ele>
        <time>2000-01-01T08:28:05.000Z</time>
      </trkpt>
      <trkpt lat="42.77932" lon="0.56906">
        <ele>1160</ele>
        <time>2000-01-01T08:28:15.000Z</time>
      </trkpt>
      <trkpt lat="42.7794" lon="0.56918">
        <ele>1151.5</ele>
        <time>2000-01-01T08:28:25.000Z</time>
      </trkpt>
      <trkpt lat="42.77945" lon="0.56932">
        <ele>1154</ele>
        <time>2000-01-01T08:28:35.000Z</time>
      </trkpt>
      <trkpt lat="42.77952" lon="0.56966">
        <ele>1156</ele>
        <time>2000-01-01T08:28:45.000Z</time>
      </trkpt>
      <trkpt lat="42.77945" lon="0.56982">
        <ele>1141.3</ele>
        <time>2000-01-01T08:28:55.000Z</time>
      </trkpt>
      <trkpt lat="42.77941" lon="0.56997">
        <ele>1158</ele>
        <time>2000-01-01T08:29:05.000Z</time>
      </trkpt>
      <trkpt lat="42.77943" lon="0.57011">
        <ele>1142.3</ele>
        <time>2000-01-01T08:29:15.000Z</time>
      </trkpt>
      <trkpt lat="42.77953" lon="0.57016">
        <ele>1155</ele>
        <time>2000-01-01T08:29:25.000Z</time>
      </trkpt>
      <trkpt lat="42.77962" lon="0.57007">
        <ele>1140.3</ele>
        <time>2000-01-01T08:29:35.000Z</time>
      </trkpt>
      <trkpt lat="42.77968" lon="0.56994">
        <ele>1153</ele>
        <time>2000-01-01T08:29:45.000Z</time>
      </trkpt>
      <trkpt lat="42.77978" lon="0.56983">
        <ele>1132</ele>
        <time>2000-01-01T08:29:55.000Z</time>
      </trkpt>
      <trkpt lat="42.77988" lon="0.56977">
        <ele>1142</ele>
        <time>2000-01-01T08:30:05.000Z</time>
      </trkpt>
      <trkpt lat="42.78" lon="0.56973">
        <ele>1130.4</ele>
        <time>2000-01-01T08:30:15.000Z</time>
      </trkpt>
      <trkpt lat="42.78012" lon="0.56974">
        <ele>1139</ele>
        <time>2000-01-01T08:30:25.000Z</time>
      </trkpt>
      <trkpt lat="42.78025" lon="0.56968">
        <ele>1134.2</ele>
        <time>2000-01-01T08:30:35.000Z</time>
      </trkpt>
      <trkpt lat="42.78031" lon="0.56938">
        <ele>1126</ele>
        <time>2000-01-01T08:30:45.000Z</time>
      </trkpt>
      <trkpt lat="42.78036" lon="0.56923">
        <ele>1113</ele>
        <time>2000-01-01T08:30:55.000Z</time>
      </trkpt>
      <trkpt lat="42.78042" lon="0.56912">
        <ele>1120</ele>
        <time>2000-01-01T08:31:05.000Z</time>
      </trkpt>
      <trkpt lat="42.7805" lon="0.56901">
        <ele>1106</ele>
        <time>2000-01-01T08:31:15.000Z</time>
      </trkpt>
      <trkpt lat="42.7806" lon="0.56894">
        <ele>1113</ele>
        <time>2000-01-01T08:31:25.000Z</time>
      </trkpt>
      <trkpt lat="42.78073" lon="0.56894">
        <ele>1104</ele>
        <time>2000-01-01T08:31:35.000Z</time>
      </trkpt>
      <trkpt lat="42.78084" lon="0.56893">
        <ele>1109</ele>
        <time>2000-01-01T08:31:45.000Z</time>
      </trkpt>
      <trkpt lat="42.78096" lon="0.56895">
        <ele>1105</ele>
        <time>2000-01-01T08:31:55.000Z</time>
      </trkpt>
      <trkpt lat="42.78109" lon="0.56894">
        <ele>1106</ele>
        <time>2000-01-01T08:32:05.000Z</time>
      </trkpt>
      <trkpt lat="42.78123" lon="0.56896">
        <ele>1101.8</ele>
        <time>2000-01-01T08:32:15.000Z</time>
      </trkpt>
      <trkpt lat="42.78135" lon="0.56901">
        <ele>1103</ele>
        <time>2000-01-01T08:32:25.000Z</time>
      </trkpt>
      <trkpt lat="42.78145" lon="0.5691">
        <ele>1101.9</ele>
        <time>2000-01-01T08:32:35.000Z</time>
      </trkpt>
      <trkpt lat="42.78154" lon="0.5692">
        <ele>1103</ele>
        <time>2000-01-01T08:32:45.000Z</time>
      </trkpt>
      <trkpt lat="42.78153" lon="0.56908">
        <ele>1099.8</ele>
        <time>2000-01-01T08:32:55.000Z</time>
      </trkpt>
      <trkpt lat="42.78145" lon="0.56895">
        <ele>1099</ele>
        <time>2000-01-01T08:33:05.000Z</time>
      </trkpt>
      <trkpt lat="42.78137" lon="0.56884">
        <ele>1094.8</ele>
        <time>2000-01-01T08:33:15.000Z</time>
      </trkpt>
      <trkpt lat="42.78124" lon="0.56872">
        <ele>1095</ele>
        <time>2000-01-01T08:33:25.000Z</time>
      </trkpt>
      <trkpt lat="42.78101" lon="0.56856">
        <ele>1096</ele>
        <time>2000-01-01T08:33:35.000Z</time>
      </trkpt>
      <trkpt lat="42.78089" lon="0.56853">
        <ele>1086.9</ele>
        <time>2000-01-01T08:33:45.000Z</time>
      </trkpt>
      <trkpt lat="42.78081" lon="0.56848">
        <ele>1094</ele>
        <time>2000-01-01T08:33:55.000Z</time>
      </trkpt>
      <trkpt lat="42.78088" lon="0.56837">
        <ele>1088.2</ele>
        <time>2000-01-01T08:34:05.000Z</time>
      </trkpt>
      <trkpt lat="42.78097" lon="0.56827">
        <ele>1092</ele>
        <time>2000-01-01T08:34:15.000Z</time>
      </trkpt>
      <trkpt lat="42.78117" lon="0.56809">
        <ele>1084</ele>
        <time>2000-01-01T08:34:25.000Z</time>
      </trkpt>
      <trkpt lat="42.7812" lon="0.56794">
        <ele>1080.5</ele>
        <time>2000-01-01T08:34:35.000Z</time>
      </trkpt>
      <trkpt lat="42.78117" lon="0.56779">
        <ele>1082</ele>
        <time>2000-01-01T08:34:45.000Z</time>
      </trkpt>
      <trkpt lat="42.78113" lon="0.56746">
        <ele>1081</ele>
        <time>2000-01-01T08:34:55.000Z</time>
      </trkpt>
      <trkpt lat="42.78113" lon="0.56731">
        <ele>1076.5</ele>
        <time>2000-01-01T08:35:05.000Z</time>
      </trkpt>
      <trkpt lat="42.78107" lon="0.56718">
        <ele>1081</ele>
        <time>2000-01-01T08:35:15.000Z</time>
      </trkpt>
      <trkpt lat="42.78107" lon="0.56701">
        <ele>1077.3</ele>
        <time>2000-01-01T08:35:25.000Z</time>
      </trkpt>
      <trkpt lat="42.78111" lon="0.56685">
        <ele>1078</ele>
        <time>2000-01-01T08:35:35.000Z</time>
      </trkpt>
      <trkpt lat="42.78119" lon="0.56674">
        <ele>1074.5</ele>
        <time>2000-01-01T08:35:45.000Z</time>
      </trkpt>
      <trkpt lat="42.78119" lon="0.56656">
        <ele>1076</ele>
        <time>2000-01-01T08:35:55.000Z</time>
      </trkpt>
      <trkpt lat="42.78123" lon="0.56641">
        <ele>1072.1</ele>
        <time>2000-01-01T08:36:05.000Z</time>
      </trkpt>
      <trkpt lat="42.78127" lon="0.5661">
        <ele>1072</ele>
        <time>2000-01-01T08:36:15.000Z</time>
      </trkpt>
      <trkpt lat="42.78137" lon="0.56582">
        <ele>1070</ele>
        <time>2000-01-01T08:36:25.000Z</time>
      </trkpt>
      <trkpt lat="42.78141" lon="0.56568">
        <ele>1067.1</ele>
        <time>2000-01-01T08:36:35.000Z</time>
      </trkpt>
      <trkpt lat="42.78159" lon="0.56525">
        <ele>1064</ele>
        <time>2000-01-01T08:36:45.000Z</time>
      </trkpt>
      <trkpt lat="42.78172" lon="0.56498">
        <ele>1063</ele>
        <time>2000-01-01T08:36:55.000Z</time>
      </trkpt>
      <trkpt lat="42.78208" lon="0.56454">
        <ele>1059</ele>
        <time>2000-01-01T08:37:05.000Z</time>
      </trkpt>
      <trkpt lat="42.78215" lon="0.5644">
        <ele>1055.5</ele>
        <time>2000-01-01T08:37:15.000Z</time>
      </trkpt>
      <trkpt lat="42.7822" lon="0.56427">
        <ele>1055</ele>
        <time>2000-01-01T08:37:25.000Z</time>
      </trkpt>
      <trkpt lat="42.7822" lon="0.56412">
        <ele>1052.3</ele>
        <time>2000-01-01T08:37:35.000Z</time>
      </trkpt>
      <trkpt lat="42.78223" lon="0.56393">
        <ele>1054</ele>
        <time>2000-01-01T08:37:45.000Z</time>
      </trkpt>
      <trkpt lat="42.78226" lon="0.56389">
        <ele>1051.1</ele>
        <time>2000-01-01T08:37:55.000Z</time>
      </trkpt>
      <trkpt lat="42.78237" lon="0.56385">
        <ele>1052.2</ele>
        <time>2000-01-01T08:38:05.000Z</time>
      </trkpt>
      <trkpt lat="42.78254" lon="0.56385">
        <ele>1053</ele>
        <time>2000-01-01T08:38:15.000Z</time>
      </trkpt>
      <trkpt lat="42.78273" lon="0.56388">
        <ele>1053</ele>
        <time>2000-01-01T08:38:25.000Z</time>
      </trkpt>
      <trkpt lat="42.78283" lon="0.56391">
        <ele>1052</ele>
        <time>2000-01-01T08:38:35.000Z</time>
      </trkpt>
      <trkpt lat="42.78291" lon="0.56397">
        <ele>1052.9</ele>
        <time>2000-01-01T08:38:45.000Z</time>
      </trkpt>
      <trkpt lat="42.78317" lon="0.56413">
        <ele>1050</ele>
        <time>2000-01-01T08:38:55.000Z</time>
      </trkpt>
      <trkpt lat="42.78329" lon="0.56419">
        <ele>1050.2</ele>
        <time>2000-01-01T08:39:05.000Z</time>
      </trkpt>
      <trkpt lat="42.7834" lon="0.56422">
        <ele>1050</ele>
        <time>2000-01-01T08:39:15.000Z</time>
      </trkpt>
      <trkpt lat="42.7835" lon="0.56429">
        <ele>1048</ele>
        <time>2000-01-01T08:39:25.000Z</time>
      </trkpt>
      <trkpt lat="42.78346" lon="0.56433">
        <ele>1046.8</ele>
        <time>2000-01-01T08:39:35.000Z</time>
      </trkpt>
      <trkpt lat="42.78344" lon="0.56483">
        <ele>1036</ele>
        <time>2000-01-01T08:39:45.000Z</time>
      </trkpt>
      <trkpt lat="42.78337" lon="0.56496">
        <ele>1033.2</ele>
        <time>2000-01-01T08:39:55.000Z</time>
      </trkpt>
      <trkpt lat="42.78333" lon="0.56498">
        <ele>1032.5</ele>
        <time>2000-01-01T08:40:05.000Z</time>
      </trkpt>
      <trkpt lat="42.78321" lon="0.56492">
        <ele>1037</ele>
        <time>2000-01-01T08:40:15.000Z</time>
      </trkpt>
      <trkpt lat="42.78309" lon="0.5649">
        <ele>1032.8</ele>
        <time>2000-01-01T08:40:25.000Z</time>
      </trkpt>
      <trkpt lat="42.78297" lon="0.56492">
        <ele>1034</ele>
        <time>2000-01-01T08:40:35.000Z</time>
      </trkpt>
      <trkpt lat="42.78296" lon="0.56497">
        <ele>1031.9</ele>
        <time>2000-01-01T08:40:45.000Z</time>
      </trkpt>
      <trkpt lat="42.78296" lon="0.56505">
        <ele>1031</ele>
        <time>2000-01-01T08:40:55.000Z</time>
      </trkpt>
      <trkpt lat="42.78301" lon="0.56515">
        <ele>1029.3</ele>
        <time>2000-01-01T08:41:05.000Z</time>
      </trkpt>
      <trkpt lat="42.78314" lon="0.56528">
        <ele>1031</ele>
        <time>2000-01-01T08:41:15.000Z</time>
      </trkpt>
      <trkpt lat="42.78321" lon="0.56539">
        <ele>1024.9</ele>
        <time>2000-01-01T08:41:25.000Z</time>
      </trkpt>
      <trkpt lat="42.78327" lon="0.56555">
        <ele>1026</ele>
        <time>2000-01-01T08:41:35.000Z</time>
      </trkpt>
      <trkpt lat="42.78352" lon="0.56595">
        <ele>1016</ele>
        <time>2000-01-01T08:41:45.000Z</time>
      </trkpt>
      <trkpt lat="42.78364" lon="0.56624">
        <ele>1011</ele>
        <time>2000-01-01T08:41:55.000Z</time>
      </trkpt>
      <trkpt lat="42.78371" lon="0.56638">
        <ele>1012.4</ele>
        <time>2000-01-01T08:42:05.000Z</time>
      </trkpt>
      <trkpt lat="42.78365" lon="0.56683">
        <ele>1009</ele>
        <time>2000-01-01T08:42:15.000Z</time>
      </trkpt>
      <trkpt lat="42.7836" lon="0.56703">
        <ele>1006.1</ele>
        <time>2000-01-01T08:42:25.000Z</time>
      </trkpt>
      <trkpt lat="42.7835" lon="0.5671">
        <ele>1008</ele>
        <time>2000-01-01T08:42:35.000Z</time>
      </trkpt>
      <trkpt lat="42.78342" lon="0.56722">
        <ele>1001.2</ele>
        <time>2000-01-01T08:42:45.000Z</time>
      </trkpt>
      <trkpt lat="42.78336" lon="0.56735">
        <ele>1008</ele>
        <time>2000-01-01T08:42:55.000Z</time>
      </trkpt>
      <trkpt lat="42.78328" lon="0.5675">
        <ele>993.9</ele>
        <time>2000-01-01T08:43:05.000Z</time>
      </trkpt>
      <trkpt lat="42.78317" lon="0.56759">
        <ele>1008</ele>
        <time>2000-01-01T08:43:15.000Z</time>
      </trkpt>
      <trkpt lat="42.78319" lon="0.56744">
        <ele>999.4</ele>
        <time>2000-01-01T08:43:25.000Z</time>
      </trkpt>
      <trkpt lat="42.78331" lon="0.56745">
        <ele>1001</ele>
        <time>2000-01-01T08:43:35.000Z</time>
      </trkpt>
      <trkpt lat="42.78343" lon="0.56753">
        <ele>989.8</ele>
        <time>2000-01-01T08:43:45.000Z</time>
      </trkpt>
      <trkpt lat="42.78354" lon="0.56759">
        <ele>995</ele>
        <time>2000-01-01T08:43:55.000Z</time>
      </trkpt>
      <trkpt lat="42.78385" lon="0.5678">
        <ele>985</ele>
        <time>2000-01-01T08:44:05.000Z</time>
      </trkpt>
      <trkpt lat="42.78393" lon="0.56792">
        <ele>983.1</ele>
        <time>2000-01-01T08:44:15.000Z</time>
      </trkpt>
      <trkpt lat="42.784" lon="0.56805">
        <ele>984</ele>
        <time>2000-01-01T08:44:25.000Z</time>
      </trkpt>
      <trkpt lat="42.78423" lon="0.56813">
        <ele>981</ele>
        <time>2000-01-01T08:44:35.000Z</time>
      </trkpt>
      <trkpt lat="42.78432" lon="0.56822">
        <ele>981.1</ele>
        <time>2000-01-01T08:44:45.000Z</time>
      </trkpt>
      <trkpt lat="42.78442" lon="0.56826">
        <ele>979</ele>
        <time>2000-01-01T08:44:55.000Z</time>
      </trkpt>
      <trkpt lat="42.78454" lon="0.56827">
        <ele>978.2</ele>
        <time>2000-01-01T08:45:05.000Z</time>
      </trkpt>
      <trkpt lat="42.78466" lon="0.56835">
        <ele>979</ele>
        <time>2000-01-01T08:45:15.000Z</time>
      </trkpt>
      <trkpt lat="42.78476" lon="0.56845">
        <ele>977.4</ele>
        <time>2000-01-01T08:45:25.000Z</time>
      </trkpt>
      <trkpt lat="42.78487" lon="0.56854">
        <ele>978</ele>
        <time>2000-01-01T08:45:35.000Z</time>
      </trkpt>
      <trkpt lat="42.78503" lon="0.56875">
        <ele>974</ele>
        <time>2000-01-01T08:45:45.000Z</time>
      </trkpt>
      <trkpt lat="42.78517" lon="0.569">
        <ele>970</ele>
        <time>2000-01-01T08:45:55.000Z</time>
      </trkpt>
      <trkpt lat="42.78523" lon="0.56913">
        <ele>968.2</ele>
        <time>2000-01-01T08:46:05.000Z</time>
      </trkpt>
      <trkpt lat="42.78535" lon="0.56946">
        <ele>966</ele>
        <time>2000-01-01T08:46:15.000Z</time>
      </trkpt>
      <trkpt lat="42.78538" lon="0.56961">
        <ele>962.6</ele>
        <time>2000-01-01T08:46:25.000Z</time>
      </trkpt>
      <trkpt lat="42.78542" lon="0.56976">
        <ele>963</ele>
        <time>2000-01-01T08:46:35.000Z</time>
      </trkpt>
      <trkpt lat="42.78544" lon="0.56992">
        <ele>963.3</ele>
        <time>2000-01-01T08:46:45.000Z</time>
      </trkpt>
      <trkpt lat="42.78551" lon="0.57006">
        <ele>961</ele>
        <time>2000-01-01T08:46:55.000Z</time>
      </trkpt>
      <trkpt lat="42.7856" lon="0.57018">
        <ele>956.1</ele>
        <time>2000-01-01T08:47:05.000Z</time>
      </trkpt>
      <trkpt lat="42.78565" lon="0.57031">
        <ele>956</ele>
        <time>2000-01-01T08:47:15.000Z</time>
      </trkpt>
      <trkpt lat="42.78575" lon="0.57052">
        <ele>954.3</ele>
        <time>2000-01-01T08:47:25.000Z</time>
      </trkpt>
      <trkpt lat="42.78599" lon="0.57089">
        <ele>953</ele>
        <time>2000-01-01T08:47:35.000Z</time>
      </trkpt>
      <trkpt lat="42.78608" lon="0.57098">
        <ele>949</ele>
        <time>2000-01-01T08:47:45.000Z</time>
      </trkpt>
      <trkpt lat="42.78613" lon="0.571">
        <ele>947</ele>
        <time>2000-01-01T08:47:55.000Z</time>
      </trkpt>
      <trkpt lat="42.78632" lon="0.57122">
        <ele>944</ele>
        <time>2000-01-01T08:48:05.000Z</time>
      </trkpt>
      <trkpt lat="42.78642" lon="0.57131">
        <ele>938.7</ele>
        <time>2000-01-01T08:48:15.000Z</time>
      </trkpt>
      <trkpt lat="42.78658" lon="0.57155">
        <ele>940</ele>
        <time>2000-01-01T08:48:25.000Z</time>
      </trkpt>
      <trkpt lat="42.78676" lon="0.57174">
        <ele>933</ele>
        <time>2000-01-01T08:48:35.000Z</time>
      </trkpt>
      <trkpt lat="42.78694" lon="0.57191">
        <ele>929</ele>
        <time>2000-01-01T08:48:45.000Z</time>
      </trkpt>
      <trkpt lat="42.78702" lon="0.57202">
        <ele>924.4</ele>
        <time>2000-01-01T08:48:55.000Z</time>
      </trkpt>
      <trkpt lat="42.78714" lon="0.57214">
        <ele>925</ele>
        <time>2000-01-01T08:49:05.000Z</time>
      </trkpt>
      <trkpt lat="42.7872" lon="0.57226">
        <ele>921.6</ele>
        <time>2000-01-01T08:49:15.000Z</time>
      </trkpt>
      <trkpt lat="42.7873" lon="0.57238">
        <ele>922</ele>
        <time>2000-01-01T08:49:25.000Z</time>
      </trkpt>
      <trkpt lat="42.78737" lon="0.5725">
        <ele>918.7</ele>
        <time>2000-01-01T08:49:35.000Z</time>
      </trkpt>
      <trkpt lat="42.78746" lon="0.57259">
        <ele>918</ele>
        <time>2000-01-01T08:49:45.000Z</time>
      </trkpt>
      <trkpt lat="42.78753" lon="0.57263">
        <ele>913.7</ele>
        <time>2000-01-01T08:49:55.000Z</time>
      </trkpt>
      <trkpt lat="42.78761" lon="0.57275">
        <ele>911.7</ele>
        <time>2000-01-01T08:50:05.000Z</time>
      </trkpt>
      <trkpt lat="42.78766" lon="0.57285">
        <ele>914</ele>
        <time>2000-01-01T08:50:15.000Z</time>
      </trkpt>
      <trkpt lat="42.78774" lon="0.57305">
        <ele>908.6</ele>
        <time>2000-01-01T08:50:25.000Z</time>
      </trkpt>
      <trkpt lat="42.78801" lon="0.57334">
        <ele>904</ele>
        <time>2000-01-01T08:50:35.000Z</time>
      </trkpt>
      <trkpt lat="42.78809" lon="0.57353">
        <ele>900.8</ele>
        <time>2000-01-01T08:50:45.000Z</time>
      </trkpt>
      <trkpt lat="42.78822" lon="0.57377">
        <ele>901</ele>
        <time>2000-01-01T08:50:55.000Z</time>
      </trkpt>
      <trkpt lat="42.78831" lon="0.57382">
        <ele>897.9</ele>
        <time>2000-01-01T08:51:05.000Z</time>
      </trkpt>
      <trkpt lat="42.78839" lon="0.57388">
        <ele>897.6</ele>
        <time>2000-01-01T08:51:15.000Z</time>
      </trkpt>
      <trkpt lat="42.78848" lon="0.57396">
        <ele>899</ele>
        <time>2000-01-01T08:51:25.000Z</time>
      </trkpt>
      <trkpt lat="42.78861" lon="0.57411">
        <ele>894.8</ele>
        <time>2000-01-01T08:51:35.000Z</time>
      </trkpt>
      <trkpt lat="42.78873" lon="0.5742">
        <ele>895</ele>
        <time>2000-01-01T08:51:45.000Z</time>
      </trkpt>
      <trkpt lat="42.78908" lon="0.57443">
        <ele>891</ele>
        <time>2000-01-01T08:51:55.000Z</time>
      </trkpt>
      <trkpt lat="42.78916" lon="0.5745">
        <ele>887.3</ele>
        <time>2000-01-01T08:52:05.000Z</time>
      </trkpt>
      <trkpt lat="42.78925" lon="0.57462">
        <ele>887</ele>
        <time>2000-01-01T08:52:15.000Z</time>
      </trkpt>
      <trkpt lat="42.78937" lon="0.57472">
        <ele>883.6</ele>
        <time>2000-01-01T08:52:25.000Z</time>
      </trkpt>
      <trkpt lat="42.78945" lon="0.57484">
        <ele>883</ele>
        <time>2000-01-01T08:52:35.000Z</time>
      </trkpt>
      <trkpt lat="42.78954" lon="0.57504">
        <ele>879.2</ele>
        <time>2000-01-01T08:52:45.000Z</time>
      </trkpt>
      <trkpt lat="42.7897" lon="0.57522">
        <ele>878</ele>
        <time>2000-01-01T08:52:55.000Z</time>
      </trkpt>
      <trkpt lat="42.78979" lon="0.57537">
        <ele>873.9</ele>
        <time>2000-01-01T08:53:05.000Z</time>
      </trkpt>
      <trkpt lat="42.78996" lon="0.57558">
        <ele>872</ele>
        <time>2000-01-01T08:53:15.000Z</time>
      </trkpt>
      <trkpt lat="42.79014" lon="0.57591">
        <ele>870</ele>
        <time>2000-01-01T08:53:25.000Z</time>
      </trkpt>
      <trkpt lat="42.79029" lon="0.57608">
        <ele>864.5</ele>
        <time>2000-01-01T08:53:35.000Z</time>
      </trkpt>
      <trkpt lat="42.79035" lon="0.57618">
        <ele>864</ele>
        <time>2000-01-01T08:53:45.000Z</time>
      </trkpt>
      <trkpt lat="42.7904" lon="0.57628">
        <ele>861.4</ele>
        <time>2000-01-01T08:53:55.000Z</time>
      </trkpt>
      <trkpt lat="42.79051" lon="0.57644">
        <ele>859</ele>
        <time>2000-01-01T08:54:05.000Z</time>
      </trkpt>
      <trkpt lat="42.7906" lon="0.57659">
        <ele>855.4</ele>
        <time>2000-01-01T08:54:15.000Z</time>
      </trkpt>
      <trkpt lat="42.79064" lon="0.5767">
        <ele>855</ele>
        <time>2000-01-01T08:54:25.000Z</time>
      </trkpt>
      <trkpt lat="42.79075" lon="0.57691">
        <ele>851.5</ele>
        <time>2000-01-01T08:54:35.000Z</time>
      </trkpt>
      <trkpt lat="42.7908" lon="0.5769">
        <ele>853</ele>
        <time>2000-01-01T08:54:45.000Z</time>
      </trkpt>
      <trkpt lat="42.79088" lon="0.57679">
        <ele>847.4</ele>
        <time>2000-01-01T08:54:55.000Z</time>
      </trkpt>
      <trkpt lat="42.79098" lon="0.57685">
        <ele>847</ele>
        <time>2000-01-01T08:55:05.000Z</time>
      </trkpt>
      <trkpt lat="42.79101" lon="0.57704">
        <ele>841.5</ele>
        <time>2000-01-01T08:55:15.000Z</time>
      </trkpt>
      <trkpt lat="42.791" lon="0.57722">
        <ele>844</ele>
        <time>2000-01-01T08:55:25.000Z</time>
      </trkpt>
      <trkpt lat="42.7909" lon="0.57736">
        <ele>837.6</ele>
        <time>2000-01-01T08:55:35.000Z</time>
      </trkpt>
      <trkpt lat="42.79086" lon="0.57737">
        <ele>838.2</ele>
        <time>2000-01-01T08:55:45.000Z</time>
      </trkpt>
      <trkpt lat="42.79085" lon="0.57743">
        <ele>837</ele>
        <time>2000-01-01T08:55:55.000Z</time>
      </trkpt>
      <trkpt lat="42.79086" lon="0.57748">
        <ele>834.9</ele>
        <time>2000-01-01T08:56:05.000Z</time>
      </trkpt>
      <trkpt lat="42.79091" lon="0.57756">
        <ele>833.7</ele>
        <time>2000-01-01T08:56:15.000Z</time>
      </trkpt>
      <trkpt lat="42.79096" lon="0.57766">
        <ele>829</ele>
        <time>2000-01-01T08:56:25.000Z</time>
      </trkpt>
      <trkpt lat="42.79103" lon="0.57773">
        <ele>831.9</ele>
        <time>2000-01-01T08:56:35.000Z</time>
      </trkpt>
      <trkpt lat="42.79111" lon="0.57779">
        <ele>829.8</ele>
        <time>2000-01-01T08:56:45.000Z</time>
      </trkpt>
      <trkpt lat="42.79118" lon="0.5779">
        <ele>822</ele>
        <time>2000-01-01T08:56:55.000Z</time>
      </trkpt>
      <trkpt lat="42.79125" lon="0.57797">
        <ele>819.8</ele>
        <time>2000-01-01T08:57:05.000Z</time>
      </trkpt>
      <trkpt lat="42.79132" lon="0.57806">
        <ele>814.2</ele>
        <time>2000-01-01T08:57:15.000Z</time>
      </trkpt>
      <trkpt lat="42.79142" lon="0.5784">
        <ele>809</ele>
        <time>2000-01-01T08:57:25.000Z</time>
      </trkpt>
      <trkpt lat="42.79138" lon="0.57862">
        <ele>802.2</ele>
        <time>2000-01-01T08:57:35.000Z</time>
      </trkpt>
      <trkpt lat="42.79133" lon="0.57876">
        <ele>803</ele>
        <time>2000-01-01T08:57:45.000Z</time>
      </trkpt>
      <trkpt lat="42.79129" lon="0.57891">
        <ele>798.6</ele>
        <time>2000-01-01T08:57:55.000Z</time>
      </trkpt>
      <trkpt lat="42.79127" lon="0.57908">
        <ele>800</ele>
        <time>2000-01-01T08:58:05.000Z</time>
      </trkpt>
      <trkpt lat="42.79129" lon="0.57923">
        <ele>792.4</ele>
        <time>2000-01-01T08:58:15.000Z</time>
      </trkpt>
      <trkpt lat="42.79134" lon="0.57938">
        <ele>791</ele>
        <time>2000-01-01T08:58:25.000Z</time>
      </trkpt>
      <trkpt lat="42.79147" lon="0.5799">
        <ele>774</ele>
        <time>2000-01-01T08:58:35.000Z</time>
      </trkpt>
      <trkpt lat="42.79146" lon="0.5801">
        <ele>761</ele>
        <time>2000-01-01T08:58:45.000Z</time>
      </trkpt>
      <trkpt lat="42.79144" lon="0.58025">
        <ele>760</ele>
        <time>2000-01-01T08:58:55.000Z</time>
      </trkpt>
      <trkpt lat="42.7914" lon="0.58044">
        <ele>751.5</ele>
        <time>2000-01-01T08:59:05.000Z</time>
      </trkpt>
      <trkpt lat="42.79138" lon="0.58059">
        <ele>755</ele>
        <time>2000-01-01T08:59:15.000Z</time>
      </trkpt>
      <trkpt lat="42.79134" lon="0.58075">
        <ele>744.5</ele>
        <time>2000-01-01T08:59:25.000Z</time>
      </trkpt>
      <trkpt lat="42.79128" lon="0.58083">
        <ele>756</ele>
        <time>2000-01-01T08:59:35.000Z</time>
      </trkpt>
      <trkpt lat="42.79124" lon="0.58101">
        <ele>747.7</ele>
        <time>2000-01-01T08:59:45.000Z</time>
      </trkpt>
      <trkpt lat="42.79118" lon="0.58111">
        <ele>753</ele>
        <time>2000-01-01T08:59:55.000Z</time>
      </trkpt>
      <trkpt lat="42.79119" lon="0.58142">
        <ele>751</ele>
        <time>2000-01-01T09:00:05.000Z</time>
      </trkpt>
      <trkpt lat="42.79123" lon="0.58157">
        <ele>738.5</ele>
        <time>2000-01-01T09:00:15.000Z</time>
      </trkpt>
      <trkpt lat="42.79126" lon="0.58171">
        <ele>744</ele>
        <time>2000-01-01T09:00:25.000Z</time>
      </trkpt>
      <trkpt lat="42.79123" lon="0.58186">
        <ele>732.7</ele>
        <time>2000-01-01T09:00:35.000Z</time>
      </trkpt>
      <trkpt lat="42.79118" lon="0.582">
        <ele>738</ele>
        <time>2000-01-01T09:00:45.000Z</time>
      </trkpt>
      <trkpt lat="42.79114" lon="0.58232">
        <ele>730</ele>
        <time>2000-01-01T09:00:55.000Z</time>
      </trkpt>
      <trkpt lat="42.79115" lon="0.58248">
        <ele>723.6</ele>
        <time>2000-01-01T09:01:05.000Z</time>
      </trkpt>
      <trkpt lat="42.79115" lon="0.58264">
        <ele>724</ele>
        <time>2000-01-01T09:01:15.000Z</time>
      </trkpt>
      <trkpt lat="42.79118" lon="0.58279">
        <ele>716.8</ele>
        <time>2000-01-01T09:01:25.000Z</time>
      </trkpt>
      <trkpt lat="42.79115" lon="0.58295">
        <ele>718</ele>
        <time>2000-01-01T09:01:35.000Z</time>
      </trkpt>
      <trkpt lat="42.79117" lon="0.58313">
        <ele>709.8</ele>
        <time>2000-01-01T09:01:45.000Z</time>
      </trkpt>
      <trkpt lat="42.79115" lon="0.58329">
        <ele>708</ele>
        <time>2000-01-01T09:01:55.000Z</time>
      </trkpt>
      <trkpt lat="42.79121" lon="0.58343">
        <ele>700.8</ele>
        <time>2000-01-01T09:02:05.000Z</time>
      </trkpt>
      <trkpt lat="42.79126" lon="0.58357">
        <ele>700</ele>
        <time>2000-01-01T09:02:15.000Z</time>
      </trkpt>
      <trkpt lat="42.7913" lon="0.58371">
        <ele>694.4</ele>
        <time>2000-01-01T09:02:25.000Z</time>
      </trkpt>
      <trkpt lat="42.79126" lon="0.58404">
        <ele>695</ele>
        <time>2000-01-01T09:02:35.000Z</time>
      </trkpt>
      <trkpt lat="42.79127" lon="0.58419">
        <ele>692.3</ele>
        <time>2000-01-01T09:02:45.000Z</time>
      </trkpt>
      <trkpt lat="42.79127" lon="0.58434">
        <ele>693</ele>
        <time>2000-01-01T09:02:55.000Z</time>
      </trkpt>
      <trkpt lat="42.79126" lon="0.58448">
        <ele>690.9</ele>
        <time>2000-01-01T09:03:05.000Z</time>
      </trkpt>
      <trkpt lat="42.79131" lon="0.58462">
        <ele>690</ele>
        <time>2000-01-01T09:03:15.000Z</time>
      </trkpt>
      <trkpt lat="42.79134" lon="0.58476">
        <ele>680.6</ele>
        <time>2000-01-01T09:03:25.000Z</time>
      </trkpt>
      <trkpt lat="42.79136" lon="0.58491">
        <ele>680</ele>
        <time>2000-01-01T09:03:35.000Z</time>
      </trkpt>
      <trkpt lat="42.79142" lon="0.58521">
        <ele>678</ele>
        <time>2000-01-01T09:03:45.000Z</time>
      </trkpt>
      <trkpt lat="42.79138" lon="0.58567">
        <ele>677</ele>
        <time>2000-01-01T09:03:55.000Z</time>
      </trkpt>
      <trkpt lat="42.79138" lon="0.58596">
        <ele>669</ele>
        <time>2000-01-01T09:04:05.000Z</time>
      </trkpt>
      <trkpt lat="42.79139" lon="0.58612">
        <ele>663.7</ele>
        <time>2000-01-01T09:04:15.000Z</time>
      </trkpt>
      <trkpt lat="42.79136" lon="0.5864">
        <ele>660</ele>
        <time>2000-01-01T09:04:25.000Z</time>
      </trkpt>
      <trkpt lat="42.79122" lon="0.58657">
        <ele>652.8</ele>
        <time>2000-01-01T09:04:35.000Z</time>
      </trkpt>
      <trkpt lat="42.79111" lon="0.58668">
        <ele>659</ele>
        <time>2000-01-01T09:04:45.000Z</time>
      </trkpt>
      <trkpt lat="42.79103" lon="0.58667">
        <ele>651.8</ele>
        <time>2000-01-01T09:04:55.000Z</time>
      </trkpt>
      <trkpt lat="42.79094" lon="0.58662">
        <ele>654.3</ele>
        <time>2000-01-01T09:05:05.000Z</time>
      </trkpt>
      <trkpt lat="42.79086" lon="0.58659">
        <ele>659</ele>
        <time>2000-01-01T09:05:15.000Z</time>
      </trkpt>
      <trkpt lat="42.79074" lon="0.58656">
        <ele>658.7</ele>
        <time>2000-01-01T09:05:25.000Z</time>
      </trkpt>
      <trkpt lat="42.79059" lon="0.58653">
        <ele>661</ele>
        <time>2000-01-01T09:05:35.000Z</time>
      </trkpt>
      <trkpt lat="42.79051" lon="0.58653">
        <ele>662</ele>
        <time>2000-01-01T09:05:45.000Z</time>
      </trkpt>
      <trkpt lat="42.79038" lon="0.58655">
        <ele>664</ele>
        <time>2000-01-01T09:05:55.000Z</time>
      </trkpt>
      <trkpt lat="42.79031" lon="0.58658">
        <ele>662.4</ele>
        <time>2000-01-01T09:06:05.000Z</time>
      </trkpt>
      <trkpt lat="42.79015" lon="0.5866">
        <ele>670</ele>
        <time>2000-01-01T09:06:15.000Z</time>
      </trkpt>
      <trkpt lat="42.79004" lon="0.58665">
        <ele>665.6</ele>
        <time>2000-01-01T09:06:25.000Z</time>
      </trkpt>
      <trkpt lat="42.78994" lon="0.58665">
        <ele>672</ele>
        <time>2000-01-01T09:06:35.000Z</time>
      </trkpt>
      <trkpt lat="42.78987" lon="0.58668">
        <ele>670.2</ele>
        <time>2000-01-01T09:06:45.000Z</time>
      </trkpt>
      <trkpt lat="42.78971" lon="0.58678">
        <ele>673</ele>
        <time>2000-01-01T09:06:55.000Z</time>
      </trkpt>
      <trkpt lat="42.78962" lon="0.58682">
        <ele>674</ele>
        <time>2000-01-01T09:07:05.000Z</time>
      </trkpt>
      <trkpt lat="42.78955" lon="0.58687">
        <ele>675.1</ele>
        <time>2000-01-01T09:07:15.000Z</time>
      </trkpt>
      <trkpt lat="42.78948" lon="0.58694">
        <ele>679</ele>
        <time>2000-01-01T09:07:25.000Z</time>
      </trkpt>
      <trkpt lat="42.78941" lon="0.58699">
        <ele>676.6</ele>
        <time>2000-01-01T09:07:35.000Z</time>
      </trkpt>
      <trkpt lat="42.78933" lon="0.58703">
        <ele>678.7</ele>
        <time>2000-01-01T09:07:45.000Z</time>
      </trkpt>
      <trkpt lat="42.78918" lon="0.58713">
        <ele>685</ele>
        <time>2000-01-01T09:07:55.000Z</time>
      </trkpt>
      <trkpt lat="42.7891" lon="0.58717">
        <ele>683.6</ele>
        <time>2000-01-01T09:08:05.000Z</time>
      </trkpt>
      <trkpt lat="42.78903" lon="0.58723">
        <ele>685.1</ele>
        <time>2000-01-01T09:08:15.000Z</time>
      </trkpt>
      <trkpt lat="42.78895" lon="0.58726">
        <ele>693</ele>
        <time>2000-01-01T09:08:25.000Z</time>
      </trkpt>
      <trkpt lat="42.78889" lon="0.58732">
        <ele>689.4</ele>
        <time>2000-01-01T09:08:35.000Z</time>
      </trkpt>
      <trkpt lat="42.78877" lon="0.58742">
        <ele>696</ele>
        <time>2000-01-01T09:08:45.000Z</time>
      </trkpt>
      <trkpt lat="42.78872" lon="0.5875">
        <ele>692.1</ele>
        <time>2000-01-01T09:08:55.000Z</time>
      </trkpt>
      <trkpt lat="42.78865" lon="0.58757">
        <ele>693.9</ele>
        <time>2000-01-01T09:09:05.000Z</time>
      </trkpt>
      <trkpt lat="42.78852" lon="0.58772">
        <ele>697</ele>
        <time>2000-01-01T09:09:15.000Z</time>
      </trkpt>
      <trkpt lat="42.78846" lon="0.58781">
        <ele>696</ele>
        <time>2000-01-01T09:09:25.000Z</time>
      </trkpt>
      <trkpt lat="42.78826" lon="0.58801">
        <ele>697</ele>
        <time>2000-01-01T09:09:35.000Z</time>
      </trkpt>
      <trkpt lat="42.78808" lon="0.58817">
        <ele>698</ele>
        <time>2000-01-01T09:09:45.000Z</time>
      </trkpt>
      <trkpt lat="42.78799" lon="0.58828">
        <ele>695.9</ele>
        <time>2000-01-01T09:09:55.000Z</time>
      </trkpt>
      <trkpt lat="42.78786" lon="0.58838">
        <ele>699</ele>
        <time>2000-01-01T09:10:05.000Z</time>
      </trkpt>
      <trkpt lat="42.78773" lon="0.58852">
        <ele>695.9</ele>
        <time>2000-01-01T09:10:15.000Z</time>
      </trkpt>
      <trkpt lat="42.78755" lon="0.58866">
        <ele>699</ele>
        <time>2000-01-01T09:10:25.000Z</time>
      </trkpt>
      <trkpt lat="42.78743" lon="0.5888">
        <ele>699.5</ele>
        <time>2000-01-01T09:10:35.000Z</time>
      </trkpt>
      <trkpt lat="42.78736" lon="0.58891">
        <ele>699</ele>
        <time>2000-01-01T09:10:45.000Z</time>
      </trkpt>
      <trkpt lat="42.78722" lon="0.58916">
        <ele>705</ele>
        <time>2000-01-01T09:10:55.000Z</time>
      </trkpt>
      <trkpt lat="42.78711" lon="0.58922">
        <ele>701.4</ele>
        <time>2000-01-01T09:11:05.000Z</time>
      </trkpt>
      <trkpt lat="42.7869" lon="0.58936">
        <ele>704</ele>
        <time>2000-01-01T09:11:15.000Z</time>
      </trkpt>
      <trkpt lat="42.78679" lon="0.58948">
        <ele>703.8</ele>
        <time>2000-01-01T09:11:25.000Z</time>
      </trkpt>
      <trkpt lat="42.78672" lon="0.58957">
        <ele>704</ele>
        <time>2000-01-01T09:11:35.000Z</time>
      </trkpt>
      <trkpt lat="42.78664" lon="0.58957">
        <ele>706.6</ele>
        <time>2000-01-01T09:11:45.000Z</time>
      </trkpt>
      <trkpt lat="42.78652" lon="0.58966">
        <ele>713</ele>
        <time>2000-01-01T09:11:55.000Z</time>
      </trkpt>
      <trkpt lat="42.78642" lon="0.58975">
        <ele>710.8</ele>
        <time>2000-01-01T09:12:05.000Z</time>
      </trkpt>
      <trkpt lat="42.78629" lon="0.58985">
        <ele>714</ele>
        <time>2000-01-01T09:12:15.000Z</time>
      </trkpt>
      <trkpt lat="42.78617" lon="0.58987">
        <ele>709.9</ele>
        <time>2000-01-01T09:12:25.000Z</time>
      </trkpt>
      <trkpt lat="42.78606" lon="0.58981">
        <ele>714</ele>
        <time>2000-01-01T09:12:35.000Z</time>
      </trkpt>
      <trkpt lat="42.7859" lon="0.58983">
        <ele>715</ele>
        <time>2000-01-01T09:12:45.000Z</time>
      </trkpt>
      <trkpt lat="42.78581" lon="0.58982">
        <ele>713</ele>
        <time>2000-01-01T09:12:55.000Z</time>
      </trkpt>
      <trkpt lat="42.78565" lon="0.5899">
        <ele>715.2</ele>
        <time>2000-01-01T09:13:05.000Z</time>
      </trkpt>
      <trkpt lat="42.78567" lon="0.59005">
        <ele>713</ele>
        <time>2000-01-01T09:13:15.000Z</time>
      </trkpt>
      <trkpt lat="42.78576" lon="0.59012">
        <ele>706.3</ele>
        <time>2000-01-01T09:13:25.000Z</time>
      </trkpt>
      <trkpt lat="42.78595" lon="0.59045">
        <ele>693</ele>
        <time>2000-01-01T09:13:35.000Z</time>
      </trkpt>
      <trkpt lat="42.78605" lon="0.5906">
        <ele>689.3</ele>
        <time>2000-01-01T09:13:45.000Z</time>
      </trkpt>
      <trkpt lat="42.78619" lon="0.59079">
        <ele>690</ele>
        <time>2000-01-01T09:13:55.000Z</time>
      </trkpt>
      <trkpt lat="42.78603" lon="0.59076">
        <ele>685.8</ele>
        <time>2000-01-01T09:14:05.000Z</time>
      </trkpt>
      <trkpt lat="42.78599" lon="0.59086">
        <ele>693</ele>
        <time>2000-01-01T09:14:15.000Z</time>
      </trkpt>
      <trkpt lat="42.78585" lon="0.59087">
        <ele>687.7</ele>
        <time>2000-01-01T09:14:25.000Z</time>
      </trkpt>
      <trkpt lat="42.78556" lon="0.59104">
        <ele>697</ele>
        <time>2000-01-01T09:14:35.000Z</time>
      </trkpt>
      <trkpt lat="42.78545" lon="0.59139">
        <ele>698</ele>
        <time>2000-01-01T09:14:45.000Z</time>
      </trkpt>
      <trkpt lat="42.78523" lon="0.59162">
        <ele>698</ele>
        <time>2000-01-01T09:14:55.000Z</time>
      </trkpt>
      <trkpt lat="42.78513" lon="0.59209">
        <ele>695</ele>
        <time>2000-01-01T09:15:05.000Z</time>
      </trkpt>
      <trkpt lat="42.78494" lon="0.59264">
        <ele>692</ele>
        <time>2000-01-01T09:15:15.000Z</time>
      </trkpt>
      <trkpt lat="42.78463" lon="0.59294">
        <ele>692</ele>
        <time>2000-01-01T09:15:25.000Z</time>
      </trkpt>
      <trkpt lat="42.7843" lon="0.59318">
        <ele>690</ele>
        <time>2000-01-01T09:15:35.000Z</time>
      </trkpt>
      <trkpt lat="42.7839" lon="0.59352">
        <ele>696</ele>
        <time>2000-01-01T09:15:45.000Z</time>
      </trkpt>
      <trkpt lat="42.78369" lon="0.59369">
        <ele>698</ele>
        <time>2000-01-01T09:15:55.000Z</time>
      </trkpt>
      <trkpt lat="42.78347" lon="0.59386">
        <ele>696</ele>
        <time>2000-01-01T09:16:05.000Z</time>
      </trkpt>
      <trkpt lat="42.78307" lon="0.59426">
        <ele>694</ele>
        <time>2000-01-01T09:16:15.000Z</time>
      </trkpt>
      <trkpt lat="42.78285" lon="0.59459">
        <ele>692</ele>
        <time>2000-01-01T09:16:25.000Z</time>
      </trkpt>
      <trkpt lat="42.78291" lon="0.59476">
        <ele>677.1</ele>
        <time>2000-01-01T09:16:35.000Z</time>
      </trkpt>
      <trkpt lat="42.78326" lon="0.59446">
        <ele>677</ele>
        <time>2000-01-01T09:16:45.000Z</time>
      </trkpt>
      <trkpt lat="42.78344" lon="0.59433">
        <ele>671</ele>
        <time>2000-01-01T09:16:55.000Z</time>
      </trkpt>
      <trkpt lat="42.78361" lon="0.59421">
        <ele>667</ele>
        <time>2000-01-01T09:17:05.000Z</time>
      </trkpt>
      <trkpt lat="42.7837" lon="0.59433">
        <ele>665</ele>
        <time>2000-01-01T09:17:15.000Z</time>
      </trkpt>
      <trkpt lat="42.78362" lon="0.59445">
        <ele>655.4</ele>
        <time>2000-01-01T09:17:25.000Z</time>
      </trkpt>
      <trkpt lat="42.78345" lon="0.59465">
        <ele>659</ele>
        <time>2000-01-01T09:17:35.000Z</time>
      </trkpt>
      <trkpt lat="42.78344" lon="0.59486">
        <ele>651.2</ele>
        <time>2000-01-01T09:17:45.000Z</time>
      </trkpt>
      <trkpt lat="42.78337" lon="0.59512">
        <ele>651</ele>
        <time>2000-01-01T09:17:55.000Z</time>
      </trkpt>
      <trkpt lat="42.78374" lon="0.59469">
        <ele>649</ele>
        <time>2000-01-01T09:18:05.000Z</time>
      </trkpt>
      <trkpt lat="42.78398" lon="0.59437">
        <ele>649</ele>
        <time>2000-01-01T09:18:15.000Z</time>
      </trkpt>
      <trkpt lat="42.78421" lon="0.59407">
        <ele>649</ele>
        <time>2000-01-01T09:18:25.000Z</time>
      </trkpt>
      <trkpt lat="42.78439" lon="0.59384">
        <ele>655</ele>
        <time>2000-01-01T09:18:35.000Z</time>
      </trkpt>
      <trkpt lat="42.78459" lon="0.59357">
        <ele>656</ele>
        <time>2000-01-01T09:18:45.000Z</time>
      </trkpt>
      <trkpt lat="42.78484" lon="0.59336">
        <ele>648</ele>
        <time>2000-01-01T09:18:55.000Z</time>
      </trkpt>
      <trkpt lat="42.78499" lon="0.59326">
        <ele>650.2</ele>
        <time>2000-01-01T09:19:05.000Z</time>
      </trkpt>
      <trkpt lat="42.78511" lon="0.5934">
        <ele>640</ele>
        <time>2000-01-01T09:19:15.000Z</time>
      </trkpt>
      <trkpt lat="42.7852" lon="0.59334">
        <ele>640.2</ele>
        <time>2000-01-01T09:19:25.000Z</time>
      </trkpt>
      <trkpt lat="42.78537" lon="0.59326">
        <ele>640</ele>
        <time>2000-01-01T09:19:35.000Z</time>
      </trkpt>
      <trkpt lat="42.7854" lon="0.5934">
        <ele>635.2</ele>
        <time>2000-01-01T09:19:45.000Z</time>
      </trkpt>
      <trkpt lat="42.78544" lon="0.59362">
        <ele>633</ele>
        <time>2000-01-01T09:19:55.000Z</time>
      </trkpt>
      <trkpt lat="42.78552" lon="0.59388">
        <ele>631</ele>
        <time>2000-01-01T09:20:05.000Z</time>
      </trkpt>
      <trkpt lat="42.78545" lon="0.59399">
        <ele>631.2</ele>
        <time>2000-01-01T09:20:15.000Z</time>
      </trkpt>
      <trkpt lat="42.78542" lon="0.59423">
        <ele>631</ele>
        <time>2000-01-01T09:20:25.000Z</time>
      </trkpt>
      <trkpt lat="42.78518" lon="0.59437">
        <ele>631</ele>
        <time>2000-01-01T09:20:35.000Z</time>
      </trkpt>
      <trkpt lat="42.78526" lon="0.59462">
        <ele>631</ele>
        <time>2000-01-01T09:20:45.000Z</time>
      </trkpt>
      <trkpt lat="42.78533" lon="0.5949">
        <ele>630</ele>
        <time>2000-01-01T09:20:55.000Z</time>
      </trkpt>
      <trkpt lat="42.78547" lon="0.5952">
        <ele>630</ele>
        <time>2000-01-01T09:21:05.000Z</time>
      </trkpt>
      <trkpt lat="42.78564" lon="0.59554">
        <ele>630</ele>
        <time>2000-01-01T09:21:15.000Z</time>
      </trkpt>
      <trkpt lat="42.78574" lon="0.59591">
        <ele>630</ele>
        <time>2000-01-01T09:21:25.000Z</time>
      </trkpt>
      <trkpt lat="42.78581" lon="0.59615">
        <ele>630</ele>
        <time>2000-01-01T09:21:35.000Z</time>
      </trkpt>
      <trkpt lat="42.78591" lon="0.59653">
        <ele>629</ele>
        <time>2000-01-01T09:21:45.000Z</time>
      </trkpt>
      <trkpt lat="42.78605" lon="0.59705">
        <ele>629</ele>
        <time>2000-01-01T09:21:55.000Z</time>
      </trkpt>
      <trkpt lat="42.78614" lon="0.59748">
        <ele>629</ele>
        <time>2000-01-01T09:22:05.000Z</time>
      </trkpt>
      <trkpt lat="42.78628" lon="0.59779">
        <ele>629</ele>
        <time>2000-01-01T09:22:15.000Z</time>
      </trkpt>
      <trkpt lat="42.78643" lon="0.59772">
        <ele>629</ele>
        <time>2000-01-01T09:22:25.000Z</time>
      </trkpt>
      <trkpt lat="42.78655" lon="0.59759">
        <ele>629</ele>
        <time>2000-01-01T09:22:35.000Z</time>
      </trkpt>
      <trkpt lat="42.7867" lon="0.59741">
        <ele>628.6</ele>
        <time>2000-01-01T09:22:45.000Z</time>
      </trkpt>
      <trkpt lat="42.78685" lon="0.59724">
        <ele>628</ele>
        <time>2000-01-01T09:22:55.000Z</time>
      </trkpt>
      <trkpt lat="42.78704" lon="0.59711">
        <ele>628</ele>
        <time>2000-01-01T09:23:05.000Z</time>
      </trkpt>
      <trkpt lat="42.78724" lon="0.59694">
        <ele>627</ele>
        <time>2000-01-01T09:23:15.000Z</time>
      </trkpt>
      <trkpt lat="42.78744" lon="0.59677">
        <ele>627</ele>
        <time>2000-01-01T09:23:25.000Z</time>
      </trkpt>
      <trkpt lat="42.7876" lon="0.59658">
        <ele>627</ele>
        <time>2000-01-01T09:23:35.000Z</time>
      </trkpt>
      <trkpt lat="42.78786" lon="0.59642">
        <ele>627</ele>
        <time>2000-01-01T09:23:45.000Z</time>
      </trkpt>
      <trkpt lat="42.788" lon="0.59621">
        <ele>627</ele>
        <time>2000-01-01T09:23:55.000Z</time>
      </trkpt>
      <trkpt lat="42.78803" lon="0.59616">
        <ele>627</ele>
        <time>2000-01-01T09:24:05.000Z</time>
      </trkpt>
    </trkseg>
  </trk>
</gpx>